<?xml version="1.0" encoding="UTF-8" standalone="no" ?>
<gpx xmlns="http://www.topografix.com/GPX/1/1" xmlns:xsi="http://www.w3.org/2001/XMLSchema-instance" xsi:schemaLocation="http://www.topografix.com/GPX/1/1 http://www.topografix.com/GPX/1/1/gpx.xsd" version="1.1" creator="VisuGPX - https://www.visugpx.com">
  <metadata>
    <name>9218431-BRM  300</name>
  </metadata>
  <wpt lat="45.81151" lon="4.60099">
    <ele>239.3</ele>
    <name><![CDATA[Contrôle St Bel]]></name>
  </wpt>
  <wpt lat="46.29017" lon="4.3019">
    <ele>371.9</ele>
    <name><![CDATA[Contrôle La Clayette]]></name>
  </wpt>
  <wpt lat="46.46922" lon="3.93929">
    <ele>234.4</ele>
    <name><![CDATA[contrôle Molinet]]></name>
  </wpt>
  <wpt lat="45.91786" lon="3.83911">
    <ele>617.7</ele>
    <name><![CDATA[Contrôle St just en Chevalet]]></name>
  </wpt>
  <wpt lat="45.73378" lon="4.22193">
    <ele>342</ele>
    <name><![CDATA[C'est gagné]]></name>
  </wpt>
  <wpt lat="45.81151" lon="4.60099">
    <ele>239.3</ele>
    <name><![CDATA[Contrôle St Bel]]></name>
  </wpt>
  <wpt lat="46.29017" lon="4.3019">
    <ele>371.9</ele>
    <name><![CDATA[Contrôle La Clayette]]></name>
  </wpt>
  <wpt lat="46.46922" lon="3.93929">
    <ele>234.4</ele>
    <name><![CDATA[contrôle Molinet]]></name>
  </wpt>
  <wpt lat="45.91786" lon="3.83911">
    <ele>617.7</ele>
    <name><![CDATA[Contrôle St just en Chevalet]]></name>
  </wpt>
  <wpt lat="45.73378" lon="4.22193">
    <ele>342</ele>
    <name><![CDATA[C'est gagné]]></name>
  </wpt>
  <wpt lat="46.24635" lon="3.77106">
    <ele>431.2</ele>
  </wpt>
  <wpt lat="45.91439" lon="3.84602">
    <ele>650.5</ele>
    <name><![CDATA[KM265]]></name>
    <type><![CDATA[commerce]]></type>
  </wpt>
  <wpt lat="46.0632" lon="4.49283">
    <ele>385.4</ele>
    <type><![CDATA[drink]]></type>
  </wpt>
  <wpt lat="46.0632" lon="4.49285">
    <ele>385.6</ele>
    <name><![CDATA[KM82]]></name>
    <type><![CDATA[drink]]></type>
  </wpt>
  <wpt lat="46.06355" lon="4.49197">
    <ele>384</ele>
    <name><![CDATA[KM82]]></name>
    <type><![CDATA[restaurant]]></type>
  </wpt>
  <wpt lat="46.29086" lon="4.30481">
    <ele>383.7</ele>
    <name><![CDATA[KM118]]></name>
    <type><![CDATA[restaurant]]></type>
  </wpt>
  <wpt lat="46.36018" lon="3.98427">
    <ele>243.1</ele>
    <name><![CDATA[KM155]]></name>
    <type><![CDATA[drink]]></type>
  </wpt>
  <wpt lat="46.35039" lon="3.79475">
    <ele>291</ele>
    <name><![CDATA[KM190]]></name>
    <type><![CDATA[restaurant]]></type>
  </wpt>
  <wpt lat="46.47056" lon="3.94208">
    <ele>232</ele>
    <name><![CDATA[KM170]]></name>
    <type><![CDATA[drink]]></type>
  </wpt>
  <wpt lat="46.05213" lon="3.92639">
    <ele>383.7</ele>
    <name><![CDATA[KM240]]></name>
    <type><![CDATA[restaurant]]></type>
  </wpt>
  <wpt lat="46.05221" lon="3.92638">
    <ele>384</ele>
  </wpt>
  <trk>
    <name><![CDATA[9218431-BRM  300]]></name>
    <extensions>
      <line xmlns="http://www.topografix.com/GPX/gpx_style/0/2">
        <color>0000FF</color>
        <width>4</width>
      </line>
    </extensions>
    <trkseg>
      <trkpt lat="45.73369" lon="4.22848">
        <ele>340</ele>
        <time>2022-04-01T07:49:19Z</time>
      </trkpt>
      <trkpt lat="45.73369" lon="4.22828">
        <ele>340</ele>
        <time>2022-04-01T07:49:21Z</time>
      </trkpt>
      <trkpt lat="45.73488" lon="4.22853">
        <ele>342</ele>
        <time>2022-04-01T07:49:43Z</time>
      </trkpt>
      <trkpt lat="45.73839" lon="4.22862">
        <ele>344</ele>
        <time>2022-04-01T07:50:45Z</time>
      </trkpt>
      <trkpt lat="45.73971" lon="4.22827">
        <ele>343</ele>
        <time>2022-04-01T07:51:09Z</time>
      </trkpt>
      <trkpt lat="45.74006" lon="4.22815">
        <ele>343</ele>
        <time>2022-04-01T07:51:16Z</time>
      </trkpt>
      <trkpt lat="45.74119" lon="4.22743">
        <ele>344</ele>
        <time>2022-04-01T07:51:38Z</time>
      </trkpt>
      <trkpt lat="45.74127" lon="4.22822">
        <ele>344</ele>
        <time>2022-04-01T07:51:48Z</time>
      </trkpt>
      <trkpt lat="45.74138" lon="4.22819">
        <ele>344</ele>
        <time>2022-04-01T07:51:50Z</time>
      </trkpt>
      <trkpt lat="45.7413" lon="4.22878">
        <ele>344</ele>
        <time>2022-04-01T07:51:57Z</time>
      </trkpt>
      <trkpt lat="45.74129" lon="4.2292">
        <ele>344</ele>
        <time>2022-04-01T07:52:02Z</time>
      </trkpt>
      <trkpt lat="45.74134" lon="4.23042">
        <ele>346</ele>
        <time>2022-04-01T07:52:17Z</time>
      </trkpt>
      <trkpt lat="45.7415" lon="4.23241">
        <ele>346</ele>
        <time>2022-04-01T07:52:42Z</time>
      </trkpt>
      <trkpt lat="45.74195" lon="4.23665">
        <ele>346</ele>
        <time>2022-04-01T07:53:36Z</time>
      </trkpt>
      <trkpt lat="45.74202" lon="4.23748">
        <ele>346</ele>
        <time>2022-04-01T07:53:46Z</time>
      </trkpt>
      <trkpt lat="45.74209" lon="4.24072">
        <ele>345</ele>
        <time>2022-04-01T07:54:26Z</time>
      </trkpt>
      <trkpt lat="45.74209" lon="4.24107">
        <ele>345</ele>
        <time>2022-04-01T07:54:31Z</time>
      </trkpt>
      <trkpt lat="45.74208" lon="4.2414">
        <ele>345</ele>
        <time>2022-04-01T07:54:35Z</time>
      </trkpt>
      <trkpt lat="45.74193" lon="4.24215">
        <ele>346</ele>
        <time>2022-04-01T07:54:44Z</time>
      </trkpt>
      <trkpt lat="45.74105" lon="4.24693">
        <ele>349</ele>
        <time>2022-04-01T07:55:46Z</time>
      </trkpt>
      <trkpt lat="45.74096" lon="4.24768">
        <ele>351</ele>
        <time>2022-04-01T07:55:55Z</time>
      </trkpt>
      <trkpt lat="45.74062" lon="4.25079">
        <ele>351</ele>
        <time>2022-04-01T07:56:34Z</time>
      </trkpt>
      <trkpt lat="45.74041" lon="4.25246">
        <ele>351</ele>
        <time>2022-04-01T07:56:55Z</time>
      </trkpt>
      <trkpt lat="45.74015" lon="4.25385">
        <ele>351</ele>
        <time>2022-04-01T07:57:13Z</time>
      </trkpt>
      <trkpt lat="45.73873" lon="4.25999">
        <ele>353</ele>
        <time>2022-04-01T07:58:33Z</time>
      </trkpt>
      <trkpt lat="45.73852" lon="4.2608">
        <ele>355</ele>
        <time>2022-04-01T07:58:44Z</time>
      </trkpt>
      <trkpt lat="45.73829" lon="4.26178">
        <ele>354</ele>
        <time>2022-04-01T07:58:57Z</time>
      </trkpt>
      <trkpt lat="45.73831" lon="4.26186">
        <ele>354</ele>
        <time>2022-04-01T07:58:58Z</time>
      </trkpt>
      <trkpt lat="45.73834" lon="4.26189">
        <ele>354</ele>
        <time>2022-04-01T07:58:59Z</time>
      </trkpt>
      <trkpt lat="45.73871" lon="4.26201">
        <ele>354</ele>
        <time>2022-04-01T07:59:06Z</time>
      </trkpt>
      <trkpt lat="45.73889" lon="4.26205">
        <ele>355</ele>
        <time>2022-04-01T07:59:09Z</time>
      </trkpt>
      <trkpt lat="45.73899" lon="4.26211">
        <ele>355</ele>
        <time>2022-04-01T07:59:11Z</time>
      </trkpt>
      <trkpt lat="45.73921" lon="4.26236">
        <ele>356</ele>
        <time>2022-04-01T07:59:16Z</time>
      </trkpt>
      <trkpt lat="45.73935" lon="4.26269">
        <ele>356</ele>
        <time>2022-04-01T07:59:20Z</time>
      </trkpt>
      <trkpt lat="45.73986" lon="4.26408">
        <ele>356</ele>
        <time>2022-04-01T07:59:40Z</time>
      </trkpt>
      <trkpt lat="45.74163" lon="4.26916">
        <ele>356</ele>
        <time>2022-04-01T08:00:50Z</time>
      </trkpt>
      <trkpt lat="45.7419" lon="4.26976">
        <ele>356</ele>
        <time>2022-04-01T08:00:59Z</time>
      </trkpt>
      <trkpt lat="45.74299" lon="4.27197">
        <ele>350</ele>
        <time>2022-04-01T08:01:33Z</time>
      </trkpt>
      <trkpt lat="45.74319" lon="4.27245">
        <ele>350</ele>
        <time>2022-04-01T08:01:40Z</time>
      </trkpt>
      <trkpt lat="45.74337" lon="4.27304">
        <ele>349</ele>
        <time>2022-04-01T08:01:48Z</time>
      </trkpt>
      <trkpt lat="45.74343" lon="4.27334">
        <ele>348</ele>
        <time>2022-04-01T08:01:52Z</time>
      </trkpt>
      <trkpt lat="45.74348" lon="4.27395">
        <ele>349</ele>
        <time>2022-04-01T08:01:59Z</time>
      </trkpt>
      <trkpt lat="45.74349" lon="4.27426">
        <ele>349</ele>
        <time>2022-04-01T08:02:03Z</time>
      </trkpt>
      <trkpt lat="45.74348" lon="4.27476">
        <ele>349</ele>
        <time>2022-04-01T08:02:09Z</time>
      </trkpt>
      <trkpt lat="45.74334" lon="4.27558">
        <ele>350</ele>
        <time>2022-04-01T08:02:20Z</time>
      </trkpt>
      <trkpt lat="45.74317" lon="4.27616">
        <ele>351</ele>
        <time>2022-04-01T08:02:28Z</time>
      </trkpt>
      <trkpt lat="45.74281" lon="4.27705">
        <ele>353</ele>
        <time>2022-04-01T08:02:41Z</time>
      </trkpt>
      <trkpt lat="45.7425" lon="4.27789">
        <ele>353</ele>
        <time>2022-04-01T08:02:52Z</time>
      </trkpt>
      <trkpt lat="45.74213" lon="4.27936">
        <ele>355</ele>
        <time>2022-04-01T08:03:12Z</time>
      </trkpt>
      <trkpt lat="45.74167" lon="4.28064">
        <ele>354</ele>
        <time>2022-04-01T08:03:30Z</time>
      </trkpt>
      <trkpt lat="45.74142" lon="4.28158">
        <ele>356</ele>
        <time>2022-04-01T08:03:42Z</time>
      </trkpt>
      <trkpt lat="45.74111" lon="4.2838">
        <ele>360</ele>
        <time>2022-04-01T08:04:10Z</time>
      </trkpt>
      <trkpt lat="45.74101" lon="4.28474">
        <ele>364</ele>
        <time>2022-04-01T08:04:22Z</time>
      </trkpt>
      <trkpt lat="45.74072" lon="4.28616">
        <ele>369</ele>
        <time>2022-04-01T08:04:40Z</time>
      </trkpt>
      <trkpt lat="45.73991" lon="4.28783">
        <ele>375</ele>
        <time>2022-04-01T08:05:06Z</time>
      </trkpt>
      <trkpt lat="45.73978" lon="4.2882">
        <ele>375</ele>
        <time>2022-04-01T08:05:11Z</time>
      </trkpt>
      <trkpt lat="45.7397" lon="4.28852">
        <ele>376</ele>
        <time>2022-04-01T08:05:15Z</time>
      </trkpt>
      <trkpt lat="45.73968" lon="4.28882">
        <ele>377</ele>
        <time>2022-04-01T08:05:19Z</time>
      </trkpt>
      <trkpt lat="45.73969" lon="4.29011">
        <ele>383</ele>
        <time>2022-04-01T08:05:35Z</time>
      </trkpt>
      <trkpt lat="45.73972" lon="4.29109">
        <ele>390</ele>
        <time>2022-04-01T08:05:47Z</time>
      </trkpt>
      <trkpt lat="45.73984" lon="4.29182">
        <ele>394</ele>
        <time>2022-04-01T08:05:56Z</time>
      </trkpt>
      <trkpt lat="45.73985" lon="4.29206">
        <ele>394</ele>
        <time>2022-04-01T08:05:59Z</time>
      </trkpt>
      <trkpt lat="45.73983" lon="4.29231">
        <ele>393</ele>
        <time>2022-04-01T08:06:02Z</time>
      </trkpt>
      <trkpt lat="45.7398" lon="4.29243">
        <ele>393</ele>
        <time>2022-04-01T08:06:04Z</time>
      </trkpt>
      <trkpt lat="45.73976" lon="4.29257">
        <ele>393</ele>
        <time>2022-04-01T08:06:06Z</time>
      </trkpt>
      <trkpt lat="45.73956" lon="4.29284">
        <ele>394</ele>
        <time>2022-04-01T08:06:11Z</time>
      </trkpt>
      <trkpt lat="45.73874" lon="4.29363">
        <ele>391</ele>
        <time>2022-04-01T08:06:28Z</time>
      </trkpt>
      <trkpt lat="45.7386" lon="4.29416">
        <ele>393</ele>
        <time>2022-04-01T08:06:35Z</time>
      </trkpt>
      <trkpt lat="45.73866" lon="4.29452">
        <ele>394</ele>
        <time>2022-04-01T08:06:40Z</time>
      </trkpt>
      <trkpt lat="45.73884" lon="4.29509">
        <ele>398</ele>
        <time>2022-04-01T08:06:48Z</time>
      </trkpt>
      <trkpt lat="45.74016" lon="4.29753">
        <ele>409</ele>
        <time>2022-04-01T08:07:26Z</time>
      </trkpt>
      <trkpt lat="45.74047" lon="4.29798">
        <ele>409</ele>
        <time>2022-04-01T08:07:34Z</time>
      </trkpt>
      <trkpt lat="45.74104" lon="4.29853">
        <ele>413</ele>
        <time>2022-04-01T08:07:46Z</time>
      </trkpt>
      <trkpt lat="45.74146" lon="4.29872">
        <ele>415</ele>
        <time>2022-04-01T08:07:54Z</time>
      </trkpt>
      <trkpt lat="45.74187" lon="4.2988">
        <ele>417</ele>
        <time>2022-04-01T08:08:01Z</time>
      </trkpt>
      <trkpt lat="45.74206" lon="4.29879">
        <ele>418</ele>
        <time>2022-04-01T08:08:05Z</time>
      </trkpt>
      <trkpt lat="45.74288" lon="4.29867">
        <ele>425</ele>
        <time>2022-04-01T08:08:19Z</time>
      </trkpt>
      <trkpt lat="45.74317" lon="4.29865">
        <ele>426</ele>
        <time>2022-04-01T08:08:25Z</time>
      </trkpt>
      <trkpt lat="45.74366" lon="4.29882">
        <ele>428</ele>
        <time>2022-04-01T08:08:34Z</time>
      </trkpt>
      <trkpt lat="45.74389" lon="4.29911">
        <ele>426</ele>
        <time>2022-04-01T08:08:39Z</time>
      </trkpt>
      <trkpt lat="45.74405" lon="4.29953">
        <ele>428</ele>
        <time>2022-04-01T08:08:45Z</time>
      </trkpt>
      <trkpt lat="45.74426" lon="4.30032">
        <ele>430</ele>
        <time>2022-04-01T08:08:55Z</time>
      </trkpt>
      <trkpt lat="45.74444" lon="4.30082">
        <ele>431</ele>
        <time>2022-04-01T08:09:02Z</time>
      </trkpt>
      <trkpt lat="45.74463" lon="4.30119">
        <ele>433</ele>
        <time>2022-04-01T08:09:08Z</time>
      </trkpt>
      <trkpt lat="45.74487" lon="4.30145">
        <ele>436</ele>
        <time>2022-04-01T08:09:13Z</time>
      </trkpt>
      <trkpt lat="45.74517" lon="4.3016">
        <ele>437</ele>
        <time>2022-04-01T08:09:19Z</time>
      </trkpt>
      <trkpt lat="45.74565" lon="4.30155">
        <ele>438</ele>
        <time>2022-04-01T08:09:28Z</time>
      </trkpt>
      <trkpt lat="45.74668" lon="4.30127">
        <ele>446</ele>
        <time>2022-04-01T08:09:46Z</time>
      </trkpt>
      <trkpt lat="45.74736" lon="4.30143">
        <ele>445</ele>
        <time>2022-04-01T08:09:59Z</time>
      </trkpt>
      <trkpt lat="45.74805" lon="4.3017">
        <ele>447</ele>
        <time>2022-04-01T08:10:11Z</time>
      </trkpt>
      <trkpt lat="45.74843" lon="4.30181">
        <ele>450</ele>
        <time>2022-04-01T08:10:18Z</time>
      </trkpt>
      <trkpt lat="45.74866" lon="4.30191">
        <ele>451</ele>
        <time>2022-04-01T08:10:22Z</time>
      </trkpt>
      <trkpt lat="45.74889" lon="4.30209">
        <ele>451</ele>
        <time>2022-04-01T08:10:27Z</time>
      </trkpt>
      <trkpt lat="45.74909" lon="4.30231">
        <ele>452</ele>
        <time>2022-04-01T08:10:32Z</time>
      </trkpt>
      <trkpt lat="45.74926" lon="4.30259">
        <ele>453</ele>
        <time>2022-04-01T08:10:36Z</time>
      </trkpt>
      <trkpt lat="45.7494" lon="4.30292">
        <ele>456</ele>
        <time>2022-04-01T08:10:41Z</time>
      </trkpt>
      <trkpt lat="45.74956" lon="4.30339">
        <ele>457</ele>
        <time>2022-04-01T08:10:48Z</time>
      </trkpt>
      <trkpt lat="45.74966" lon="4.30357">
        <ele>458</ele>
        <time>2022-04-01T08:10:50Z</time>
      </trkpt>
      <trkpt lat="45.75032" lon="4.30432">
        <ele>460</ele>
        <time>2022-04-01T08:11:05Z</time>
      </trkpt>
      <trkpt lat="45.75048" lon="4.30461">
        <ele>460</ele>
        <time>2022-04-01T08:11:10Z</time>
      </trkpt>
      <trkpt lat="45.75058" lon="4.3049">
        <ele>459</ele>
        <time>2022-04-01T08:11:14Z</time>
      </trkpt>
      <trkpt lat="45.75087" lon="4.30593">
        <ele>459</ele>
        <time>2022-04-01T08:11:28Z</time>
      </trkpt>
      <trkpt lat="45.75128" lon="4.30748">
        <ele>460</ele>
        <time>2022-04-01T08:11:48Z</time>
      </trkpt>
      <trkpt lat="45.75123" lon="4.30759">
        <ele>459</ele>
        <time>2022-04-01T08:11:50Z</time>
      </trkpt>
      <trkpt lat="45.7512" lon="4.30774">
        <ele>458</ele>
        <time>2022-04-01T08:11:52Z</time>
      </trkpt>
      <trkpt lat="45.7514" lon="4.30894">
        <ele>458</ele>
        <time>2022-04-01T08:12:07Z</time>
      </trkpt>
      <trkpt lat="45.75142" lon="4.30941">
        <ele>459</ele>
        <time>2022-04-01T08:12:13Z</time>
      </trkpt>
      <trkpt lat="45.75137" lon="4.30987">
        <ele>459</ele>
        <time>2022-04-01T08:12:19Z</time>
      </trkpt>
      <trkpt lat="45.75139" lon="4.31018">
        <ele>459</ele>
        <time>2022-04-01T08:12:23Z</time>
      </trkpt>
      <trkpt lat="45.75144" lon="4.31049">
        <ele>459</ele>
        <time>2022-04-01T08:12:27Z</time>
      </trkpt>
      <trkpt lat="45.75169" lon="4.31103">
        <ele>459</ele>
        <time>2022-04-01T08:12:35Z</time>
      </trkpt>
      <trkpt lat="45.75206" lon="4.31138">
        <ele>460</ele>
        <time>2022-04-01T08:12:43Z</time>
      </trkpt>
      <trkpt lat="45.75256" lon="4.31171">
        <ele>461</ele>
        <time>2022-04-01T08:12:52Z</time>
      </trkpt>
      <trkpt lat="45.75291" lon="4.31217">
        <ele>458</ele>
        <time>2022-04-01T08:13:01Z</time>
      </trkpt>
      <trkpt lat="45.75311" lon="4.31269">
        <ele>454</ele>
        <time>2022-04-01T08:13:08Z</time>
      </trkpt>
      <trkpt lat="45.75329" lon="4.31323">
        <ele>454</ele>
        <time>2022-04-01T08:13:16Z</time>
      </trkpt>
      <trkpt lat="45.75371" lon="4.31423">
        <ele>455</ele>
        <time>2022-04-01T08:13:30Z</time>
      </trkpt>
      <trkpt lat="45.75394" lon="4.31574">
        <ele>459</ele>
        <time>2022-04-01T08:13:49Z</time>
      </trkpt>
      <trkpt lat="45.75435" lon="4.3165">
        <ele>463</ele>
        <time>2022-04-01T08:14:01Z</time>
      </trkpt>
      <trkpt lat="45.75442" lon="4.31698">
        <ele>467</ele>
        <time>2022-04-01T08:14:07Z</time>
      </trkpt>
      <trkpt lat="45.75416" lon="4.31819">
        <ele>468</ele>
        <time>2022-04-01T08:14:23Z</time>
      </trkpt>
      <trkpt lat="45.75406" lon="4.31889">
        <ele>470</ele>
        <time>2022-04-01T08:14:32Z</time>
      </trkpt>
      <trkpt lat="45.75411" lon="4.31971">
        <ele>472</ele>
        <time>2022-04-01T08:14:42Z</time>
      </trkpt>
      <trkpt lat="45.75444" lon="4.32126">
        <ele>472</ele>
        <time>2022-04-01T08:15:02Z</time>
      </trkpt>
      <trkpt lat="45.75443" lon="4.32247">
        <ele>471</ele>
        <time>2022-04-01T08:15:17Z</time>
      </trkpt>
      <trkpt lat="45.75432" lon="4.32329">
        <ele>472</ele>
        <time>2022-04-01T08:15:28Z</time>
      </trkpt>
      <trkpt lat="45.75417" lon="4.32377">
        <ele>470</ele>
        <time>2022-04-01T08:15:34Z</time>
      </trkpt>
      <trkpt lat="45.75406" lon="4.32544">
        <ele>466</ele>
        <time>2022-04-01T08:15:55Z</time>
      </trkpt>
      <trkpt lat="45.75384" lon="4.32676">
        <ele>469</ele>
        <time>2022-04-01T08:16:12Z</time>
      </trkpt>
      <trkpt lat="45.75362" lon="4.3287">
        <ele>466</ele>
        <time>2022-04-01T08:16:36Z</time>
      </trkpt>
      <trkpt lat="45.75362" lon="4.32887">
        <ele>466</ele>
        <time>2022-04-01T08:16:38Z</time>
      </trkpt>
      <trkpt lat="45.75363" lon="4.32902">
        <ele>466</ele>
        <time>2022-04-01T08:16:40Z</time>
      </trkpt>
      <trkpt lat="45.75414" lon="4.33082">
        <ele>467</ele>
        <time>2022-04-01T08:17:04Z</time>
      </trkpt>
      <trkpt lat="45.75438" lon="4.33262">
        <ele>467</ele>
        <time>2022-04-01T08:17:27Z</time>
      </trkpt>
      <trkpt lat="45.75454" lon="4.33317">
        <ele>469</ele>
        <time>2022-04-01T08:17:35Z</time>
      </trkpt>
      <trkpt lat="45.755" lon="4.33392">
        <ele>471</ele>
        <time>2022-04-01T08:17:47Z</time>
      </trkpt>
      <trkpt lat="45.75552" lon="4.33469">
        <ele>473</ele>
        <time>2022-04-01T08:18:00Z</time>
      </trkpt>
      <trkpt lat="45.75588" lon="4.33585">
        <ele>472</ele>
        <time>2022-04-01T08:18:16Z</time>
      </trkpt>
      <trkpt lat="45.756" lon="4.33643">
        <ele>470</ele>
        <time>2022-04-01T08:18:23Z</time>
      </trkpt>
      <trkpt lat="45.75625" lon="4.337">
        <ele>470</ele>
        <time>2022-04-01T08:18:32Z</time>
      </trkpt>
      <trkpt lat="45.75691" lon="4.33803">
        <ele>472</ele>
        <time>2022-04-01T08:18:49Z</time>
      </trkpt>
      <trkpt lat="45.75865" lon="4.34061">
        <ele>475</ele>
        <time>2022-04-01T08:19:34Z</time>
      </trkpt>
      <trkpt lat="45.76052" lon="4.34228">
        <ele>473</ele>
        <time>2022-04-01T08:20:13Z</time>
      </trkpt>
      <trkpt lat="45.76138" lon="4.3432">
        <ele>474</ele>
        <time>2022-04-01T08:20:32Z</time>
      </trkpt>
      <trkpt lat="45.76169" lon="4.34374">
        <ele>474</ele>
        <time>2022-04-01T08:20:41Z</time>
      </trkpt>
      <trkpt lat="45.76213" lon="4.34462">
        <ele>474</ele>
        <time>2022-04-01T08:20:54Z</time>
      </trkpt>
      <trkpt lat="45.76257" lon="4.34566">
        <ele>474</ele>
        <time>2022-04-01T08:21:09Z</time>
      </trkpt>
      <trkpt lat="45.76284" lon="4.3461">
        <ele>477</ele>
        <time>2022-04-01T08:21:17Z</time>
      </trkpt>
      <trkpt lat="45.76365" lon="4.34699">
        <ele>477</ele>
        <time>2022-04-01T08:21:35Z</time>
      </trkpt>
      <trkpt lat="45.76403" lon="4.34745">
        <ele>474</ele>
        <time>2022-04-01T08:21:44Z</time>
      </trkpt>
      <trkpt lat="45.76433" lon="4.34791">
        <ele>475</ele>
        <time>2022-04-01T08:21:51Z</time>
      </trkpt>
      <trkpt lat="45.76444" lon="4.34812">
        <ele>475</ele>
        <time>2022-04-01T08:21:55Z</time>
      </trkpt>
      <trkpt lat="45.76449" lon="4.34838">
        <ele>474</ele>
        <time>2022-04-01T08:21:58Z</time>
      </trkpt>
      <trkpt lat="45.7646" lon="4.34913">
        <ele>474</ele>
        <time>2022-04-01T08:22:07Z</time>
      </trkpt>
      <trkpt lat="45.76465" lon="4.3496">
        <ele>476</ele>
        <time>2022-04-01T08:22:13Z</time>
      </trkpt>
      <trkpt lat="45.76467" lon="4.34978">
        <ele>477</ele>
        <time>2022-04-01T08:22:16Z</time>
      </trkpt>
      <trkpt lat="45.76487" lon="4.35187">
        <ele>479</ele>
        <time>2022-04-01T08:22:42Z</time>
      </trkpt>
      <trkpt lat="45.76488" lon="4.35286">
        <ele>481</ele>
        <time>2022-04-01T08:22:54Z</time>
      </trkpt>
      <trkpt lat="45.76476" lon="4.35443">
        <ele>488</ele>
        <time>2022-04-01T08:23:14Z</time>
      </trkpt>
      <trkpt lat="45.76471" lon="4.35563">
        <ele>493</ele>
        <time>2022-04-01T08:23:29Z</time>
      </trkpt>
      <trkpt lat="45.76475" lon="4.35626">
        <ele>499</ele>
        <time>2022-04-01T08:23:36Z</time>
      </trkpt>
      <trkpt lat="45.76503" lon="4.35744">
        <ele>503</ele>
        <time>2022-04-01T08:23:52Z</time>
      </trkpt>
      <trkpt lat="45.76529" lon="4.35885">
        <ele>506</ele>
        <time>2022-04-01T08:24:10Z</time>
      </trkpt>
      <trkpt lat="45.76535" lon="4.36009">
        <ele>506</ele>
        <time>2022-04-01T08:24:25Z</time>
      </trkpt>
      <trkpt lat="45.76547" lon="4.36054">
        <ele>506</ele>
        <time>2022-04-01T08:24:31Z</time>
      </trkpt>
      <trkpt lat="45.76655" lon="4.36321">
        <ele>504</ele>
        <time>2022-04-01T08:25:10Z</time>
      </trkpt>
      <trkpt lat="45.76783" lon="4.36458">
        <ele>509</ele>
        <time>2022-04-01T08:25:38Z</time>
      </trkpt>
      <trkpt lat="45.76834" lon="4.36521">
        <ele>507</ele>
        <time>2022-04-01T08:25:50Z</time>
      </trkpt>
      <trkpt lat="45.76864" lon="4.36581">
        <ele>511</ele>
        <time>2022-04-01T08:25:59Z</time>
      </trkpt>
      <trkpt lat="45.76889" lon="4.36644">
        <ele>513</ele>
        <time>2022-04-01T08:26:08Z</time>
      </trkpt>
      <trkpt lat="45.76891" lon="4.36666">
        <ele>513</ele>
        <time>2022-04-01T08:26:11Z</time>
      </trkpt>
      <trkpt lat="45.76885" lon="4.36738">
        <ele>511</ele>
        <time>2022-04-01T08:26:20Z</time>
      </trkpt>
      <trkpt lat="45.76885" lon="4.36761">
        <ele>511</ele>
        <time>2022-04-01T08:26:23Z</time>
      </trkpt>
      <trkpt lat="45.76889" lon="4.36781">
        <ele>511</ele>
        <time>2022-04-01T08:26:26Z</time>
      </trkpt>
      <trkpt lat="45.76895" lon="4.36799">
        <ele>510</ele>
        <time>2022-04-01T08:26:28Z</time>
      </trkpt>
      <trkpt lat="45.76903" lon="4.36812">
        <ele>510</ele>
        <time>2022-04-01T08:26:30Z</time>
      </trkpt>
      <trkpt lat="45.76912" lon="4.36823">
        <ele>510</ele>
        <time>2022-04-01T08:26:32Z</time>
      </trkpt>
      <trkpt lat="45.76944" lon="4.3684">
        <ele>511</ele>
        <time>2022-04-01T08:26:38Z</time>
      </trkpt>
      <trkpt lat="45.76993" lon="4.36854">
        <ele>512</ele>
        <time>2022-04-01T08:26:47Z</time>
      </trkpt>
      <trkpt lat="45.77009" lon="4.36862">
        <ele>513</ele>
        <time>2022-04-01T08:26:50Z</time>
      </trkpt>
      <trkpt lat="45.77016" lon="4.36868">
        <ele>513</ele>
        <time>2022-04-01T08:26:52Z</time>
      </trkpt>
      <trkpt lat="45.77055" lon="4.36906">
        <ele>515</ele>
        <time>2022-04-01T08:27:00Z</time>
      </trkpt>
      <trkpt lat="45.77089" lon="4.36941">
        <ele>516</ele>
        <time>2022-04-01T08:27:08Z</time>
      </trkpt>
      <trkpt lat="45.7713" lon="4.36996">
        <ele>518</ele>
        <time>2022-04-01T08:27:18Z</time>
      </trkpt>
      <trkpt lat="45.77153" lon="4.37024">
        <ele>519</ele>
        <time>2022-04-01T08:27:23Z</time>
      </trkpt>
      <trkpt lat="45.77172" lon="4.37051">
        <ele>520</ele>
        <time>2022-04-01T08:27:28Z</time>
      </trkpt>
      <trkpt lat="45.77183" lon="4.37075">
        <ele>520</ele>
        <time>2022-04-01T08:27:31Z</time>
      </trkpt>
      <trkpt lat="45.77193" lon="4.37104">
        <ele>522</ele>
        <time>2022-04-01T08:27:35Z</time>
      </trkpt>
      <trkpt lat="45.77209" lon="4.37242">
        <ele>522</ele>
        <time>2022-04-01T08:27:53Z</time>
      </trkpt>
      <trkpt lat="45.77214" lon="4.37259">
        <ele>522</ele>
        <time>2022-04-01T08:27:55Z</time>
      </trkpt>
      <trkpt lat="45.77235" lon="4.37312">
        <ele>522</ele>
        <time>2022-04-01T08:28:02Z</time>
      </trkpt>
      <trkpt lat="45.77238" lon="4.37325">
        <ele>521</ele>
        <time>2022-04-01T08:28:04Z</time>
      </trkpt>
      <trkpt lat="45.77239" lon="4.37343">
        <ele>521</ele>
        <time>2022-04-01T08:28:06Z</time>
      </trkpt>
      <trkpt lat="45.7723" lon="4.3738">
        <ele>522</ele>
        <time>2022-04-01T08:28:11Z</time>
      </trkpt>
      <trkpt lat="45.77238" lon="4.37421">
        <ele>523</ele>
        <time>2022-04-01T08:28:17Z</time>
      </trkpt>
      <trkpt lat="45.77244" lon="4.37504">
        <ele>522</ele>
        <time>2022-04-01T08:28:27Z</time>
      </trkpt>
      <trkpt lat="45.77262" lon="4.37655">
        <ele>524</ele>
        <time>2022-04-01T08:28:46Z</time>
      </trkpt>
      <trkpt lat="45.77267" lon="4.3767">
        <ele>524</ele>
        <time>2022-04-01T08:28:48Z</time>
      </trkpt>
      <trkpt lat="45.77277" lon="4.37722">
        <ele>526</ele>
        <time>2022-04-01T08:28:55Z</time>
      </trkpt>
      <trkpt lat="45.77289" lon="4.37767">
        <ele>527</ele>
        <time>2022-04-01T08:29:01Z</time>
      </trkpt>
      <trkpt lat="45.77325" lon="4.37871">
        <ele>527</ele>
        <time>2022-04-01T08:29:15Z</time>
      </trkpt>
      <trkpt lat="45.77339" lon="4.38003">
        <ele>530</ele>
        <time>2022-04-01T08:29:32Z</time>
      </trkpt>
      <trkpt lat="45.7735" lon="4.38071">
        <ele>534</ele>
        <time>2022-04-01T08:29:40Z</time>
      </trkpt>
      <trkpt lat="45.77376" lon="4.38202">
        <ele>537</ele>
        <time>2022-04-01T08:29:57Z</time>
      </trkpt>
      <trkpt lat="45.77382" lon="4.38225">
        <ele>537</ele>
        <time>2022-04-01T08:30:00Z</time>
      </trkpt>
      <trkpt lat="45.774" lon="4.38269">
        <ele>536</ele>
        <time>2022-04-01T08:30:07Z</time>
      </trkpt>
      <trkpt lat="45.7742" lon="4.38304">
        <ele>537</ele>
        <time>2022-04-01T08:30:12Z</time>
      </trkpt>
      <trkpt lat="45.77446" lon="4.38338">
        <ele>537</ele>
        <time>2022-04-01T08:30:18Z</time>
      </trkpt>
      <trkpt lat="45.77473" lon="4.38368">
        <ele>536</ele>
        <time>2022-04-01T08:30:25Z</time>
      </trkpt>
      <trkpt lat="45.77493" lon="4.38383">
        <ele>534</ele>
        <time>2022-04-01T08:30:29Z</time>
      </trkpt>
      <trkpt lat="45.77527" lon="4.38402">
        <ele>536</ele>
        <time>2022-04-01T08:30:35Z</time>
      </trkpt>
      <trkpt lat="45.77539" lon="4.38412">
        <ele>537</ele>
        <time>2022-04-01T08:30:37Z</time>
      </trkpt>
      <trkpt lat="45.77626" lon="4.38502">
        <ele>541</ele>
        <time>2022-04-01T08:30:57Z</time>
      </trkpt>
      <trkpt lat="45.77643" lon="4.38524">
        <ele>542</ele>
        <time>2022-04-01T08:31:01Z</time>
      </trkpt>
      <trkpt lat="45.77663" lon="4.3857">
        <ele>542</ele>
        <time>2022-04-01T08:31:07Z</time>
      </trkpt>
      <trkpt lat="45.77731" lon="4.38751">
        <ele>540</ele>
        <time>2022-04-01T08:31:33Z</time>
      </trkpt>
      <trkpt lat="45.77742" lon="4.38775">
        <ele>540</ele>
        <time>2022-04-01T08:31:36Z</time>
      </trkpt>
      <trkpt lat="45.77775" lon="4.38819">
        <ele>543</ele>
        <time>2022-04-01T08:31:44Z</time>
      </trkpt>
      <trkpt lat="45.77787" lon="4.38839">
        <ele>544</ele>
        <time>2022-04-01T08:31:48Z</time>
      </trkpt>
      <trkpt lat="45.77842" lon="4.38957">
        <ele>544</ele>
        <time>2022-04-01T08:32:05Z</time>
      </trkpt>
      <trkpt lat="45.77862" lon="4.38995">
        <ele>545</ele>
        <time>2022-04-01T08:32:11Z</time>
      </trkpt>
      <trkpt lat="45.77884" lon="4.39026">
        <ele>546</ele>
        <time>2022-04-01T08:32:17Z</time>
      </trkpt>
      <trkpt lat="45.77914" lon="4.39059">
        <ele>545</ele>
        <time>2022-04-01T08:32:23Z</time>
      </trkpt>
      <trkpt lat="45.77939" lon="4.39078">
        <ele>545</ele>
        <time>2022-04-01T08:32:29Z</time>
      </trkpt>
      <trkpt lat="45.77972" lon="4.39092">
        <ele>547</ele>
        <time>2022-04-01T08:32:35Z</time>
      </trkpt>
      <trkpt lat="45.78031" lon="4.39106">
        <ele>551</ele>
        <time>2022-04-01T08:32:45Z</time>
      </trkpt>
      <trkpt lat="45.78044" lon="4.39117">
        <ele>552</ele>
        <time>2022-04-01T08:32:48Z</time>
      </trkpt>
      <trkpt lat="45.78056" lon="4.39133">
        <ele>553</ele>
        <time>2022-04-01T08:32:51Z</time>
      </trkpt>
      <trkpt lat="45.78105" lon="4.39216">
        <ele>554</ele>
        <time>2022-04-01T08:33:04Z</time>
      </trkpt>
      <trkpt lat="45.7812" lon="4.39235">
        <ele>554</ele>
        <time>2022-04-01T08:33:08Z</time>
      </trkpt>
      <trkpt lat="45.78134" lon="4.39246">
        <ele>553</ele>
        <time>2022-04-01T08:33:11Z</time>
      </trkpt>
      <trkpt lat="45.78145" lon="4.3925">
        <ele>553</ele>
        <time>2022-04-01T08:33:13Z</time>
      </trkpt>
      <trkpt lat="45.78159" lon="4.3925">
        <ele>553</ele>
        <time>2022-04-01T08:33:15Z</time>
      </trkpt>
      <trkpt lat="45.78189" lon="4.39245">
        <ele>554</ele>
        <time>2022-04-01T08:33:21Z</time>
      </trkpt>
      <trkpt lat="45.78227" lon="4.39246">
        <ele>554</ele>
        <time>2022-04-01T08:33:27Z</time>
      </trkpt>
      <trkpt lat="45.78242" lon="4.39244">
        <ele>555</ele>
        <time>2022-04-01T08:33:30Z</time>
      </trkpt>
      <trkpt lat="45.78285" lon="4.39233">
        <ele>558</ele>
        <time>2022-04-01T08:33:38Z</time>
      </trkpt>
      <trkpt lat="45.78301" lon="4.39234">
        <ele>559</ele>
        <time>2022-04-01T08:33:41Z</time>
      </trkpt>
      <trkpt lat="45.78313" lon="4.39238">
        <ele>559</ele>
        <time>2022-04-01T08:33:43Z</time>
      </trkpt>
      <trkpt lat="45.78328" lon="4.39246">
        <ele>559</ele>
        <time>2022-04-01T08:33:46Z</time>
      </trkpt>
      <trkpt lat="45.78361" lon="4.39272">
        <ele>562</ele>
        <time>2022-04-01T08:33:52Z</time>
      </trkpt>
      <trkpt lat="45.78465" lon="4.39366">
        <ele>561</ele>
        <time>2022-04-01T08:34:14Z</time>
      </trkpt>
      <trkpt lat="45.78479" lon="4.39374">
        <ele>561</ele>
        <time>2022-04-01T08:34:17Z</time>
      </trkpt>
      <trkpt lat="45.78496" lon="4.39378">
        <ele>561</ele>
        <time>2022-04-01T08:34:20Z</time>
      </trkpt>
      <trkpt lat="45.78517" lon="4.39379">
        <ele>562</ele>
        <time>2022-04-01T08:34:24Z</time>
      </trkpt>
      <trkpt lat="45.78535" lon="4.39383">
        <ele>563</ele>
        <time>2022-04-01T08:34:27Z</time>
      </trkpt>
      <trkpt lat="45.78557" lon="4.39394">
        <ele>564</ele>
        <time>2022-04-01T08:34:31Z</time>
      </trkpt>
      <trkpt lat="45.7858" lon="4.39408">
        <ele>564</ele>
        <time>2022-04-01T08:34:36Z</time>
      </trkpt>
      <trkpt lat="45.7859" lon="4.39417">
        <ele>563</ele>
        <time>2022-04-01T08:34:38Z</time>
      </trkpt>
      <trkpt lat="45.78605" lon="4.39441">
        <ele>564</ele>
        <time>2022-04-01T08:34:42Z</time>
      </trkpt>
      <trkpt lat="45.78637" lon="4.39504">
        <ele>563</ele>
        <time>2022-04-01T08:34:51Z</time>
      </trkpt>
      <trkpt lat="45.78643" lon="4.39522">
        <ele>564</ele>
        <time>2022-04-01T08:34:54Z</time>
      </trkpt>
      <trkpt lat="45.78648" lon="4.39556">
        <ele>564</ele>
        <time>2022-04-01T08:34:58Z</time>
      </trkpt>
      <trkpt lat="45.78649" lon="4.39569">
        <ele>565</ele>
        <time>2022-04-01T08:35:00Z</time>
      </trkpt>
      <trkpt lat="45.78651" lon="4.39579">
        <ele>565</ele>
        <time>2022-04-01T08:35:01Z</time>
      </trkpt>
      <trkpt lat="45.78655" lon="4.39597">
        <ele>567</ele>
        <time>2022-04-01T08:35:03Z</time>
      </trkpt>
      <trkpt lat="45.78662" lon="4.39611">
        <ele>568</ele>
        <time>2022-04-01T08:35:06Z</time>
      </trkpt>
      <trkpt lat="45.7867" lon="4.39619">
        <ele>569</ele>
        <time>2022-04-01T08:35:07Z</time>
      </trkpt>
      <trkpt lat="45.78685" lon="4.39627">
        <ele>570</ele>
        <time>2022-04-01T08:35:10Z</time>
      </trkpt>
      <trkpt lat="45.78791" lon="4.39653">
        <ele>573</ele>
        <time>2022-04-01T08:35:29Z</time>
      </trkpt>
      <trkpt lat="45.78806" lon="4.3966">
        <ele>574</ele>
        <time>2022-04-01T08:35:32Z</time>
      </trkpt>
      <trkpt lat="45.78821" lon="4.39671">
        <ele>575</ele>
        <time>2022-04-01T08:35:35Z</time>
      </trkpt>
      <trkpt lat="45.78897" lon="4.39743">
        <ele>578</ele>
        <time>2022-04-01T08:35:51Z</time>
      </trkpt>
      <trkpt lat="45.78933" lon="4.3979">
        <ele>581</ele>
        <time>2022-04-01T08:36:00Z</time>
      </trkpt>
      <trkpt lat="45.7895" lon="4.39823">
        <ele>584</ele>
        <time>2022-04-01T08:36:05Z</time>
      </trkpt>
      <trkpt lat="45.78963" lon="4.39853">
        <ele>587</ele>
        <time>2022-04-01T08:36:09Z</time>
      </trkpt>
      <trkpt lat="45.78971" lon="4.39866">
        <ele>588</ele>
        <time>2022-04-01T08:36:12Z</time>
      </trkpt>
      <trkpt lat="45.7898" lon="4.39876">
        <ele>588</ele>
        <time>2022-04-01T08:36:14Z</time>
      </trkpt>
      <trkpt lat="45.79" lon="4.39891">
        <ele>587</ele>
        <time>2022-04-01T08:36:18Z</time>
      </trkpt>
      <trkpt lat="45.79013" lon="4.39904">
        <ele>588</ele>
        <time>2022-04-01T08:36:20Z</time>
      </trkpt>
      <trkpt lat="45.79029" lon="4.39926">
        <ele>590</ele>
        <time>2022-04-01T08:36:24Z</time>
      </trkpt>
      <trkpt lat="45.79041" lon="4.39938">
        <ele>591</ele>
        <time>2022-04-01T08:36:27Z</time>
      </trkpt>
      <trkpt lat="45.79053" lon="4.39944">
        <ele>591</ele>
        <time>2022-04-01T08:36:29Z</time>
      </trkpt>
      <trkpt lat="45.79084" lon="4.39954">
        <ele>591</ele>
        <time>2022-04-01T08:36:35Z</time>
      </trkpt>
      <trkpt lat="45.79103" lon="4.3997">
        <ele>593</ele>
        <time>2022-04-01T08:36:39Z</time>
      </trkpt>
      <trkpt lat="45.79111" lon="4.39984">
        <ele>595</ele>
        <time>2022-04-01T08:36:41Z</time>
      </trkpt>
      <trkpt lat="45.79137" lon="4.40047">
        <ele>603</ele>
        <time>2022-04-01T08:36:50Z</time>
      </trkpt>
      <trkpt lat="45.79149" lon="4.40068">
        <ele>605</ele>
        <time>2022-04-01T08:36:54Z</time>
      </trkpt>
      <trkpt lat="45.79161" lon="4.40081">
        <ele>605</ele>
        <time>2022-04-01T08:36:56Z</time>
      </trkpt>
      <trkpt lat="45.79183" lon="4.40101">
        <ele>605</ele>
        <time>2022-04-01T08:37:01Z</time>
      </trkpt>
      <trkpt lat="45.79198" lon="4.40117">
        <ele>606</ele>
        <time>2022-04-01T08:37:04Z</time>
      </trkpt>
      <trkpt lat="45.79205" lon="4.40127">
        <ele>606</ele>
        <time>2022-04-01T08:37:06Z</time>
      </trkpt>
      <trkpt lat="45.79209" lon="4.40139">
        <ele>608</ele>
        <time>2022-04-01T08:37:08Z</time>
      </trkpt>
      <trkpt lat="45.79219" lon="4.40184">
        <ele>612</ele>
        <time>2022-04-01T08:37:13Z</time>
      </trkpt>
      <trkpt lat="45.79225" lon="4.402">
        <ele>612</ele>
        <time>2022-04-01T08:37:16Z</time>
      </trkpt>
      <trkpt lat="45.79246" lon="4.40225">
        <ele>609</ele>
        <time>2022-04-01T08:37:21Z</time>
      </trkpt>
      <trkpt lat="45.79275" lon="4.40248">
        <ele>608</ele>
        <time>2022-04-01T08:37:26Z</time>
      </trkpt>
      <trkpt lat="45.79282" lon="4.40258">
        <ele>608</ele>
        <time>2022-04-01T08:37:28Z</time>
      </trkpt>
      <trkpt lat="45.79286" lon="4.40269">
        <ele>608</ele>
        <time>2022-04-01T08:37:30Z</time>
      </trkpt>
      <trkpt lat="45.79288" lon="4.40282">
        <ele>609</ele>
        <time>2022-04-01T08:37:31Z</time>
      </trkpt>
      <trkpt lat="45.79288" lon="4.40295">
        <ele>610</ele>
        <time>2022-04-01T08:37:33Z</time>
      </trkpt>
      <trkpt lat="45.79284" lon="4.40313">
        <ele>613</ele>
        <time>2022-04-01T08:37:35Z</time>
      </trkpt>
      <trkpt lat="45.79271" lon="4.4035">
        <ele>618</ele>
        <time>2022-04-01T08:37:41Z</time>
      </trkpt>
      <trkpt lat="45.79255" lon="4.40408">
        <ele>622</ele>
        <time>2022-04-01T08:37:48Z</time>
      </trkpt>
      <trkpt lat="45.79238" lon="4.40452">
        <ele>623</ele>
        <time>2022-04-01T08:37:55Z</time>
      </trkpt>
      <trkpt lat="45.79221" lon="4.40486">
        <ele>624</ele>
        <time>2022-04-01T08:38:00Z</time>
      </trkpt>
      <trkpt lat="45.79194" lon="4.4052">
        <ele>629</ele>
        <time>2022-04-01T08:38:06Z</time>
      </trkpt>
      <trkpt lat="45.79171" lon="4.40559">
        <ele>628</ele>
        <time>2022-04-01T08:38:12Z</time>
      </trkpt>
      <trkpt lat="45.79099" lon="4.40755">
        <ele>629</ele>
        <time>2022-04-01T08:38:40Z</time>
      </trkpt>
      <trkpt lat="45.79087" lon="4.40774">
        <ele>631</ele>
        <time>2022-04-01T08:38:43Z</time>
      </trkpt>
      <trkpt lat="45.79077" lon="4.40785">
        <ele>631</ele>
        <time>2022-04-01T08:38:45Z</time>
      </trkpt>
      <trkpt lat="45.79007" lon="4.40833">
        <ele>633</ele>
        <time>2022-04-01T08:38:59Z</time>
      </trkpt>
      <trkpt lat="45.78998" lon="4.40845">
        <ele>634</ele>
        <time>2022-04-01T08:39:01Z</time>
      </trkpt>
      <trkpt lat="45.78994" lon="4.40859">
        <ele>635</ele>
        <time>2022-04-01T08:39:03Z</time>
      </trkpt>
      <trkpt lat="45.78996" lon="4.40871">
        <ele>635</ele>
        <time>2022-04-01T08:39:05Z</time>
      </trkpt>
      <trkpt lat="45.79" lon="4.40882">
        <ele>635</ele>
        <time>2022-04-01T08:39:06Z</time>
      </trkpt>
      <trkpt lat="45.79007" lon="4.4089">
        <ele>635</ele>
        <time>2022-04-01T08:39:08Z</time>
      </trkpt>
      <trkpt lat="45.79092" lon="4.40939">
        <ele>635</ele>
        <time>2022-04-01T08:39:24Z</time>
      </trkpt>
      <trkpt lat="45.79117" lon="4.40958">
        <ele>635</ele>
        <time>2022-04-01T08:39:29Z</time>
      </trkpt>
      <trkpt lat="45.79133" lon="4.40974">
        <ele>636</ele>
        <time>2022-04-01T08:39:33Z</time>
      </trkpt>
      <trkpt lat="45.79143" lon="4.40992">
        <ele>638</ele>
        <time>2022-04-01T08:39:36Z</time>
      </trkpt>
      <trkpt lat="45.79147" lon="4.41008">
        <ele>639</ele>
        <time>2022-04-01T08:39:38Z</time>
      </trkpt>
      <trkpt lat="45.7915" lon="4.41029">
        <ele>640</ele>
        <time>2022-04-01T08:39:40Z</time>
      </trkpt>
      <trkpt lat="45.79145" lon="4.41056">
        <ele>641</ele>
        <time>2022-04-01T08:39:44Z</time>
      </trkpt>
      <trkpt lat="45.79133" lon="4.41083">
        <ele>645</ele>
        <time>2022-04-01T08:39:48Z</time>
      </trkpt>
      <trkpt lat="45.79118" lon="4.41101">
        <ele>645</ele>
        <time>2022-04-01T08:39:51Z</time>
      </trkpt>
      <trkpt lat="45.79095" lon="4.41113">
        <ele>648</ele>
        <time>2022-04-01T08:39:56Z</time>
      </trkpt>
      <trkpt lat="45.7904" lon="4.41133">
        <ele>651</ele>
        <time>2022-04-01T08:40:06Z</time>
      </trkpt>
      <trkpt lat="45.79023" lon="4.41144">
        <ele>652</ele>
        <time>2022-04-01T08:40:09Z</time>
      </trkpt>
      <trkpt lat="45.78982" lon="4.41185">
        <ele>654</ele>
        <time>2022-04-01T08:40:18Z</time>
      </trkpt>
      <trkpt lat="45.78936" lon="4.41226">
        <ele>658</ele>
        <time>2022-04-01T08:40:28Z</time>
      </trkpt>
      <trkpt lat="45.78915" lon="4.41248">
        <ele>660</ele>
        <time>2022-04-01T08:40:32Z</time>
      </trkpt>
      <trkpt lat="45.78907" lon="4.41265">
        <ele>661</ele>
        <time>2022-04-01T08:40:35Z</time>
      </trkpt>
      <trkpt lat="45.78904" lon="4.41275">
        <ele>661</ele>
        <time>2022-04-01T08:40:36Z</time>
      </trkpt>
      <trkpt lat="45.78903" lon="4.41289">
        <ele>661</ele>
        <time>2022-04-01T08:40:38Z</time>
      </trkpt>
      <trkpt lat="45.78906" lon="4.41306">
        <ele>660</ele>
        <time>2022-04-01T08:40:40Z</time>
      </trkpt>
      <trkpt lat="45.78911" lon="4.41322">
        <ele>659</ele>
        <time>2022-04-01T08:40:42Z</time>
      </trkpt>
      <trkpt lat="45.78923" lon="4.41336">
        <ele>658</ele>
        <time>2022-04-01T08:40:45Z</time>
      </trkpt>
      <trkpt lat="45.78984" lon="4.4138">
        <ele>657</ele>
        <time>2022-04-01T08:40:57Z</time>
      </trkpt>
      <trkpt lat="45.78999" lon="4.41395">
        <ele>657</ele>
        <time>2022-04-01T08:41:00Z</time>
      </trkpt>
      <trkpt lat="45.79029" lon="4.41439">
        <ele>662</ele>
        <time>2022-04-01T08:41:08Z</time>
      </trkpt>
      <trkpt lat="45.79041" lon="4.41452">
        <ele>664</ele>
        <time>2022-04-01T08:41:11Z</time>
      </trkpt>
      <trkpt lat="45.79056" lon="4.41461">
        <ele>664</ele>
        <time>2022-04-01T08:41:13Z</time>
      </trkpt>
      <trkpt lat="45.79119" lon="4.41493">
        <ele>665</ele>
        <time>2022-04-01T08:41:25Z</time>
      </trkpt>
      <trkpt lat="45.79146" lon="4.41516">
        <ele>667</ele>
        <time>2022-04-01T08:41:31Z</time>
      </trkpt>
      <trkpt lat="45.79179" lon="4.41549">
        <ele>669</ele>
        <time>2022-04-01T08:41:38Z</time>
      </trkpt>
      <trkpt lat="45.79191" lon="4.41566">
        <ele>670</ele>
        <time>2022-04-01T08:41:41Z</time>
      </trkpt>
      <trkpt lat="45.79198" lon="4.41581">
        <ele>671</ele>
        <time>2022-04-01T08:41:43Z</time>
      </trkpt>
      <trkpt lat="45.79204" lon="4.41602">
        <ele>671</ele>
        <time>2022-04-01T08:41:46Z</time>
      </trkpt>
      <trkpt lat="45.79206" lon="4.41625">
        <ele>672</ele>
        <time>2022-04-01T08:41:49Z</time>
      </trkpt>
      <trkpt lat="45.79205" lon="4.41652">
        <ele>674</ele>
        <time>2022-04-01T08:41:52Z</time>
      </trkpt>
      <trkpt lat="45.79193" lon="4.41708">
        <ele>679</ele>
        <time>2022-04-01T08:42:00Z</time>
      </trkpt>
      <trkpt lat="45.79185" lon="4.41758">
        <ele>683</ele>
        <time>2022-04-01T08:42:06Z</time>
      </trkpt>
      <trkpt lat="45.79184" lon="4.41787">
        <ele>684</ele>
        <time>2022-04-01T08:42:10Z</time>
      </trkpt>
      <trkpt lat="45.79187" lon="4.41817">
        <ele>684</ele>
        <time>2022-04-01T08:42:13Z</time>
      </trkpt>
      <trkpt lat="45.79196" lon="4.41883">
        <ele>684</ele>
        <time>2022-04-01T08:42:22Z</time>
      </trkpt>
      <trkpt lat="45.79197" lon="4.41914">
        <ele>685</ele>
        <time>2022-04-01T08:42:26Z</time>
      </trkpt>
      <trkpt lat="45.79194" lon="4.41941">
        <ele>686</ele>
        <time>2022-04-01T08:42:29Z</time>
      </trkpt>
      <trkpt lat="45.79188" lon="4.41966">
        <ele>688</ele>
        <time>2022-04-01T08:42:32Z</time>
      </trkpt>
      <trkpt lat="45.79175" lon="4.41992">
        <ele>691</ele>
        <time>2022-04-01T08:42:36Z</time>
      </trkpt>
      <trkpt lat="45.79143" lon="4.42036">
        <ele>694</ele>
        <time>2022-04-01T08:42:44Z</time>
      </trkpt>
      <trkpt lat="45.79135" lon="4.42068">
        <ele>694</ele>
        <time>2022-04-01T08:42:48Z</time>
      </trkpt>
      <trkpt lat="45.79131" lon="4.42101">
        <ele>694</ele>
        <time>2022-04-01T08:42:53Z</time>
      </trkpt>
      <trkpt lat="45.79128" lon="4.42202">
        <ele>696</ele>
        <time>2022-04-01T08:43:05Z</time>
      </trkpt>
      <trkpt lat="45.79128" lon="4.42286">
        <ele>696</ele>
        <time>2022-04-01T08:43:15Z</time>
      </trkpt>
      <trkpt lat="45.79132" lon="4.42308">
        <ele>697</ele>
        <time>2022-04-01T08:43:18Z</time>
      </trkpt>
      <trkpt lat="45.79166" lon="4.42423">
        <ele>697</ele>
        <time>2022-04-01T08:43:34Z</time>
      </trkpt>
      <trkpt lat="45.79188" lon="4.42451">
        <ele>696</ele>
        <time>2022-04-01T08:43:39Z</time>
      </trkpt>
      <trkpt lat="45.79217" lon="4.42499">
        <ele>694</ele>
        <time>2022-04-01T08:43:47Z</time>
      </trkpt>
      <trkpt lat="45.79231" lon="4.4252">
        <ele>692</ele>
        <time>2022-04-01T08:43:51Z</time>
      </trkpt>
      <trkpt lat="45.79301" lon="4.42602">
        <ele>690</ele>
        <time>2022-04-01T08:44:07Z</time>
      </trkpt>
      <trkpt lat="45.79312" lon="4.42619">
        <ele>691</ele>
        <time>2022-04-01T08:44:09Z</time>
      </trkpt>
      <trkpt lat="45.79349" lon="4.42701">
        <ele>691</ele>
        <time>2022-04-01T08:44:22Z</time>
      </trkpt>
      <trkpt lat="45.79361" lon="4.42717">
        <ele>691</ele>
        <time>2022-04-01T08:44:24Z</time>
      </trkpt>
      <trkpt lat="45.79374" lon="4.42729">
        <ele>691</ele>
        <time>2022-04-01T08:44:27Z</time>
      </trkpt>
      <trkpt lat="45.79392" lon="4.42739">
        <ele>692</ele>
        <time>2022-04-01T08:44:31Z</time>
      </trkpt>
      <trkpt lat="45.7941" lon="4.42742">
        <ele>692</ele>
        <time>2022-04-01T08:44:34Z</time>
      </trkpt>
      <trkpt lat="45.7943" lon="4.42741">
        <ele>693</ele>
        <time>2022-04-01T08:44:37Z</time>
      </trkpt>
      <trkpt lat="45.79599" lon="4.42692">
        <ele>703</ele>
        <time>2022-04-01T08:45:08Z</time>
      </trkpt>
      <trkpt lat="45.79612" lon="4.42692">
        <ele>704</ele>
        <time>2022-04-01T08:45:10Z</time>
      </trkpt>
      <trkpt lat="45.79623" lon="4.42698">
        <ele>704</ele>
        <time>2022-04-01T08:45:13Z</time>
      </trkpt>
      <trkpt lat="45.79633" lon="4.42705">
        <ele>704</ele>
        <time>2022-04-01T08:45:15Z</time>
      </trkpt>
      <trkpt lat="45.79644" lon="4.42717">
        <ele>703</ele>
        <time>2022-04-01T08:45:17Z</time>
      </trkpt>
      <trkpt lat="45.79651" lon="4.42732">
        <ele>702</ele>
        <time>2022-04-01T08:45:19Z</time>
      </trkpt>
      <trkpt lat="45.79655" lon="4.42745">
        <ele>701</ele>
        <time>2022-04-01T08:45:21Z</time>
      </trkpt>
      <trkpt lat="45.79654" lon="4.42767">
        <ele>700</ele>
        <time>2022-04-01T08:45:24Z</time>
      </trkpt>
      <trkpt lat="45.79636" lon="4.4283">
        <ele>700</ele>
        <time>2022-04-01T08:45:32Z</time>
      </trkpt>
      <trkpt lat="45.796" lon="4.42907">
        <ele>703</ele>
        <time>2022-04-01T08:45:44Z</time>
      </trkpt>
      <trkpt lat="45.79592" lon="4.42932">
        <ele>705</ele>
        <time>2022-04-01T08:45:47Z</time>
      </trkpt>
      <trkpt lat="45.79584" lon="4.42962">
        <ele>707</ele>
        <time>2022-04-01T08:45:51Z</time>
      </trkpt>
      <trkpt lat="45.79576" lon="4.43014">
        <ele>711</ele>
        <time>2022-04-01T08:45:58Z</time>
      </trkpt>
      <trkpt lat="45.79571" lon="4.4303">
        <ele>712</ele>
        <time>2022-04-01T08:46:00Z</time>
      </trkpt>
      <trkpt lat="45.79562" lon="4.43047">
        <ele>714</ele>
        <time>2022-04-01T08:46:03Z</time>
      </trkpt>
      <trkpt lat="45.79555" lon="4.43055">
        <ele>714</ele>
        <time>2022-04-01T08:46:04Z</time>
      </trkpt>
      <trkpt lat="45.79544" lon="4.43063">
        <ele>715</ele>
        <time>2022-04-01T08:46:06Z</time>
      </trkpt>
      <trkpt lat="45.79482" lon="4.43078">
        <ele>714</ele>
        <time>2022-04-01T08:46:17Z</time>
      </trkpt>
      <trkpt lat="45.79457" lon="4.43093">
        <ele>713</ele>
        <time>2022-04-01T08:46:22Z</time>
      </trkpt>
      <trkpt lat="45.79435" lon="4.43118">
        <ele>714</ele>
        <time>2022-04-01T08:46:27Z</time>
      </trkpt>
      <trkpt lat="45.79426" lon="4.43137">
        <ele>715</ele>
        <time>2022-04-01T08:46:30Z</time>
      </trkpt>
      <trkpt lat="45.79419" lon="4.43155">
        <ele>716</ele>
        <time>2022-04-01T08:46:33Z</time>
      </trkpt>
      <trkpt lat="45.79417" lon="4.43175">
        <ele>718</ele>
        <time>2022-04-01T08:46:35Z</time>
      </trkpt>
      <trkpt lat="45.7941" lon="4.43335">
        <ele>721</ele>
        <time>2022-04-01T08:46:55Z</time>
      </trkpt>
      <trkpt lat="45.79399" lon="4.43406">
        <ele>720</ele>
        <time>2022-04-01T08:47:04Z</time>
      </trkpt>
      <trkpt lat="45.794" lon="4.43444">
        <ele>721</ele>
        <time>2022-04-01T08:47:09Z</time>
      </trkpt>
      <trkpt lat="45.79409" lon="4.43508">
        <ele>725</ele>
        <time>2022-04-01T08:47:17Z</time>
      </trkpt>
      <trkpt lat="45.79409" lon="4.4353">
        <ele>727</ele>
        <time>2022-04-01T08:47:20Z</time>
      </trkpt>
      <trkpt lat="45.79407" lon="4.43552">
        <ele>729</ele>
        <time>2022-04-01T08:47:22Z</time>
      </trkpt>
      <trkpt lat="45.79399" lon="4.43575">
        <ele>731</ele>
        <time>2022-04-01T08:47:26Z</time>
      </trkpt>
      <trkpt lat="45.7939" lon="4.43592">
        <ele>732</ele>
        <time>2022-04-01T08:47:28Z</time>
      </trkpt>
      <trkpt lat="45.7938" lon="4.43602">
        <ele>733</ele>
        <time>2022-04-01T08:47:30Z</time>
      </trkpt>
      <trkpt lat="45.79368" lon="4.4361">
        <ele>734</ele>
        <time>2022-04-01T08:47:33Z</time>
      </trkpt>
      <trkpt lat="45.7932" lon="4.43614">
        <ele>733</ele>
        <time>2022-04-01T08:47:41Z</time>
      </trkpt>
      <trkpt lat="45.7926" lon="4.43653">
        <ele>741</ele>
        <time>2022-04-01T08:47:53Z</time>
      </trkpt>
      <trkpt lat="45.79217" lon="4.43668">
        <ele>741</ele>
        <time>2022-04-01T08:48:01Z</time>
      </trkpt>
      <trkpt lat="45.79201" lon="4.4368">
        <ele>740</ele>
        <time>2022-04-01T08:48:04Z</time>
      </trkpt>
      <trkpt lat="45.79174" lon="4.43715">
        <ele>741</ele>
        <time>2022-04-01T08:48:11Z</time>
      </trkpt>
      <trkpt lat="45.79166" lon="4.43736">
        <ele>742</ele>
        <time>2022-04-01T08:48:14Z</time>
      </trkpt>
      <trkpt lat="45.79162" lon="4.43751">
        <ele>743</ele>
        <time>2022-04-01T08:48:16Z</time>
      </trkpt>
      <trkpt lat="45.79161" lon="4.43771">
        <ele>743</ele>
        <time>2022-04-01T08:48:18Z</time>
      </trkpt>
      <trkpt lat="45.79162" lon="4.43793">
        <ele>744</ele>
        <time>2022-04-01T08:48:21Z</time>
      </trkpt>
      <trkpt lat="45.7917" lon="4.43839">
        <ele>744</ele>
        <time>2022-04-01T08:48:27Z</time>
      </trkpt>
      <trkpt lat="45.79176" lon="4.43858">
        <ele>742</ele>
        <time>2022-04-01T08:48:29Z</time>
      </trkpt>
      <trkpt lat="45.79183" lon="4.43871">
        <ele>741</ele>
        <time>2022-04-01T08:48:31Z</time>
      </trkpt>
      <trkpt lat="45.79193" lon="4.43884">
        <ele>739</ele>
        <time>2022-04-01T08:48:34Z</time>
      </trkpt>
      <trkpt lat="45.79207" lon="4.4389">
        <ele>739</ele>
        <time>2022-04-01T08:48:36Z</time>
      </trkpt>
      <trkpt lat="45.79288" lon="4.43888">
        <ele>739</ele>
        <time>2022-04-01T08:48:51Z</time>
      </trkpt>
      <trkpt lat="45.79318" lon="4.4389">
        <ele>738</ele>
        <time>2022-04-01T08:48:56Z</time>
      </trkpt>
      <trkpt lat="45.79331" lon="4.43894">
        <ele>737</ele>
        <time>2022-04-01T08:48:58Z</time>
      </trkpt>
      <trkpt lat="45.79342" lon="4.439">
        <ele>737</ele>
        <time>2022-04-01T08:49:01Z</time>
      </trkpt>
      <trkpt lat="45.79358" lon="4.43923">
        <ele>736</ele>
        <time>2022-04-01T08:49:05Z</time>
      </trkpt>
      <trkpt lat="45.79364" lon="4.43959">
        <ele>732</ele>
        <time>2022-04-01T08:49:09Z</time>
      </trkpt>
      <trkpt lat="45.79365" lon="4.43982">
        <ele>730</ele>
        <time>2022-04-01T08:49:12Z</time>
      </trkpt>
      <trkpt lat="45.79359" lon="4.44043">
        <ele>726</ele>
        <time>2022-04-01T08:49:20Z</time>
      </trkpt>
      <trkpt lat="45.79338" lon="4.4421">
        <ele>727</ele>
        <time>2022-04-01T08:49:41Z</time>
      </trkpt>
      <trkpt lat="45.7933" lon="4.44287">
        <ele>726</ele>
        <time>2022-04-01T08:49:50Z</time>
      </trkpt>
      <trkpt lat="45.79328" lon="4.44417">
        <ele>722</ele>
        <time>2022-04-01T08:50:06Z</time>
      </trkpt>
      <trkpt lat="45.79329" lon="4.44443">
        <ele>723</ele>
        <time>2022-04-01T08:50:10Z</time>
      </trkpt>
      <trkpt lat="45.79334" lon="4.44467">
        <ele>724</ele>
        <time>2022-04-01T08:50:13Z</time>
      </trkpt>
      <trkpt lat="45.79341" lon="4.44484">
        <ele>723</ele>
        <time>2022-04-01T08:50:15Z</time>
      </trkpt>
      <trkpt lat="45.79353" lon="4.44499">
        <ele>722</ele>
        <time>2022-04-01T08:50:18Z</time>
      </trkpt>
      <trkpt lat="45.79365" lon="4.44509">
        <ele>721</ele>
        <time>2022-04-01T08:50:21Z</time>
      </trkpt>
      <trkpt lat="45.79392" lon="4.44525">
        <ele>719</ele>
        <time>2022-04-01T08:50:26Z</time>
      </trkpt>
      <trkpt lat="45.79407" lon="4.44536">
        <ele>719</ele>
        <time>2022-04-01T08:50:29Z</time>
      </trkpt>
      <trkpt lat="45.79421" lon="4.44552">
        <ele>719</ele>
        <time>2022-04-01T08:50:32Z</time>
      </trkpt>
      <trkpt lat="45.79431" lon="4.44573">
        <ele>720</ele>
        <time>2022-04-01T08:50:35Z</time>
      </trkpt>
      <trkpt lat="45.79442" lon="4.4461">
        <ele>721</ele>
        <time>2022-04-01T08:50:40Z</time>
      </trkpt>
      <trkpt lat="45.79482" lon="4.44806">
        <ele>724</ele>
        <time>2022-04-01T08:51:05Z</time>
      </trkpt>
      <trkpt lat="45.79485" lon="4.4483">
        <ele>724</ele>
        <time>2022-04-01T08:51:08Z</time>
      </trkpt>
      <trkpt lat="45.79484" lon="4.44855">
        <ele>725</ele>
        <time>2022-04-01T08:51:12Z</time>
      </trkpt>
      <trkpt lat="45.79463" lon="4.44979">
        <ele>727</ele>
        <time>2022-04-01T08:51:27Z</time>
      </trkpt>
      <trkpt lat="45.7946" lon="4.45009">
        <ele>728</ele>
        <time>2022-04-01T08:51:31Z</time>
      </trkpt>
      <trkpt lat="45.79459" lon="4.45037">
        <ele>727</ele>
        <time>2022-04-01T08:51:35Z</time>
      </trkpt>
      <trkpt lat="45.79461" lon="4.45058">
        <ele>727</ele>
        <time>2022-04-01T08:51:37Z</time>
      </trkpt>
      <trkpt lat="45.79465" lon="4.45077">
        <ele>727</ele>
        <time>2022-04-01T08:51:40Z</time>
      </trkpt>
      <trkpt lat="45.79475" lon="4.45093">
        <ele>727</ele>
        <time>2022-04-01T08:51:42Z</time>
      </trkpt>
      <trkpt lat="45.7949" lon="4.45102">
        <ele>728</ele>
        <time>2022-04-01T08:51:45Z</time>
      </trkpt>
      <trkpt lat="45.79506" lon="4.45103">
        <ele>729</ele>
        <time>2022-04-01T08:51:48Z</time>
      </trkpt>
      <trkpt lat="45.79529" lon="4.45097">
        <ele>730</ele>
        <time>2022-04-01T08:51:52Z</time>
      </trkpt>
      <trkpt lat="45.79549" lon="4.45086">
        <ele>731</ele>
        <time>2022-04-01T08:51:56Z</time>
      </trkpt>
      <trkpt lat="45.79608" lon="4.45038">
        <ele>740</ele>
        <time>2022-04-01T08:52:08Z</time>
      </trkpt>
      <trkpt lat="45.79651" lon="4.45021">
        <ele>739</ele>
        <time>2022-04-01T08:52:16Z</time>
      </trkpt>
      <trkpt lat="45.79675" lon="4.45014">
        <ele>738</ele>
        <time>2022-04-01T08:52:20Z</time>
      </trkpt>
      <trkpt lat="45.79695" lon="4.45015">
        <ele>735</ele>
        <time>2022-04-01T08:52:24Z</time>
      </trkpt>
      <trkpt lat="45.79718" lon="4.45023">
        <ele>731</ele>
        <time>2022-04-01T08:52:28Z</time>
      </trkpt>
      <trkpt lat="45.79812" lon="4.45083">
        <ele>719</ele>
        <time>2022-04-01T08:52:47Z</time>
      </trkpt>
      <trkpt lat="45.79835" lon="4.451">
        <ele>719</ele>
        <time>2022-04-01T08:52:51Z</time>
      </trkpt>
      <trkpt lat="45.79861" lon="4.45147">
        <ele>718</ele>
        <time>2022-04-01T08:52:59Z</time>
      </trkpt>
      <trkpt lat="45.79881" lon="4.45197">
        <ele>718</ele>
        <time>2022-04-01T08:53:06Z</time>
      </trkpt>
      <trkpt lat="45.79886" lon="4.45217">
        <ele>718</ele>
        <time>2022-04-01T08:53:08Z</time>
      </trkpt>
      <trkpt lat="45.79891" lon="4.45243">
        <ele>718</ele>
        <time>2022-04-01T08:53:12Z</time>
      </trkpt>
      <trkpt lat="45.79912" lon="4.45604">
        <ele>705</ele>
        <time>2022-04-01T08:53:57Z</time>
      </trkpt>
      <trkpt lat="45.79911" lon="4.45658">
        <ele>705</ele>
        <time>2022-04-01T08:54:03Z</time>
      </trkpt>
      <trkpt lat="45.79924" lon="4.45672">
        <ele>708</ele>
        <time>2022-04-01T08:54:06Z</time>
      </trkpt>
      <trkpt lat="45.79923" lon="4.45684">
        <ele>708</ele>
        <time>2022-04-01T08:54:08Z</time>
      </trkpt>
      <trkpt lat="45.79919" lon="4.45705">
        <ele>707</ele>
        <time>2022-04-01T08:54:10Z</time>
      </trkpt>
      <trkpt lat="45.79912" lon="4.45722">
        <ele>706</ele>
        <time>2022-04-01T08:54:13Z</time>
      </trkpt>
      <trkpt lat="45.79906" lon="4.45775">
        <ele>707</ele>
        <time>2022-04-01T08:54:20Z</time>
      </trkpt>
      <trkpt lat="45.7989" lon="4.45956">
        <ele>712</ele>
        <time>2022-04-01T08:54:42Z</time>
      </trkpt>
      <trkpt lat="45.79889" lon="4.46006">
        <ele>712</ele>
        <time>2022-04-01T08:54:48Z</time>
      </trkpt>
      <trkpt lat="45.79892" lon="4.4603">
        <ele>712</ele>
        <time>2022-04-01T08:54:51Z</time>
      </trkpt>
      <trkpt lat="45.79918" lon="4.46091">
        <ele>710</ele>
        <time>2022-04-01T08:55:00Z</time>
      </trkpt>
      <trkpt lat="45.7998" lon="4.46214">
        <ele>711</ele>
        <time>2022-04-01T08:55:19Z</time>
      </trkpt>
      <trkpt lat="45.80017" lon="4.46316">
        <ele>704</ele>
        <time>2022-04-01T08:55:33Z</time>
      </trkpt>
      <trkpt lat="45.8004" lon="4.46359">
        <ele>699</ele>
        <time>2022-04-01T08:55:40Z</time>
      </trkpt>
      <trkpt lat="45.80056" lon="4.46372">
        <ele>697</ele>
        <time>2022-04-01T08:55:43Z</time>
      </trkpt>
      <trkpt lat="45.80071" lon="4.46371">
        <ele>699</ele>
        <time>2022-04-01T08:55:46Z</time>
      </trkpt>
      <trkpt lat="45.80087" lon="4.46362">
        <ele>702</ele>
        <time>2022-04-01T08:55:49Z</time>
      </trkpt>
      <trkpt lat="45.80104" lon="4.46342">
        <ele>704</ele>
        <time>2022-04-01T08:55:53Z</time>
      </trkpt>
      <trkpt lat="45.80137" lon="4.46289">
        <ele>705</ele>
        <time>2022-04-01T08:56:02Z</time>
      </trkpt>
      <trkpt lat="45.80161" lon="4.46262">
        <ele>703</ele>
        <time>2022-04-01T08:56:07Z</time>
      </trkpt>
      <trkpt lat="45.80189" lon="4.46248">
        <ele>702</ele>
        <time>2022-04-01T08:56:13Z</time>
      </trkpt>
      <trkpt lat="45.80235" lon="4.46238">
        <ele>701</ele>
        <time>2022-04-01T08:56:21Z</time>
      </trkpt>
      <trkpt lat="45.8026" lon="4.46238">
        <ele>701</ele>
        <time>2022-04-01T08:56:25Z</time>
      </trkpt>
      <trkpt lat="45.80277" lon="4.46254">
        <ele>702</ele>
        <time>2022-04-01T08:56:29Z</time>
      </trkpt>
      <trkpt lat="45.80287" lon="4.46279">
        <ele>702</ele>
        <time>2022-04-01T08:56:32Z</time>
      </trkpt>
      <trkpt lat="45.80294" lon="4.46344">
        <ele>701</ele>
        <time>2022-04-01T08:56:41Z</time>
      </trkpt>
      <trkpt lat="45.80333" lon="4.46551">
        <ele>703</ele>
        <time>2022-04-01T08:57:07Z</time>
      </trkpt>
      <trkpt lat="45.80334" lon="4.46571">
        <ele>703</ele>
        <time>2022-04-01T08:57:10Z</time>
      </trkpt>
      <trkpt lat="45.80327" lon="4.46649">
        <ele>696</ele>
        <time>2022-04-01T08:57:19Z</time>
      </trkpt>
      <trkpt lat="45.80329" lon="4.4668">
        <ele>695</ele>
        <time>2022-04-01T08:57:23Z</time>
      </trkpt>
      <trkpt lat="45.80337" lon="4.46706">
        <ele>696</ele>
        <time>2022-04-01T08:57:27Z</time>
      </trkpt>
      <trkpt lat="45.80441" lon="4.46832">
        <ele>703</ele>
        <time>2022-04-01T08:57:51Z</time>
      </trkpt>
      <trkpt lat="45.80449" lon="4.46862">
        <ele>704</ele>
        <time>2022-04-01T08:57:55Z</time>
      </trkpt>
      <trkpt lat="45.80447" lon="4.46888">
        <ele>702</ele>
        <time>2022-04-01T08:57:58Z</time>
      </trkpt>
      <trkpt lat="45.8044" lon="4.46913">
        <ele>699</ele>
        <time>2022-04-01T08:58:02Z</time>
      </trkpt>
      <trkpt lat="45.80395" lon="4.46981">
        <ele>694</ele>
        <time>2022-04-01T08:58:13Z</time>
      </trkpt>
      <trkpt lat="45.8039" lon="4.47005">
        <ele>695</ele>
        <time>2022-04-01T08:58:16Z</time>
      </trkpt>
      <trkpt lat="45.80392" lon="4.47034">
        <ele>696</ele>
        <time>2022-04-01T08:58:20Z</time>
      </trkpt>
      <trkpt lat="45.80411" lon="4.47105">
        <ele>696</ele>
        <time>2022-04-01T08:58:29Z</time>
      </trkpt>
      <trkpt lat="45.80426" lon="4.47128">
        <ele>695</ele>
        <time>2022-04-01T08:58:33Z</time>
      </trkpt>
      <trkpt lat="45.80456" lon="4.47159">
        <ele>698</ele>
        <time>2022-04-01T08:58:40Z</time>
      </trkpt>
      <trkpt lat="45.80468" lon="4.47177">
        <ele>699</ele>
        <time>2022-04-01T08:58:43Z</time>
      </trkpt>
      <trkpt lat="45.80478" lon="4.47223">
        <ele>694</ele>
        <time>2022-04-01T08:58:49Z</time>
      </trkpt>
      <trkpt lat="45.8049" lon="4.47288">
        <ele>687</ele>
        <time>2022-04-01T08:58:57Z</time>
      </trkpt>
      <trkpt lat="45.80499" lon="4.47316">
        <ele>685</ele>
        <time>2022-04-01T08:59:01Z</time>
      </trkpt>
      <trkpt lat="45.80511" lon="4.47327">
        <ele>684</ele>
        <time>2022-04-01T08:59:04Z</time>
      </trkpt>
      <trkpt lat="45.80526" lon="4.4733">
        <ele>683</ele>
        <time>2022-04-01T08:59:06Z</time>
      </trkpt>
      <trkpt lat="45.80554" lon="4.4732">
        <ele>686</ele>
        <time>2022-04-01T08:59:12Z</time>
      </trkpt>
      <trkpt lat="45.80665" lon="4.47257">
        <ele>701</ele>
        <time>2022-04-01T08:59:33Z</time>
      </trkpt>
      <trkpt lat="45.80701" lon="4.47261">
        <ele>696</ele>
        <time>2022-04-01T08:59:39Z</time>
      </trkpt>
      <trkpt lat="45.80727" lon="4.4727">
        <ele>691</ele>
        <time>2022-04-01T08:59:44Z</time>
      </trkpt>
      <trkpt lat="45.80746" lon="4.47264">
        <ele>690</ele>
        <time>2022-04-01T08:59:47Z</time>
      </trkpt>
      <trkpt lat="45.80828" lon="4.47214">
        <ele>686</ele>
        <time>2022-04-01T09:00:03Z</time>
      </trkpt>
      <trkpt lat="45.80853" lon="4.47209">
        <ele>685</ele>
        <time>2022-04-01T09:00:08Z</time>
      </trkpt>
      <trkpt lat="45.80874" lon="4.47212">
        <ele>684</ele>
        <time>2022-04-01T09:00:11Z</time>
      </trkpt>
      <trkpt lat="45.80911" lon="4.47238">
        <ele>684</ele>
        <time>2022-04-01T09:00:19Z</time>
      </trkpt>
      <trkpt lat="45.80917" lon="4.47241">
        <ele>684</ele>
        <time>2022-04-01T09:00:20Z</time>
      </trkpt>
      <trkpt lat="45.80927" lon="4.4724">
        <ele>685</ele>
        <time>2022-04-01T09:00:22Z</time>
      </trkpt>
      <trkpt lat="45.8099" lon="4.47226">
        <ele>684</ele>
        <time>2022-04-01T09:00:33Z</time>
      </trkpt>
      <trkpt lat="45.81014" lon="4.47232">
        <ele>684</ele>
        <time>2022-04-01T09:00:37Z</time>
      </trkpt>
      <trkpt lat="45.81057" lon="4.47257">
        <ele>684</ele>
        <time>2022-04-01T09:00:46Z</time>
      </trkpt>
      <trkpt lat="45.81076" lon="4.47263">
        <ele>684</ele>
        <time>2022-04-01T09:00:49Z</time>
      </trkpt>
      <trkpt lat="45.81106" lon="4.47263">
        <ele>686</ele>
        <time>2022-04-01T09:00:54Z</time>
      </trkpt>
      <trkpt lat="45.81123" lon="4.47256">
        <ele>687</ele>
        <time>2022-04-01T09:00:58Z</time>
      </trkpt>
      <trkpt lat="45.81151" lon="4.47222">
        <ele>687</ele>
        <time>2022-04-01T09:01:04Z</time>
      </trkpt>
      <trkpt lat="45.81169" lon="4.47188">
        <ele>685</ele>
        <time>2022-04-01T09:01:09Z</time>
      </trkpt>
      <trkpt lat="45.81187" lon="4.47136">
        <ele>681</ele>
        <time>2022-04-01T09:01:17Z</time>
      </trkpt>
      <trkpt lat="45.81202" lon="4.47113">
        <ele>679</ele>
        <time>2022-04-01T09:01:21Z</time>
      </trkpt>
      <trkpt lat="45.81218" lon="4.47095">
        <ele>678</ele>
        <time>2022-04-01T09:01:24Z</time>
      </trkpt>
      <trkpt lat="45.81241" lon="4.47083">
        <ele>677</ele>
        <time>2022-04-01T09:01:29Z</time>
      </trkpt>
      <trkpt lat="45.81271" lon="4.47077">
        <ele>677</ele>
        <time>2022-04-01T09:01:34Z</time>
      </trkpt>
      <trkpt lat="45.81337" lon="4.47072">
        <ele>677</ele>
        <time>2022-04-01T09:01:46Z</time>
      </trkpt>
      <trkpt lat="45.81392" lon="4.47073">
        <ele>680</ele>
        <time>2022-04-01T09:01:55Z</time>
      </trkpt>
      <trkpt lat="45.81455" lon="4.47056">
        <ele>681</ele>
        <time>2022-04-01T09:02:07Z</time>
      </trkpt>
      <trkpt lat="45.81483" lon="4.47045">
        <ele>681</ele>
        <time>2022-04-01T09:02:12Z</time>
      </trkpt>
      <trkpt lat="45.81523" lon="4.4702">
        <ele>679</ele>
        <time>2022-04-01T09:02:20Z</time>
      </trkpt>
      <trkpt lat="45.81543" lon="4.46998">
        <ele>676</ele>
        <time>2022-04-01T09:02:24Z</time>
      </trkpt>
      <trkpt lat="45.81568" lon="4.46959">
        <ele>673</ele>
        <time>2022-04-01T09:02:31Z</time>
      </trkpt>
      <trkpt lat="45.81583" lon="4.46939">
        <ele>671</ele>
        <time>2022-04-01T09:02:34Z</time>
      </trkpt>
      <trkpt lat="45.81602" lon="4.46924">
        <ele>671</ele>
        <time>2022-04-01T09:02:38Z</time>
      </trkpt>
      <trkpt lat="45.81738" lon="4.4687">
        <ele>670</ele>
        <time>2022-04-01T09:03:03Z</time>
      </trkpt>
      <trkpt lat="45.81765" lon="4.46869">
        <ele>670</ele>
        <time>2022-04-01T09:03:08Z</time>
      </trkpt>
      <trkpt lat="45.81784" lon="4.46876">
        <ele>670</ele>
        <time>2022-04-01T09:03:12Z</time>
      </trkpt>
      <trkpt lat="45.81797" lon="4.46886">
        <ele>671</ele>
        <time>2022-04-01T09:03:14Z</time>
      </trkpt>
      <trkpt lat="45.81829" lon="4.46922">
        <ele>674</ele>
        <time>2022-04-01T09:03:22Z</time>
      </trkpt>
      <trkpt lat="45.81906" lon="4.46991">
        <ele>672</ele>
        <time>2022-04-01T09:03:38Z</time>
      </trkpt>
      <trkpt lat="45.81912" lon="4.47003">
        <ele>672</ele>
        <time>2022-04-01T09:03:40Z</time>
      </trkpt>
      <trkpt lat="45.81929" lon="4.47041">
        <ele>676</ele>
        <time>2022-04-01T09:03:45Z</time>
      </trkpt>
      <trkpt lat="45.81946" lon="4.4706">
        <ele>677</ele>
        <time>2022-04-01T09:03:49Z</time>
      </trkpt>
      <trkpt lat="45.81964" lon="4.47068">
        <ele>677</ele>
        <time>2022-04-01T09:03:52Z</time>
      </trkpt>
      <trkpt lat="45.81987" lon="4.47069">
        <ele>676</ele>
        <time>2022-04-01T09:03:56Z</time>
      </trkpt>
      <trkpt lat="45.821" lon="4.47027">
        <ele>672</ele>
        <time>2022-04-01T09:04:17Z</time>
      </trkpt>
      <trkpt lat="45.82126" lon="4.47013">
        <ele>670</ele>
        <time>2022-04-01T09:04:22Z</time>
      </trkpt>
      <trkpt lat="45.82182" lon="4.4697">
        <ele>667</ele>
        <time>2022-04-01T09:04:33Z</time>
      </trkpt>
      <trkpt lat="45.82194" lon="4.46966">
        <ele>667</ele>
        <time>2022-04-01T09:04:36Z</time>
      </trkpt>
      <trkpt lat="45.82209" lon="4.46972">
        <ele>667</ele>
        <time>2022-04-01T09:04:38Z</time>
      </trkpt>
      <trkpt lat="45.82243" lon="4.46997">
        <ele>671</ele>
        <time>2022-04-01T09:04:45Z</time>
      </trkpt>
      <trkpt lat="45.82255" lon="4.47013">
        <ele>672</ele>
        <time>2022-04-01T09:04:48Z</time>
      </trkpt>
      <trkpt lat="45.82267" lon="4.47041">
        <ele>673</ele>
        <time>2022-04-01T09:04:52Z</time>
      </trkpt>
      <trkpt lat="45.82281" lon="4.47061">
        <ele>674</ele>
        <time>2022-04-01T09:04:56Z</time>
      </trkpt>
      <trkpt lat="45.82315" lon="4.47089">
        <ele>673</ele>
        <time>2022-04-01T09:05:03Z</time>
      </trkpt>
      <trkpt lat="45.82362" lon="4.4711">
        <ele>673</ele>
        <time>2022-04-01T09:05:11Z</time>
      </trkpt>
      <trkpt lat="45.82405" lon="4.47119">
        <ele>671</ele>
        <time>2022-04-01T09:05:19Z</time>
      </trkpt>
      <trkpt lat="45.82477" lon="4.47127">
        <ele>670</ele>
        <time>2022-04-01T09:05:32Z</time>
      </trkpt>
      <trkpt lat="45.8261" lon="4.47116">
        <ele>671</ele>
        <time>2022-04-01T09:05:56Z</time>
      </trkpt>
      <trkpt lat="45.82621" lon="4.47113">
        <ele>672</ele>
        <time>2022-04-01T09:05:58Z</time>
      </trkpt>
      <trkpt lat="45.82695" lon="4.47067">
        <ele>670</ele>
        <time>2022-04-01T09:06:12Z</time>
      </trkpt>
      <trkpt lat="45.82753" lon="4.47026">
        <ele>672</ele>
        <time>2022-04-01T09:06:24Z</time>
      </trkpt>
      <trkpt lat="45.82785" lon="4.47011">
        <ele>671</ele>
        <time>2022-04-01T09:06:30Z</time>
      </trkpt>
      <trkpt lat="45.82829" lon="4.47009">
        <ele>673</ele>
        <time>2022-04-01T09:06:37Z</time>
      </trkpt>
      <trkpt lat="45.82879" lon="4.4702">
        <ele>674</ele>
        <time>2022-04-01T09:06:46Z</time>
      </trkpt>
      <trkpt lat="45.82936" lon="4.4704">
        <ele>674</ele>
        <time>2022-04-01T09:06:57Z</time>
      </trkpt>
      <trkpt lat="45.82976" lon="4.47066">
        <ele>675</ele>
        <time>2022-04-01T09:07:05Z</time>
      </trkpt>
      <trkpt lat="45.83001" lon="4.47105">
        <ele>678</ele>
        <time>2022-04-01T09:07:11Z</time>
      </trkpt>
      <trkpt lat="45.83024" lon="4.47183">
        <ele>683</ele>
        <time>2022-04-01T09:07:22Z</time>
      </trkpt>
      <trkpt lat="45.83047" lon="4.47278">
        <ele>689</ele>
        <time>2022-04-01T09:07:34Z</time>
      </trkpt>
      <trkpt lat="45.83073" lon="4.47347">
        <ele>688</ele>
        <time>2022-04-01T09:07:44Z</time>
      </trkpt>
      <trkpt lat="45.83106" lon="4.47405">
        <ele>687</ele>
        <time>2022-04-01T09:07:53Z</time>
      </trkpt>
      <trkpt lat="45.83159" lon="4.47458">
        <ele>688</ele>
        <time>2022-04-01T09:08:05Z</time>
      </trkpt>
      <trkpt lat="45.83187" lon="4.47501">
        <ele>689</ele>
        <time>2022-04-01T09:08:12Z</time>
      </trkpt>
      <trkpt lat="45.83202" lon="4.47547">
        <ele>688</ele>
        <time>2022-04-01T09:08:18Z</time>
      </trkpt>
      <trkpt lat="45.83202" lon="4.47618">
        <ele>691</ele>
        <time>2022-04-01T09:08:27Z</time>
      </trkpt>
      <trkpt lat="45.83208" lon="4.47659">
        <ele>690</ele>
        <time>2022-04-01T09:08:32Z</time>
      </trkpt>
      <trkpt lat="45.83246" lon="4.4777">
        <ele>690</ele>
        <time>2022-04-01T09:08:48Z</time>
      </trkpt>
      <trkpt lat="45.83256" lon="4.47809">
        <ele>692</ele>
        <time>2022-04-01T09:08:53Z</time>
      </trkpt>
      <trkpt lat="45.83245" lon="4.47897">
        <ele>690</ele>
        <time>2022-04-01T09:09:04Z</time>
      </trkpt>
      <trkpt lat="45.83246" lon="4.47931">
        <ele>688</ele>
        <time>2022-04-01T09:09:08Z</time>
      </trkpt>
      <trkpt lat="45.83256" lon="4.47953">
        <ele>685</ele>
        <time>2022-04-01T09:09:11Z</time>
      </trkpt>
      <trkpt lat="45.83279" lon="4.47978">
        <ele>683</ele>
        <time>2022-04-01T09:09:16Z</time>
      </trkpt>
      <trkpt lat="45.83291" lon="4.47986">
        <ele>682</ele>
        <time>2022-04-01T09:09:19Z</time>
      </trkpt>
      <trkpt lat="45.83345" lon="4.47996">
        <ele>684</ele>
        <time>2022-04-01T09:09:29Z</time>
      </trkpt>
      <trkpt lat="45.83368" lon="4.48006">
        <ele>684</ele>
        <time>2022-04-01T09:09:33Z</time>
      </trkpt>
      <trkpt lat="45.83486" lon="4.48073">
        <ele>673</ele>
        <time>2022-04-01T09:09:55Z</time>
      </trkpt>
      <trkpt lat="45.83528" lon="4.48107">
        <ele>669</ele>
        <time>2022-04-01T09:10:04Z</time>
      </trkpt>
      <trkpt lat="45.83554" lon="4.48134">
        <ele>668</ele>
        <time>2022-04-01T09:10:10Z</time>
      </trkpt>
      <trkpt lat="45.83568" lon="4.48155">
        <ele>667</ele>
        <time>2022-04-01T09:10:13Z</time>
      </trkpt>
      <trkpt lat="45.83579" lon="4.48185">
        <ele>665</ele>
        <time>2022-04-01T09:10:17Z</time>
      </trkpt>
      <trkpt lat="45.83597" lon="4.48298">
        <ele>660</ele>
        <time>2022-04-01T09:10:32Z</time>
      </trkpt>
      <trkpt lat="45.83622" lon="4.48379">
        <ele>659</ele>
        <time>2022-04-01T09:10:43Z</time>
      </trkpt>
      <trkpt lat="45.83625" lon="4.48402">
        <ele>658</ele>
        <time>2022-04-01T09:10:46Z</time>
      </trkpt>
      <trkpt lat="45.83613" lon="4.48544">
        <ele>652</ele>
        <time>2022-04-01T09:11:03Z</time>
      </trkpt>
      <trkpt lat="45.83598" lon="4.48621">
        <ele>647</ele>
        <time>2022-04-01T09:11:13Z</time>
      </trkpt>
      <trkpt lat="45.83583" lon="4.48733">
        <ele>642</ele>
        <time>2022-04-01T09:11:28Z</time>
      </trkpt>
      <trkpt lat="45.83584" lon="4.48779">
        <ele>638</ele>
        <time>2022-04-01T09:11:33Z</time>
      </trkpt>
      <trkpt lat="45.83592" lon="4.48807">
        <ele>636</ele>
        <time>2022-04-01T09:11:37Z</time>
      </trkpt>
      <trkpt lat="45.83609" lon="4.4883">
        <ele>636</ele>
        <time>2022-04-01T09:11:41Z</time>
      </trkpt>
      <trkpt lat="45.83637" lon="4.48853">
        <ele>641</ele>
        <time>2022-04-01T09:11:47Z</time>
      </trkpt>
      <trkpt lat="45.83642" lon="4.48864">
        <ele>641</ele>
        <time>2022-04-01T09:11:49Z</time>
      </trkpt>
      <trkpt lat="45.8364" lon="4.48888">
        <ele>640</ele>
        <time>2022-04-01T09:11:52Z</time>
      </trkpt>
      <trkpt lat="45.83631" lon="4.48918">
        <ele>636</ele>
        <time>2022-04-01T09:11:56Z</time>
      </trkpt>
      <trkpt lat="45.83597" lon="4.48984">
        <ele>631</ele>
        <time>2022-04-01T09:12:06Z</time>
      </trkpt>
      <trkpt lat="45.83586" lon="4.49021">
        <ele>627</ele>
        <time>2022-04-01T09:12:11Z</time>
      </trkpt>
      <trkpt lat="45.83586" lon="4.4905">
        <ele>625</ele>
        <time>2022-04-01T09:12:14Z</time>
      </trkpt>
      <trkpt lat="45.83596" lon="4.49074">
        <ele>625</ele>
        <time>2022-04-01T09:12:18Z</time>
      </trkpt>
      <trkpt lat="45.83622" lon="4.49118">
        <ele>627</ele>
        <time>2022-04-01T09:12:25Z</time>
      </trkpt>
      <trkpt lat="45.83632" lon="4.49144">
        <ele>627</ele>
        <time>2022-04-01T09:12:29Z</time>
      </trkpt>
      <trkpt lat="45.83632" lon="4.49171">
        <ele>625</ele>
        <time>2022-04-01T09:12:32Z</time>
      </trkpt>
      <trkpt lat="45.83622" lon="4.49194">
        <ele>625</ele>
        <time>2022-04-01T09:12:35Z</time>
      </trkpt>
      <trkpt lat="45.83579" lon="4.49228">
        <ele>620</ele>
        <time>2022-04-01T09:12:44Z</time>
      </trkpt>
      <trkpt lat="45.83547" lon="4.49241">
        <ele>616</ele>
        <time>2022-04-01T09:12:50Z</time>
      </trkpt>
      <trkpt lat="45.8347" lon="4.49266">
        <ele>608</ele>
        <time>2022-04-01T09:13:04Z</time>
      </trkpt>
      <trkpt lat="45.83449" lon="4.49275">
        <ele>606</ele>
        <time>2022-04-01T09:13:08Z</time>
      </trkpt>
      <trkpt lat="45.83426" lon="4.49292">
        <ele>606</ele>
        <time>2022-04-01T09:13:13Z</time>
      </trkpt>
      <trkpt lat="45.83375" lon="4.4934">
        <ele>602</ele>
        <time>2022-04-01T09:13:23Z</time>
      </trkpt>
      <trkpt lat="45.83356" lon="4.49368">
        <ele>602</ele>
        <time>2022-04-01T09:13:28Z</time>
      </trkpt>
      <trkpt lat="45.83319" lon="4.49435">
        <ele>600</ele>
        <time>2022-04-01T09:13:39Z</time>
      </trkpt>
      <trkpt lat="45.83294" lon="4.49475">
        <ele>597</ele>
        <time>2022-04-01T09:13:45Z</time>
      </trkpt>
      <trkpt lat="45.83258" lon="4.49519">
        <ele>591</ele>
        <time>2022-04-01T09:13:54Z</time>
      </trkpt>
      <trkpt lat="45.83233" lon="4.49561">
        <ele>591</ele>
        <time>2022-04-01T09:14:01Z</time>
      </trkpt>
      <trkpt lat="45.83214" lon="4.49585">
        <ele>589</ele>
        <time>2022-04-01T09:14:05Z</time>
      </trkpt>
      <trkpt lat="45.83168" lon="4.49625">
        <ele>583</ele>
        <time>2022-04-01T09:14:15Z</time>
      </trkpt>
      <trkpt lat="45.83157" lon="4.49636">
        <ele>581</ele>
        <time>2022-04-01T09:14:17Z</time>
      </trkpt>
      <trkpt lat="45.83145" lon="4.49651">
        <ele>579</ele>
        <time>2022-04-01T09:14:20Z</time>
      </trkpt>
      <trkpt lat="45.83134" lon="4.49674">
        <ele>578</ele>
        <time>2022-04-01T09:14:23Z</time>
      </trkpt>
      <trkpt lat="45.83089" lon="4.49796">
        <ele>576</ele>
        <time>2022-04-01T09:14:41Z</time>
      </trkpt>
      <trkpt lat="45.83078" lon="4.49835">
        <ele>575</ele>
        <time>2022-04-01T09:14:46Z</time>
      </trkpt>
      <trkpt lat="45.8307" lon="4.49876">
        <ele>574</ele>
        <time>2022-04-01T09:14:51Z</time>
      </trkpt>
      <trkpt lat="45.83069" lon="4.49915">
        <ele>575</ele>
        <time>2022-04-01T09:14:56Z</time>
      </trkpt>
      <trkpt lat="45.8307" lon="4.4994">
        <ele>575</ele>
        <time>2022-04-01T09:14:59Z</time>
      </trkpt>
      <trkpt lat="45.8308" lon="4.5002">
        <ele>576</ele>
        <time>2022-04-01T09:15:09Z</time>
      </trkpt>
      <trkpt lat="45.83086" lon="4.50094">
        <ele>572</ele>
        <time>2022-04-01T09:15:18Z</time>
      </trkpt>
      <trkpt lat="45.8309" lon="4.50138">
        <ele>568</ele>
        <time>2022-04-01T09:15:24Z</time>
      </trkpt>
      <trkpt lat="45.83095" lon="4.50163">
        <ele>567</ele>
        <time>2022-04-01T09:15:27Z</time>
      </trkpt>
      <trkpt lat="45.83105" lon="4.50195">
        <ele>563</ele>
        <time>2022-04-01T09:15:31Z</time>
      </trkpt>
      <trkpt lat="45.83112" lon="4.50212">
        <ele>562</ele>
        <time>2022-04-01T09:15:34Z</time>
      </trkpt>
      <trkpt lat="45.8312" lon="4.5022">
        <ele>562</ele>
        <time>2022-04-01T09:15:36Z</time>
      </trkpt>
      <trkpt lat="45.83167" lon="4.50226">
        <ele>573</ele>
        <time>2022-04-01T09:15:44Z</time>
      </trkpt>
      <trkpt lat="45.83179" lon="4.5023">
        <ele>574</ele>
        <time>2022-04-01T09:15:46Z</time>
      </trkpt>
      <trkpt lat="45.83186" lon="4.50237">
        <ele>574</ele>
        <time>2022-04-01T09:15:48Z</time>
      </trkpt>
      <trkpt lat="45.83205" lon="4.50264">
        <ele>571</ele>
        <time>2022-04-01T09:15:52Z</time>
      </trkpt>
      <trkpt lat="45.83223" lon="4.50307">
        <ele>563</ele>
        <time>2022-04-01T09:15:59Z</time>
      </trkpt>
      <trkpt lat="45.8325" lon="4.50343">
        <ele>559</ele>
        <time>2022-04-01T09:16:05Z</time>
      </trkpt>
      <trkpt lat="45.83292" lon="4.50381">
        <ele>554</ele>
        <time>2022-04-01T09:16:14Z</time>
      </trkpt>
      <trkpt lat="45.83347" lon="4.50418">
        <ele>550</ele>
        <time>2022-04-01T09:16:25Z</time>
      </trkpt>
      <trkpt lat="45.83396" lon="4.50443">
        <ele>549</ele>
        <time>2022-04-01T09:16:34Z</time>
      </trkpt>
      <trkpt lat="45.83416" lon="4.50462">
        <ele>546</ele>
        <time>2022-04-01T09:16:38Z</time>
      </trkpt>
      <trkpt lat="45.83447" lon="4.50507">
        <ele>540</ele>
        <time>2022-04-01T09:16:46Z</time>
      </trkpt>
      <trkpt lat="45.83458" lon="4.50534">
        <ele>536</ele>
        <time>2022-04-01T09:16:50Z</time>
      </trkpt>
      <trkpt lat="45.83502" lon="4.50614">
        <ele>525</ele>
        <time>2022-04-01T09:17:03Z</time>
      </trkpt>
      <trkpt lat="45.83515" lon="4.50624">
        <ele>523</ele>
        <time>2022-04-01T09:17:05Z</time>
      </trkpt>
      <trkpt lat="45.83526" lon="4.50618">
        <ele>523</ele>
        <time>2022-04-01T09:17:07Z</time>
      </trkpt>
      <trkpt lat="45.83549" lon="4.50577">
        <ele>530</ele>
        <time>2022-04-01T09:17:14Z</time>
      </trkpt>
      <trkpt lat="45.83568" lon="4.50564">
        <ele>532</ele>
        <time>2022-04-01T09:17:18Z</time>
      </trkpt>
      <trkpt lat="45.83605" lon="4.50567">
        <ele>531</ele>
        <time>2022-04-01T09:17:24Z</time>
      </trkpt>
      <trkpt lat="45.8362" lon="4.50579">
        <ele>529</ele>
        <time>2022-04-01T09:17:27Z</time>
      </trkpt>
      <trkpt lat="45.8364" lon="4.50607">
        <ele>525</ele>
        <time>2022-04-01T09:17:32Z</time>
      </trkpt>
      <trkpt lat="45.83665" lon="4.50651">
        <ele>522</ele>
        <time>2022-04-01T09:17:39Z</time>
      </trkpt>
      <trkpt lat="45.83704" lon="4.50709">
        <ele>518</ele>
        <time>2022-04-01T09:17:49Z</time>
      </trkpt>
      <trkpt lat="45.8372" lon="4.50726">
        <ele>517</ele>
        <time>2022-04-01T09:17:53Z</time>
      </trkpt>
      <trkpt lat="45.83754" lon="4.50748">
        <ele>516</ele>
        <time>2022-04-01T09:18:00Z</time>
      </trkpt>
      <trkpt lat="45.83761" lon="4.50754">
        <ele>516</ele>
        <time>2022-04-01T09:18:01Z</time>
      </trkpt>
      <trkpt lat="45.83772" lon="4.50769">
        <ele>515</ele>
        <time>2022-04-01T09:18:04Z</time>
      </trkpt>
      <trkpt lat="45.83839" lon="4.50971">
        <ele>508</ele>
        <time>2022-04-01T09:18:31Z</time>
      </trkpt>
      <trkpt lat="45.83881" lon="4.51139">
        <ele>503</ele>
        <time>2022-04-01T09:18:54Z</time>
      </trkpt>
      <trkpt lat="45.83884" lon="4.51163">
        <ele>502</ele>
        <time>2022-04-01T09:18:57Z</time>
      </trkpt>
      <trkpt lat="45.8388" lon="4.51189">
        <ele>502</ele>
        <time>2022-04-01T09:19:00Z</time>
      </trkpt>
      <trkpt lat="45.83848" lon="4.51256">
        <ele>500</ele>
        <time>2022-04-01T09:19:10Z</time>
      </trkpt>
      <trkpt lat="45.83823" lon="4.5133">
        <ele>500</ele>
        <time>2022-04-01T09:19:20Z</time>
      </trkpt>
      <trkpt lat="45.8382" lon="4.51359">
        <ele>500</ele>
        <time>2022-04-01T09:19:24Z</time>
      </trkpt>
      <trkpt lat="45.83824" lon="4.51506">
        <ele>500</ele>
        <time>2022-04-01T09:19:42Z</time>
      </trkpt>
      <trkpt lat="45.83827" lon="4.5153">
        <ele>498</ele>
        <time>2022-04-01T09:19:45Z</time>
      </trkpt>
      <trkpt lat="45.83881" lon="4.51707">
        <ele>493</ele>
        <time>2022-04-01T09:20:09Z</time>
      </trkpt>
      <trkpt lat="45.83882" lon="4.51722">
        <ele>493</ele>
        <time>2022-04-01T09:20:11Z</time>
      </trkpt>
      <trkpt lat="45.8388" lon="4.51734">
        <ele>491</ele>
        <time>2022-04-01T09:20:12Z</time>
      </trkpt>
      <trkpt lat="45.83876" lon="4.51745">
        <ele>490</ele>
        <time>2022-04-01T09:20:14Z</time>
      </trkpt>
      <trkpt lat="45.83836" lon="4.51815">
        <ele>486</ele>
        <time>2022-04-01T09:20:25Z</time>
      </trkpt>
      <trkpt lat="45.83811" lon="4.51871">
        <ele>484</ele>
        <time>2022-04-01T09:20:33Z</time>
      </trkpt>
      <trkpt lat="45.83779" lon="4.52065">
        <ele>480</ele>
        <time>2022-04-01T09:20:58Z</time>
      </trkpt>
      <trkpt lat="45.83779" lon="4.52104">
        <ele>479</ele>
        <time>2022-04-01T09:21:03Z</time>
      </trkpt>
      <trkpt lat="45.83788" lon="4.5217">
        <ele>480</ele>
        <time>2022-04-01T09:21:11Z</time>
      </trkpt>
      <trkpt lat="45.83789" lon="4.5222">
        <ele>481</ele>
        <time>2022-04-01T09:21:18Z</time>
      </trkpt>
      <trkpt lat="45.83775" lon="4.52253">
        <ele>478</ele>
        <time>2022-04-01T09:21:22Z</time>
      </trkpt>
      <trkpt lat="45.83729" lon="4.52318">
        <ele>475</ele>
        <time>2022-04-01T09:21:34Z</time>
      </trkpt>
      <trkpt lat="45.83684" lon="4.52393">
        <ele>471</ele>
        <time>2022-04-01T09:21:46Z</time>
      </trkpt>
      <trkpt lat="45.83635" lon="4.52464">
        <ele>469</ele>
        <time>2022-04-01T09:21:58Z</time>
      </trkpt>
      <trkpt lat="45.83604" lon="4.52521">
        <ele>465</ele>
        <time>2022-04-01T09:22:07Z</time>
      </trkpt>
      <trkpt lat="45.83588" lon="4.52576">
        <ele>464</ele>
        <time>2022-04-01T09:22:15Z</time>
      </trkpt>
      <trkpt lat="45.83585" lon="4.52608">
        <ele>462</ele>
        <time>2022-04-01T09:22:19Z</time>
      </trkpt>
      <trkpt lat="45.83587" lon="4.52644">
        <ele>463</ele>
        <time>2022-04-01T09:22:23Z</time>
      </trkpt>
      <trkpt lat="45.83604" lon="4.52746">
        <ele>463</ele>
        <time>2022-04-01T09:22:36Z</time>
      </trkpt>
      <trkpt lat="45.83605" lon="4.52802">
        <ele>461</ele>
        <time>2022-04-01T09:22:43Z</time>
      </trkpt>
      <trkpt lat="45.83601" lon="4.52833">
        <ele>459</ele>
        <time>2022-04-01T09:22:47Z</time>
      </trkpt>
      <trkpt lat="45.83569" lon="4.52954">
        <ele>453</ele>
        <time>2022-04-01T09:23:03Z</time>
      </trkpt>
      <trkpt lat="45.8356" lon="4.52972">
        <ele>452</ele>
        <time>2022-04-01T09:23:06Z</time>
      </trkpt>
      <trkpt lat="45.83549" lon="4.52987">
        <ele>451</ele>
        <time>2022-04-01T09:23:09Z</time>
      </trkpt>
      <trkpt lat="45.83533" lon="4.53001">
        <ele>449</ele>
        <time>2022-04-01T09:23:12Z</time>
      </trkpt>
      <trkpt lat="45.83481" lon="4.53026">
        <ele>446</ele>
        <time>2022-04-01T09:23:22Z</time>
      </trkpt>
      <trkpt lat="45.83467" lon="4.53039">
        <ele>446</ele>
        <time>2022-04-01T09:23:25Z</time>
      </trkpt>
      <trkpt lat="45.83425" lon="4.53107">
        <ele>447</ele>
        <time>2022-04-01T09:23:36Z</time>
      </trkpt>
      <trkpt lat="45.8341" lon="4.5312">
        <ele>445</ele>
        <time>2022-04-01T09:23:39Z</time>
      </trkpt>
      <trkpt lat="45.83361" lon="4.53144">
        <ele>439</ele>
        <time>2022-04-01T09:23:48Z</time>
      </trkpt>
      <trkpt lat="45.83339" lon="4.53163">
        <ele>438</ele>
        <time>2022-04-01T09:23:53Z</time>
      </trkpt>
      <trkpt lat="45.83322" lon="4.532">
        <ele>438</ele>
        <time>2022-04-01T09:23:58Z</time>
      </trkpt>
      <trkpt lat="45.83269" lon="4.53347">
        <ele>435</ele>
        <time>2022-04-01T09:24:19Z</time>
      </trkpt>
      <trkpt lat="45.83269" lon="4.53371">
        <ele>436</ele>
        <time>2022-04-01T09:24:22Z</time>
      </trkpt>
      <trkpt lat="45.83263" lon="4.53453">
        <ele>435</ele>
        <time>2022-04-01T09:24:32Z</time>
      </trkpt>
      <trkpt lat="45.83249" lon="4.53523">
        <ele>432</ele>
        <time>2022-04-01T09:24:41Z</time>
      </trkpt>
      <trkpt lat="45.83224" lon="4.53569">
        <ele>430</ele>
        <time>2022-04-01T09:24:48Z</time>
      </trkpt>
      <trkpt lat="45.83156" lon="4.53635">
        <ele>427</ele>
        <time>2022-04-01T09:25:03Z</time>
      </trkpt>
      <trkpt lat="45.83121" lon="4.53683">
        <ele>426</ele>
        <time>2022-04-01T09:25:12Z</time>
      </trkpt>
      <trkpt lat="45.83073" lon="4.53753">
        <ele>422</ele>
        <time>2022-04-01T09:25:24Z</time>
      </trkpt>
      <trkpt lat="45.83044" lon="4.53822">
        <ele>419</ele>
        <time>2022-04-01T09:25:34Z</time>
      </trkpt>
      <trkpt lat="45.83037" lon="4.53914">
        <ele>420</ele>
        <time>2022-04-01T09:25:45Z</time>
      </trkpt>
      <trkpt lat="45.83024" lon="4.53936">
        <ele>422</ele>
        <time>2022-04-01T09:25:49Z</time>
      </trkpt>
      <trkpt lat="45.83008" lon="4.53935">
        <ele>420</ele>
        <time>2022-04-01T09:25:52Z</time>
      </trkpt>
      <trkpt lat="45.82956" lon="4.5392">
        <ele>416</ele>
        <time>2022-04-01T09:26:01Z</time>
      </trkpt>
      <trkpt lat="45.82858" lon="4.53943">
        <ele>414</ele>
        <time>2022-04-01T09:26:19Z</time>
      </trkpt>
      <trkpt lat="45.82823" lon="4.53973">
        <ele>416</ele>
        <time>2022-04-01T09:26:26Z</time>
      </trkpt>
      <trkpt lat="45.82801" lon="4.54004">
        <ele>416</ele>
        <time>2022-04-01T09:26:31Z</time>
      </trkpt>
      <trkpt lat="45.82772" lon="4.54058">
        <ele>418</ele>
        <time>2022-04-01T09:26:40Z</time>
      </trkpt>
      <trkpt lat="45.82749" lon="4.54093">
        <ele>416</ele>
        <time>2022-04-01T09:26:46Z</time>
      </trkpt>
      <trkpt lat="45.82686" lon="4.54153">
        <ele>408</ele>
        <time>2022-04-01T09:26:59Z</time>
      </trkpt>
      <trkpt lat="45.82636" lon="4.54219">
        <ele>405</ele>
        <time>2022-04-01T09:27:11Z</time>
      </trkpt>
      <trkpt lat="45.82533" lon="4.54393">
        <ele>401</ele>
        <time>2022-04-01T09:27:40Z</time>
      </trkpt>
      <trkpt lat="45.82513" lon="4.54433">
        <ele>401</ele>
        <time>2022-04-01T09:27:46Z</time>
      </trkpt>
      <trkpt lat="45.82509" lon="4.54465">
        <ele>401</ele>
        <time>2022-04-01T09:27:50Z</time>
      </trkpt>
      <trkpt lat="45.82503" lon="4.54553">
        <ele>402</ele>
        <time>2022-04-01T09:28:01Z</time>
      </trkpt>
      <trkpt lat="45.82498" lon="4.54567">
        <ele>402</ele>
        <time>2022-04-01T09:28:03Z</time>
      </trkpt>
      <trkpt lat="45.82492" lon="4.54581">
        <ele>402</ele>
        <time>2022-04-01T09:28:05Z</time>
      </trkpt>
      <trkpt lat="45.82482" lon="4.54585">
        <ele>402</ele>
        <time>2022-04-01T09:28:07Z</time>
      </trkpt>
      <trkpt lat="45.82473" lon="4.54584">
        <ele>401</ele>
        <time>2022-04-01T09:28:08Z</time>
      </trkpt>
      <trkpt lat="45.82428" lon="4.54559">
        <ele>399</ele>
        <time>2022-04-01T09:28:17Z</time>
      </trkpt>
      <trkpt lat="45.82391" lon="4.54546">
        <ele>397</ele>
        <time>2022-04-01T09:28:24Z</time>
      </trkpt>
      <trkpt lat="45.82332" lon="4.54539">
        <ele>395</ele>
        <time>2022-04-01T09:28:34Z</time>
      </trkpt>
      <trkpt lat="45.82174" lon="4.54588">
        <ele>389</ele>
        <time>2022-04-01T09:29:03Z</time>
      </trkpt>
      <trkpt lat="45.8206" lon="4.54605">
        <ele>391</ele>
        <time>2022-04-01T09:29:23Z</time>
      </trkpt>
      <trkpt lat="45.82011" lon="4.54592">
        <ele>389</ele>
        <time>2022-04-01T09:29:32Z</time>
      </trkpt>
      <trkpt lat="45.81948" lon="4.54549">
        <ele>383</ele>
        <time>2022-04-01T09:29:45Z</time>
      </trkpt>
      <trkpt lat="45.8191" lon="4.54534">
        <ele>381</ele>
        <time>2022-04-01T09:29:52Z</time>
      </trkpt>
      <trkpt lat="45.81871" lon="4.54537">
        <ele>379</ele>
        <time>2022-04-01T09:29:59Z</time>
      </trkpt>
      <trkpt lat="45.81837" lon="4.54551">
        <ele>377</ele>
        <time>2022-04-01T09:30:05Z</time>
      </trkpt>
      <trkpt lat="45.81808" lon="4.54576">
        <ele>375</ele>
        <time>2022-04-01T09:30:11Z</time>
      </trkpt>
      <trkpt lat="45.81788" lon="4.54614">
        <ele>375</ele>
        <time>2022-04-01T09:30:17Z</time>
      </trkpt>
      <trkpt lat="45.81761" lon="4.54739">
        <ele>377</ele>
        <time>2022-04-01T09:30:33Z</time>
      </trkpt>
      <trkpt lat="45.81759" lon="4.54813">
        <ele>380</ele>
        <time>2022-04-01T09:30:42Z</time>
      </trkpt>
      <trkpt lat="45.81745" lon="4.5483">
        <ele>377</ele>
        <time>2022-04-01T09:30:45Z</time>
      </trkpt>
      <trkpt lat="45.81699" lon="4.54837">
        <ele>372</ele>
        <time>2022-04-01T09:30:54Z</time>
      </trkpt>
      <trkpt lat="45.81671" lon="4.54853">
        <ele>370</ele>
        <time>2022-04-01T09:30:59Z</time>
      </trkpt>
      <trkpt lat="45.81645" lon="4.54877">
        <ele>368</ele>
        <time>2022-04-01T09:31:05Z</time>
      </trkpt>
      <trkpt lat="45.81617" lon="4.54921">
        <ele>365</ele>
        <time>2022-04-01T09:31:12Z</time>
      </trkpt>
      <trkpt lat="45.81604" lon="4.54957">
        <ele>364</ele>
        <time>2022-04-01T09:31:17Z</time>
      </trkpt>
      <trkpt lat="45.816" lon="4.54979">
        <ele>363</ele>
        <time>2022-04-01T09:31:20Z</time>
      </trkpt>
      <trkpt lat="45.81599" lon="4.55002">
        <ele>364</ele>
        <time>2022-04-01T09:31:23Z</time>
      </trkpt>
      <trkpt lat="45.81599" lon="4.55027">
        <ele>364</ele>
        <time>2022-04-01T09:31:26Z</time>
      </trkpt>
      <trkpt lat="45.81609" lon="4.55022">
        <ele>367</ele>
        <time>2022-04-01T09:31:28Z</time>
      </trkpt>
      <trkpt lat="45.81613" lon="4.55012">
        <ele>368</ele>
        <time>2022-04-01T09:31:29Z</time>
      </trkpt>
      <trkpt lat="45.81614" lon="4.5498">
        <ele>367</ele>
        <time>2022-04-01T09:31:33Z</time>
      </trkpt>
      <trkpt lat="45.81621" lon="4.54949">
        <ele>368</ele>
        <time>2022-04-01T09:31:37Z</time>
      </trkpt>
      <trkpt lat="45.81629" lon="4.54938">
        <ele>369</ele>
        <time>2022-04-01T09:31:39Z</time>
      </trkpt>
      <trkpt lat="45.81621" lon="4.54949">
        <ele>368</ele>
        <time>2022-04-01T09:31:41Z</time>
      </trkpt>
      <trkpt lat="45.81614" lon="4.5498">
        <ele>367</ele>
        <time>2022-04-01T09:31:45Z</time>
      </trkpt>
      <trkpt lat="45.81613" lon="4.55012">
        <ele>368</ele>
        <time>2022-04-01T09:31:49Z</time>
      </trkpt>
      <trkpt lat="45.81609" lon="4.55022">
        <ele>367</ele>
        <time>2022-04-01T09:31:50Z</time>
      </trkpt>
      <trkpt lat="45.81599" lon="4.55027">
        <ele>364</ele>
        <time>2022-04-01T09:31:52Z</time>
      </trkpt>
      <trkpt lat="45.81602" lon="4.55139">
        <ele>366</ele>
        <time>2022-04-01T09:32:06Z</time>
      </trkpt>
      <trkpt lat="45.81601" lon="4.55161">
        <ele>366</ele>
        <time>2022-04-01T09:32:09Z</time>
      </trkpt>
      <trkpt lat="45.81595" lon="4.55203">
        <ele>367</ele>
        <time>2022-04-01T09:32:14Z</time>
      </trkpt>
      <trkpt lat="45.81587" lon="4.55243">
        <ele>368</ele>
        <time>2022-04-01T09:32:19Z</time>
      </trkpt>
      <trkpt lat="45.81577" lon="4.55274">
        <ele>367</ele>
        <time>2022-04-01T09:32:24Z</time>
      </trkpt>
      <trkpt lat="45.81533" lon="4.55354">
        <ele>359</ele>
        <time>2022-04-01T09:32:36Z</time>
      </trkpt>
      <trkpt lat="45.81528" lon="4.55372">
        <ele>358</ele>
        <time>2022-04-01T09:32:39Z</time>
      </trkpt>
      <trkpt lat="45.81527" lon="4.55392">
        <ele>359</ele>
        <time>2022-04-01T09:32:41Z</time>
      </trkpt>
      <trkpt lat="45.81527" lon="4.55421">
        <ele>359</ele>
        <time>2022-04-01T09:32:45Z</time>
      </trkpt>
      <trkpt lat="45.81531" lon="4.55447">
        <ele>358</ele>
        <time>2022-04-01T09:32:48Z</time>
      </trkpt>
      <trkpt lat="45.81554" lon="4.55501">
        <ele>360</ele>
        <time>2022-04-01T09:32:56Z</time>
      </trkpt>
      <trkpt lat="45.81559" lon="4.55519">
        <ele>361</ele>
        <time>2022-04-01T09:32:58Z</time>
      </trkpt>
      <trkpt lat="45.81556" lon="4.55537">
        <ele>360</ele>
        <time>2022-04-01T09:33:01Z</time>
      </trkpt>
      <trkpt lat="45.81543" lon="4.55585">
        <ele>354</ele>
        <time>2022-04-01T09:33:07Z</time>
      </trkpt>
      <trkpt lat="45.81534" lon="4.55632">
        <ele>352</ele>
        <time>2022-04-01T09:33:13Z</time>
      </trkpt>
      <trkpt lat="45.81534" lon="4.55662">
        <ele>352</ele>
        <time>2022-04-01T09:33:17Z</time>
      </trkpt>
      <trkpt lat="45.81539" lon="4.5568">
        <ele>352</ele>
        <time>2022-04-01T09:33:19Z</time>
      </trkpt>
      <trkpt lat="45.81545" lon="4.55694">
        <ele>353</ele>
        <time>2022-04-01T09:33:21Z</time>
      </trkpt>
      <trkpt lat="45.81578" lon="4.55752">
        <ele>356</ele>
        <time>2022-04-01T09:33:31Z</time>
      </trkpt>
      <trkpt lat="45.81603" lon="4.55782">
        <ele>354</ele>
        <time>2022-04-01T09:33:36Z</time>
      </trkpt>
      <trkpt lat="45.8164" lon="4.558">
        <ele>356</ele>
        <time>2022-04-01T09:33:43Z</time>
      </trkpt>
      <trkpt lat="45.81671" lon="4.55809">
        <ele>360</ele>
        <time>2022-04-01T09:33:49Z</time>
      </trkpt>
      <trkpt lat="45.81701" lon="4.55827">
        <ele>360</ele>
        <time>2022-04-01T09:33:55Z</time>
      </trkpt>
      <trkpt lat="45.81705" lon="4.55838">
        <ele>359</ele>
        <time>2022-04-01T09:33:56Z</time>
      </trkpt>
      <trkpt lat="45.81705" lon="4.55856">
        <ele>360</ele>
        <time>2022-04-01T09:33:58Z</time>
      </trkpt>
      <trkpt lat="45.817" lon="4.55865">
        <ele>359</ele>
        <time>2022-04-01T09:34:00Z</time>
      </trkpt>
      <trkpt lat="45.81692" lon="4.55872">
        <ele>358</ele>
        <time>2022-04-01T09:34:02Z</time>
      </trkpt>
      <trkpt lat="45.81619" lon="4.55933">
        <ele>344</ele>
        <time>2022-04-01T09:34:17Z</time>
      </trkpt>
      <trkpt lat="45.81609" lon="4.55952">
        <ele>343</ele>
        <time>2022-04-01T09:34:20Z</time>
      </trkpt>
      <trkpt lat="45.81602" lon="4.55972">
        <ele>343</ele>
        <time>2022-04-01T09:34:22Z</time>
      </trkpt>
      <trkpt lat="45.81594" lon="4.56012">
        <ele>343</ele>
        <time>2022-04-01T09:34:27Z</time>
      </trkpt>
      <trkpt lat="45.81592" lon="4.56032">
        <ele>342</ele>
        <time>2022-04-01T09:34:30Z</time>
      </trkpt>
      <trkpt lat="45.81592" lon="4.56052">
        <ele>342</ele>
        <time>2022-04-01T09:34:32Z</time>
      </trkpt>
      <trkpt lat="45.81595" lon="4.56066">
        <ele>342</ele>
        <time>2022-04-01T09:34:34Z</time>
      </trkpt>
      <trkpt lat="45.81613" lon="4.56096">
        <ele>347</ele>
        <time>2022-04-01T09:34:39Z</time>
      </trkpt>
      <trkpt lat="45.81618" lon="4.56107">
        <ele>349</ele>
        <time>2022-04-01T09:34:41Z</time>
      </trkpt>
      <trkpt lat="45.81615" lon="4.56121">
        <ele>349</ele>
        <time>2022-04-01T09:34:43Z</time>
      </trkpt>
      <trkpt lat="45.81612" lon="4.56129">
        <ele>349</ele>
        <time>2022-04-01T09:34:44Z</time>
      </trkpt>
      <trkpt lat="45.81607" lon="4.56135">
        <ele>348</ele>
        <time>2022-04-01T09:34:45Z</time>
      </trkpt>
      <trkpt lat="45.81556" lon="4.56174">
        <ele>338</ele>
        <time>2022-04-01T09:34:55Z</time>
      </trkpt>
      <trkpt lat="45.81483" lon="4.56265">
        <ele>335</ele>
        <time>2022-04-01T09:35:12Z</time>
      </trkpt>
      <trkpt lat="45.81452" lon="4.563">
        <ele>334</ele>
        <time>2022-04-01T09:35:19Z</time>
      </trkpt>
      <trkpt lat="45.81419" lon="4.56294">
        <ele>327</ele>
        <time>2022-04-01T09:35:25Z</time>
      </trkpt>
      <trkpt lat="45.81393" lon="4.56311">
        <ele>324</ele>
        <time>2022-04-01T09:35:30Z</time>
      </trkpt>
      <trkpt lat="45.81373" lon="4.56369">
        <ele>324</ele>
        <time>2022-04-01T09:35:38Z</time>
      </trkpt>
      <trkpt lat="45.81365" lon="4.56444">
        <ele>324</ele>
        <time>2022-04-01T09:35:48Z</time>
      </trkpt>
      <trkpt lat="45.81376" lon="4.56509">
        <ele>327</ele>
        <time>2022-04-01T09:35:56Z</time>
      </trkpt>
      <trkpt lat="45.81374" lon="4.56522">
        <ele>327</ele>
        <time>2022-04-01T09:35:58Z</time>
      </trkpt>
      <trkpt lat="45.81365" lon="4.56539">
        <ele>325</ele>
        <time>2022-04-01T09:36:00Z</time>
      </trkpt>
      <trkpt lat="45.81353" lon="4.56556">
        <ele>322</ele>
        <time>2022-04-01T09:36:03Z</time>
      </trkpt>
      <trkpt lat="45.81344" lon="4.5658">
        <ele>320</ele>
        <time>2022-04-01T09:36:07Z</time>
      </trkpt>
      <trkpt lat="45.81342" lon="4.56597">
        <ele>319</ele>
        <time>2022-04-01T09:36:09Z</time>
      </trkpt>
      <trkpt lat="45.81345" lon="4.56612">
        <ele>318</ele>
        <time>2022-04-01T09:36:11Z</time>
      </trkpt>
      <trkpt lat="45.81354" lon="4.5663">
        <ele>319</ele>
        <time>2022-04-01T09:36:14Z</time>
      </trkpt>
      <trkpt lat="45.81368" lon="4.56676">
        <ele>319</ele>
        <time>2022-04-01T09:36:20Z</time>
      </trkpt>
      <trkpt lat="45.81376" lon="4.5673">
        <ele>315</ele>
        <time>2022-04-01T09:36:27Z</time>
      </trkpt>
      <trkpt lat="45.81386" lon="4.56745">
        <ele>316</ele>
        <time>2022-04-01T09:36:29Z</time>
      </trkpt>
      <trkpt lat="45.81454" lon="4.56725">
        <ele>329</ele>
        <time>2022-04-01T09:36:42Z</time>
      </trkpt>
      <trkpt lat="45.81461" lon="4.56734">
        <ele>329</ele>
        <time>2022-04-01T09:36:43Z</time>
      </trkpt>
      <trkpt lat="45.81465" lon="4.56747">
        <ele>329</ele>
        <time>2022-04-01T09:36:45Z</time>
      </trkpt>
      <trkpt lat="45.81464" lon="4.56762">
        <ele>328</ele>
        <time>2022-04-01T09:36:47Z</time>
      </trkpt>
      <trkpt lat="45.81382" lon="4.5686">
        <ele>315</ele>
        <time>2022-04-01T09:37:06Z</time>
      </trkpt>
      <trkpt lat="45.81324" lon="4.56925">
        <ele>313</ele>
        <time>2022-04-01T09:37:19Z</time>
      </trkpt>
      <trkpt lat="45.81276" lon="4.5695">
        <ele>305</ele>
        <time>2022-04-01T09:37:28Z</time>
      </trkpt>
      <trkpt lat="45.81262" lon="4.57">
        <ele>306</ele>
        <time>2022-04-01T09:37:35Z</time>
      </trkpt>
      <trkpt lat="45.81289" lon="4.57153">
        <ele>307</ele>
        <time>2022-04-01T09:37:54Z</time>
      </trkpt>
      <trkpt lat="45.81293" lon="4.57202">
        <ele>303</ele>
        <time>2022-04-01T09:38:00Z</time>
      </trkpt>
      <trkpt lat="45.81322" lon="4.57283">
        <ele>297</ele>
        <time>2022-04-01T09:38:12Z</time>
      </trkpt>
      <trkpt lat="45.8134" lon="4.57302">
        <ele>296</ele>
        <time>2022-04-01T09:38:16Z</time>
      </trkpt>
      <trkpt lat="45.81433" lon="4.573">
        <ele>304</ele>
        <time>2022-04-01T09:38:32Z</time>
      </trkpt>
      <trkpt lat="45.81477" lon="4.57338">
        <ele>298</ele>
        <time>2022-04-01T09:38:41Z</time>
      </trkpt>
      <trkpt lat="45.81505" lon="4.5738">
        <ele>296</ele>
        <time>2022-04-01T09:38:49Z</time>
      </trkpt>
      <trkpt lat="45.81516" lon="4.57401">
        <ele>295</ele>
        <time>2022-04-01T09:38:52Z</time>
      </trkpt>
      <trkpt lat="45.81568" lon="4.5746">
        <ele>295</ele>
        <time>2022-04-01T09:39:04Z</time>
      </trkpt>
      <trkpt lat="45.81636" lon="4.57488">
        <ele>297</ele>
        <time>2022-04-01T09:39:16Z</time>
      </trkpt>
      <trkpt lat="45.81644" lon="4.57489">
        <ele>297</ele>
        <time>2022-04-01T09:39:18Z</time>
      </trkpt>
      <trkpt lat="45.8166" lon="4.57541">
        <ele>294</ele>
        <time>2022-04-01T09:39:25Z</time>
      </trkpt>
      <trkpt lat="45.81783" lon="4.57699">
        <ele>286</ele>
        <time>2022-04-01T09:39:54Z</time>
      </trkpt>
      <trkpt lat="45.81805" lon="4.57734">
        <ele>285</ele>
        <time>2022-04-01T09:40:00Z</time>
      </trkpt>
      <trkpt lat="45.81813" lon="4.57771">
        <ele>285</ele>
        <time>2022-04-01T09:40:05Z</time>
      </trkpt>
      <trkpt lat="45.81813" lon="4.57815">
        <ele>284</ele>
        <time>2022-04-01T09:40:10Z</time>
      </trkpt>
      <trkpt lat="45.81801" lon="4.57861">
        <ele>283</ele>
        <time>2022-04-01T09:40:16Z</time>
      </trkpt>
      <trkpt lat="45.81759" lon="4.57928">
        <ele>280</ele>
        <time>2022-04-01T09:40:28Z</time>
      </trkpt>
      <trkpt lat="45.81709" lon="4.57992">
        <ele>277</ele>
        <time>2022-04-01T09:40:39Z</time>
      </trkpt>
      <trkpt lat="45.81678" lon="4.58039">
        <ele>276</ele>
        <time>2022-04-01T09:40:47Z</time>
      </trkpt>
      <trkpt lat="45.81636" lon="4.58126">
        <ele>274</ele>
        <time>2022-04-01T09:41:01Z</time>
      </trkpt>
      <trkpt lat="45.81582" lon="4.58253">
        <ele>269</ele>
        <time>2022-04-01T09:41:19Z</time>
      </trkpt>
      <trkpt lat="45.81536" lon="4.58357">
        <ele>266</ele>
        <time>2022-04-01T09:41:34Z</time>
      </trkpt>
      <trkpt lat="45.81528" lon="4.58383">
        <ele>266</ele>
        <time>2022-04-01T09:41:38Z</time>
      </trkpt>
      <trkpt lat="45.81523" lon="4.58405">
        <ele>266</ele>
        <time>2022-04-01T09:41:41Z</time>
      </trkpt>
      <trkpt lat="45.8152" lon="4.58443">
        <ele>266</ele>
        <time>2022-04-01T09:41:45Z</time>
      </trkpt>
      <trkpt lat="45.81511" lon="4.58631">
        <ele>263</ele>
        <time>2022-04-01T09:42:09Z</time>
      </trkpt>
      <trkpt lat="45.81507" lon="4.58671">
        <ele>262</ele>
        <time>2022-04-01T09:42:14Z</time>
      </trkpt>
      <trkpt lat="45.81498" lon="4.58712">
        <ele>263</ele>
        <time>2022-04-01T09:42:19Z</time>
      </trkpt>
      <trkpt lat="45.81486" lon="4.58746">
        <ele>264</ele>
        <time>2022-04-01T09:42:24Z</time>
      </trkpt>
      <trkpt lat="45.81434" lon="4.58873">
        <ele>260</ele>
        <time>2022-04-01T09:42:42Z</time>
      </trkpt>
      <trkpt lat="45.81414" lon="4.58948">
        <ele>258</ele>
        <time>2022-04-01T09:42:52Z</time>
      </trkpt>
      <trkpt lat="45.8138" lon="4.59104">
        <ele>260</ele>
        <time>2022-04-01T09:43:12Z</time>
      </trkpt>
      <trkpt lat="45.81374" lon="4.59121">
        <ele>260</ele>
        <time>2022-04-01T09:43:15Z</time>
      </trkpt>
      <trkpt lat="45.81336" lon="4.59196">
        <ele>254</ele>
        <time>2022-04-01T09:43:26Z</time>
      </trkpt>
      <trkpt lat="45.81329" lon="4.59217">
        <ele>254</ele>
        <time>2022-04-01T09:43:29Z</time>
      </trkpt>
      <trkpt lat="45.81319" lon="4.59252">
        <ele>254</ele>
        <time>2022-04-01T09:43:34Z</time>
      </trkpt>
      <trkpt lat="45.81302" lon="4.59326">
        <ele>258</ele>
        <time>2022-04-01T09:43:43Z</time>
      </trkpt>
      <trkpt lat="45.81293" lon="4.59349">
        <ele>258</ele>
        <time>2022-04-01T09:43:47Z</time>
      </trkpt>
      <trkpt lat="45.81249" lon="4.59433">
        <ele>253</ele>
        <time>2022-04-01T09:44:00Z</time>
      </trkpt>
      <trkpt lat="45.81195" lon="4.594">
        <ele>249</ele>
        <time>2022-04-01T09:44:10Z</time>
      </trkpt>
      <trkpt lat="45.81184" lon="4.59392">
        <ele>248</ele>
        <time>2022-04-01T09:44:12Z</time>
      </trkpt>
      <trkpt lat="45.81125" lon="4.59354">
        <ele>251</ele>
        <time>2022-04-01T09:44:24Z</time>
      </trkpt>
      <trkpt lat="45.81112" lon="4.59355">
        <ele>251</ele>
        <time>2022-04-01T09:44:26Z</time>
      </trkpt>
      <trkpt lat="45.81106" lon="4.59359">
        <ele>251</ele>
        <time>2022-04-01T09:44:27Z</time>
      </trkpt>
      <trkpt lat="45.81101" lon="4.59371">
        <ele>251</ele>
        <time>2022-04-01T09:44:29Z</time>
      </trkpt>
      <trkpt lat="45.81056" lon="4.59601">
        <ele>245</ele>
        <time>2022-04-01T09:44:59Z</time>
      </trkpt>
      <trkpt lat="45.81045" lon="4.59638">
        <ele>246</ele>
        <time>2022-04-01T09:45:04Z</time>
      </trkpt>
      <trkpt lat="45.8104" lon="4.5966">
        <ele>246</ele>
        <time>2022-04-01T09:45:07Z</time>
      </trkpt>
      <trkpt lat="45.81039" lon="4.59683">
        <ele>247</ele>
        <time>2022-04-01T09:45:10Z</time>
      </trkpt>
      <trkpt lat="45.81039" lon="4.59708">
        <ele>247</ele>
        <time>2022-04-01T09:45:13Z</time>
      </trkpt>
      <trkpt lat="45.81048" lon="4.59766">
        <ele>248</ele>
        <time>2022-04-01T09:45:20Z</time>
      </trkpt>
      <trkpt lat="45.81047" lon="4.59779">
        <ele>248</ele>
        <time>2022-04-01T09:45:22Z</time>
      </trkpt>
      <trkpt lat="45.81031" lon="4.59835">
        <ele>247</ele>
        <time>2022-04-01T09:45:29Z</time>
      </trkpt>
      <trkpt lat="45.81022" lon="4.59887">
        <ele>243</ele>
        <time>2022-04-01T09:45:36Z</time>
      </trkpt>
      <trkpt lat="45.81031" lon="4.59835">
        <ele>247</ele>
        <time>2022-04-01T09:45:42Z</time>
      </trkpt>
      <trkpt lat="45.81047" lon="4.59779">
        <ele>248</ele>
        <time>2022-04-01T09:45:50Z</time>
      </trkpt>
      <trkpt lat="45.81048" lon="4.59766">
        <ele>248</ele>
        <time>2022-04-01T09:45:52Z</time>
      </trkpt>
      <trkpt lat="45.8106" lon="4.59762">
        <ele>249</ele>
        <time>2022-04-01T09:45:54Z</time>
      </trkpt>
      <trkpt lat="45.81134" lon="4.59716">
        <ele>252</ele>
        <time>2022-04-01T09:46:08Z</time>
      </trkpt>
      <trkpt lat="45.81147" lon="4.5969">
        <ele>250</ele>
        <time>2022-04-01T09:46:12Z</time>
      </trkpt>
      <trkpt lat="45.8117" lon="4.59612">
        <ele>250</ele>
        <time>2022-04-01T09:46:23Z</time>
      </trkpt>
      <trkpt lat="45.81191" lon="4.59559">
        <ele>254</ele>
        <time>2022-04-01T09:46:30Z</time>
      </trkpt>
      <trkpt lat="45.81249" lon="4.59433">
        <ele>253</ele>
        <time>2022-04-01T09:46:49Z</time>
      </trkpt>
      <trkpt lat="45.81293" lon="4.59349">
        <ele>258</ele>
        <time>2022-04-01T09:47:02Z</time>
      </trkpt>
      <trkpt lat="45.81302" lon="4.59326">
        <ele>258</ele>
        <time>2022-04-01T09:47:05Z</time>
      </trkpt>
      <trkpt lat="45.81319" lon="4.59252">
        <ele>254</ele>
        <time>2022-04-01T09:47:15Z</time>
      </trkpt>
      <trkpt lat="45.81329" lon="4.59217">
        <ele>254</ele>
        <time>2022-04-01T09:47:19Z</time>
      </trkpt>
      <trkpt lat="45.81336" lon="4.59196">
        <ele>254</ele>
        <time>2022-04-01T09:47:22Z</time>
      </trkpt>
      <trkpt lat="45.81374" lon="4.59121">
        <ele>260</ele>
        <time>2022-04-01T09:47:34Z</time>
      </trkpt>
      <trkpt lat="45.8138" lon="4.59104">
        <ele>260</ele>
        <time>2022-04-01T09:47:36Z</time>
      </trkpt>
      <trkpt lat="45.81414" lon="4.58948">
        <ele>258</ele>
        <time>2022-04-01T09:47:56Z</time>
      </trkpt>
      <trkpt lat="45.81434" lon="4.58873">
        <ele>260</ele>
        <time>2022-04-01T09:48:06Z</time>
      </trkpt>
      <trkpt lat="45.81486" lon="4.58746">
        <ele>264</ele>
        <time>2022-04-01T09:48:25Z</time>
      </trkpt>
      <trkpt lat="45.81498" lon="4.58712">
        <ele>263</ele>
        <time>2022-04-01T09:48:29Z</time>
      </trkpt>
      <trkpt lat="45.81507" lon="4.58671">
        <ele>262</ele>
        <time>2022-04-01T09:48:35Z</time>
      </trkpt>
      <trkpt lat="45.81511" lon="4.58631">
        <ele>263</ele>
        <time>2022-04-01T09:48:40Z</time>
      </trkpt>
      <trkpt lat="45.8152" lon="4.58443">
        <ele>266</ele>
        <time>2022-04-01T09:49:03Z</time>
      </trkpt>
      <trkpt lat="45.81523" lon="4.58405">
        <ele>266</ele>
        <time>2022-04-01T09:49:08Z</time>
      </trkpt>
      <trkpt lat="45.81528" lon="4.58383">
        <ele>266</ele>
        <time>2022-04-01T09:49:11Z</time>
      </trkpt>
      <trkpt lat="45.81536" lon="4.58357">
        <ele>266</ele>
        <time>2022-04-01T09:49:14Z</time>
      </trkpt>
      <trkpt lat="45.81582" lon="4.58253">
        <ele>269</ele>
        <time>2022-04-01T09:49:30Z</time>
      </trkpt>
      <trkpt lat="45.81636" lon="4.58126">
        <ele>274</ele>
        <time>2022-04-01T09:49:48Z</time>
      </trkpt>
      <trkpt lat="45.81678" lon="4.58039">
        <ele>276</ele>
        <time>2022-04-01T09:50:01Z</time>
      </trkpt>
      <trkpt lat="45.81709" lon="4.57992">
        <ele>277</ele>
        <time>2022-04-01T09:50:09Z</time>
      </trkpt>
      <trkpt lat="45.81759" lon="4.57928">
        <ele>280</ele>
        <time>2022-04-01T09:50:21Z</time>
      </trkpt>
      <trkpt lat="45.81801" lon="4.57861">
        <ele>283</ele>
        <time>2022-04-01T09:50:32Z</time>
      </trkpt>
      <trkpt lat="45.81813" lon="4.57815">
        <ele>284</ele>
        <time>2022-04-01T09:50:38Z</time>
      </trkpt>
      <trkpt lat="45.81813" lon="4.57771">
        <ele>285</ele>
        <time>2022-04-01T09:50:44Z</time>
      </trkpt>
      <trkpt lat="45.81805" lon="4.57734">
        <ele>285</ele>
        <time>2022-04-01T09:50:49Z</time>
      </trkpt>
      <trkpt lat="45.81783" lon="4.57699">
        <ele>286</ele>
        <time>2022-04-01T09:50:54Z</time>
      </trkpt>
      <trkpt lat="45.81705" lon="4.576">
        <ele>289</ele>
        <time>2022-04-01T09:51:13Z</time>
      </trkpt>
      <trkpt lat="45.81712" lon="4.57532">
        <ele>294</ele>
        <time>2022-04-01T09:51:22Z</time>
      </trkpt>
      <trkpt lat="45.81712" lon="4.57501">
        <ele>296</ele>
        <time>2022-04-01T09:51:25Z</time>
      </trkpt>
      <trkpt lat="45.8178" lon="4.57508">
        <ele>297</ele>
        <time>2022-04-01T09:51:37Z</time>
      </trkpt>
      <trkpt lat="45.81802" lon="4.57504">
        <ele>298</ele>
        <time>2022-04-01T09:51:41Z</time>
      </trkpt>
      <trkpt lat="45.81903" lon="4.57468">
        <ele>306</ele>
        <time>2022-04-01T09:52:00Z</time>
      </trkpt>
      <trkpt lat="45.81925" lon="4.57469">
        <ele>308</ele>
        <time>2022-04-01T09:52:04Z</time>
      </trkpt>
      <trkpt lat="45.81989" lon="4.57498">
        <ele>311</ele>
        <time>2022-04-01T09:52:16Z</time>
      </trkpt>
      <trkpt lat="45.82138" lon="4.57552">
        <ele>317</ele>
        <time>2022-04-01T09:52:43Z</time>
      </trkpt>
      <trkpt lat="45.82155" lon="4.57555">
        <ele>318</ele>
        <time>2022-04-01T09:52:46Z</time>
      </trkpt>
      <trkpt lat="45.8219" lon="4.57541">
        <ele>319</ele>
        <time>2022-04-01T09:52:53Z</time>
      </trkpt>
      <trkpt lat="45.82218" lon="4.57515">
        <ele>321</ele>
        <time>2022-04-01T09:52:59Z</time>
      </trkpt>
      <trkpt lat="45.82254" lon="4.57448">
        <ele>324</ele>
        <time>2022-04-01T09:53:09Z</time>
      </trkpt>
      <trkpt lat="45.82408" lon="4.57171">
        <ele>337</ele>
        <time>2022-04-01T09:53:53Z</time>
      </trkpt>
      <trkpt lat="45.82443" lon="4.57076">
        <ele>342</ele>
        <time>2022-04-01T09:54:06Z</time>
      </trkpt>
      <trkpt lat="45.82457" lon="4.57049">
        <ele>343</ele>
        <time>2022-04-01T09:54:11Z</time>
      </trkpt>
      <trkpt lat="45.8248" lon="4.57034">
        <ele>343</ele>
        <time>2022-04-01T09:54:15Z</time>
      </trkpt>
      <trkpt lat="45.82572" lon="4.57056">
        <ele>346</ele>
        <time>2022-04-01T09:54:32Z</time>
      </trkpt>
      <trkpt lat="45.8265" lon="4.57045">
        <ele>350</ele>
        <time>2022-04-01T09:54:46Z</time>
      </trkpt>
      <trkpt lat="45.8273" lon="4.57041">
        <ele>349</ele>
        <time>2022-04-01T09:55:00Z</time>
      </trkpt>
      <trkpt lat="45.8279" lon="4.57003">
        <ele>350</ele>
        <time>2022-04-01T09:55:11Z</time>
      </trkpt>
      <trkpt lat="45.82834" lon="4.56993">
        <ele>350</ele>
        <time>2022-04-01T09:55:19Z</time>
      </trkpt>
      <trkpt lat="45.8292" lon="4.57013">
        <ele>350</ele>
        <time>2022-04-01T09:55:35Z</time>
      </trkpt>
      <trkpt lat="45.83055" lon="4.5707">
        <ele>350</ele>
        <time>2022-04-01T09:56:00Z</time>
      </trkpt>
      <trkpt lat="45.83097" lon="4.57074">
        <ele>351</ele>
        <time>2022-04-01T09:56:07Z</time>
      </trkpt>
      <trkpt lat="45.83305" lon="4.57049">
        <ele>353</ele>
        <time>2022-04-01T09:56:45Z</time>
      </trkpt>
      <trkpt lat="45.83342" lon="4.57031">
        <ele>353</ele>
        <time>2022-04-01T09:56:52Z</time>
      </trkpt>
      <trkpt lat="45.83389" lon="4.56988">
        <ele>354</ele>
        <time>2022-04-01T09:57:01Z</time>
      </trkpt>
      <trkpt lat="45.8342" lon="4.56919">
        <ele>356</ele>
        <time>2022-04-01T09:57:12Z</time>
      </trkpt>
      <trkpt lat="45.83436" lon="4.56823">
        <ele>357</ele>
        <time>2022-04-01T09:57:24Z</time>
      </trkpt>
      <trkpt lat="45.83442" lon="4.56638">
        <ele>369</ele>
        <time>2022-04-01T09:57:47Z</time>
      </trkpt>
      <trkpt lat="45.83459" lon="4.56599">
        <ele>374</ele>
        <time>2022-04-01T09:57:53Z</time>
      </trkpt>
      <trkpt lat="45.83485" lon="4.56583">
        <ele>374</ele>
        <time>2022-04-01T09:57:58Z</time>
      </trkpt>
      <trkpt lat="45.83561" lon="4.56572">
        <ele>369</ele>
        <time>2022-04-01T09:58:11Z</time>
      </trkpt>
      <trkpt lat="45.83608" lon="4.56559">
        <ele>365</ele>
        <time>2022-04-01T09:58:20Z</time>
      </trkpt>
      <trkpt lat="45.83665" lon="4.56525">
        <ele>364</ele>
        <time>2022-04-01T09:58:31Z</time>
      </trkpt>
      <trkpt lat="45.83706" lon="4.56484">
        <ele>367</ele>
        <time>2022-04-01T09:58:40Z</time>
      </trkpt>
      <trkpt lat="45.8374" lon="4.56439">
        <ele>369</ele>
        <time>2022-04-01T09:58:48Z</time>
      </trkpt>
      <trkpt lat="45.83768" lon="4.56378">
        <ele>367</ele>
        <time>2022-04-01T09:58:57Z</time>
      </trkpt>
      <trkpt lat="45.83774" lon="4.56314">
        <ele>366</ele>
        <time>2022-04-01T09:59:05Z</time>
      </trkpt>
      <trkpt lat="45.83726" lon="4.56167">
        <ele>369</ele>
        <time>2022-04-01T09:59:25Z</time>
      </trkpt>
      <trkpt lat="45.83662" lon="4.56074">
        <ele>375</ele>
        <time>2022-04-01T09:59:41Z</time>
      </trkpt>
      <trkpt lat="45.83637" lon="4.56024">
        <ele>374</ele>
        <time>2022-04-01T09:59:49Z</time>
      </trkpt>
      <trkpt lat="45.8364" lon="4.55983">
        <ele>373</ele>
        <time>2022-04-01T09:59:54Z</time>
      </trkpt>
      <trkpt lat="45.8366" lon="4.55952">
        <ele>371</ele>
        <time>2022-04-01T09:59:59Z</time>
      </trkpt>
      <trkpt lat="45.83688" lon="4.55912">
        <ele>366</ele>
        <time>2022-04-01T10:00:06Z</time>
      </trkpt>
      <trkpt lat="45.83701" lon="4.55857">
        <ele>364</ele>
        <time>2022-04-01T10:00:13Z</time>
      </trkpt>
      <trkpt lat="45.83696" lon="4.55814">
        <ele>364</ele>
        <time>2022-04-01T10:00:19Z</time>
      </trkpt>
      <trkpt lat="45.8368" lon="4.55767">
        <ele>364</ele>
        <time>2022-04-01T10:00:25Z</time>
      </trkpt>
      <trkpt lat="45.83646" lon="4.55721">
        <ele>365</ele>
        <time>2022-04-01T10:00:34Z</time>
      </trkpt>
      <trkpt lat="45.83451" lon="4.55515">
        <ele>375</ele>
        <time>2022-04-01T10:01:17Z</time>
      </trkpt>
      <trkpt lat="45.83439" lon="4.55489">
        <ele>377</ele>
        <time>2022-04-01T10:01:21Z</time>
      </trkpt>
      <trkpt lat="45.8344" lon="4.55477">
        <ele>378</ele>
        <time>2022-04-01T10:01:22Z</time>
      </trkpt>
      <trkpt lat="45.83442" lon="4.55468">
        <ele>379</ele>
        <time>2022-04-01T10:01:23Z</time>
      </trkpt>
      <trkpt lat="45.83452" lon="4.55456">
        <ele>380</ele>
        <time>2022-04-01T10:01:25Z</time>
      </trkpt>
      <trkpt lat="45.83465" lon="4.55448">
        <ele>380</ele>
        <time>2022-04-01T10:01:28Z</time>
      </trkpt>
      <trkpt lat="45.83511" lon="4.55439">
        <ele>378</ele>
        <time>2022-04-01T10:01:36Z</time>
      </trkpt>
      <trkpt lat="45.83557" lon="4.55451">
        <ele>373</ele>
        <time>2022-04-01T10:01:45Z</time>
      </trkpt>
      <trkpt lat="45.83584" lon="4.55454">
        <ele>370</ele>
        <time>2022-04-01T10:01:49Z</time>
      </trkpt>
      <trkpt lat="45.83605" lon="4.55443">
        <ele>370</ele>
        <time>2022-04-01T10:01:53Z</time>
      </trkpt>
      <trkpt lat="45.83621" lon="4.5542">
        <ele>371</ele>
        <time>2022-04-01T10:01:57Z</time>
      </trkpt>
      <trkpt lat="45.83628" lon="4.55394">
        <ele>370</ele>
        <time>2022-04-01T10:02:01Z</time>
      </trkpt>
      <trkpt lat="45.8363" lon="4.55362">
        <ele>370</ele>
        <time>2022-04-01T10:02:05Z</time>
      </trkpt>
      <trkpt lat="45.83566" lon="4.5518">
        <ele>379</ele>
        <time>2022-04-01T10:02:30Z</time>
      </trkpt>
      <trkpt lat="45.83551" lon="4.5511">
        <ele>380</ele>
        <time>2022-04-01T10:02:39Z</time>
      </trkpt>
      <trkpt lat="45.83539" lon="4.55065">
        <ele>380</ele>
        <time>2022-04-01T10:02:45Z</time>
      </trkpt>
      <trkpt lat="45.8349" lon="4.54995">
        <ele>383</ele>
        <time>2022-04-01T10:02:57Z</time>
      </trkpt>
      <trkpt lat="45.83485" lon="4.54965">
        <ele>386</ele>
        <time>2022-04-01T10:03:01Z</time>
      </trkpt>
      <trkpt lat="45.83486" lon="4.54937">
        <ele>387</ele>
        <time>2022-04-01T10:03:05Z</time>
      </trkpt>
      <trkpt lat="45.83493" lon="4.54909">
        <ele>387</ele>
        <time>2022-04-01T10:03:08Z</time>
      </trkpt>
      <trkpt lat="45.83505" lon="4.54871">
        <ele>387</ele>
        <time>2022-04-01T10:03:14Z</time>
      </trkpt>
      <trkpt lat="45.83519" lon="4.54778">
        <ele>392</ele>
        <time>2022-04-01T10:03:25Z</time>
      </trkpt>
      <trkpt lat="45.83554" lon="4.54674">
        <ele>392</ele>
        <time>2022-04-01T10:03:40Z</time>
      </trkpt>
      <trkpt lat="45.83566" lon="4.54601">
        <ele>392</ele>
        <time>2022-04-01T10:03:49Z</time>
      </trkpt>
      <trkpt lat="45.8358" lon="4.54528">
        <ele>390</ele>
        <time>2022-04-01T10:03:58Z</time>
      </trkpt>
      <trkpt lat="45.83583" lon="4.54456">
        <ele>391</ele>
        <time>2022-04-01T10:04:07Z</time>
      </trkpt>
      <trkpt lat="45.83594" lon="4.54417">
        <ele>391</ele>
        <time>2022-04-01T10:04:13Z</time>
      </trkpt>
      <trkpt lat="45.83607" lon="4.54402">
        <ele>392</ele>
        <time>2022-04-01T10:04:16Z</time>
      </trkpt>
      <trkpt lat="45.83627" lon="4.54401">
        <ele>392</ele>
        <time>2022-04-01T10:04:19Z</time>
      </trkpt>
      <trkpt lat="45.8379" lon="4.54369">
        <ele>395</ele>
        <time>2022-04-01T10:04:48Z</time>
      </trkpt>
      <trkpt lat="45.83846" lon="4.54343">
        <ele>396</ele>
        <time>2022-04-01T10:04:59Z</time>
      </trkpt>
      <trkpt lat="45.83916" lon="4.54293">
        <ele>401</ele>
        <time>2022-04-01T10:05:13Z</time>
      </trkpt>
      <trkpt lat="45.84039" lon="4.54212">
        <ele>403</ele>
        <time>2022-04-01T10:05:37Z</time>
      </trkpt>
      <trkpt lat="45.84116" lon="4.54166">
        <ele>401</ele>
        <time>2022-04-01T10:05:52Z</time>
      </trkpt>
      <trkpt lat="45.8413" lon="4.5415">
        <ele>401</ele>
        <time>2022-04-01T10:05:55Z</time>
      </trkpt>
      <trkpt lat="45.8416" lon="4.54122">
        <ele>401</ele>
        <time>2022-04-01T10:06:01Z</time>
      </trkpt>
      <trkpt lat="45.84195" lon="4.54085">
        <ele>401</ele>
        <time>2022-04-01T10:06:09Z</time>
      </trkpt>
      <trkpt lat="45.84214" lon="4.54058">
        <ele>402</ele>
        <time>2022-04-01T10:06:14Z</time>
      </trkpt>
      <trkpt lat="45.84245" lon="4.54011">
        <ele>405</ele>
        <time>2022-04-01T10:06:22Z</time>
      </trkpt>
      <trkpt lat="45.84268" lon="4.53985">
        <ele>407</ele>
        <time>2022-04-01T10:06:27Z</time>
      </trkpt>
      <trkpt lat="45.84328" lon="4.53931">
        <ele>407</ele>
        <time>2022-04-01T10:06:40Z</time>
      </trkpt>
      <trkpt lat="45.8436" lon="4.53906">
        <ele>407</ele>
        <time>2022-04-01T10:06:46Z</time>
      </trkpt>
      <trkpt lat="45.84388" lon="4.53888">
        <ele>407</ele>
        <time>2022-04-01T10:06:52Z</time>
      </trkpt>
      <trkpt lat="45.8442" lon="4.53882">
        <ele>404</ele>
        <time>2022-04-01T10:06:57Z</time>
      </trkpt>
      <trkpt lat="45.84438" lon="4.53873">
        <ele>404</ele>
        <time>2022-04-01T10:07:01Z</time>
      </trkpt>
      <trkpt lat="45.84463" lon="4.53855">
        <ele>403</ele>
        <time>2022-04-01T10:07:06Z</time>
      </trkpt>
      <trkpt lat="45.84482" lon="4.53825">
        <ele>404</ele>
        <time>2022-04-01T10:07:11Z</time>
      </trkpt>
      <trkpt lat="45.84502" lon="4.53782">
        <ele>404</ele>
        <time>2022-04-01T10:07:17Z</time>
      </trkpt>
      <trkpt lat="45.84523" lon="4.5367">
        <ele>408</ele>
        <time>2022-04-01T10:07:31Z</time>
      </trkpt>
      <trkpt lat="45.84526" lon="4.53605">
        <ele>407</ele>
        <time>2022-04-01T10:07:40Z</time>
      </trkpt>
      <trkpt lat="45.84525" lon="4.53577">
        <ele>406</ele>
        <time>2022-04-01T10:07:43Z</time>
      </trkpt>
      <trkpt lat="45.84529" lon="4.53552">
        <ele>405</ele>
        <time>2022-04-01T10:07:46Z</time>
      </trkpt>
      <trkpt lat="45.84524" lon="4.53544">
        <ele>405</ele>
        <time>2022-04-01T10:07:47Z</time>
      </trkpt>
      <trkpt lat="45.84518" lon="4.53544">
        <ele>406</ele>
        <time>2022-04-01T10:07:49Z</time>
      </trkpt>
      <trkpt lat="45.84514" lon="4.53469">
        <ele>404</ele>
        <time>2022-04-01T10:07:58Z</time>
      </trkpt>
      <trkpt lat="45.84499" lon="4.5338">
        <ele>404</ele>
        <time>2022-04-01T10:08:09Z</time>
      </trkpt>
      <trkpt lat="45.84499" lon="4.53327">
        <ele>404</ele>
        <time>2022-04-01T10:08:16Z</time>
      </trkpt>
      <trkpt lat="45.84522" lon="4.53204">
        <ele>406</ele>
        <time>2022-04-01T10:08:32Z</time>
      </trkpt>
      <trkpt lat="45.84554" lon="4.53161">
        <ele>408</ele>
        <time>2022-04-01T10:08:39Z</time>
      </trkpt>
      <trkpt lat="45.84581" lon="4.53144">
        <ele>409</ele>
        <time>2022-04-01T10:08:45Z</time>
      </trkpt>
      <trkpt lat="45.84703" lon="4.53078">
        <ele>412</ele>
        <time>2022-04-01T10:09:08Z</time>
      </trkpt>
      <trkpt lat="45.84724" lon="4.53068">
        <ele>413</ele>
        <time>2022-04-01T10:09:12Z</time>
      </trkpt>
      <trkpt lat="45.84724" lon="4.531">
        <ele>411</ele>
        <time>2022-04-01T10:09:16Z</time>
      </trkpt>
      <trkpt lat="45.84739" lon="4.53108">
        <ele>410</ele>
        <time>2022-04-01T10:09:19Z</time>
      </trkpt>
      <trkpt lat="45.84747" lon="4.53145">
        <ele>407</ele>
        <time>2022-04-01T10:09:23Z</time>
      </trkpt>
      <trkpt lat="45.84763" lon="4.53139">
        <ele>407</ele>
        <time>2022-04-01T10:09:26Z</time>
      </trkpt>
      <trkpt lat="45.84791" lon="4.53133">
        <ele>406</ele>
        <time>2022-04-01T10:09:31Z</time>
      </trkpt>
      <trkpt lat="45.84881" lon="4.53159">
        <ele>399</ele>
        <time>2022-04-01T10:09:48Z</time>
      </trkpt>
      <trkpt lat="45.8494" lon="4.532">
        <ele>392</ele>
        <time>2022-04-01T10:09:59Z</time>
      </trkpt>
      <trkpt lat="45.84978" lon="4.53198">
        <ele>389</ele>
        <time>2022-04-01T10:10:06Z</time>
      </trkpt>
      <trkpt lat="45.85048" lon="4.53168">
        <ele>386</ele>
        <time>2022-04-01T10:10:19Z</time>
      </trkpt>
      <trkpt lat="45.85071" lon="4.53154">
        <ele>384</ele>
        <time>2022-04-01T10:10:24Z</time>
      </trkpt>
      <trkpt lat="45.85089" lon="4.53135">
        <ele>382</ele>
        <time>2022-04-01T10:10:28Z</time>
      </trkpt>
      <trkpt lat="45.85104" lon="4.53109">
        <ele>380</ele>
        <time>2022-04-01T10:10:32Z</time>
      </trkpt>
      <trkpt lat="45.85133" lon="4.5304">
        <ele>377</ele>
        <time>2022-04-01T10:10:42Z</time>
      </trkpt>
      <trkpt lat="45.85141" lon="4.53016">
        <ele>377</ele>
        <time>2022-04-01T10:10:45Z</time>
      </trkpt>
      <trkpt lat="45.85153" lon="4.52955">
        <ele>377</ele>
        <time>2022-04-01T10:10:53Z</time>
      </trkpt>
      <trkpt lat="45.85162" lon="4.52921">
        <ele>377</ele>
        <time>2022-04-01T10:10:57Z</time>
      </trkpt>
      <trkpt lat="45.85172" lon="4.52907">
        <ele>376</ele>
        <time>2022-04-01T10:11:00Z</time>
      </trkpt>
      <trkpt lat="45.85183" lon="4.52901">
        <ele>376</ele>
        <time>2022-04-01T10:11:02Z</time>
      </trkpt>
      <trkpt lat="45.85199" lon="4.52907">
        <ele>375</ele>
        <time>2022-04-01T10:11:05Z</time>
      </trkpt>
      <trkpt lat="45.85208" lon="4.52919">
        <ele>374</ele>
        <time>2022-04-01T10:11:07Z</time>
      </trkpt>
      <trkpt lat="45.8535" lon="4.53178">
        <ele>356</ele>
        <time>2022-04-01T10:11:48Z</time>
      </trkpt>
      <trkpt lat="45.85412" lon="4.53288">
        <ele>349</ele>
        <time>2022-04-01T10:12:05Z</time>
      </trkpt>
      <trkpt lat="45.85421" lon="4.533">
        <ele>349</ele>
        <time>2022-04-01T10:12:08Z</time>
      </trkpt>
      <trkpt lat="45.85444" lon="4.5332">
        <ele>348</ele>
        <time>2022-04-01T10:12:12Z</time>
      </trkpt>
      <trkpt lat="45.85663" lon="4.53456">
        <ele>335</ele>
        <time>2022-04-01T10:12:55Z</time>
      </trkpt>
      <trkpt lat="45.85678" lon="4.53459">
        <ele>334</ele>
        <time>2022-04-01T10:12:58Z</time>
      </trkpt>
      <trkpt lat="45.85808" lon="4.53456">
        <ele>328</ele>
        <time>2022-04-01T10:13:21Z</time>
      </trkpt>
      <trkpt lat="45.85815" lon="4.5346">
        <ele>328</ele>
        <time>2022-04-01T10:13:22Z</time>
      </trkpt>
      <trkpt lat="45.85831" lon="4.53475">
        <ele>327</ele>
        <time>2022-04-01T10:13:25Z</time>
      </trkpt>
      <trkpt lat="45.85838" lon="4.53483">
        <ele>327</ele>
        <time>2022-04-01T10:13:27Z</time>
      </trkpt>
      <trkpt lat="45.85858" lon="4.53521">
        <ele>329</ele>
        <time>2022-04-01T10:13:33Z</time>
      </trkpt>
      <trkpt lat="45.85924" lon="4.53597">
        <ele>331</ele>
        <time>2022-04-01T10:13:48Z</time>
      </trkpt>
      <trkpt lat="45.8596" lon="4.53634">
        <ele>334</ele>
        <time>2022-04-01T10:13:56Z</time>
      </trkpt>
      <trkpt lat="45.85967" lon="4.53644">
        <ele>335</ele>
        <time>2022-04-01T10:13:58Z</time>
      </trkpt>
      <trkpt lat="45.85976" lon="4.53667">
        <ele>335</ele>
        <time>2022-04-01T10:14:01Z</time>
      </trkpt>
      <trkpt lat="45.86001" lon="4.53791">
        <ele>335</ele>
        <time>2022-04-01T10:14:17Z</time>
      </trkpt>
      <trkpt lat="45.86028" lon="4.53913">
        <ele>336</ele>
        <time>2022-04-01T10:14:33Z</time>
      </trkpt>
      <trkpt lat="45.86063" lon="4.54034">
        <ele>333</ele>
        <time>2022-04-01T10:14:49Z</time>
      </trkpt>
      <trkpt lat="45.861" lon="4.54184">
        <ele>325</ele>
        <time>2022-04-01T10:15:09Z</time>
      </trkpt>
      <trkpt lat="45.86101" lon="4.54206">
        <ele>324</ele>
        <time>2022-04-01T10:15:11Z</time>
      </trkpt>
      <trkpt lat="45.86095" lon="4.54238">
        <ele>323</ele>
        <time>2022-04-01T10:15:16Z</time>
      </trkpt>
      <trkpt lat="45.86096" lon="4.54253">
        <ele>322</ele>
        <time>2022-04-01T10:15:17Z</time>
      </trkpt>
      <trkpt lat="45.86109" lon="4.54275">
        <ele>319</ele>
        <time>2022-04-01T10:15:21Z</time>
      </trkpt>
      <trkpt lat="45.86127" lon="4.54298">
        <ele>317</ele>
        <time>2022-04-01T10:15:25Z</time>
      </trkpt>
      <trkpt lat="45.86154" lon="4.54329">
        <ele>315</ele>
        <time>2022-04-01T10:15:31Z</time>
      </trkpt>
      <trkpt lat="45.86209" lon="4.5438">
        <ele>310</ele>
        <time>2022-04-01T10:15:43Z</time>
      </trkpt>
      <trkpt lat="45.86263" lon="4.54415">
        <ele>304</ele>
        <time>2022-04-01T10:15:54Z</time>
      </trkpt>
      <trkpt lat="45.86297" lon="4.54433">
        <ele>300</ele>
        <time>2022-04-01T10:16:00Z</time>
      </trkpt>
      <trkpt lat="45.86366" lon="4.54459">
        <ele>295</ele>
        <time>2022-04-01T10:16:13Z</time>
      </trkpt>
      <trkpt lat="45.86417" lon="4.54465">
        <ele>292</ele>
        <time>2022-04-01T10:16:22Z</time>
      </trkpt>
      <trkpt lat="45.86439" lon="4.54468">
        <ele>294</ele>
        <time>2022-04-01T10:16:26Z</time>
      </trkpt>
      <trkpt lat="45.8652" lon="4.5449">
        <ele>302</ele>
        <time>2022-04-01T10:16:40Z</time>
      </trkpt>
      <trkpt lat="45.86592" lon="4.54532">
        <ele>308</ele>
        <time>2022-04-01T10:16:54Z</time>
      </trkpt>
      <trkpt lat="45.8669" lon="4.54616">
        <ele>313</ele>
        <time>2022-04-01T10:17:15Z</time>
      </trkpt>
      <trkpt lat="45.86705" lon="4.54634">
        <ele>313</ele>
        <time>2022-04-01T10:17:18Z</time>
      </trkpt>
      <trkpt lat="45.86851" lon="4.54809">
        <ele>317</ele>
        <time>2022-04-01T10:17:52Z</time>
      </trkpt>
      <trkpt lat="45.8701" lon="4.55004">
        <ele>323</ele>
        <time>2022-04-01T10:18:29Z</time>
      </trkpt>
      <trkpt lat="45.87135" lon="4.55152">
        <ele>332</ele>
        <time>2022-04-01T10:18:58Z</time>
      </trkpt>
      <trkpt lat="45.87167" lon="4.55191">
        <ele>334</ele>
        <time>2022-04-01T10:19:05Z</time>
      </trkpt>
      <trkpt lat="45.87207" lon="4.55238">
        <ele>334</ele>
        <time>2022-04-01T10:19:15Z</time>
      </trkpt>
      <trkpt lat="45.87283" lon="4.55296">
        <ele>336</ele>
        <time>2022-04-01T10:19:30Z</time>
      </trkpt>
      <trkpt lat="45.87551" lon="4.55484">
        <ele>346</ele>
        <time>2022-04-01T10:20:23Z</time>
      </trkpt>
      <trkpt lat="45.87845" lon="4.55695">
        <ele>359</ele>
        <time>2022-04-01T10:21:21Z</time>
      </trkpt>
      <trkpt lat="45.87892" lon="4.55718">
        <ele>358</ele>
        <time>2022-04-01T10:21:30Z</time>
      </trkpt>
      <trkpt lat="45.87891" lon="4.55779">
        <ele>359</ele>
        <time>2022-04-01T10:21:38Z</time>
      </trkpt>
      <trkpt lat="45.87907" lon="4.55893">
        <ele>362</ele>
        <time>2022-04-01T10:21:52Z</time>
      </trkpt>
      <trkpt lat="45.87912" lon="4.55912">
        <ele>363</ele>
        <time>2022-04-01T10:21:55Z</time>
      </trkpt>
      <trkpt lat="45.87964" lon="4.55981">
        <ele>366</ele>
        <time>2022-04-01T10:22:07Z</time>
      </trkpt>
      <trkpt lat="45.87969" lon="4.55978">
        <ele>365</ele>
        <time>2022-04-01T10:22:08Z</time>
      </trkpt>
      <trkpt lat="45.87996" lon="4.55969">
        <ele>364</ele>
        <time>2022-04-01T10:22:13Z</time>
      </trkpt>
      <trkpt lat="45.88015" lon="4.55971">
        <ele>363</ele>
        <time>2022-04-01T10:22:17Z</time>
      </trkpt>
      <trkpt lat="45.88116" lon="4.55964">
        <ele>356</ele>
        <time>2022-04-01T10:22:35Z</time>
      </trkpt>
      <trkpt lat="45.88211" lon="4.55975">
        <ele>351</ele>
        <time>2022-04-01T10:22:52Z</time>
      </trkpt>
      <trkpt lat="45.88238" lon="4.55971">
        <ele>350</ele>
        <time>2022-04-01T10:22:56Z</time>
      </trkpt>
      <trkpt lat="45.8826" lon="4.55963">
        <ele>349</ele>
        <time>2022-04-01T10:23:00Z</time>
      </trkpt>
      <trkpt lat="45.8829" lon="4.55942">
        <ele>347</ele>
        <time>2022-04-01T10:23:06Z</time>
      </trkpt>
      <trkpt lat="45.88383" lon="4.55856">
        <ele>338</ele>
        <time>2022-04-01T10:23:26Z</time>
      </trkpt>
      <trkpt lat="45.88412" lon="4.55833">
        <ele>336</ele>
        <time>2022-04-01T10:23:32Z</time>
      </trkpt>
      <trkpt lat="45.88465" lon="4.55826">
        <ele>334</ele>
        <time>2022-04-01T10:23:41Z</time>
      </trkpt>
      <trkpt lat="45.88479" lon="4.55827">
        <ele>333</ele>
        <time>2022-04-01T10:23:44Z</time>
      </trkpt>
      <trkpt lat="45.88493" lon="4.55831">
        <ele>333</ele>
        <time>2022-04-01T10:23:46Z</time>
      </trkpt>
      <trkpt lat="45.88517" lon="4.55846">
        <ele>332</ele>
        <time>2022-04-01T10:23:51Z</time>
      </trkpt>
      <trkpt lat="45.886" lon="4.55908">
        <ele>327</ele>
        <time>2022-04-01T10:24:08Z</time>
      </trkpt>
      <trkpt lat="45.88662" lon="4.55964">
        <ele>324</ele>
        <time>2022-04-01T10:24:21Z</time>
      </trkpt>
      <trkpt lat="45.88694" lon="4.56005">
        <ele>322</ele>
        <time>2022-04-01T10:24:28Z</time>
      </trkpt>
      <trkpt lat="45.88749" lon="4.56112">
        <ele>317</ele>
        <time>2022-04-01T10:24:45Z</time>
      </trkpt>
      <trkpt lat="45.88758" lon="4.56135">
        <ele>316</ele>
        <time>2022-04-01T10:24:48Z</time>
      </trkpt>
      <trkpt lat="45.88772" lon="4.56163">
        <ele>314</ele>
        <time>2022-04-01T10:24:52Z</time>
      </trkpt>
      <trkpt lat="45.88806" lon="4.56219">
        <ele>312</ele>
        <time>2022-04-01T10:25:02Z</time>
      </trkpt>
      <trkpt lat="45.88825" lon="4.5626">
        <ele>312</ele>
        <time>2022-04-01T10:25:08Z</time>
      </trkpt>
      <trkpt lat="45.88838" lon="4.56328">
        <ele>312</ele>
        <time>2022-04-01T10:25:17Z</time>
      </trkpt>
      <trkpt lat="45.88845" lon="4.5638">
        <ele>311</ele>
        <time>2022-04-01T10:25:23Z</time>
      </trkpt>
      <trkpt lat="45.8885" lon="4.564">
        <ele>310</ele>
        <time>2022-04-01T10:25:26Z</time>
      </trkpt>
      <trkpt lat="45.88859" lon="4.56415">
        <ele>309</ele>
        <time>2022-04-01T10:25:28Z</time>
      </trkpt>
      <trkpt lat="45.88874" lon="4.56437">
        <ele>308</ele>
        <time>2022-04-01T10:25:32Z</time>
      </trkpt>
      <trkpt lat="45.88896" lon="4.56443">
        <ele>306</ele>
        <time>2022-04-01T10:25:36Z</time>
      </trkpt>
      <trkpt lat="45.88911" lon="4.56442">
        <ele>305</ele>
        <time>2022-04-01T10:25:39Z</time>
      </trkpt>
      <trkpt lat="45.88963" lon="4.56425">
        <ele>299</ele>
        <time>2022-04-01T10:25:48Z</time>
      </trkpt>
      <trkpt lat="45.88987" lon="4.56429">
        <ele>297</ele>
        <time>2022-04-01T10:25:52Z</time>
      </trkpt>
      <trkpt lat="45.89002" lon="4.56438">
        <ele>295</ele>
        <time>2022-04-01T10:25:55Z</time>
      </trkpt>
      <trkpt lat="45.89039" lon="4.56493">
        <ele>294</ele>
        <time>2022-04-01T10:26:05Z</time>
      </trkpt>
      <trkpt lat="45.8908" lon="4.56537">
        <ele>291</ele>
        <time>2022-04-01T10:26:14Z</time>
      </trkpt>
      <trkpt lat="45.89087" lon="4.56551">
        <ele>290</ele>
        <time>2022-04-01T10:26:16Z</time>
      </trkpt>
      <trkpt lat="45.89093" lon="4.56568">
        <ele>290</ele>
        <time>2022-04-01T10:26:18Z</time>
      </trkpt>
      <trkpt lat="45.89099" lon="4.56605">
        <ele>290</ele>
        <time>2022-04-01T10:26:23Z</time>
      </trkpt>
      <trkpt lat="45.89103" lon="4.56619">
        <ele>290</ele>
        <time>2022-04-01T10:26:25Z</time>
      </trkpt>
      <trkpt lat="45.89112" lon="4.56633">
        <ele>290</ele>
        <time>2022-04-01T10:26:27Z</time>
      </trkpt>
      <trkpt lat="45.89121" lon="4.56641">
        <ele>290</ele>
        <time>2022-04-01T10:26:29Z</time>
      </trkpt>
      <trkpt lat="45.89149" lon="4.56651">
        <ele>289</ele>
        <time>2022-04-01T10:26:34Z</time>
      </trkpt>
      <trkpt lat="45.89165" lon="4.56653">
        <ele>289</ele>
        <time>2022-04-01T10:26:37Z</time>
      </trkpt>
      <trkpt lat="45.89179" lon="4.56654">
        <ele>289</ele>
        <time>2022-04-01T10:26:40Z</time>
      </trkpt>
      <trkpt lat="45.89309" lon="4.56667">
        <ele>294</ele>
        <time>2022-04-01T10:27:03Z</time>
      </trkpt>
      <trkpt lat="45.89326" lon="4.5666">
        <ele>295</ele>
        <time>2022-04-01T10:27:06Z</time>
      </trkpt>
      <trkpt lat="45.89332" lon="4.56656">
        <ele>295</ele>
        <time>2022-04-01T10:27:07Z</time>
      </trkpt>
      <trkpt lat="45.89343" lon="4.56639">
        <ele>296</ele>
        <time>2022-04-01T10:27:10Z</time>
      </trkpt>
      <trkpt lat="45.89362" lon="4.56618">
        <ele>297</ele>
        <time>2022-04-01T10:27:14Z</time>
      </trkpt>
      <trkpt lat="45.89377" lon="4.56607">
        <ele>297</ele>
        <time>2022-04-01T10:27:17Z</time>
      </trkpt>
      <trkpt lat="45.89402" lon="4.56594">
        <ele>298</ele>
        <time>2022-04-01T10:27:22Z</time>
      </trkpt>
      <trkpt lat="45.89428" lon="4.56586">
        <ele>300</ele>
        <time>2022-04-01T10:27:27Z</time>
      </trkpt>
      <trkpt lat="45.89516" lon="4.56579">
        <ele>308</ele>
        <time>2022-04-01T10:27:42Z</time>
      </trkpt>
      <trkpt lat="45.8964" lon="4.56557">
        <ele>305</ele>
        <time>2022-04-01T10:28:05Z</time>
      </trkpt>
      <trkpt lat="45.89658" lon="4.56549">
        <ele>304</ele>
        <time>2022-04-01T10:28:08Z</time>
      </trkpt>
      <trkpt lat="45.89683" lon="4.56594">
        <ele>302</ele>
        <time>2022-04-01T10:28:15Z</time>
      </trkpt>
      <trkpt lat="45.89722" lon="4.56641">
        <ele>299</ele>
        <time>2022-04-01T10:28:24Z</time>
      </trkpt>
      <trkpt lat="45.89751" lon="4.56653">
        <ele>298</ele>
        <time>2022-04-01T10:28:30Z</time>
      </trkpt>
      <trkpt lat="45.89905" lon="4.56636">
        <ele>295</ele>
        <time>2022-04-01T10:28:57Z</time>
      </trkpt>
      <trkpt lat="45.89929" lon="4.56629">
        <ele>295</ele>
        <time>2022-04-01T10:29:01Z</time>
      </trkpt>
      <trkpt lat="45.89944" lon="4.56623">
        <ele>294</ele>
        <time>2022-04-01T10:29:04Z</time>
      </trkpt>
      <trkpt lat="45.89974" lon="4.566">
        <ele>291</ele>
        <time>2022-04-01T10:29:10Z</time>
      </trkpt>
      <trkpt lat="45.89989" lon="4.56593">
        <ele>289</ele>
        <time>2022-04-01T10:29:13Z</time>
      </trkpt>
      <trkpt lat="45.90002" lon="4.56592">
        <ele>288</ele>
        <time>2022-04-01T10:29:15Z</time>
      </trkpt>
      <trkpt lat="45.90016" lon="4.56594">
        <ele>288</ele>
        <time>2022-04-01T10:29:18Z</time>
      </trkpt>
      <trkpt lat="45.90078" lon="4.5661">
        <ele>287</ele>
        <time>2022-04-01T10:29:29Z</time>
      </trkpt>
      <trkpt lat="45.90092" lon="4.56616">
        <ele>286</ele>
        <time>2022-04-01T10:29:32Z</time>
      </trkpt>
      <trkpt lat="45.90106" lon="4.56627">
        <ele>285</ele>
        <time>2022-04-01T10:29:35Z</time>
      </trkpt>
      <trkpt lat="45.9012" lon="4.56641">
        <ele>284</ele>
        <time>2022-04-01T10:29:38Z</time>
      </trkpt>
      <trkpt lat="45.90132" lon="4.5666">
        <ele>285</ele>
        <time>2022-04-01T10:29:41Z</time>
      </trkpt>
      <trkpt lat="45.90181" lon="4.56747">
        <ele>285</ele>
        <time>2022-04-01T10:29:55Z</time>
      </trkpt>
      <trkpt lat="45.90212" lon="4.56814">
        <ele>285</ele>
        <time>2022-04-01T10:30:05Z</time>
      </trkpt>
      <trkpt lat="45.90224" lon="4.56834">
        <ele>284</ele>
        <time>2022-04-01T10:30:08Z</time>
      </trkpt>
      <trkpt lat="45.90237" lon="4.56852">
        <ele>283</ele>
        <time>2022-04-01T10:30:11Z</time>
      </trkpt>
      <trkpt lat="45.90249" lon="4.56863">
        <ele>281</ele>
        <time>2022-04-01T10:30:14Z</time>
      </trkpt>
      <trkpt lat="45.90261" lon="4.56871">
        <ele>280</ele>
        <time>2022-04-01T10:30:16Z</time>
      </trkpt>
      <trkpt lat="45.90302" lon="4.56882">
        <ele>273</ele>
        <time>2022-04-01T10:30:23Z</time>
      </trkpt>
      <trkpt lat="45.90317" lon="4.5689">
        <ele>272</ele>
        <time>2022-04-01T10:30:26Z</time>
      </trkpt>
      <trkpt lat="45.90331" lon="4.56902">
        <ele>271</ele>
        <time>2022-04-01T10:30:29Z</time>
      </trkpt>
      <trkpt lat="45.90341" lon="4.56917">
        <ele>272</ele>
        <time>2022-04-01T10:30:32Z</time>
      </trkpt>
      <trkpt lat="45.90352" lon="4.5694">
        <ele>270</ele>
        <time>2022-04-01T10:30:35Z</time>
      </trkpt>
      <trkpt lat="45.90363" lon="4.5697">
        <ele>269</ele>
        <time>2022-04-01T10:30:39Z</time>
      </trkpt>
      <trkpt lat="45.90375" lon="4.57021">
        <ele>266</ele>
        <time>2022-04-01T10:30:46Z</time>
      </trkpt>
      <trkpt lat="45.90407" lon="4.57097">
        <ele>259</ele>
        <time>2022-04-01T10:30:57Z</time>
      </trkpt>
      <trkpt lat="45.90416" lon="4.57149">
        <ele>260</ele>
        <time>2022-04-01T10:31:04Z</time>
      </trkpt>
      <trkpt lat="45.90422" lon="4.57167">
        <ele>260</ele>
        <time>2022-04-01T10:31:06Z</time>
      </trkpt>
      <trkpt lat="45.90432" lon="4.57187">
        <ele>260</ele>
        <time>2022-04-01T10:31:09Z</time>
      </trkpt>
      <trkpt lat="45.90448" lon="4.57208">
        <ele>258</ele>
        <time>2022-04-01T10:31:13Z</time>
      </trkpt>
      <trkpt lat="45.90471" lon="4.57232">
        <ele>255</ele>
        <time>2022-04-01T10:31:18Z</time>
      </trkpt>
      <trkpt lat="45.90509" lon="4.57286">
        <ele>250</ele>
        <time>2022-04-01T10:31:28Z</time>
      </trkpt>
      <trkpt lat="45.9052" lon="4.57297">
        <ele>250</ele>
        <time>2022-04-01T10:31:30Z</time>
      </trkpt>
      <trkpt lat="45.90544" lon="4.57309">
        <ele>249</ele>
        <time>2022-04-01T10:31:34Z</time>
      </trkpt>
      <trkpt lat="45.90545" lon="4.57322">
        <ele>249</ele>
        <time>2022-04-01T10:31:36Z</time>
      </trkpt>
      <trkpt lat="45.90548" lon="4.57327">
        <ele>249</ele>
        <time>2022-04-01T10:31:37Z</time>
      </trkpt>
      <trkpt lat="45.90556" lon="4.57332">
        <ele>248</ele>
        <time>2022-04-01T10:31:38Z</time>
      </trkpt>
      <trkpt lat="45.90564" lon="4.57328">
        <ele>247</ele>
        <time>2022-04-01T10:31:40Z</time>
      </trkpt>
      <trkpt lat="45.90567" lon="4.57323">
        <ele>247</ele>
        <time>2022-04-01T10:31:41Z</time>
      </trkpt>
      <trkpt lat="45.9058" lon="4.57335">
        <ele>245</ele>
        <time>2022-04-01T10:31:44Z</time>
      </trkpt>
      <trkpt lat="45.90595" lon="4.57338">
        <ele>245</ele>
        <time>2022-04-01T10:31:46Z</time>
      </trkpt>
      <trkpt lat="45.90609" lon="4.57338">
        <ele>245</ele>
        <time>2022-04-01T10:31:49Z</time>
      </trkpt>
      <trkpt lat="45.90623" lon="4.5734">
        <ele>245</ele>
        <time>2022-04-01T10:31:51Z</time>
      </trkpt>
      <trkpt lat="45.90648" lon="4.57359">
        <ele>245</ele>
        <time>2022-04-01T10:31:56Z</time>
      </trkpt>
      <trkpt lat="45.90696" lon="4.57395">
        <ele>247</ele>
        <time>2022-04-01T10:32:06Z</time>
      </trkpt>
      <trkpt lat="45.907" lon="4.57406">
        <ele>247</ele>
        <time>2022-04-01T10:32:07Z</time>
      </trkpt>
      <trkpt lat="45.90702" lon="4.57426">
        <ele>248</ele>
        <time>2022-04-01T10:32:10Z</time>
      </trkpt>
      <trkpt lat="45.90698" lon="4.57452">
        <ele>248</ele>
        <time>2022-04-01T10:32:13Z</time>
      </trkpt>
      <trkpt lat="45.90684" lon="4.57509">
        <ele>248</ele>
        <time>2022-04-01T10:32:21Z</time>
      </trkpt>
      <trkpt lat="45.90674" lon="4.57571">
        <ele>246</ele>
        <time>2022-04-01T10:32:29Z</time>
      </trkpt>
      <trkpt lat="45.90665" lon="4.57657">
        <ele>243</ele>
        <time>2022-04-01T10:32:39Z</time>
      </trkpt>
      <trkpt lat="45.9066" lon="4.57691">
        <ele>243</ele>
        <time>2022-04-01T10:32:44Z</time>
      </trkpt>
      <trkpt lat="45.90643" lon="4.57748">
        <ele>243</ele>
        <time>2022-04-01T10:32:51Z</time>
      </trkpt>
      <trkpt lat="45.90639" lon="4.5775">
        <ele>243</ele>
        <time>2022-04-01T10:32:52Z</time>
      </trkpt>
      <trkpt lat="45.90635" lon="4.57759">
        <ele>244</ele>
        <time>2022-04-01T10:32:53Z</time>
      </trkpt>
      <trkpt lat="45.90634" lon="4.57764">
        <ele>244</ele>
        <time>2022-04-01T10:32:54Z</time>
      </trkpt>
      <trkpt lat="45.90636" lon="4.57774">
        <ele>245</ele>
        <time>2022-04-01T10:32:55Z</time>
      </trkpt>
      <trkpt lat="45.90644" lon="4.57781">
        <ele>246</ele>
        <time>2022-04-01T10:32:57Z</time>
      </trkpt>
      <trkpt lat="45.90652" lon="4.57779">
        <ele>246</ele>
        <time>2022-04-01T10:32:58Z</time>
      </trkpt>
      <trkpt lat="45.90657" lon="4.57771">
        <ele>245</ele>
        <time>2022-04-01T10:33:00Z</time>
      </trkpt>
      <trkpt lat="45.90658" lon="4.57766">
        <ele>245</ele>
        <time>2022-04-01T10:33:00Z</time>
      </trkpt>
      <trkpt lat="45.90662" lon="4.57765">
        <ele>245</ele>
        <time>2022-04-01T10:33:01Z</time>
      </trkpt>
      <trkpt lat="45.90677" lon="4.57757">
        <ele>245</ele>
        <time>2022-04-01T10:33:04Z</time>
      </trkpt>
      <trkpt lat="45.90692" lon="4.57713">
        <ele>246</ele>
        <time>2022-04-01T10:33:10Z</time>
      </trkpt>
      <trkpt lat="45.90705" lon="4.57654">
        <ele>247</ele>
        <time>2022-04-01T10:33:18Z</time>
      </trkpt>
      <trkpt lat="45.90715" lon="4.57596">
        <ele>249</ele>
        <time>2022-04-01T10:33:25Z</time>
      </trkpt>
      <trkpt lat="45.90742" lon="4.57471">
        <ele>253</ele>
        <time>2022-04-01T10:33:41Z</time>
      </trkpt>
      <trkpt lat="45.90749" lon="4.57399">
        <ele>251</ele>
        <time>2022-04-01T10:33:50Z</time>
      </trkpt>
      <trkpt lat="45.90751" lon="4.57387">
        <ele>250</ele>
        <time>2022-04-01T10:33:52Z</time>
      </trkpt>
      <trkpt lat="45.90759" lon="4.57364">
        <ele>249</ele>
        <time>2022-04-01T10:33:55Z</time>
      </trkpt>
      <trkpt lat="45.90784" lon="4.57335">
        <ele>247</ele>
        <time>2022-04-01T10:34:01Z</time>
      </trkpt>
      <trkpt lat="45.90802" lon="4.57324">
        <ele>248</ele>
        <time>2022-04-01T10:34:04Z</time>
      </trkpt>
      <trkpt lat="45.90814" lon="4.57324">
        <ele>248</ele>
        <time>2022-04-01T10:34:06Z</time>
      </trkpt>
      <trkpt lat="45.90833" lon="4.57338">
        <ele>251</ele>
        <time>2022-04-01T10:34:10Z</time>
      </trkpt>
      <trkpt lat="45.90835" lon="4.57321">
        <ele>249</ele>
        <time>2022-04-01T10:34:12Z</time>
      </trkpt>
      <trkpt lat="45.90838" lon="4.57315">
        <ele>249</ele>
        <time>2022-04-01T10:34:13Z</time>
      </trkpt>
      <trkpt lat="45.90844" lon="4.57308">
        <ele>248</ele>
        <time>2022-04-01T10:34:15Z</time>
      </trkpt>
      <trkpt lat="45.90868" lon="4.57314">
        <ele>249</ele>
        <time>2022-04-01T10:34:19Z</time>
      </trkpt>
      <trkpt lat="45.9093" lon="4.57338">
        <ele>252</ele>
        <time>2022-04-01T10:34:30Z</time>
      </trkpt>
      <trkpt lat="45.90969" lon="4.57348">
        <ele>254</ele>
        <time>2022-04-01T10:34:37Z</time>
      </trkpt>
      <trkpt lat="45.91009" lon="4.57349">
        <ele>256</ele>
        <time>2022-04-01T10:34:45Z</time>
      </trkpt>
      <trkpt lat="45.91055" lon="4.57336">
        <ele>257</ele>
        <time>2022-04-01T10:34:53Z</time>
      </trkpt>
      <trkpt lat="45.91084" lon="4.5732">
        <ele>256</ele>
        <time>2022-04-01T10:34:58Z</time>
      </trkpt>
      <trkpt lat="45.91121" lon="4.5729">
        <ele>255</ele>
        <time>2022-04-01T10:35:06Z</time>
      </trkpt>
      <trkpt lat="45.91167" lon="4.57247">
        <ele>252</ele>
        <time>2022-04-01T10:35:16Z</time>
      </trkpt>
      <trkpt lat="45.91205" lon="4.57222">
        <ele>253</ele>
        <time>2022-04-01T10:35:23Z</time>
      </trkpt>
      <trkpt lat="45.9133" lon="4.57162">
        <ele>253</ele>
        <time>2022-04-01T10:35:47Z</time>
      </trkpt>
      <trkpt lat="45.91364" lon="4.57148">
        <ele>253</ele>
        <time>2022-04-01T10:35:53Z</time>
      </trkpt>
      <trkpt lat="45.91413" lon="4.57132">
        <ele>253</ele>
        <time>2022-04-01T10:36:02Z</time>
      </trkpt>
      <trkpt lat="45.91443" lon="4.57124">
        <ele>254</ele>
        <time>2022-04-01T10:36:07Z</time>
      </trkpt>
      <trkpt lat="45.91551" lon="4.57101">
        <ele>256</ele>
        <time>2022-04-01T10:36:27Z</time>
      </trkpt>
      <trkpt lat="45.91605" lon="4.57083">
        <ele>256</ele>
        <time>2022-04-01T10:36:37Z</time>
      </trkpt>
      <trkpt lat="45.91784" lon="4.56995">
        <ele>256</ele>
        <time>2022-04-01T10:37:10Z</time>
      </trkpt>
      <trkpt lat="45.9181" lon="4.56977">
        <ele>257</ele>
        <time>2022-04-01T10:37:15Z</time>
      </trkpt>
      <trkpt lat="45.9186" lon="4.56935">
        <ele>258</ele>
        <time>2022-04-01T10:37:26Z</time>
      </trkpt>
      <trkpt lat="45.91927" lon="4.56863">
        <ele>258</ele>
        <time>2022-04-01T10:37:41Z</time>
      </trkpt>
      <trkpt lat="45.9196" lon="4.56829">
        <ele>258</ele>
        <time>2022-04-01T10:37:48Z</time>
      </trkpt>
      <trkpt lat="45.92007" lon="4.56771">
        <ele>257</ele>
        <time>2022-04-01T10:37:59Z</time>
      </trkpt>
      <trkpt lat="45.9206" lon="4.567">
        <ele>256</ele>
        <time>2022-04-01T10:38:12Z</time>
      </trkpt>
      <trkpt lat="45.92081" lon="4.56676">
        <ele>256</ele>
        <time>2022-04-01T10:38:16Z</time>
      </trkpt>
      <trkpt lat="45.92106" lon="4.56649">
        <ele>257</ele>
        <time>2022-04-01T10:38:22Z</time>
      </trkpt>
      <trkpt lat="45.92167" lon="4.56604">
        <ele>257</ele>
        <time>2022-04-01T10:38:34Z</time>
      </trkpt>
      <trkpt lat="45.9218" lon="4.56592">
        <ele>257</ele>
        <time>2022-04-01T10:38:37Z</time>
      </trkpt>
      <trkpt lat="45.92202" lon="4.56567">
        <ele>258</ele>
        <time>2022-04-01T10:38:42Z</time>
      </trkpt>
      <trkpt lat="45.92212" lon="4.56552">
        <ele>259</ele>
        <time>2022-04-01T10:38:45Z</time>
      </trkpt>
      <trkpt lat="45.92228" lon="4.56522">
        <ele>258</ele>
        <time>2022-04-01T10:38:49Z</time>
      </trkpt>
      <trkpt lat="45.92244" lon="4.56479">
        <ele>257</ele>
        <time>2022-04-01T10:38:55Z</time>
      </trkpt>
      <trkpt lat="45.92268" lon="4.56391">
        <ele>256</ele>
        <time>2022-04-01T10:39:07Z</time>
      </trkpt>
      <trkpt lat="45.92272" lon="4.56365">
        <ele>256</ele>
        <time>2022-04-01T10:39:10Z</time>
      </trkpt>
      <trkpt lat="45.92275" lon="4.56327">
        <ele>255</ele>
        <time>2022-04-01T10:39:15Z</time>
      </trkpt>
      <trkpt lat="45.92281" lon="4.56302">
        <ele>256</ele>
        <time>2022-04-01T10:39:18Z</time>
      </trkpt>
      <trkpt lat="45.92288" lon="4.56286">
        <ele>256</ele>
        <time>2022-04-01T10:39:21Z</time>
      </trkpt>
      <trkpt lat="45.92305" lon="4.56258">
        <ele>257</ele>
        <time>2022-04-01T10:39:25Z</time>
      </trkpt>
      <trkpt lat="45.9234" lon="4.56207">
        <ele>258</ele>
        <time>2022-04-01T10:39:34Z</time>
      </trkpt>
      <trkpt lat="45.9244" lon="4.56072">
        <ele>259</ele>
        <time>2022-04-01T10:39:58Z</time>
      </trkpt>
      <trkpt lat="45.92498" lon="4.56016">
        <ele>259</ele>
        <time>2022-04-01T10:40:11Z</time>
      </trkpt>
      <trkpt lat="45.92547" lon="4.55975">
        <ele>260</ele>
        <time>2022-04-01T10:40:21Z</time>
      </trkpt>
      <trkpt lat="45.92584" lon="4.55941">
        <ele>260</ele>
        <time>2022-04-01T10:40:29Z</time>
      </trkpt>
      <trkpt lat="45.92773" lon="4.55752">
        <ele>265</ele>
        <time>2022-04-01T10:41:10Z</time>
      </trkpt>
      <trkpt lat="45.92801" lon="4.5572">
        <ele>268</ele>
        <time>2022-04-01T10:41:16Z</time>
      </trkpt>
      <trkpt lat="45.92819" lon="4.55695">
        <ele>267</ele>
        <time>2022-04-01T10:41:21Z</time>
      </trkpt>
      <trkpt lat="45.92902" lon="4.55571">
        <ele>264</ele>
        <time>2022-04-01T10:41:42Z</time>
      </trkpt>
      <trkpt lat="45.93065" lon="4.55342">
        <ele>267</ele>
        <time>2022-04-01T10:42:22Z</time>
      </trkpt>
      <trkpt lat="45.93124" lon="4.5527">
        <ele>266</ele>
        <time>2022-04-01T10:42:36Z</time>
      </trkpt>
      <trkpt lat="45.93153" lon="4.55237">
        <ele>266</ele>
        <time>2022-04-01T10:42:43Z</time>
      </trkpt>
      <trkpt lat="45.93194" lon="4.55184">
        <ele>267</ele>
        <time>2022-04-01T10:42:53Z</time>
      </trkpt>
      <trkpt lat="45.93243" lon="4.5513">
        <ele>269</ele>
        <time>2022-04-01T10:43:04Z</time>
      </trkpt>
      <trkpt lat="45.93284" lon="4.55088">
        <ele>271</ele>
        <time>2022-04-01T10:43:13Z</time>
      </trkpt>
      <trkpt lat="45.93304" lon="4.55064">
        <ele>271</ele>
        <time>2022-04-01T10:43:17Z</time>
      </trkpt>
      <trkpt lat="45.93403" lon="4.5496">
        <ele>273</ele>
        <time>2022-04-01T10:43:39Z</time>
      </trkpt>
      <trkpt lat="45.93413" lon="4.54947">
        <ele>272</ele>
        <time>2022-04-01T10:43:41Z</time>
      </trkpt>
      <trkpt lat="45.93523" lon="4.54777">
        <ele>272</ele>
        <time>2022-04-01T10:44:10Z</time>
      </trkpt>
      <trkpt lat="45.93551" lon="4.54741">
        <ele>272</ele>
        <time>2022-04-01T10:44:17Z</time>
      </trkpt>
      <trkpt lat="45.93755" lon="4.54552">
        <ele>271</ele>
        <time>2022-04-01T10:45:00Z</time>
      </trkpt>
      <trkpt lat="45.93785" lon="4.54529">
        <ele>271</ele>
        <time>2022-04-01T10:45:06Z</time>
      </trkpt>
      <trkpt lat="45.93822" lon="4.54497">
        <ele>269</ele>
        <time>2022-04-01T10:45:14Z</time>
      </trkpt>
      <trkpt lat="45.93902" lon="4.54414">
        <ele>267</ele>
        <time>2022-04-01T10:45:31Z</time>
      </trkpt>
      <trkpt lat="45.93917" lon="4.544">
        <ele>268</ele>
        <time>2022-04-01T10:45:34Z</time>
      </trkpt>
      <trkpt lat="45.93934" lon="4.54392">
        <ele>268</ele>
        <time>2022-04-01T10:45:38Z</time>
      </trkpt>
      <trkpt lat="45.93944" lon="4.54389">
        <ele>269</ele>
        <time>2022-04-01T10:45:39Z</time>
      </trkpt>
      <trkpt lat="45.93997" lon="4.54391">
        <ele>270</ele>
        <time>2022-04-01T10:45:49Z</time>
      </trkpt>
      <trkpt lat="45.94007" lon="4.54389">
        <ele>270</ele>
        <time>2022-04-01T10:45:51Z</time>
      </trkpt>
      <trkpt lat="45.94016" lon="4.54386">
        <ele>271</ele>
        <time>2022-04-01T10:45:52Z</time>
      </trkpt>
      <trkpt lat="45.94033" lon="4.54374">
        <ele>272</ele>
        <time>2022-04-01T10:45:56Z</time>
      </trkpt>
      <trkpt lat="45.94047" lon="4.54357">
        <ele>273</ele>
        <time>2022-04-01T10:45:59Z</time>
      </trkpt>
      <trkpt lat="45.94053" lon="4.54347">
        <ele>274</ele>
        <time>2022-04-01T10:46:01Z</time>
      </trkpt>
      <trkpt lat="45.94058" lon="4.54333">
        <ele>275</ele>
        <time>2022-04-01T10:46:03Z</time>
      </trkpt>
      <trkpt lat="45.94071" lon="4.54287">
        <ele>275</ele>
        <time>2022-04-01T10:46:09Z</time>
      </trkpt>
      <trkpt lat="45.94093" lon="4.54194">
        <ele>275</ele>
        <time>2022-04-01T10:46:21Z</time>
      </trkpt>
      <trkpt lat="45.94105" lon="4.54159">
        <ele>277</ele>
        <time>2022-04-01T10:46:26Z</time>
      </trkpt>
      <trkpt lat="45.94167" lon="4.5401">
        <ele>282</ele>
        <time>2022-04-01T10:46:47Z</time>
      </trkpt>
      <trkpt lat="45.94187" lon="4.53976">
        <ele>281</ele>
        <time>2022-04-01T10:46:53Z</time>
      </trkpt>
      <trkpt lat="45.94202" lon="4.53966">
        <ele>281</ele>
        <time>2022-04-01T10:46:56Z</time>
      </trkpt>
      <trkpt lat="45.94221" lon="4.53961">
        <ele>282</ele>
        <time>2022-04-01T10:46:59Z</time>
      </trkpt>
      <trkpt lat="45.94232" lon="4.53961">
        <ele>283</ele>
        <time>2022-04-01T10:47:01Z</time>
      </trkpt>
      <trkpt lat="45.94267" lon="4.53967">
        <ele>286</ele>
        <time>2022-04-01T10:47:07Z</time>
      </trkpt>
      <trkpt lat="45.94299" lon="4.53964">
        <ele>285</ele>
        <time>2022-04-01T10:47:13Z</time>
      </trkpt>
      <trkpt lat="45.94328" lon="4.5395">
        <ele>283</ele>
        <time>2022-04-01T10:47:18Z</time>
      </trkpt>
      <trkpt lat="45.94369" lon="4.53927">
        <ele>285</ele>
        <time>2022-04-01T10:47:26Z</time>
      </trkpt>
      <trkpt lat="45.9439" lon="4.53907">
        <ele>285</ele>
        <time>2022-04-01T10:47:31Z</time>
      </trkpt>
      <trkpt lat="45.94408" lon="4.53885">
        <ele>285</ele>
        <time>2022-04-01T10:47:35Z</time>
      </trkpt>
      <trkpt lat="45.94472" lon="4.53795">
        <ele>281</ele>
        <time>2022-04-01T10:47:51Z</time>
      </trkpt>
      <trkpt lat="45.94497" lon="4.53769">
        <ele>281</ele>
        <time>2022-04-01T10:47:56Z</time>
      </trkpt>
      <trkpt lat="45.94521" lon="4.53753">
        <ele>281</ele>
        <time>2022-04-01T10:48:01Z</time>
      </trkpt>
      <trkpt lat="45.94544" lon="4.53745">
        <ele>282</ele>
        <time>2022-04-01T10:48:05Z</time>
      </trkpt>
      <trkpt lat="45.94563" lon="4.53732">
        <ele>282</ele>
        <time>2022-04-01T10:48:09Z</time>
      </trkpt>
      <trkpt lat="45.94615" lon="4.53646">
        <ele>281</ele>
        <time>2022-04-01T10:48:23Z</time>
      </trkpt>
      <trkpt lat="45.94639" lon="4.53589">
        <ele>282</ele>
        <time>2022-04-01T10:48:31Z</time>
      </trkpt>
      <trkpt lat="45.94653" lon="4.53546">
        <ele>282</ele>
        <time>2022-04-01T10:48:37Z</time>
      </trkpt>
      <trkpt lat="45.94688" lon="4.53398">
        <ele>282</ele>
        <time>2022-04-01T10:48:57Z</time>
      </trkpt>
      <trkpt lat="45.94706" lon="4.53347">
        <ele>282</ele>
        <time>2022-04-01T10:49:04Z</time>
      </trkpt>
      <trkpt lat="45.94744" lon="4.53276">
        <ele>279</ele>
        <time>2022-04-01T10:49:15Z</time>
      </trkpt>
      <trkpt lat="45.94765" lon="4.53247">
        <ele>278</ele>
        <time>2022-04-01T10:49:20Z</time>
      </trkpt>
      <trkpt lat="45.9481" lon="4.53197">
        <ele>280</ele>
        <time>2022-04-01T10:49:30Z</time>
      </trkpt>
      <trkpt lat="45.94895" lon="4.53116">
        <ele>286</ele>
        <time>2022-04-01T10:49:48Z</time>
      </trkpt>
      <trkpt lat="45.94976" lon="4.53031">
        <ele>281</ele>
        <time>2022-04-01T10:50:06Z</time>
      </trkpt>
      <trkpt lat="45.95049" lon="4.529">
        <ele>286</ele>
        <time>2022-04-01T10:50:27Z</time>
      </trkpt>
      <trkpt lat="45.95181" lon="4.52772">
        <ele>287</ele>
        <time>2022-04-01T10:50:55Z</time>
      </trkpt>
      <trkpt lat="45.95245" lon="4.52719">
        <ele>286</ele>
        <time>2022-04-01T10:51:08Z</time>
      </trkpt>
      <trkpt lat="45.95303" lon="4.52667">
        <ele>288</ele>
        <time>2022-04-01T10:51:20Z</time>
      </trkpt>
      <trkpt lat="45.95505" lon="4.52457">
        <ele>290</ele>
        <time>2022-04-01T10:52:05Z</time>
      </trkpt>
      <trkpt lat="45.95611" lon="4.52364">
        <ele>287</ele>
        <time>2022-04-01T10:52:27Z</time>
      </trkpt>
      <trkpt lat="45.95653" lon="4.52323">
        <ele>286</ele>
        <time>2022-04-01T10:52:36Z</time>
      </trkpt>
      <trkpt lat="45.95722" lon="4.5222">
        <ele>287</ele>
        <time>2022-04-01T10:52:54Z</time>
      </trkpt>
      <trkpt lat="45.95767" lon="4.52138">
        <ele>286</ele>
        <time>2022-04-01T10:53:06Z</time>
      </trkpt>
      <trkpt lat="45.95878" lon="4.51925">
        <ele>287</ele>
        <time>2022-04-01T10:53:39Z</time>
      </trkpt>
      <trkpt lat="45.95915" lon="4.51872">
        <ele>288</ele>
        <time>2022-04-01T10:53:49Z</time>
      </trkpt>
      <trkpt lat="45.95972" lon="4.51802">
        <ele>291</ele>
        <time>2022-04-01T10:54:02Z</time>
      </trkpt>
      <trkpt lat="45.96036" lon="4.5174">
        <ele>291</ele>
        <time>2022-04-01T10:54:16Z</time>
      </trkpt>
      <trkpt lat="45.96112" lon="4.51679">
        <ele>292</ele>
        <time>2022-04-01T10:54:31Z</time>
      </trkpt>
      <trkpt lat="45.96138" lon="4.5164">
        <ele>292</ele>
        <time>2022-04-01T10:54:38Z</time>
      </trkpt>
      <trkpt lat="45.96171" lon="4.51573">
        <ele>293</ele>
        <time>2022-04-01T10:54:48Z</time>
      </trkpt>
      <trkpt lat="45.9625" lon="4.51393">
        <ele>295</ele>
        <time>2022-04-01T10:55:14Z</time>
      </trkpt>
      <trkpt lat="45.96272" lon="4.51349">
        <ele>296</ele>
        <time>2022-04-01T10:55:21Z</time>
      </trkpt>
      <trkpt lat="45.96298" lon="4.51318">
        <ele>297</ele>
        <time>2022-04-01T10:55:27Z</time>
      </trkpt>
      <trkpt lat="45.96328" lon="4.51287">
        <ele>298</ele>
        <time>2022-04-01T10:55:34Z</time>
      </trkpt>
      <trkpt lat="45.9644" lon="4.51189">
        <ele>296</ele>
        <time>2022-04-01T10:55:57Z</time>
      </trkpt>
      <trkpt lat="45.96518" lon="4.51112">
        <ele>299</ele>
        <time>2022-04-01T10:56:14Z</time>
      </trkpt>
      <trkpt lat="45.96565" lon="4.51057">
        <ele>301</ele>
        <time>2022-04-01T10:56:25Z</time>
      </trkpt>
      <trkpt lat="45.96625" lon="4.50994">
        <ele>299</ele>
        <time>2022-04-01T10:56:38Z</time>
      </trkpt>
      <trkpt lat="45.96647" lon="4.5098">
        <ele>299</ele>
        <time>2022-04-01T10:56:42Z</time>
      </trkpt>
      <trkpt lat="45.96672" lon="4.50973">
        <ele>300</ele>
        <time>2022-04-01T10:56:47Z</time>
      </trkpt>
      <trkpt lat="45.96745" lon="4.50967">
        <ele>303</ele>
        <time>2022-04-01T10:57:00Z</time>
      </trkpt>
      <trkpt lat="45.96766" lon="4.50963">
        <ele>304</ele>
        <time>2022-04-01T10:57:03Z</time>
      </trkpt>
      <trkpt lat="45.96839" lon="4.50939">
        <ele>304</ele>
        <time>2022-04-01T10:57:17Z</time>
      </trkpt>
      <trkpt lat="45.96863" lon="4.50937">
        <ele>304</ele>
        <time>2022-04-01T10:57:21Z</time>
      </trkpt>
      <trkpt lat="45.96914" lon="4.50945">
        <ele>305</ele>
        <time>2022-04-01T10:57:30Z</time>
      </trkpt>
      <trkpt lat="45.96941" lon="4.50946">
        <ele>307</ele>
        <time>2022-04-01T10:57:35Z</time>
      </trkpt>
      <trkpt lat="45.96961" lon="4.50943">
        <ele>307</ele>
        <time>2022-04-01T10:57:39Z</time>
      </trkpt>
      <trkpt lat="45.96995" lon="4.50931">
        <ele>306</ele>
        <time>2022-04-01T10:57:45Z</time>
      </trkpt>
      <trkpt lat="45.97085" lon="4.50893">
        <ele>308</ele>
        <time>2022-04-01T10:58:01Z</time>
      </trkpt>
      <trkpt lat="45.97127" lon="4.50878">
        <ele>307</ele>
        <time>2022-04-01T10:58:09Z</time>
      </trkpt>
      <trkpt lat="45.97148" lon="4.50875">
        <ele>307</ele>
        <time>2022-04-01T10:58:13Z</time>
      </trkpt>
      <trkpt lat="45.9717" lon="4.50875">
        <ele>307</ele>
        <time>2022-04-01T10:58:17Z</time>
      </trkpt>
      <trkpt lat="45.97192" lon="4.50882">
        <ele>308</ele>
        <time>2022-04-01T10:58:21Z</time>
      </trkpt>
      <trkpt lat="45.97214" lon="4.50895">
        <ele>308</ele>
        <time>2022-04-01T10:58:25Z</time>
      </trkpt>
      <trkpt lat="45.97246" lon="4.5092">
        <ele>309</ele>
        <time>2022-04-01T10:58:32Z</time>
      </trkpt>
      <trkpt lat="45.97277" lon="4.50935">
        <ele>309</ele>
        <time>2022-04-01T10:58:37Z</time>
      </trkpt>
      <trkpt lat="45.97294" lon="4.50939">
        <ele>309</ele>
        <time>2022-04-01T10:58:40Z</time>
      </trkpt>
      <trkpt lat="45.9731" lon="4.50938">
        <ele>309</ele>
        <time>2022-04-01T10:58:43Z</time>
      </trkpt>
      <trkpt lat="45.97347" lon="4.50929">
        <ele>309</ele>
        <time>2022-04-01T10:58:50Z</time>
      </trkpt>
      <trkpt lat="45.97466" lon="4.50872">
        <ele>309</ele>
        <time>2022-04-01T10:59:12Z</time>
      </trkpt>
      <trkpt lat="45.97522" lon="4.50851">
        <ele>310</ele>
        <time>2022-04-01T10:59:23Z</time>
      </trkpt>
      <trkpt lat="45.97605" lon="4.50802">
        <ele>308</ele>
        <time>2022-04-01T10:59:39Z</time>
      </trkpt>
      <trkpt lat="45.97629" lon="4.50795">
        <ele>307</ele>
        <time>2022-04-01T10:59:43Z</time>
      </trkpt>
      <trkpt lat="45.9765" lon="4.50792">
        <ele>308</ele>
        <time>2022-04-01T10:59:47Z</time>
      </trkpt>
      <trkpt lat="45.97686" lon="4.50797">
        <ele>309</ele>
        <time>2022-04-01T10:59:53Z</time>
      </trkpt>
      <trkpt lat="45.97716" lon="4.50806">
        <ele>311</ele>
        <time>2022-04-01T10:59:59Z</time>
      </trkpt>
      <trkpt lat="45.97746" lon="4.50809">
        <ele>311</ele>
        <time>2022-04-01T11:00:04Z</time>
      </trkpt>
      <trkpt lat="45.97762" lon="4.50806">
        <ele>312</ele>
        <time>2022-04-01T11:00:07Z</time>
      </trkpt>
      <trkpt lat="45.9778" lon="4.50798">
        <ele>312</ele>
        <time>2022-04-01T11:00:10Z</time>
      </trkpt>
      <trkpt lat="45.97831" lon="4.50764">
        <ele>312</ele>
        <time>2022-04-01T11:00:20Z</time>
      </trkpt>
      <trkpt lat="45.97848" lon="4.50747">
        <ele>311</ele>
        <time>2022-04-01T11:00:24Z</time>
      </trkpt>
      <trkpt lat="45.97868" lon="4.50709">
        <ele>310</ele>
        <time>2022-04-01T11:00:30Z</time>
      </trkpt>
      <trkpt lat="45.97883" lon="4.50688">
        <ele>309</ele>
        <time>2022-04-01T11:00:33Z</time>
      </trkpt>
      <trkpt lat="45.97901" lon="4.50672">
        <ele>308</ele>
        <time>2022-04-01T11:00:37Z</time>
      </trkpt>
      <trkpt lat="45.97918" lon="4.50661">
        <ele>308</ele>
        <time>2022-04-01T11:00:40Z</time>
      </trkpt>
      <trkpt lat="45.97938" lon="4.50658">
        <ele>308</ele>
        <time>2022-04-01T11:00:44Z</time>
      </trkpt>
      <trkpt lat="45.97958" lon="4.5066">
        <ele>308</ele>
        <time>2022-04-01T11:00:48Z</time>
      </trkpt>
      <trkpt lat="45.97973" lon="4.50666">
        <ele>308</ele>
        <time>2022-04-01T11:00:50Z</time>
      </trkpt>
      <trkpt lat="45.97989" lon="4.50675">
        <ele>309</ele>
        <time>2022-04-01T11:00:53Z</time>
      </trkpt>
      <trkpt lat="45.98007" lon="4.50696">
        <ele>312</ele>
        <time>2022-04-01T11:00:58Z</time>
      </trkpt>
      <trkpt lat="45.98034" lon="4.50744">
        <ele>313</ele>
        <time>2022-04-01T11:01:05Z</time>
      </trkpt>
      <trkpt lat="45.98055" lon="4.50778">
        <ele>312</ele>
        <time>2022-04-01T11:01:11Z</time>
      </trkpt>
      <trkpt lat="45.98074" lon="4.50798">
        <ele>310</ele>
        <time>2022-04-01T11:01:15Z</time>
      </trkpt>
      <trkpt lat="45.98097" lon="4.50813">
        <ele>309</ele>
        <time>2022-04-01T11:01:20Z</time>
      </trkpt>
      <trkpt lat="45.98158" lon="4.50865">
        <ele>310</ele>
        <time>2022-04-01T11:01:32Z</time>
      </trkpt>
      <trkpt lat="45.98185" lon="4.5087">
        <ele>311</ele>
        <time>2022-04-01T11:01:37Z</time>
      </trkpt>
      <trkpt lat="45.98241" lon="4.50874">
        <ele>313</ele>
        <time>2022-04-01T11:01:47Z</time>
      </trkpt>
      <trkpt lat="45.98287" lon="4.50886">
        <ele>315</ele>
        <time>2022-04-01T11:01:55Z</time>
      </trkpt>
      <trkpt lat="45.98306" lon="4.50886">
        <ele>315</ele>
        <time>2022-04-01T11:01:59Z</time>
      </trkpt>
      <trkpt lat="45.98356" lon="4.50879">
        <ele>313</ele>
        <time>2022-04-01T11:02:08Z</time>
      </trkpt>
      <trkpt lat="45.98373" lon="4.50882">
        <ele>313</ele>
        <time>2022-04-01T11:02:11Z</time>
      </trkpt>
      <trkpt lat="45.98391" lon="4.50887">
        <ele>312</ele>
        <time>2022-04-01T11:02:14Z</time>
      </trkpt>
      <trkpt lat="45.98405" lon="4.50899">
        <ele>313</ele>
        <time>2022-04-01T11:02:17Z</time>
      </trkpt>
      <trkpt lat="45.98417" lon="4.50915">
        <ele>313</ele>
        <time>2022-04-01T11:02:20Z</time>
      </trkpt>
      <trkpt lat="45.98433" lon="4.50948">
        <ele>318</ele>
        <time>2022-04-01T11:02:25Z</time>
      </trkpt>
      <trkpt lat="45.98448" lon="4.50966">
        <ele>321</ele>
        <time>2022-04-01T11:02:28Z</time>
      </trkpt>
      <trkpt lat="45.98465" lon="4.50976">
        <ele>322</ele>
        <time>2022-04-01T11:02:31Z</time>
      </trkpt>
      <trkpt lat="45.98488" lon="4.50977">
        <ele>321</ele>
        <time>2022-04-01T11:02:36Z</time>
      </trkpt>
      <trkpt lat="45.98508" lon="4.50968">
        <ele>321</ele>
        <time>2022-04-01T11:02:39Z</time>
      </trkpt>
      <trkpt lat="45.98538" lon="4.50936">
        <ele>321</ele>
        <time>2022-04-01T11:02:46Z</time>
      </trkpt>
      <trkpt lat="45.98561" lon="4.50899">
        <ele>320</ele>
        <time>2022-04-01T11:02:52Z</time>
      </trkpt>
      <trkpt lat="45.98581" lon="4.50845">
        <ele>318</ele>
        <time>2022-04-01T11:03:00Z</time>
      </trkpt>
      <trkpt lat="45.98615" lon="4.50743">
        <ele>320</ele>
        <time>2022-04-01T11:03:14Z</time>
      </trkpt>
      <trkpt lat="45.98625" lon="4.50677">
        <ele>321</ele>
        <time>2022-04-01T11:03:22Z</time>
      </trkpt>
      <trkpt lat="45.9863" lon="4.50655">
        <ele>321</ele>
        <time>2022-04-01T11:03:25Z</time>
      </trkpt>
      <trkpt lat="45.98639" lon="4.50632">
        <ele>321</ele>
        <time>2022-04-01T11:03:28Z</time>
      </trkpt>
      <trkpt lat="45.98645" lon="4.5062">
        <ele>321</ele>
        <time>2022-04-01T11:03:30Z</time>
      </trkpt>
      <trkpt lat="45.98662" lon="4.50598">
        <ele>319</ele>
        <time>2022-04-01T11:03:34Z</time>
      </trkpt>
      <trkpt lat="45.98693" lon="4.50564">
        <ele>319</ele>
        <time>2022-04-01T11:03:41Z</time>
      </trkpt>
      <trkpt lat="45.98705" lon="4.50549">
        <ele>320</ele>
        <time>2022-04-01T11:03:44Z</time>
      </trkpt>
      <trkpt lat="45.98713" lon="4.50535">
        <ele>320</ele>
        <time>2022-04-01T11:03:46Z</time>
      </trkpt>
      <trkpt lat="45.98726" lon="4.50507">
        <ele>319</ele>
        <time>2022-04-01T11:03:50Z</time>
      </trkpt>
      <trkpt lat="45.98735" lon="4.50467">
        <ele>319</ele>
        <time>2022-04-01T11:03:55Z</time>
      </trkpt>
      <trkpt lat="45.98742" lon="4.50388">
        <ele>318</ele>
        <time>2022-04-01T11:04:05Z</time>
      </trkpt>
      <trkpt lat="45.98748" lon="4.50338">
        <ele>316</ele>
        <time>2022-04-01T11:04:11Z</time>
      </trkpt>
      <trkpt lat="45.98761" lon="4.50301">
        <ele>316</ele>
        <time>2022-04-01T11:04:17Z</time>
      </trkpt>
      <trkpt lat="45.98777" lon="4.50273">
        <ele>317</ele>
        <time>2022-04-01T11:04:21Z</time>
      </trkpt>
      <trkpt lat="45.98793" lon="4.50254">
        <ele>318</ele>
        <time>2022-04-01T11:04:25Z</time>
      </trkpt>
      <trkpt lat="45.98814" lon="4.50237">
        <ele>318</ele>
        <time>2022-04-01T11:04:29Z</time>
      </trkpt>
      <trkpt lat="45.98828" lon="4.50231">
        <ele>319</ele>
        <time>2022-04-01T11:04:32Z</time>
      </trkpt>
      <trkpt lat="45.98871" lon="4.50219">
        <ele>319</ele>
        <time>2022-04-01T11:04:39Z</time>
      </trkpt>
      <trkpt lat="45.98906" lon="4.50213">
        <ele>319</ele>
        <time>2022-04-01T11:04:46Z</time>
      </trkpt>
      <trkpt lat="45.98916" lon="4.50213">
        <ele>320</ele>
        <time>2022-04-01T11:04:47Z</time>
      </trkpt>
      <trkpt lat="45.98935" lon="4.50218">
        <ele>320</ele>
        <time>2022-04-01T11:04:51Z</time>
      </trkpt>
      <trkpt lat="45.9895" lon="4.50228">
        <ele>321</ele>
        <time>2022-04-01T11:04:54Z</time>
      </trkpt>
      <trkpt lat="45.98971" lon="4.50255">
        <ele>322</ele>
        <time>2022-04-01T11:04:59Z</time>
      </trkpt>
      <trkpt lat="45.98992" lon="4.50307">
        <ele>326</ele>
        <time>2022-04-01T11:05:06Z</time>
      </trkpt>
      <trkpt lat="45.9901" lon="4.50346">
        <ele>330</ele>
        <time>2022-04-01T11:05:12Z</time>
      </trkpt>
      <trkpt lat="45.99017" lon="4.50356">
        <ele>331</ele>
        <time>2022-04-01T11:05:14Z</time>
      </trkpt>
      <trkpt lat="45.99031" lon="4.5037">
        <ele>333</ele>
        <time>2022-04-01T11:05:17Z</time>
      </trkpt>
      <trkpt lat="45.99047" lon="4.5038">
        <ele>333</ele>
        <time>2022-04-01T11:05:20Z</time>
      </trkpt>
      <trkpt lat="45.9907" lon="4.50388">
        <ele>332</ele>
        <time>2022-04-01T11:05:24Z</time>
      </trkpt>
      <trkpt lat="45.99106" lon="4.50394">
        <ele>331</ele>
        <time>2022-04-01T11:05:31Z</time>
      </trkpt>
      <trkpt lat="45.99133" lon="4.50395">
        <ele>331</ele>
        <time>2022-04-01T11:05:35Z</time>
      </trkpt>
      <trkpt lat="45.99166" lon="4.50392">
        <ele>331</ele>
        <time>2022-04-01T11:05:41Z</time>
      </trkpt>
      <trkpt lat="45.99253" lon="4.50375">
        <ele>329</ele>
        <time>2022-04-01T11:05:57Z</time>
      </trkpt>
      <trkpt lat="45.99274" lon="4.5037">
        <ele>330</ele>
        <time>2022-04-01T11:06:01Z</time>
      </trkpt>
      <trkpt lat="45.99292" lon="4.50363">
        <ele>330</ele>
        <time>2022-04-01T11:06:04Z</time>
      </trkpt>
      <trkpt lat="45.99314" lon="4.5035">
        <ele>329</ele>
        <time>2022-04-01T11:06:08Z</time>
      </trkpt>
      <trkpt lat="45.99348" lon="4.50321">
        <ele>330</ele>
        <time>2022-04-01T11:06:15Z</time>
      </trkpt>
      <trkpt lat="45.99378" lon="4.50292">
        <ele>333</ele>
        <time>2022-04-01T11:06:22Z</time>
      </trkpt>
      <trkpt lat="45.99449" lon="4.5021">
        <ele>334</ele>
        <time>2022-04-01T11:06:38Z</time>
      </trkpt>
      <trkpt lat="45.99475" lon="4.50172">
        <ele>333</ele>
        <time>2022-04-01T11:06:45Z</time>
      </trkpt>
      <trkpt lat="45.99547" lon="4.50053">
        <ele>327</ele>
        <time>2022-04-01T11:07:04Z</time>
      </trkpt>
      <trkpt lat="45.99582" lon="4.50007">
        <ele>324</ele>
        <time>2022-04-01T11:07:12Z</time>
      </trkpt>
      <trkpt lat="45.9961" lon="4.49981">
        <ele>327</ele>
        <time>2022-04-01T11:07:18Z</time>
      </trkpt>
      <trkpt lat="45.99665" lon="4.49945">
        <ele>326</ele>
        <time>2022-04-01T11:07:29Z</time>
      </trkpt>
      <trkpt lat="45.99692" lon="4.49931">
        <ele>325</ele>
        <time>2022-04-01T11:07:34Z</time>
      </trkpt>
      <trkpt lat="45.99707" lon="4.49924">
        <ele>324</ele>
        <time>2022-04-01T11:07:37Z</time>
      </trkpt>
      <trkpt lat="45.99722" lon="4.49921">
        <ele>324</ele>
        <time>2022-04-01T11:07:40Z</time>
      </trkpt>
      <trkpt lat="45.99743" lon="4.49921">
        <ele>325</ele>
        <time>2022-04-01T11:07:44Z</time>
      </trkpt>
      <trkpt lat="45.99792" lon="4.49934">
        <ele>329</ele>
        <time>2022-04-01T11:07:52Z</time>
      </trkpt>
      <trkpt lat="45.99814" lon="4.49936">
        <ele>331</ele>
        <time>2022-04-01T11:07:56Z</time>
      </trkpt>
      <trkpt lat="45.99843" lon="4.49935">
        <ele>332</ele>
        <time>2022-04-01T11:08:01Z</time>
      </trkpt>
      <trkpt lat="45.99861" lon="4.49932">
        <ele>333</ele>
        <time>2022-04-01T11:08:05Z</time>
      </trkpt>
      <trkpt lat="45.99887" lon="4.49922">
        <ele>333</ele>
        <time>2022-04-01T11:08:09Z</time>
      </trkpt>
      <trkpt lat="45.99908" lon="4.49911">
        <ele>332</ele>
        <time>2022-04-01T11:08:13Z</time>
      </trkpt>
      <trkpt lat="45.99953" lon="4.49881">
        <ele>331</ele>
        <time>2022-04-01T11:08:22Z</time>
      </trkpt>
      <trkpt lat="46.0016" lon="4.49732">
        <ele>328</ele>
        <time>2022-04-01T11:09:03Z</time>
      </trkpt>
      <trkpt lat="46.00206" lon="4.49706">
        <ele>331</ele>
        <time>2022-04-01T11:09:12Z</time>
      </trkpt>
      <trkpt lat="46.00255" lon="4.49694">
        <ele>332</ele>
        <time>2022-04-01T11:09:21Z</time>
      </trkpt>
      <trkpt lat="46.0041" lon="4.49679">
        <ele>335</ele>
        <time>2022-04-01T11:09:49Z</time>
      </trkpt>
      <trkpt lat="46.00444" lon="4.49686">
        <ele>334</ele>
        <time>2022-04-01T11:09:55Z</time>
      </trkpt>
      <trkpt lat="46.00484" lon="4.49705">
        <ele>333</ele>
        <time>2022-04-01T11:10:02Z</time>
      </trkpt>
      <trkpt lat="46.00544" lon="4.49746">
        <ele>329</ele>
        <time>2022-04-01T11:10:14Z</time>
      </trkpt>
      <trkpt lat="46.00598" lon="4.4977">
        <ele>327</ele>
        <time>2022-04-01T11:10:24Z</time>
      </trkpt>
      <trkpt lat="46.00653" lon="4.49783">
        <ele>330</ele>
        <time>2022-04-01T11:10:34Z</time>
      </trkpt>
      <trkpt lat="46.007" lon="4.49777">
        <ele>331</ele>
        <time>2022-04-01T11:10:43Z</time>
      </trkpt>
      <trkpt lat="46.00719" lon="4.49772">
        <ele>331</ele>
        <time>2022-04-01T11:10:46Z</time>
      </trkpt>
      <trkpt lat="46.00831" lon="4.49705">
        <ele>335</ele>
        <time>2022-04-01T11:11:08Z</time>
      </trkpt>
      <trkpt lat="46.0095" lon="4.49696">
        <ele>335</ele>
        <time>2022-04-01T11:11:29Z</time>
      </trkpt>
      <trkpt lat="46.00987" lon="4.49712">
        <ele>336</ele>
        <time>2022-04-01T11:11:36Z</time>
      </trkpt>
      <trkpt lat="46.01023" lon="4.49734">
        <ele>339</ele>
        <time>2022-04-01T11:11:43Z</time>
      </trkpt>
      <trkpt lat="46.01117" lon="4.49773">
        <ele>344</ele>
        <time>2022-04-01T11:12:00Z</time>
      </trkpt>
      <trkpt lat="46.01144" lon="4.49778">
        <ele>343</ele>
        <time>2022-04-01T11:12:05Z</time>
      </trkpt>
      <trkpt lat="46.01193" lon="4.49774">
        <ele>341</ele>
        <time>2022-04-01T11:12:14Z</time>
      </trkpt>
      <trkpt lat="46.01231" lon="4.49763">
        <ele>340</ele>
        <time>2022-04-01T11:12:20Z</time>
      </trkpt>
      <trkpt lat="46.01269" lon="4.49756">
        <ele>338</ele>
        <time>2022-04-01T11:12:27Z</time>
      </trkpt>
      <trkpt lat="46.01287" lon="4.4976">
        <ele>339</ele>
        <time>2022-04-01T11:12:31Z</time>
      </trkpt>
      <trkpt lat="46.01303" lon="4.49767">
        <ele>340</ele>
        <time>2022-04-01T11:12:33Z</time>
      </trkpt>
      <trkpt lat="46.01316" lon="4.49776">
        <ele>341</ele>
        <time>2022-04-01T11:12:36Z</time>
      </trkpt>
      <trkpt lat="46.01367" lon="4.49814">
        <ele>347</ele>
        <time>2022-04-01T11:12:46Z</time>
      </trkpt>
      <trkpt lat="46.01387" lon="4.49824">
        <ele>347</ele>
        <time>2022-04-01T11:12:50Z</time>
      </trkpt>
      <trkpt lat="46.01412" lon="4.49821">
        <ele>344</ele>
        <time>2022-04-01T11:12:54Z</time>
      </trkpt>
      <trkpt lat="46.01437" lon="4.49811">
        <ele>345</ele>
        <time>2022-04-01T11:12:59Z</time>
      </trkpt>
      <trkpt lat="46.01542" lon="4.49724">
        <ele>344</ele>
        <time>2022-04-01T11:13:21Z</time>
      </trkpt>
      <trkpt lat="46.01568" lon="4.49717">
        <ele>345</ele>
        <time>2022-04-01T11:13:25Z</time>
      </trkpt>
      <trkpt lat="46.01591" lon="4.49718">
        <ele>345</ele>
        <time>2022-04-01T11:13:29Z</time>
      </trkpt>
      <trkpt lat="46.01604" lon="4.49722">
        <ele>345</ele>
        <time>2022-04-01T11:13:32Z</time>
      </trkpt>
      <trkpt lat="46.01615" lon="4.49729">
        <ele>344</ele>
        <time>2022-04-01T11:13:34Z</time>
      </trkpt>
      <trkpt lat="46.01707" lon="4.49797">
        <ele>347</ele>
        <time>2022-04-01T11:13:52Z</time>
      </trkpt>
      <trkpt lat="46.01805" lon="4.49859">
        <ele>348</ele>
        <time>2022-04-01T11:14:11Z</time>
      </trkpt>
      <trkpt lat="46.01826" lon="4.49881">
        <ele>349</ele>
        <time>2022-04-01T11:14:16Z</time>
      </trkpt>
      <trkpt lat="46.01854" lon="4.49904">
        <ele>350</ele>
        <time>2022-04-01T11:14:22Z</time>
      </trkpt>
      <trkpt lat="46.0196" lon="4.49941">
        <ele>351</ele>
        <time>2022-04-01T11:14:41Z</time>
      </trkpt>
      <trkpt lat="46.01979" lon="4.49941">
        <ele>350</ele>
        <time>2022-04-01T11:14:45Z</time>
      </trkpt>
      <trkpt lat="46.02051" lon="4.49928">
        <ele>346</ele>
        <time>2022-04-01T11:14:57Z</time>
      </trkpt>
      <trkpt lat="46.02096" lon="4.49939">
        <ele>346</ele>
        <time>2022-04-01T11:15:06Z</time>
      </trkpt>
      <trkpt lat="46.02154" lon="4.49948">
        <ele>343</ele>
        <time>2022-04-01T11:15:16Z</time>
      </trkpt>
      <trkpt lat="46.02193" lon="4.49951">
        <ele>342</ele>
        <time>2022-04-01T11:15:23Z</time>
      </trkpt>
      <trkpt lat="46.02357" lon="4.4994">
        <ele>348</ele>
        <time>2022-04-01T11:15:52Z</time>
      </trkpt>
      <trkpt lat="46.02426" lon="4.49924">
        <ele>350</ele>
        <time>2022-04-01T11:16:05Z</time>
      </trkpt>
      <trkpt lat="46.0246" lon="4.49911">
        <ele>353</ele>
        <time>2022-04-01T11:16:11Z</time>
      </trkpt>
      <trkpt lat="46.02702" lon="4.49792">
        <ele>351</ele>
        <time>2022-04-01T11:16:56Z</time>
      </trkpt>
      <trkpt lat="46.02737" lon="4.49782">
        <ele>350</ele>
        <time>2022-04-01T11:17:03Z</time>
      </trkpt>
      <trkpt lat="46.02893" lon="4.49756">
        <ele>352</ele>
        <time>2022-04-01T11:17:31Z</time>
      </trkpt>
      <trkpt lat="46.02942" lon="4.4975">
        <ele>352</ele>
        <time>2022-04-01T11:17:39Z</time>
      </trkpt>
      <trkpt lat="46.02967" lon="4.49744">
        <ele>352</ele>
        <time>2022-04-01T11:17:44Z</time>
      </trkpt>
      <trkpt lat="46.03106" lon="4.49684">
        <ele>353</ele>
        <time>2022-04-01T11:18:10Z</time>
      </trkpt>
      <trkpt lat="46.0318" lon="4.49649">
        <ele>355</ele>
        <time>2022-04-01T11:18:24Z</time>
      </trkpt>
      <trkpt lat="46.03227" lon="4.49622">
        <ele>354</ele>
        <time>2022-04-01T11:18:33Z</time>
      </trkpt>
      <trkpt lat="46.03426" lon="4.49519">
        <ele>354</ele>
        <time>2022-04-01T11:19:10Z</time>
      </trkpt>
      <trkpt lat="46.03469" lon="4.49488">
        <ele>353</ele>
        <time>2022-04-01T11:19:19Z</time>
      </trkpt>
      <trkpt lat="46.03473" lon="4.49493">
        <ele>353</ele>
        <time>2022-04-01T11:19:20Z</time>
      </trkpt>
      <trkpt lat="46.0348" lon="4.49493">
        <ele>353</ele>
        <time>2022-04-01T11:19:21Z</time>
      </trkpt>
      <trkpt lat="46.03485" lon="4.49485">
        <ele>353</ele>
        <time>2022-04-01T11:19:22Z</time>
      </trkpt>
      <trkpt lat="46.03484" lon="4.49474">
        <ele>353</ele>
        <time>2022-04-01T11:19:24Z</time>
      </trkpt>
      <trkpt lat="46.0351" lon="4.49449">
        <ele>353</ele>
        <time>2022-04-01T11:19:29Z</time>
      </trkpt>
      <trkpt lat="46.0353" lon="4.49427">
        <ele>353</ele>
        <time>2022-04-01T11:19:34Z</time>
      </trkpt>
      <trkpt lat="46.0358" lon="4.49349">
        <ele>352</ele>
        <time>2022-04-01T11:19:47Z</time>
      </trkpt>
      <trkpt lat="46.03631" lon="4.49265">
        <ele>355</ele>
        <time>2022-04-01T11:20:01Z</time>
      </trkpt>
      <trkpt lat="46.03702" lon="4.49169">
        <ele>359</ele>
        <time>2022-04-01T11:20:18Z</time>
      </trkpt>
      <trkpt lat="46.03821" lon="4.49021">
        <ele>368</ele>
        <time>2022-04-01T11:20:46Z</time>
      </trkpt>
      <trkpt lat="46.03843" lon="4.49001">
        <ele>369</ele>
        <time>2022-04-01T11:20:50Z</time>
      </trkpt>
      <trkpt lat="46.03882" lon="4.48979">
        <ele>368</ele>
        <time>2022-04-01T11:20:58Z</time>
      </trkpt>
      <trkpt lat="46.03934" lon="4.48966">
        <ele>367</ele>
        <time>2022-04-01T11:21:07Z</time>
      </trkpt>
      <trkpt lat="46.03991" lon="4.48955">
        <ele>366</ele>
        <time>2022-04-01T11:21:18Z</time>
      </trkpt>
      <trkpt lat="46.0408" lon="4.4895">
        <ele>364</ele>
        <time>2022-04-01T11:21:33Z</time>
      </trkpt>
      <trkpt lat="46.04113" lon="4.4894">
        <ele>364</ele>
        <time>2022-04-01T11:21:39Z</time>
      </trkpt>
      <trkpt lat="46.04147" lon="4.48923">
        <ele>364</ele>
        <time>2022-04-01T11:21:46Z</time>
      </trkpt>
      <trkpt lat="46.0421" lon="4.48883">
        <ele>366</ele>
        <time>2022-04-01T11:21:58Z</time>
      </trkpt>
      <trkpt lat="46.04338" lon="4.48824">
        <ele>368</ele>
        <time>2022-04-01T11:22:22Z</time>
      </trkpt>
      <trkpt lat="46.04362" lon="4.48818">
        <ele>369</ele>
        <time>2022-04-01T11:22:26Z</time>
      </trkpt>
      <trkpt lat="46.04389" lon="4.48819">
        <ele>369</ele>
        <time>2022-04-01T11:22:31Z</time>
      </trkpt>
      <trkpt lat="46.04432" lon="4.4883">
        <ele>369</ele>
        <time>2022-04-01T11:22:39Z</time>
      </trkpt>
      <trkpt lat="46.04514" lon="4.48861">
        <ele>371</ele>
        <time>2022-04-01T11:22:54Z</time>
      </trkpt>
      <trkpt lat="46.0454" lon="4.48876">
        <ele>371</ele>
        <time>2022-04-01T11:22:59Z</time>
      </trkpt>
      <trkpt lat="46.04576" lon="4.48888">
        <ele>372</ele>
        <time>2022-04-01T11:23:06Z</time>
      </trkpt>
      <trkpt lat="46.04596" lon="4.48888">
        <ele>372</ele>
        <time>2022-04-01T11:23:09Z</time>
      </trkpt>
      <trkpt lat="46.04617" lon="4.48885">
        <ele>373</ele>
        <time>2022-04-01T11:23:13Z</time>
      </trkpt>
      <trkpt lat="46.04651" lon="4.48889">
        <ele>372</ele>
        <time>2022-04-01T11:23:19Z</time>
      </trkpt>
      <trkpt lat="46.04694" lon="4.48904">
        <ele>370</ele>
        <time>2022-04-01T11:23:27Z</time>
      </trkpt>
      <trkpt lat="46.04897" lon="4.49006">
        <ele>376</ele>
        <time>2022-04-01T11:24:05Z</time>
      </trkpt>
      <trkpt lat="46.04924" lon="4.49028">
        <ele>376</ele>
        <time>2022-04-01T11:24:11Z</time>
      </trkpt>
      <trkpt lat="46.04947" lon="4.49054">
        <ele>377</ele>
        <time>2022-04-01T11:24:16Z</time>
      </trkpt>
      <trkpt lat="46.04995" lon="4.4913">
        <ele>378</ele>
        <time>2022-04-01T11:24:28Z</time>
      </trkpt>
      <trkpt lat="46.05029" lon="4.49187">
        <ele>381</ele>
        <time>2022-04-01T11:24:38Z</time>
      </trkpt>
      <trkpt lat="46.05061" lon="4.49243">
        <ele>384</ele>
        <time>2022-04-01T11:24:47Z</time>
      </trkpt>
      <trkpt lat="46.05076" lon="4.49264">
        <ele>385</ele>
        <time>2022-04-01T11:24:50Z</time>
      </trkpt>
      <trkpt lat="46.05095" lon="4.49286">
        <ele>385</ele>
        <time>2022-04-01T11:24:55Z</time>
      </trkpt>
      <trkpt lat="46.05122" lon="4.49302">
        <ele>385</ele>
        <time>2022-04-01T11:25:00Z</time>
      </trkpt>
      <trkpt lat="46.0523" lon="4.49333">
        <ele>387</ele>
        <time>2022-04-01T11:25:20Z</time>
      </trkpt>
      <trkpt lat="46.05266" lon="4.49346">
        <ele>386</ele>
        <time>2022-04-01T11:25:26Z</time>
      </trkpt>
      <trkpt lat="46.05293" lon="4.4936">
        <ele>386</ele>
        <time>2022-04-01T11:25:31Z</time>
      </trkpt>
      <trkpt lat="46.05319" lon="4.49371">
        <ele>385</ele>
        <time>2022-04-01T11:25:36Z</time>
      </trkpt>
      <trkpt lat="46.05349" lon="4.49378">
        <ele>384</ele>
        <time>2022-04-01T11:25:41Z</time>
      </trkpt>
      <trkpt lat="46.05377" lon="4.49375">
        <ele>384</ele>
        <time>2022-04-01T11:25:46Z</time>
      </trkpt>
      <trkpt lat="46.05443" lon="4.49355">
        <ele>383</ele>
        <time>2022-04-01T11:25:58Z</time>
      </trkpt>
      <trkpt lat="46.05487" lon="4.49337">
        <ele>382</ele>
        <time>2022-04-01T11:26:07Z</time>
      </trkpt>
      <trkpt lat="46.05507" lon="4.49317">
        <ele>381</ele>
        <time>2022-04-01T11:26:11Z</time>
      </trkpt>
      <trkpt lat="46.05513" lon="4.49325">
        <ele>381</ele>
        <time>2022-04-01T11:26:12Z</time>
      </trkpt>
      <trkpt lat="46.05556" lon="4.49356">
        <ele>378</ele>
        <time>2022-04-01T11:26:21Z</time>
      </trkpt>
      <trkpt lat="46.05573" lon="4.49386">
        <ele>376</ele>
        <time>2022-04-01T11:26:26Z</time>
      </trkpt>
      <trkpt lat="46.05581" lon="4.49408">
        <ele>375</ele>
        <time>2022-04-01T11:26:29Z</time>
      </trkpt>
      <trkpt lat="46.05595" lon="4.49434">
        <ele>377</ele>
        <time>2022-04-01T11:26:33Z</time>
      </trkpt>
      <trkpt lat="46.05609" lon="4.49452">
        <ele>379</ele>
        <time>2022-04-01T11:26:36Z</time>
      </trkpt>
      <trkpt lat="46.05619" lon="4.49452">
        <ele>380</ele>
        <time>2022-04-01T11:26:38Z</time>
      </trkpt>
      <trkpt lat="46.05636" lon="4.4944">
        <ele>379</ele>
        <time>2022-04-01T11:26:41Z</time>
      </trkpt>
      <trkpt lat="46.05669" lon="4.49408">
        <ele>378</ele>
        <time>2022-04-01T11:26:48Z</time>
      </trkpt>
      <trkpt lat="46.05688" lon="4.49384">
        <ele>380</ele>
        <time>2022-04-01T11:26:53Z</time>
      </trkpt>
      <trkpt lat="46.0572" lon="4.49353">
        <ele>381</ele>
        <time>2022-04-01T11:27:00Z</time>
      </trkpt>
      <trkpt lat="46.05796" lon="4.49291">
        <ele>381</ele>
        <time>2022-04-01T11:27:15Z</time>
      </trkpt>
      <trkpt lat="46.05816" lon="4.49267">
        <ele>380</ele>
        <time>2022-04-01T11:27:20Z</time>
      </trkpt>
      <trkpt lat="46.05828" lon="4.49244">
        <ele>379</ele>
        <time>2022-04-01T11:27:23Z</time>
      </trkpt>
      <trkpt lat="46.05849" lon="4.49213">
        <ele>378</ele>
        <time>2022-04-01T11:27:29Z</time>
      </trkpt>
      <trkpt lat="46.05871" lon="4.4919">
        <ele>378</ele>
        <time>2022-04-01T11:27:34Z</time>
      </trkpt>
      <trkpt lat="46.05902" lon="4.49171">
        <ele>378</ele>
        <time>2022-04-01T11:27:40Z</time>
      </trkpt>
      <trkpt lat="46.0598" lon="4.49141">
        <ele>379</ele>
        <time>2022-04-01T11:27:54Z</time>
      </trkpt>
      <trkpt lat="46.06014" lon="4.49139">
        <ele>380</ele>
        <time>2022-04-01T11:28:00Z</time>
      </trkpt>
      <trkpt lat="46.06118" lon="4.49165">
        <ele>385</ele>
        <time>2022-04-01T11:28:19Z</time>
      </trkpt>
      <trkpt lat="46.0613" lon="4.4917">
        <ele>385</ele>
        <time>2022-04-01T11:28:21Z</time>
      </trkpt>
      <trkpt lat="46.06135" lon="4.49174">
        <ele>386</ele>
        <time>2022-04-01T11:28:22Z</time>
      </trkpt>
      <trkpt lat="46.06156" lon="4.49213">
        <ele>388</ele>
        <time>2022-04-01T11:28:28Z</time>
      </trkpt>
      <trkpt lat="46.06201" lon="4.49245">
        <ele>389</ele>
        <time>2022-04-01T11:28:37Z</time>
      </trkpt>
      <trkpt lat="46.06252" lon="4.49267">
        <ele>388</ele>
        <time>2022-04-01T11:28:47Z</time>
      </trkpt>
      <trkpt lat="46.06264" lon="4.49267">
        <ele>387</ele>
        <time>2022-04-01T11:28:49Z</time>
      </trkpt>
      <trkpt lat="46.0627" lon="4.49262">
        <ele>387</ele>
        <time>2022-04-01T11:28:50Z</time>
      </trkpt>
      <trkpt lat="46.06284" lon="4.49245">
        <ele>386</ele>
        <time>2022-04-01T11:28:53Z</time>
      </trkpt>
      <trkpt lat="46.0629" lon="4.49242">
        <ele>385</ele>
        <time>2022-04-01T11:28:54Z</time>
      </trkpt>
      <trkpt lat="46.06303" lon="4.49243">
        <ele>385</ele>
        <time>2022-04-01T11:28:57Z</time>
      </trkpt>
      <trkpt lat="46.06312" lon="4.49246">
        <ele>385</ele>
        <time>2022-04-01T11:28:58Z</time>
      </trkpt>
      <trkpt lat="46.06316" lon="4.49235">
        <ele>384</ele>
        <time>2022-04-01T11:29:00Z</time>
      </trkpt>
      <trkpt lat="46.06324" lon="4.49218">
        <ele>384</ele>
        <time>2022-04-01T11:29:02Z</time>
      </trkpt>
      <trkpt lat="46.06335" lon="4.49191">
        <ele>384</ele>
        <time>2022-04-01T11:29:06Z</time>
      </trkpt>
      <trkpt lat="46.06388" lon="4.49237">
        <ele>386</ele>
        <time>2022-04-01T11:29:17Z</time>
      </trkpt>
      <trkpt lat="46.06408" lon="4.49247">
        <ele>386</ele>
        <time>2022-04-01T11:29:21Z</time>
      </trkpt>
      <trkpt lat="46.0642" lon="4.49249">
        <ele>386</ele>
        <time>2022-04-01T11:29:23Z</time>
      </trkpt>
      <trkpt lat="46.06495" lon="4.49223">
        <ele>390</ele>
        <time>2022-04-01T11:29:37Z</time>
      </trkpt>
      <trkpt lat="46.06621" lon="4.49225">
        <ele>395</ele>
        <time>2022-04-01T11:29:59Z</time>
      </trkpt>
      <trkpt lat="46.06648" lon="4.4922">
        <ele>396</ele>
        <time>2022-04-01T11:30:04Z</time>
      </trkpt>
      <trkpt lat="46.06782" lon="4.49181">
        <ele>404</ele>
        <time>2022-04-01T11:30:29Z</time>
      </trkpt>
      <trkpt lat="46.06851" lon="4.49155">
        <ele>409</ele>
        <time>2022-04-01T11:30:41Z</time>
      </trkpt>
      <trkpt lat="46.06927" lon="4.4912">
        <ele>409</ele>
        <time>2022-04-01T11:30:55Z</time>
      </trkpt>
      <trkpt lat="46.07119" lon="4.49025">
        <ele>410</ele>
        <time>2022-04-01T11:31:32Z</time>
      </trkpt>
      <trkpt lat="46.07161" lon="4.49011">
        <ele>413</ele>
        <time>2022-04-01T11:31:39Z</time>
      </trkpt>
      <trkpt lat="46.07204" lon="4.49005">
        <ele>414</ele>
        <time>2022-04-01T11:31:47Z</time>
      </trkpt>
      <trkpt lat="46.07437" lon="4.49028">
        <ele>398</ele>
        <time>2022-04-01T11:32:28Z</time>
      </trkpt>
      <trkpt lat="46.07453" lon="4.49027">
        <ele>398</ele>
        <time>2022-04-01T11:32:31Z</time>
      </trkpt>
      <trkpt lat="46.07468" lon="4.49021">
        <ele>398</ele>
        <time>2022-04-01T11:32:34Z</time>
      </trkpt>
      <trkpt lat="46.07484" lon="4.49012">
        <ele>399</ele>
        <time>2022-04-01T11:32:37Z</time>
      </trkpt>
      <trkpt lat="46.07501" lon="4.48997">
        <ele>399</ele>
        <time>2022-04-01T11:32:41Z</time>
      </trkpt>
      <trkpt lat="46.07521" lon="4.48976">
        <ele>401</ele>
        <time>2022-04-01T11:32:45Z</time>
      </trkpt>
      <trkpt lat="46.07689" lon="4.48787">
        <ele>404</ele>
        <time>2022-04-01T11:33:23Z</time>
      </trkpt>
      <trkpt lat="46.07734" lon="4.48741">
        <ele>405</ele>
        <time>2022-04-01T11:33:33Z</time>
      </trkpt>
      <trkpt lat="46.07841" lon="4.48639">
        <ele>409</ele>
        <time>2022-04-01T11:33:56Z</time>
      </trkpt>
      <trkpt lat="46.07869" lon="4.4861">
        <ele>411</ele>
        <time>2022-04-01T11:34:02Z</time>
      </trkpt>
      <trkpt lat="46.07887" lon="4.48588">
        <ele>411</ele>
        <time>2022-04-01T11:34:06Z</time>
      </trkpt>
      <trkpt lat="46.07904" lon="4.48558">
        <ele>411</ele>
        <time>2022-04-01T11:34:11Z</time>
      </trkpt>
      <trkpt lat="46.07914" lon="4.48534">
        <ele>411</ele>
        <time>2022-04-01T11:34:14Z</time>
      </trkpt>
      <trkpt lat="46.07929" lon="4.48493">
        <ele>412</ele>
        <time>2022-04-01T11:34:20Z</time>
      </trkpt>
      <trkpt lat="46.07955" lon="4.48437">
        <ele>414</ele>
        <time>2022-04-01T11:34:28Z</time>
      </trkpt>
      <trkpt lat="46.07973" lon="4.48407">
        <ele>412</ele>
        <time>2022-04-01T11:34:33Z</time>
      </trkpt>
      <trkpt lat="46.08006" lon="4.48366">
        <ele>411</ele>
        <time>2022-04-01T11:34:41Z</time>
      </trkpt>
      <trkpt lat="46.0803" lon="4.48344">
        <ele>411</ele>
        <time>2022-04-01T11:34:46Z</time>
      </trkpt>
      <trkpt lat="46.08063" lon="4.48321">
        <ele>411</ele>
        <time>2022-04-01T11:34:52Z</time>
      </trkpt>
      <trkpt lat="46.08097" lon="4.48303">
        <ele>412</ele>
        <time>2022-04-01T11:34:59Z</time>
      </trkpt>
      <trkpt lat="46.08137" lon="4.48292">
        <ele>412</ele>
        <time>2022-04-01T11:35:06Z</time>
      </trkpt>
      <trkpt lat="46.08174" lon="4.48287">
        <ele>410</ele>
        <time>2022-04-01T11:35:13Z</time>
      </trkpt>
      <trkpt lat="46.08226" lon="4.48285">
        <ele>409</ele>
        <time>2022-04-01T11:35:22Z</time>
      </trkpt>
      <trkpt lat="46.08258" lon="4.4828">
        <ele>409</ele>
        <time>2022-04-01T11:35:28Z</time>
      </trkpt>
      <trkpt lat="46.08393" lon="4.48239">
        <ele>414</ele>
        <time>2022-04-01T11:35:52Z</time>
      </trkpt>
      <trkpt lat="46.08415" lon="4.48236">
        <ele>415</ele>
        <time>2022-04-01T11:35:56Z</time>
      </trkpt>
      <trkpt lat="46.08471" lon="4.48235">
        <ele>415</ele>
        <time>2022-04-01T11:36:06Z</time>
      </trkpt>
      <trkpt lat="46.08498" lon="4.48231">
        <ele>415</ele>
        <time>2022-04-01T11:36:11Z</time>
      </trkpt>
      <trkpt lat="46.0851" lon="4.48226">
        <ele>415</ele>
        <time>2022-04-01T11:36:13Z</time>
      </trkpt>
      <trkpt lat="46.08519" lon="4.48218">
        <ele>415</ele>
        <time>2022-04-01T11:36:15Z</time>
      </trkpt>
      <trkpt lat="46.08552" lon="4.48184">
        <ele>417</ele>
        <time>2022-04-01T11:36:22Z</time>
      </trkpt>
      <trkpt lat="46.08635" lon="4.48111">
        <ele>419</ele>
        <time>2022-04-01T11:36:40Z</time>
      </trkpt>
      <trkpt lat="46.08664" lon="4.48081">
        <ele>419</ele>
        <time>2022-04-01T11:36:46Z</time>
      </trkpt>
      <trkpt lat="46.0868" lon="4.48059">
        <ele>419</ele>
        <time>2022-04-01T11:36:50Z</time>
      </trkpt>
      <trkpt lat="46.08691" lon="4.48038">
        <ele>419</ele>
        <time>2022-04-01T11:36:53Z</time>
      </trkpt>
      <trkpt lat="46.08701" lon="4.48016">
        <ele>418</ele>
        <time>2022-04-01T11:36:56Z</time>
      </trkpt>
      <trkpt lat="46.08737" lon="4.47916">
        <ele>421</ele>
        <time>2022-04-01T11:37:10Z</time>
      </trkpt>
      <trkpt lat="46.08753" lon="4.47885">
        <ele>423</ele>
        <time>2022-04-01T11:37:15Z</time>
      </trkpt>
      <trkpt lat="46.08786" lon="4.47836">
        <ele>424</ele>
        <time>2022-04-01T11:37:23Z</time>
      </trkpt>
      <trkpt lat="46.08856" lon="4.47755">
        <ele>423</ele>
        <time>2022-04-01T11:37:39Z</time>
      </trkpt>
      <trkpt lat="46.08879" lon="4.47725">
        <ele>423</ele>
        <time>2022-04-01T11:37:45Z</time>
      </trkpt>
      <trkpt lat="46.08929" lon="4.47653">
        <ele>420</ele>
        <time>2022-04-01T11:37:58Z</time>
      </trkpt>
      <trkpt lat="46.08985" lon="4.47568">
        <ele>424</ele>
        <time>2022-04-01T11:38:12Z</time>
      </trkpt>
      <trkpt lat="46.09035" lon="4.47487">
        <ele>426</ele>
        <time>2022-04-01T11:38:25Z</time>
      </trkpt>
      <trkpt lat="46.09061" lon="4.47452">
        <ele>426</ele>
        <time>2022-04-01T11:38:32Z</time>
      </trkpt>
      <trkpt lat="46.09098" lon="4.47407">
        <ele>425</ele>
        <time>2022-04-01T11:38:40Z</time>
      </trkpt>
      <trkpt lat="46.09282" lon="4.47251">
        <ele>429</ele>
        <time>2022-04-01T11:39:18Z</time>
      </trkpt>
      <trkpt lat="46.09366" lon="4.47192">
        <ele>433</ele>
        <time>2022-04-01T11:39:35Z</time>
      </trkpt>
      <trkpt lat="46.09441" lon="4.47131">
        <ele>434</ele>
        <time>2022-04-01T11:39:50Z</time>
      </trkpt>
      <trkpt lat="46.09477" lon="4.47104">
        <ele>437</ele>
        <time>2022-04-01T11:39:57Z</time>
      </trkpt>
      <trkpt lat="46.09527" lon="4.47076">
        <ele>438</ele>
        <time>2022-04-01T11:40:07Z</time>
      </trkpt>
      <trkpt lat="46.0956" lon="4.47066">
        <ele>438</ele>
        <time>2022-04-01T11:40:13Z</time>
      </trkpt>
      <trkpt lat="46.09577" lon="4.47065">
        <ele>437</ele>
        <time>2022-04-01T11:40:16Z</time>
      </trkpt>
      <trkpt lat="46.09622" lon="4.47069">
        <ele>436</ele>
        <time>2022-04-01T11:40:24Z</time>
      </trkpt>
      <trkpt lat="46.0967" lon="4.47089">
        <ele>435</ele>
        <time>2022-04-01T11:40:33Z</time>
      </trkpt>
      <trkpt lat="46.09757" lon="4.47121">
        <ele>440</ele>
        <time>2022-04-01T11:40:49Z</time>
      </trkpt>
      <trkpt lat="46.09825" lon="4.47144">
        <ele>439</ele>
        <time>2022-04-01T11:41:01Z</time>
      </trkpt>
      <trkpt lat="46.09846" lon="4.47148">
        <ele>439</ele>
        <time>2022-04-01T11:41:05Z</time>
      </trkpt>
      <trkpt lat="46.09865" lon="4.4715">
        <ele>437</ele>
        <time>2022-04-01T11:41:09Z</time>
      </trkpt>
      <trkpt lat="46.09889" lon="4.47148">
        <ele>437</ele>
        <time>2022-04-01T11:41:13Z</time>
      </trkpt>
      <trkpt lat="46.09937" lon="4.47136">
        <ele>437</ele>
        <time>2022-04-01T11:41:21Z</time>
      </trkpt>
      <trkpt lat="46.09988" lon="4.47119">
        <ele>438</ele>
        <time>2022-04-01T11:41:31Z</time>
      </trkpt>
      <trkpt lat="46.1003" lon="4.47096">
        <ele>440</ele>
        <time>2022-04-01T11:41:39Z</time>
      </trkpt>
      <trkpt lat="46.10199" lon="4.46967">
        <ele>450</ele>
        <time>2022-04-01T11:42:13Z</time>
      </trkpt>
      <trkpt lat="46.10276" lon="4.46902">
        <ele>449</ele>
        <time>2022-04-01T11:42:29Z</time>
      </trkpt>
      <trkpt lat="46.10299" lon="4.46885">
        <ele>449</ele>
        <time>2022-04-01T11:42:33Z</time>
      </trkpt>
      <trkpt lat="46.10327" lon="4.46868">
        <ele>450</ele>
        <time>2022-04-01T11:42:39Z</time>
      </trkpt>
      <trkpt lat="46.10431" lon="4.46813">
        <ele>451</ele>
        <time>2022-04-01T11:42:58Z</time>
      </trkpt>
      <trkpt lat="46.1046" lon="4.46801">
        <ele>450</ele>
        <time>2022-04-01T11:43:04Z</time>
      </trkpt>
      <trkpt lat="46.10479" lon="4.46796">
        <ele>449</ele>
        <time>2022-04-01T11:43:07Z</time>
      </trkpt>
      <trkpt lat="46.10514" lon="4.46795">
        <ele>448</ele>
        <time>2022-04-01T11:43:13Z</time>
      </trkpt>
      <trkpt lat="46.10576" lon="4.46808">
        <ele>449</ele>
        <time>2022-04-01T11:43:25Z</time>
      </trkpt>
      <trkpt lat="46.10635" lon="4.46827">
        <ele>450</ele>
        <time>2022-04-01T11:43:35Z</time>
      </trkpt>
      <trkpt lat="46.10663" lon="4.46834">
        <ele>451</ele>
        <time>2022-04-01T11:43:40Z</time>
      </trkpt>
      <trkpt lat="46.10689" lon="4.46838">
        <ele>451</ele>
        <time>2022-04-01T11:43:45Z</time>
      </trkpt>
      <trkpt lat="46.10718" lon="4.46839">
        <ele>452</ele>
        <time>2022-04-01T11:43:50Z</time>
      </trkpt>
      <trkpt lat="46.10751" lon="4.46836">
        <ele>453</ele>
        <time>2022-04-01T11:43:56Z</time>
      </trkpt>
      <trkpt lat="46.10775" lon="4.4683">
        <ele>453</ele>
        <time>2022-04-01T11:44:00Z</time>
      </trkpt>
      <trkpt lat="46.10795" lon="4.46821">
        <ele>454</ele>
        <time>2022-04-01T11:44:04Z</time>
      </trkpt>
      <trkpt lat="46.10877" lon="4.46758">
        <ele>460</ele>
        <time>2022-04-01T11:44:21Z</time>
      </trkpt>
      <trkpt lat="46.10936" lon="4.46719">
        <ele>465</ele>
        <time>2022-04-01T11:44:32Z</time>
      </trkpt>
      <trkpt lat="46.10973" lon="4.467">
        <ele>466</ele>
        <time>2022-04-01T11:44:39Z</time>
      </trkpt>
      <trkpt lat="46.10988" lon="4.46695">
        <ele>465</ele>
        <time>2022-04-01T11:44:42Z</time>
      </trkpt>
      <trkpt lat="46.11063" lon="4.46684">
        <ele>462</ele>
        <time>2022-04-01T11:44:55Z</time>
      </trkpt>
      <trkpt lat="46.11075" lon="4.46679">
        <ele>461</ele>
        <time>2022-04-01T11:44:58Z</time>
      </trkpt>
      <trkpt lat="46.11264" lon="4.46567">
        <ele>464</ele>
        <time>2022-04-01T11:45:34Z</time>
      </trkpt>
      <trkpt lat="46.11306" lon="4.46549">
        <ele>466</ele>
        <time>2022-04-01T11:45:42Z</time>
      </trkpt>
      <trkpt lat="46.11338" lon="4.46545">
        <ele>464</ele>
        <time>2022-04-01T11:45:47Z</time>
      </trkpt>
      <trkpt lat="46.11373" lon="4.46545">
        <ele>467</ele>
        <time>2022-04-01T11:45:54Z</time>
      </trkpt>
      <trkpt lat="46.11398" lon="4.46549">
        <ele>469</ele>
        <time>2022-04-01T11:45:58Z</time>
      </trkpt>
      <trkpt lat="46.1142" lon="4.46561">
        <ele>468</ele>
        <time>2022-04-01T11:46:02Z</time>
      </trkpt>
      <trkpt lat="46.11503" lon="4.46642">
        <ele>469</ele>
        <time>2022-04-01T11:46:20Z</time>
      </trkpt>
      <trkpt lat="46.11523" lon="4.46655">
        <ele>469</ele>
        <time>2022-04-01T11:46:24Z</time>
      </trkpt>
      <trkpt lat="46.11553" lon="4.46671">
        <ele>470</ele>
        <time>2022-04-01T11:46:30Z</time>
      </trkpt>
      <trkpt lat="46.11592" lon="4.46682">
        <ele>471</ele>
        <time>2022-04-01T11:46:37Z</time>
      </trkpt>
      <trkpt lat="46.11618" lon="4.46683">
        <ele>473</ele>
        <time>2022-04-01T11:46:41Z</time>
      </trkpt>
      <trkpt lat="46.11702" lon="4.46679">
        <ele>476</ele>
        <time>2022-04-01T11:46:56Z</time>
      </trkpt>
      <trkpt lat="46.11867" lon="4.46642">
        <ele>483</ele>
        <time>2022-04-01T11:47:26Z</time>
      </trkpt>
      <trkpt lat="46.1194" lon="4.4664">
        <ele>483</ele>
        <time>2022-04-01T11:47:39Z</time>
      </trkpt>
      <trkpt lat="46.12016" lon="4.46644">
        <ele>482</ele>
        <time>2022-04-01T11:47:53Z</time>
      </trkpt>
      <trkpt lat="46.12063" lon="4.4663">
        <ele>487</ele>
        <time>2022-04-01T11:48:01Z</time>
      </trkpt>
      <trkpt lat="46.12109" lon="4.46609">
        <ele>489</ele>
        <time>2022-04-01T11:48:10Z</time>
      </trkpt>
      <trkpt lat="46.12154" lon="4.46594">
        <ele>485</ele>
        <time>2022-04-01T11:48:18Z</time>
      </trkpt>
      <trkpt lat="46.1218" lon="4.46591">
        <ele>485</ele>
        <time>2022-04-01T11:48:23Z</time>
      </trkpt>
      <trkpt lat="46.1228" lon="4.4659">
        <ele>493</ele>
        <time>2022-04-01T11:48:40Z</time>
      </trkpt>
      <trkpt lat="46.12289" lon="4.4659">
        <ele>494</ele>
        <time>2022-04-01T11:48:42Z</time>
      </trkpt>
      <trkpt lat="46.12321" lon="4.46599">
        <ele>496</ele>
        <time>2022-04-01T11:48:48Z</time>
      </trkpt>
      <trkpt lat="46.12364" lon="4.4663">
        <ele>494</ele>
        <time>2022-04-01T11:48:56Z</time>
      </trkpt>
      <trkpt lat="46.12394" lon="4.46665">
        <ele>491</ele>
        <time>2022-04-01T11:49:03Z</time>
      </trkpt>
      <trkpt lat="46.12409" lon="4.46686">
        <ele>492</ele>
        <time>2022-04-01T11:49:07Z</time>
      </trkpt>
      <trkpt lat="46.12418" lon="4.46713">
        <ele>489</ele>
        <time>2022-04-01T11:49:11Z</time>
      </trkpt>
      <trkpt lat="46.12425" lon="4.46746">
        <ele>486</ele>
        <time>2022-04-01T11:49:15Z</time>
      </trkpt>
      <trkpt lat="46.12433" lon="4.46828">
        <ele>481</ele>
        <time>2022-04-01T11:49:25Z</time>
      </trkpt>
      <trkpt lat="46.12437" lon="4.46847">
        <ele>482</ele>
        <time>2022-04-01T11:49:28Z</time>
      </trkpt>
      <trkpt lat="46.12445" lon="4.46868">
        <ele>484</ele>
        <time>2022-04-01T11:49:31Z</time>
      </trkpt>
      <trkpt lat="46.12456" lon="4.46886">
        <ele>485</ele>
        <time>2022-04-01T11:49:33Z</time>
      </trkpt>
      <trkpt lat="46.12469" lon="4.46901">
        <ele>486</ele>
        <time>2022-04-01T11:49:36Z</time>
      </trkpt>
      <trkpt lat="46.12481" lon="4.4691">
        <ele>487</ele>
        <time>2022-04-01T11:49:39Z</time>
      </trkpt>
      <trkpt lat="46.12497" lon="4.46919">
        <ele>487</ele>
        <time>2022-04-01T11:49:42Z</time>
      </trkpt>
      <trkpt lat="46.12514" lon="4.46923">
        <ele>486</ele>
        <time>2022-04-01T11:49:45Z</time>
      </trkpt>
      <trkpt lat="46.12532" lon="4.46921">
        <ele>486</ele>
        <time>2022-04-01T11:49:48Z</time>
      </trkpt>
      <trkpt lat="46.12561" lon="4.46909">
        <ele>487</ele>
        <time>2022-04-01T11:49:54Z</time>
      </trkpt>
      <trkpt lat="46.12583" lon="4.46886">
        <ele>491</ele>
        <time>2022-04-01T11:49:58Z</time>
      </trkpt>
      <trkpt lat="46.12603" lon="4.46852">
        <ele>494</ele>
        <time>2022-04-01T11:50:04Z</time>
      </trkpt>
      <trkpt lat="46.12688" lon="4.46674">
        <ele>497</ele>
        <time>2022-04-01T11:50:31Z</time>
      </trkpt>
      <trkpt lat="46.12721" lon="4.46599">
        <ele>493</ele>
        <time>2022-04-01T11:50:42Z</time>
      </trkpt>
      <trkpt lat="46.1273" lon="4.46576">
        <ele>492</ele>
        <time>2022-04-01T11:50:45Z</time>
      </trkpt>
      <trkpt lat="46.12733" lon="4.46556">
        <ele>492</ele>
        <time>2022-04-01T11:50:47Z</time>
      </trkpt>
      <trkpt lat="46.1274" lon="4.46454">
        <ele>498</ele>
        <time>2022-04-01T11:51:00Z</time>
      </trkpt>
      <trkpt lat="46.12744" lon="4.46426">
        <ele>499</ele>
        <time>2022-04-01T11:51:03Z</time>
      </trkpt>
      <trkpt lat="46.12751" lon="4.46397">
        <ele>499</ele>
        <time>2022-04-01T11:51:07Z</time>
      </trkpt>
      <trkpt lat="46.12767" lon="4.46352">
        <ele>501</ele>
        <time>2022-04-01T11:51:13Z</time>
      </trkpt>
      <trkpt lat="46.1283" lon="4.46195">
        <ele>504</ele>
        <time>2022-04-01T11:51:36Z</time>
      </trkpt>
      <trkpt lat="46.12843" lon="4.46168">
        <ele>504</ele>
        <time>2022-04-01T11:51:40Z</time>
      </trkpt>
      <trkpt lat="46.12892" lon="4.46094">
        <ele>509</ele>
        <time>2022-04-01T11:51:53Z</time>
      </trkpt>
      <trkpt lat="46.12955" lon="4.45989">
        <ele>513</ele>
        <time>2022-04-01T11:52:10Z</time>
      </trkpt>
      <trkpt lat="46.12997" lon="4.45913">
        <ele>515</ele>
        <time>2022-04-01T11:52:22Z</time>
      </trkpt>
      <trkpt lat="46.13061" lon="4.45785">
        <ele>520</ele>
        <time>2022-04-01T11:52:41Z</time>
      </trkpt>
      <trkpt lat="46.1308" lon="4.45752">
        <ele>520</ele>
        <time>2022-04-01T11:52:46Z</time>
      </trkpt>
      <trkpt lat="46.13116" lon="4.45707">
        <ele>522</ele>
        <time>2022-04-01T11:52:55Z</time>
      </trkpt>
      <trkpt lat="46.132" lon="4.45616">
        <ele>530</ele>
        <time>2022-04-01T11:53:14Z</time>
      </trkpt>
      <trkpt lat="46.13275" lon="4.45524">
        <ele>531</ele>
        <time>2022-04-01T11:53:31Z</time>
      </trkpt>
      <trkpt lat="46.13303" lon="4.45484">
        <ele>533</ele>
        <time>2022-04-01T11:53:38Z</time>
      </trkpt>
      <trkpt lat="46.13329" lon="4.45444">
        <ele>537</ele>
        <time>2022-04-01T11:53:45Z</time>
      </trkpt>
      <trkpt lat="46.1336" lon="4.45383">
        <ele>541</ele>
        <time>2022-04-01T11:53:54Z</time>
      </trkpt>
      <trkpt lat="46.13418" lon="4.4523">
        <ele>544</ele>
        <time>2022-04-01T11:54:16Z</time>
      </trkpt>
      <trkpt lat="46.13436" lon="4.45193">
        <ele>543</ele>
        <time>2022-04-01T11:54:21Z</time>
      </trkpt>
      <trkpt lat="46.13449" lon="4.45169">
        <ele>543</ele>
        <time>2022-04-01T11:54:25Z</time>
      </trkpt>
      <trkpt lat="46.13478" lon="4.4513">
        <ele>544</ele>
        <time>2022-04-01T11:54:32Z</time>
      </trkpt>
      <trkpt lat="46.13587" lon="4.45017">
        <ele>546</ele>
        <time>2022-04-01T11:54:56Z</time>
      </trkpt>
      <trkpt lat="46.1364" lon="4.44951">
        <ele>552</ele>
        <time>2022-04-01T11:55:08Z</time>
      </trkpt>
      <trkpt lat="46.13667" lon="4.4492">
        <ele>554</ele>
        <time>2022-04-01T11:55:15Z</time>
      </trkpt>
      <trkpt lat="46.137" lon="4.44887">
        <ele>554</ele>
        <time>2022-04-01T11:55:22Z</time>
      </trkpt>
      <trkpt lat="46.13733" lon="4.44857">
        <ele>556</ele>
        <time>2022-04-01T11:55:29Z</time>
      </trkpt>
      <trkpt lat="46.13756" lon="4.44842">
        <ele>557</ele>
        <time>2022-04-01T11:55:33Z</time>
      </trkpt>
      <trkpt lat="46.13817" lon="4.44808">
        <ele>561</ele>
        <time>2022-04-01T11:55:45Z</time>
      </trkpt>
      <trkpt lat="46.13848" lon="4.44787">
        <ele>563</ele>
        <time>2022-04-01T11:55:51Z</time>
      </trkpt>
      <trkpt lat="46.13923" lon="4.4473">
        <ele>565</ele>
        <time>2022-04-01T11:56:06Z</time>
      </trkpt>
      <trkpt lat="46.13959" lon="4.44707">
        <ele>567</ele>
        <time>2022-04-01T11:56:13Z</time>
      </trkpt>
      <trkpt lat="46.13993" lon="4.44692">
        <ele>571</ele>
        <time>2022-04-01T11:56:19Z</time>
      </trkpt>
      <trkpt lat="46.14067" lon="4.44669">
        <ele>576</ele>
        <time>2022-04-01T11:56:33Z</time>
      </trkpt>
      <trkpt lat="46.14115" lon="4.44651">
        <ele>578</ele>
        <time>2022-04-01T11:56:42Z</time>
      </trkpt>
      <trkpt lat="46.14188" lon="4.44617">
        <ele>583</ele>
        <time>2022-04-01T11:56:55Z</time>
      </trkpt>
      <trkpt lat="46.14233" lon="4.44603">
        <ele>586</ele>
        <time>2022-04-01T11:57:03Z</time>
      </trkpt>
      <trkpt lat="46.14339" lon="4.44575">
        <ele>593</ele>
        <time>2022-04-01T11:57:23Z</time>
      </trkpt>
      <trkpt lat="46.14475" lon="4.44533">
        <ele>598</ele>
        <time>2022-04-01T11:57:47Z</time>
      </trkpt>
      <trkpt lat="46.14541" lon="4.44507">
        <ele>598</ele>
        <time>2022-04-01T11:57:59Z</time>
      </trkpt>
      <trkpt lat="46.1561" lon="4.44008">
        <ele>647</ele>
        <time>2022-04-01T12:01:19Z</time>
      </trkpt>
      <trkpt lat="46.15634" lon="4.43999">
        <ele>650</ele>
        <time>2022-04-01T12:01:24Z</time>
      </trkpt>
      <trkpt lat="46.15713" lon="4.43993">
        <ele>654</ele>
        <time>2022-04-01T12:01:38Z</time>
      </trkpt>
      <trkpt lat="46.15787" lon="4.43973">
        <ele>659</ele>
        <time>2022-04-01T12:01:51Z</time>
      </trkpt>
      <trkpt lat="46.15818" lon="4.43961">
        <ele>662</ele>
        <time>2022-04-01T12:01:57Z</time>
      </trkpt>
      <trkpt lat="46.1584" lon="4.43948">
        <ele>665</ele>
        <time>2022-04-01T12:02:01Z</time>
      </trkpt>
      <trkpt lat="46.15884" lon="4.43909">
        <ele>668</ele>
        <time>2022-04-01T12:02:10Z</time>
      </trkpt>
      <trkpt lat="46.159" lon="4.439">
        <ele>669</ele>
        <time>2022-04-01T12:02:13Z</time>
      </trkpt>
      <trkpt lat="46.15916" lon="4.43896">
        <ele>669</ele>
        <time>2022-04-01T12:02:16Z</time>
      </trkpt>
      <trkpt lat="46.15948" lon="4.43895">
        <ele>672</ele>
        <time>2022-04-01T12:02:22Z</time>
      </trkpt>
      <trkpt lat="46.16001" lon="4.43905">
        <ele>676</ele>
        <time>2022-04-01T12:02:32Z</time>
      </trkpt>
      <trkpt lat="46.16019" lon="4.43915">
        <ele>677</ele>
        <time>2022-04-01T12:02:35Z</time>
      </trkpt>
      <trkpt lat="46.16037" lon="4.43928">
        <ele>679</ele>
        <time>2022-04-01T12:02:39Z</time>
      </trkpt>
      <trkpt lat="46.16093" lon="4.43981">
        <ele>682</ele>
        <time>2022-04-01T12:02:50Z</time>
      </trkpt>
      <trkpt lat="46.16144" lon="4.44026">
        <ele>684</ele>
        <time>2022-04-01T12:03:01Z</time>
      </trkpt>
      <trkpt lat="46.16168" lon="4.44039">
        <ele>684</ele>
        <time>2022-04-01T12:03:06Z</time>
      </trkpt>
      <trkpt lat="46.16189" lon="4.44043">
        <ele>685</ele>
        <time>2022-04-01T12:03:09Z</time>
      </trkpt>
      <trkpt lat="46.1621" lon="4.44039">
        <ele>686</ele>
        <time>2022-04-01T12:03:13Z</time>
      </trkpt>
      <trkpt lat="46.16229" lon="4.44028">
        <ele>688</ele>
        <time>2022-04-01T12:03:17Z</time>
      </trkpt>
      <trkpt lat="46.16244" lon="4.44011">
        <ele>690</ele>
        <time>2022-04-01T12:03:20Z</time>
      </trkpt>
      <trkpt lat="46.16287" lon="4.43958">
        <ele>694</ele>
        <time>2022-04-01T12:03:30Z</time>
      </trkpt>
      <trkpt lat="46.1631" lon="4.43944">
        <ele>695</ele>
        <time>2022-04-01T12:03:35Z</time>
      </trkpt>
      <trkpt lat="46.16359" lon="4.43922">
        <ele>697</ele>
        <time>2022-04-01T12:03:44Z</time>
      </trkpt>
      <trkpt lat="46.16376" lon="4.43919">
        <ele>698</ele>
        <time>2022-04-01T12:03:47Z</time>
      </trkpt>
      <trkpt lat="46.16444" lon="4.43933">
        <ele>699</ele>
        <time>2022-04-01T12:03:59Z</time>
      </trkpt>
      <trkpt lat="46.16461" lon="4.43933">
        <ele>700</ele>
        <time>2022-04-01T12:04:02Z</time>
      </trkpt>
      <trkpt lat="46.16507" lon="4.43924">
        <ele>705</ele>
        <time>2022-04-01T12:04:10Z</time>
      </trkpt>
      <trkpt lat="46.1653" lon="4.43924">
        <ele>706</ele>
        <time>2022-04-01T12:04:15Z</time>
      </trkpt>
      <trkpt lat="46.16545" lon="4.43927">
        <ele>707</ele>
        <time>2022-04-01T12:04:17Z</time>
      </trkpt>
      <trkpt lat="46.16574" lon="4.43938">
        <ele>706</ele>
        <time>2022-04-01T12:04:23Z</time>
      </trkpt>
      <trkpt lat="46.16606" lon="4.43952">
        <ele>707</ele>
        <time>2022-04-01T12:04:28Z</time>
      </trkpt>
      <trkpt lat="46.16626" lon="4.43964">
        <ele>708</ele>
        <time>2022-04-01T12:04:32Z</time>
      </trkpt>
      <trkpt lat="46.16649" lon="4.43986">
        <ele>708</ele>
        <time>2022-04-01T12:04:37Z</time>
      </trkpt>
      <trkpt lat="46.16665" lon="4.4401">
        <ele>708</ele>
        <time>2022-04-01T12:04:41Z</time>
      </trkpt>
      <trkpt lat="46.16689" lon="4.44057">
        <ele>708</ele>
        <time>2022-04-01T12:04:49Z</time>
      </trkpt>
      <trkpt lat="46.16698" lon="4.44095">
        <ele>708</ele>
        <time>2022-04-01T12:04:53Z</time>
      </trkpt>
      <trkpt lat="46.16702" lon="4.44122">
        <ele>709</ele>
        <time>2022-04-01T12:04:57Z</time>
      </trkpt>
      <trkpt lat="46.16698" lon="4.44154">
        <ele>708</ele>
        <time>2022-04-01T12:05:01Z</time>
      </trkpt>
      <trkpt lat="46.167" lon="4.44162">
        <ele>708</ele>
        <time>2022-04-01T12:05:02Z</time>
      </trkpt>
      <trkpt lat="46.16706" lon="4.44172">
        <ele>709</ele>
        <time>2022-04-01T12:05:04Z</time>
      </trkpt>
      <trkpt lat="46.16714" lon="4.44175">
        <ele>710</ele>
        <time>2022-04-01T12:05:05Z</time>
      </trkpt>
      <trkpt lat="46.16722" lon="4.44174">
        <ele>711</ele>
        <time>2022-04-01T12:05:06Z</time>
      </trkpt>
      <trkpt lat="46.16729" lon="4.44167">
        <ele>711</ele>
        <time>2022-04-01T12:05:08Z</time>
      </trkpt>
      <trkpt lat="46.16731" lon="4.44162">
        <ele>712</ele>
        <time>2022-04-01T12:05:09Z</time>
      </trkpt>
      <trkpt lat="46.16743" lon="4.44151">
        <ele>713</ele>
        <time>2022-04-01T12:05:11Z</time>
      </trkpt>
      <trkpt lat="46.16755" lon="4.44145">
        <ele>714</ele>
        <time>2022-04-01T12:05:13Z</time>
      </trkpt>
      <trkpt lat="46.16758" lon="4.4414">
        <ele>714</ele>
        <time>2022-04-01T12:05:14Z</time>
      </trkpt>
      <trkpt lat="46.16832" lon="4.4408">
        <ele>714</ele>
        <time>2022-04-01T12:05:29Z</time>
      </trkpt>
      <trkpt lat="46.16836" lon="4.44086">
        <ele>714</ele>
        <time>2022-04-01T12:05:30Z</time>
      </trkpt>
      <trkpt lat="46.16845" lon="4.44097">
        <ele>713</ele>
        <time>2022-04-01T12:05:33Z</time>
      </trkpt>
      <trkpt lat="46.16904" lon="4.44146">
        <ele>710</ele>
        <time>2022-04-01T12:05:45Z</time>
      </trkpt>
      <trkpt lat="46.17007" lon="4.44228">
        <ele>717</ele>
        <time>2022-04-01T12:06:06Z</time>
      </trkpt>
      <trkpt lat="46.17026" lon="4.4424">
        <ele>721</ele>
        <time>2022-04-01T12:06:09Z</time>
      </trkpt>
      <trkpt lat="46.17069" lon="4.44263">
        <ele>727</ele>
        <time>2022-04-01T12:06:17Z</time>
      </trkpt>
      <trkpt lat="46.17195" lon="4.44319">
        <ele>726</ele>
        <time>2022-04-01T12:06:41Z</time>
      </trkpt>
      <trkpt lat="46.17208" lon="4.4432">
        <ele>726</ele>
        <time>2022-04-01T12:06:43Z</time>
      </trkpt>
      <trkpt lat="46.17224" lon="4.44317">
        <ele>726</ele>
        <time>2022-04-01T12:06:46Z</time>
      </trkpt>
      <trkpt lat="46.17274" lon="4.44302">
        <ele>722</ele>
        <time>2022-04-01T12:06:55Z</time>
      </trkpt>
      <trkpt lat="46.17297" lon="4.44299">
        <ele>719</ele>
        <time>2022-04-01T12:06:59Z</time>
      </trkpt>
      <trkpt lat="46.17365" lon="4.44295">
        <ele>714</ele>
        <time>2022-04-01T12:07:11Z</time>
      </trkpt>
      <trkpt lat="46.17386" lon="4.44291">
        <ele>713</ele>
        <time>2022-04-01T12:07:15Z</time>
      </trkpt>
      <trkpt lat="46.17425" lon="4.44276">
        <ele>710</ele>
        <time>2022-04-01T12:07:22Z</time>
      </trkpt>
      <trkpt lat="46.17463" lon="4.44265">
        <ele>706</ele>
        <time>2022-04-01T12:07:29Z</time>
      </trkpt>
      <trkpt lat="46.17524" lon="4.44255">
        <ele>702</ele>
        <time>2022-04-01T12:07:40Z</time>
      </trkpt>
      <trkpt lat="46.17642" lon="4.44245">
        <ele>700</ele>
        <time>2022-04-01T12:08:01Z</time>
      </trkpt>
      <trkpt lat="46.1768" lon="4.44252">
        <ele>702</ele>
        <time>2022-04-01T12:08:08Z</time>
      </trkpt>
      <trkpt lat="46.17793" lon="4.4428">
        <ele>704</ele>
        <time>2022-04-01T12:08:28Z</time>
      </trkpt>
      <trkpt lat="46.17817" lon="4.44281">
        <ele>703</ele>
        <time>2022-04-01T12:08:33Z</time>
      </trkpt>
      <trkpt lat="46.17842" lon="4.44275">
        <ele>702</ele>
        <time>2022-04-01T12:08:37Z</time>
      </trkpt>
      <trkpt lat="46.17891" lon="4.44245">
        <ele>698</ele>
        <time>2022-04-01T12:08:47Z</time>
      </trkpt>
      <trkpt lat="46.17934" lon="4.44226">
        <ele>694</ele>
        <time>2022-04-01T12:08:55Z</time>
      </trkpt>
      <trkpt lat="46.17954" lon="4.4422">
        <ele>692</ele>
        <time>2022-04-01T12:08:58Z</time>
      </trkpt>
      <trkpt lat="46.17991" lon="4.44217">
        <ele>689</ele>
        <time>2022-04-01T12:09:05Z</time>
      </trkpt>
      <trkpt lat="46.18006" lon="4.4422">
        <ele>689</ele>
        <time>2022-04-01T12:09:08Z</time>
      </trkpt>
      <trkpt lat="46.18043" lon="4.44231">
        <ele>686</ele>
        <time>2022-04-01T12:09:14Z</time>
      </trkpt>
      <trkpt lat="46.18057" lon="4.44232">
        <ele>685</ele>
        <time>2022-04-01T12:09:17Z</time>
      </trkpt>
      <trkpt lat="46.18081" lon="4.44228">
        <ele>682</ele>
        <time>2022-04-01T12:09:21Z</time>
      </trkpt>
      <trkpt lat="46.1809" lon="4.44223">
        <ele>681</ele>
        <time>2022-04-01T12:09:23Z</time>
      </trkpt>
      <trkpt lat="46.18183" lon="4.44156">
        <ele>679</ele>
        <time>2022-04-01T12:09:41Z</time>
      </trkpt>
      <trkpt lat="46.18209" lon="4.4413">
        <ele>681</ele>
        <time>2022-04-01T12:09:47Z</time>
      </trkpt>
      <trkpt lat="46.18275" lon="4.44019">
        <ele>676</ele>
        <time>2022-04-01T12:10:05Z</time>
      </trkpt>
      <trkpt lat="46.18289" lon="4.44">
        <ele>675</ele>
        <time>2022-04-01T12:10:08Z</time>
      </trkpt>
      <trkpt lat="46.18305" lon="4.43982">
        <ele>674</ele>
        <time>2022-04-01T12:10:12Z</time>
      </trkpt>
      <trkpt lat="46.18322" lon="4.43967">
        <ele>675</ele>
        <time>2022-04-01T12:10:16Z</time>
      </trkpt>
      <trkpt lat="46.1834" lon="4.43954">
        <ele>675</ele>
        <time>2022-04-01T12:10:19Z</time>
      </trkpt>
      <trkpt lat="46.18371" lon="4.43937">
        <ele>674</ele>
        <time>2022-04-01T12:10:25Z</time>
      </trkpt>
      <trkpt lat="46.18383" lon="4.43934">
        <ele>674</ele>
        <time>2022-04-01T12:10:27Z</time>
      </trkpt>
      <trkpt lat="46.1841" lon="4.43933">
        <ele>674</ele>
        <time>2022-04-01T12:10:32Z</time>
      </trkpt>
      <trkpt lat="46.18484" lon="4.43948">
        <ele>676</ele>
        <time>2022-04-01T12:10:45Z</time>
      </trkpt>
      <trkpt lat="46.18507" lon="4.4395">
        <ele>677</ele>
        <time>2022-04-01T12:10:49Z</time>
      </trkpt>
      <trkpt lat="46.18544" lon="4.43948">
        <ele>680</ele>
        <time>2022-04-01T12:10:56Z</time>
      </trkpt>
      <trkpt lat="46.18582" lon="4.4394">
        <ele>682</ele>
        <time>2022-04-01T12:11:03Z</time>
      </trkpt>
      <trkpt lat="46.18617" lon="4.43932">
        <ele>679</ele>
        <time>2022-04-01T12:11:09Z</time>
      </trkpt>
      <trkpt lat="46.18649" lon="4.4392">
        <ele>676</ele>
        <time>2022-04-01T12:11:15Z</time>
      </trkpt>
      <trkpt lat="46.18698" lon="4.43882">
        <ele>670</ele>
        <time>2022-04-01T12:11:25Z</time>
      </trkpt>
      <trkpt lat="46.18725" lon="4.43868">
        <ele>668</ele>
        <time>2022-04-01T12:11:30Z</time>
      </trkpt>
      <trkpt lat="46.18745" lon="4.4386">
        <ele>666</ele>
        <time>2022-04-01T12:11:34Z</time>
      </trkpt>
      <trkpt lat="46.18934" lon="4.43801">
        <ele>662</ele>
        <time>2022-04-01T12:12:08Z</time>
      </trkpt>
      <trkpt lat="46.19016" lon="4.43776">
        <ele>662</ele>
        <time>2022-04-01T12:12:23Z</time>
      </trkpt>
      <trkpt lat="46.19043" lon="4.43763">
        <ele>661</ele>
        <time>2022-04-01T12:12:28Z</time>
      </trkpt>
      <trkpt lat="46.19067" lon="4.43741">
        <ele>660</ele>
        <time>2022-04-01T12:12:33Z</time>
      </trkpt>
      <trkpt lat="46.19085" lon="4.43728">
        <ele>659</ele>
        <time>2022-04-01T12:12:37Z</time>
      </trkpt>
      <trkpt lat="46.19128" lon="4.43707">
        <ele>657</ele>
        <time>2022-04-01T12:12:45Z</time>
      </trkpt>
      <trkpt lat="46.19154" lon="4.43698">
        <ele>657</ele>
        <time>2022-04-01T12:12:50Z</time>
      </trkpt>
      <trkpt lat="46.19166" lon="4.43697">
        <ele>657</ele>
        <time>2022-04-01T12:12:52Z</time>
      </trkpt>
      <trkpt lat="46.19199" lon="4.43708">
        <ele>657</ele>
        <time>2022-04-01T12:12:58Z</time>
      </trkpt>
      <trkpt lat="46.19214" lon="4.43709">
        <ele>657</ele>
        <time>2022-04-01T12:13:00Z</time>
      </trkpt>
      <trkpt lat="46.19262" lon="4.437">
        <ele>656</ele>
        <time>2022-04-01T12:13:09Z</time>
      </trkpt>
      <trkpt lat="46.19271" lon="4.43701">
        <ele>656</ele>
        <time>2022-04-01T12:13:11Z</time>
      </trkpt>
      <trkpt lat="46.19323" lon="4.4374">
        <ele>655</ele>
        <time>2022-04-01T12:13:21Z</time>
      </trkpt>
      <trkpt lat="46.19343" lon="4.43754">
        <ele>654</ele>
        <time>2022-04-01T12:13:25Z</time>
      </trkpt>
      <trkpt lat="46.19417" lon="4.43778">
        <ele>655</ele>
        <time>2022-04-01T12:13:38Z</time>
      </trkpt>
      <trkpt lat="46.19436" lon="4.43783">
        <ele>655</ele>
        <time>2022-04-01T12:13:42Z</time>
      </trkpt>
      <trkpt lat="46.19455" lon="4.43784">
        <ele>655</ele>
        <time>2022-04-01T12:13:45Z</time>
      </trkpt>
      <trkpt lat="46.19477" lon="4.4378">
        <ele>656</ele>
        <time>2022-04-01T12:13:49Z</time>
      </trkpt>
      <trkpt lat="46.1949" lon="4.43775">
        <ele>657</ele>
        <time>2022-04-01T12:13:52Z</time>
      </trkpt>
      <trkpt lat="46.19514" lon="4.43761">
        <ele>657</ele>
        <time>2022-04-01T12:13:56Z</time>
      </trkpt>
      <trkpt lat="46.19554" lon="4.43734">
        <ele>657</ele>
        <time>2022-04-01T12:14:04Z</time>
      </trkpt>
      <trkpt lat="46.19572" lon="4.43724">
        <ele>658</ele>
        <time>2022-04-01T12:14:07Z</time>
      </trkpt>
      <trkpt lat="46.19588" lon="4.43721">
        <ele>657</ele>
        <time>2022-04-01T12:14:10Z</time>
      </trkpt>
      <trkpt lat="46.19627" lon="4.43718">
        <ele>655</ele>
        <time>2022-04-01T12:14:17Z</time>
      </trkpt>
      <trkpt lat="46.19675" lon="4.43721">
        <ele>652</ele>
        <time>2022-04-01T12:14:26Z</time>
      </trkpt>
      <trkpt lat="46.19719" lon="4.43729">
        <ele>650</ele>
        <time>2022-04-01T12:14:34Z</time>
      </trkpt>
      <trkpt lat="46.19746" lon="4.43738">
        <ele>648</ele>
        <time>2022-04-01T12:14:39Z</time>
      </trkpt>
      <trkpt lat="46.19793" lon="4.43762">
        <ele>646</ele>
        <time>2022-04-01T12:14:48Z</time>
      </trkpt>
      <trkpt lat="46.19848" lon="4.43809">
        <ele>642</ele>
        <time>2022-04-01T12:14:59Z</time>
      </trkpt>
      <trkpt lat="46.19868" lon="4.43831">
        <ele>641</ele>
        <time>2022-04-01T12:15:03Z</time>
      </trkpt>
      <trkpt lat="46.19903" lon="4.4388">
        <ele>638</ele>
        <time>2022-04-01T12:15:12Z</time>
      </trkpt>
      <trkpt lat="46.19926" lon="4.4392">
        <ele>635</ele>
        <time>2022-04-01T12:15:18Z</time>
      </trkpt>
      <trkpt lat="46.19997" lon="4.4409">
        <ele>628</ele>
        <time>2022-04-01T12:15:43Z</time>
      </trkpt>
      <trkpt lat="46.2001" lon="4.44132">
        <ele>625</ele>
        <time>2022-04-01T12:15:49Z</time>
      </trkpt>
      <trkpt lat="46.20024" lon="4.44255">
        <ele>620</ele>
        <time>2022-04-01T12:16:04Z</time>
      </trkpt>
      <trkpt lat="46.20029" lon="4.44278">
        <ele>618</ele>
        <time>2022-04-01T12:16:07Z</time>
      </trkpt>
      <trkpt lat="46.20046" lon="4.44321">
        <ele>616</ele>
        <time>2022-04-01T12:16:13Z</time>
      </trkpt>
      <trkpt lat="46.20075" lon="4.44366">
        <ele>616</ele>
        <time>2022-04-01T12:16:21Z</time>
      </trkpt>
      <trkpt lat="46.20156" lon="4.44476">
        <ele>611</ele>
        <time>2022-04-01T12:16:40Z</time>
      </trkpt>
      <trkpt lat="46.2017" lon="4.44486">
        <ele>610</ele>
        <time>2022-04-01T12:16:43Z</time>
      </trkpt>
      <trkpt lat="46.20184" lon="4.44494">
        <ele>609</ele>
        <time>2022-04-01T12:16:46Z</time>
      </trkpt>
      <trkpt lat="46.20206" lon="4.44498">
        <ele>607</ele>
        <time>2022-04-01T12:16:50Z</time>
      </trkpt>
      <trkpt lat="46.20227" lon="4.44495">
        <ele>606</ele>
        <time>2022-04-01T12:16:54Z</time>
      </trkpt>
      <trkpt lat="46.2026" lon="4.44473">
        <ele>604</ele>
        <time>2022-04-01T12:17:00Z</time>
      </trkpt>
      <trkpt lat="46.2027" lon="4.44461">
        <ele>603</ele>
        <time>2022-04-01T12:17:02Z</time>
      </trkpt>
      <trkpt lat="46.20366" lon="4.4432">
        <ele>595</ele>
        <time>2022-04-01T12:17:27Z</time>
      </trkpt>
      <trkpt lat="46.20382" lon="4.44283">
        <ele>593</ele>
        <time>2022-04-01T12:17:32Z</time>
      </trkpt>
      <trkpt lat="46.20388" lon="4.44264">
        <ele>592</ele>
        <time>2022-04-01T12:17:35Z</time>
      </trkpt>
      <trkpt lat="46.2039" lon="4.44222">
        <ele>590</ele>
        <time>2022-04-01T12:17:40Z</time>
      </trkpt>
      <trkpt lat="46.20381" lon="4.44095">
        <ele>590</ele>
        <time>2022-04-01T12:17:55Z</time>
      </trkpt>
      <trkpt lat="46.20381" lon="4.44068">
        <ele>590</ele>
        <time>2022-04-01T12:17:59Z</time>
      </trkpt>
      <trkpt lat="46.20387" lon="4.44026">
        <ele>591</ele>
        <time>2022-04-01T12:18:04Z</time>
      </trkpt>
      <trkpt lat="46.20394" lon="4.44004">
        <ele>590</ele>
        <time>2022-04-01T12:18:07Z</time>
      </trkpt>
      <trkpt lat="46.20401" lon="4.43987">
        <ele>591</ele>
        <time>2022-04-01T12:18:10Z</time>
      </trkpt>
      <trkpt lat="46.20423" lon="4.43957">
        <ele>590</ele>
        <time>2022-04-01T12:18:15Z</time>
      </trkpt>
      <trkpt lat="46.20445" lon="4.43936">
        <ele>588</ele>
        <time>2022-04-01T12:18:20Z</time>
      </trkpt>
      <trkpt lat="46.20464" lon="4.43925">
        <ele>586</ele>
        <time>2022-04-01T12:18:23Z</time>
      </trkpt>
      <trkpt lat="46.20484" lon="4.43919">
        <ele>582</ele>
        <time>2022-04-01T12:18:27Z</time>
      </trkpt>
      <trkpt lat="46.20533" lon="4.43921">
        <ele>574</ele>
        <time>2022-04-01T12:18:36Z</time>
      </trkpt>
      <trkpt lat="46.20598" lon="4.43936">
        <ele>565</ele>
        <time>2022-04-01T12:18:47Z</time>
      </trkpt>
      <trkpt lat="46.20665" lon="4.43945">
        <ele>561</ele>
        <time>2022-04-01T12:18:59Z</time>
      </trkpt>
      <trkpt lat="46.20693" lon="4.43951">
        <ele>561</ele>
        <time>2022-04-01T12:19:04Z</time>
      </trkpt>
      <trkpt lat="46.20744" lon="4.43973">
        <ele>560</ele>
        <time>2022-04-01T12:19:14Z</time>
      </trkpt>
      <trkpt lat="46.20756" lon="4.43975">
        <ele>560</ele>
        <time>2022-04-01T12:19:16Z</time>
      </trkpt>
      <trkpt lat="46.20778" lon="4.43975">
        <ele>560</ele>
        <time>2022-04-01T12:19:20Z</time>
      </trkpt>
      <trkpt lat="46.20796" lon="4.43969">
        <ele>561</ele>
        <time>2022-04-01T12:19:23Z</time>
      </trkpt>
      <trkpt lat="46.20825" lon="4.43954">
        <ele>562</ele>
        <time>2022-04-01T12:19:29Z</time>
      </trkpt>
      <trkpt lat="46.20851" lon="4.43933">
        <ele>561</ele>
        <time>2022-04-01T12:19:34Z</time>
      </trkpt>
      <trkpt lat="46.20877" lon="4.43903">
        <ele>558</ele>
        <time>2022-04-01T12:19:40Z</time>
      </trkpt>
      <trkpt lat="46.20946" lon="4.43798">
        <ele>555</ele>
        <time>2022-04-01T12:19:58Z</time>
      </trkpt>
      <trkpt lat="46.20955" lon="4.43778">
        <ele>554</ele>
        <time>2022-04-01T12:20:01Z</time>
      </trkpt>
      <trkpt lat="46.20998" lon="4.4365">
        <ele>557</ele>
        <time>2022-04-01T12:20:18Z</time>
      </trkpt>
      <trkpt lat="46.2101" lon="4.43625">
        <ele>555</ele>
        <time>2022-04-01T12:20:22Z</time>
      </trkpt>
      <trkpt lat="46.21023" lon="4.43603">
        <ele>551</ele>
        <time>2022-04-01T12:20:25Z</time>
      </trkpt>
      <trkpt lat="46.21033" lon="4.43589">
        <ele>549</ele>
        <time>2022-04-01T12:20:28Z</time>
      </trkpt>
      <trkpt lat="46.21048" lon="4.43575">
        <ele>545</ele>
        <time>2022-04-01T12:20:31Z</time>
      </trkpt>
      <trkpt lat="46.21144" lon="4.43495">
        <ele>532</ele>
        <time>2022-04-01T12:20:51Z</time>
      </trkpt>
      <trkpt lat="46.21187" lon="4.43471">
        <ele>526</ele>
        <time>2022-04-01T12:20:59Z</time>
      </trkpt>
      <trkpt lat="46.21226" lon="4.43458">
        <ele>521</ele>
        <time>2022-04-01T12:21:06Z</time>
      </trkpt>
      <trkpt lat="46.21243" lon="4.43449">
        <ele>519</ele>
        <time>2022-04-01T12:21:09Z</time>
      </trkpt>
      <trkpt lat="46.21255" lon="4.43439">
        <ele>518</ele>
        <time>2022-04-01T12:21:12Z</time>
      </trkpt>
      <trkpt lat="46.21265" lon="4.43424">
        <ele>518</ele>
        <time>2022-04-01T12:21:14Z</time>
      </trkpt>
      <trkpt lat="46.21277" lon="4.43403">
        <ele>517</ele>
        <time>2022-04-01T12:21:18Z</time>
      </trkpt>
      <trkpt lat="46.21306" lon="4.43336">
        <ele>514</ele>
        <time>2022-04-01T12:21:27Z</time>
      </trkpt>
      <trkpt lat="46.21321" lon="4.43308">
        <ele>513</ele>
        <time>2022-04-01T12:21:32Z</time>
      </trkpt>
      <trkpt lat="46.21335" lon="4.43287">
        <ele>513</ele>
        <time>2022-04-01T12:21:35Z</time>
      </trkpt>
      <trkpt lat="46.21353" lon="4.43269">
        <ele>513</ele>
        <time>2022-04-01T12:21:39Z</time>
      </trkpt>
      <trkpt lat="46.21503" lon="4.4314">
        <ele>509</ele>
        <time>2022-04-01T12:22:10Z</time>
      </trkpt>
      <trkpt lat="46.21513" lon="4.43132">
        <ele>510</ele>
        <time>2022-04-01T12:22:12Z</time>
      </trkpt>
      <trkpt lat="46.21668" lon="4.42999">
        <ele>512</ele>
        <time>2022-04-01T12:22:44Z</time>
      </trkpt>
      <trkpt lat="46.21686" lon="4.42986">
        <ele>513</ele>
        <time>2022-04-01T12:22:48Z</time>
      </trkpt>
      <trkpt lat="46.21713" lon="4.42973">
        <ele>514</ele>
        <time>2022-04-01T12:22:53Z</time>
      </trkpt>
      <trkpt lat="46.21774" lon="4.42949">
        <ele>511</ele>
        <time>2022-04-01T12:23:04Z</time>
      </trkpt>
      <trkpt lat="46.21806" lon="4.42941">
        <ele>509</ele>
        <time>2022-04-01T12:23:10Z</time>
      </trkpt>
      <trkpt lat="46.21847" lon="4.42939">
        <ele>509</ele>
        <time>2022-04-01T12:23:17Z</time>
      </trkpt>
      <trkpt lat="46.21911" lon="4.42947">
        <ele>511</ele>
        <time>2022-04-01T12:23:29Z</time>
      </trkpt>
      <trkpt lat="46.21929" lon="4.42943">
        <ele>511</ele>
        <time>2022-04-01T12:23:32Z</time>
      </trkpt>
      <trkpt lat="46.21956" lon="4.42927">
        <ele>509</ele>
        <time>2022-04-01T12:23:37Z</time>
      </trkpt>
      <trkpt lat="46.2216" lon="4.42758">
        <ele>513</ele>
        <time>2022-04-01T12:24:19Z</time>
      </trkpt>
      <trkpt lat="46.22178" lon="4.42739">
        <ele>514</ele>
        <time>2022-04-01T12:24:23Z</time>
      </trkpt>
      <trkpt lat="46.22194" lon="4.42719">
        <ele>515</ele>
        <time>2022-04-01T12:24:27Z</time>
      </trkpt>
      <trkpt lat="46.2224" lon="4.42644">
        <ele>508</ele>
        <time>2022-04-01T12:24:39Z</time>
      </trkpt>
      <trkpt lat="46.22253" lon="4.42629">
        <ele>506</ele>
        <time>2022-04-01T12:24:42Z</time>
      </trkpt>
      <trkpt lat="46.22265" lon="4.42621">
        <ele>505</ele>
        <time>2022-04-01T12:24:45Z</time>
      </trkpt>
      <trkpt lat="46.22276" lon="4.42616">
        <ele>505</ele>
        <time>2022-04-01T12:24:47Z</time>
      </trkpt>
      <trkpt lat="46.22287" lon="4.42613">
        <ele>505</ele>
        <time>2022-04-01T12:24:49Z</time>
      </trkpt>
      <trkpt lat="46.22348" lon="4.42612">
        <ele>509</ele>
        <time>2022-04-01T12:24:59Z</time>
      </trkpt>
      <trkpt lat="46.22381" lon="4.42606">
        <ele>507</ele>
        <time>2022-04-01T12:25:05Z</time>
      </trkpt>
      <trkpt lat="46.22513" lon="4.42555">
        <ele>497</ele>
        <time>2022-04-01T12:25:30Z</time>
      </trkpt>
      <trkpt lat="46.22539" lon="4.42538">
        <ele>496</ele>
        <time>2022-04-01T12:25:35Z</time>
      </trkpt>
      <trkpt lat="46.22552" lon="4.42525">
        <ele>495</ele>
        <time>2022-04-01T12:25:38Z</time>
      </trkpt>
      <trkpt lat="46.2263" lon="4.42429">
        <ele>491</ele>
        <time>2022-04-01T12:25:56Z</time>
      </trkpt>
      <trkpt lat="46.22644" lon="4.42414">
        <ele>490</ele>
        <time>2022-04-01T12:25:59Z</time>
      </trkpt>
      <trkpt lat="46.22658" lon="4.42403">
        <ele>490</ele>
        <time>2022-04-01T12:26:02Z</time>
      </trkpt>
      <trkpt lat="46.22681" lon="4.42387">
        <ele>491</ele>
        <time>2022-04-01T12:26:06Z</time>
      </trkpt>
      <trkpt lat="46.22715" lon="4.42367">
        <ele>493</ele>
        <time>2022-04-01T12:26:13Z</time>
      </trkpt>
      <trkpt lat="46.22736" lon="4.42351">
        <ele>493</ele>
        <time>2022-04-01T12:26:17Z</time>
      </trkpt>
      <trkpt lat="46.22752" lon="4.42334">
        <ele>492</ele>
        <time>2022-04-01T12:26:21Z</time>
      </trkpt>
      <trkpt lat="46.22766" lon="4.42313">
        <ele>493</ele>
        <time>2022-04-01T12:26:24Z</time>
      </trkpt>
      <trkpt lat="46.22794" lon="4.4226">
        <ele>490</ele>
        <time>2022-04-01T12:26:32Z</time>
      </trkpt>
      <trkpt lat="46.2287" lon="4.42138">
        <ele>487</ele>
        <time>2022-04-01T12:26:53Z</time>
      </trkpt>
      <trkpt lat="46.22886" lon="4.42116">
        <ele>486</ele>
        <time>2022-04-01T12:26:56Z</time>
      </trkpt>
      <trkpt lat="46.22902" lon="4.42099">
        <ele>486</ele>
        <time>2022-04-01T12:27:00Z</time>
      </trkpt>
      <trkpt lat="46.23001" lon="4.42016">
        <ele>488</ele>
        <time>2022-04-01T12:27:20Z</time>
      </trkpt>
      <trkpt lat="46.23105" lon="4.4192">
        <ele>483</ele>
        <time>2022-04-01T12:27:42Z</time>
      </trkpt>
      <trkpt lat="46.23129" lon="4.41889">
        <ele>484</ele>
        <time>2022-04-01T12:27:48Z</time>
      </trkpt>
      <trkpt lat="46.23163" lon="4.41833">
        <ele>481</ele>
        <time>2022-04-01T12:27:57Z</time>
      </trkpt>
      <trkpt lat="46.23175" lon="4.41819">
        <ele>482</ele>
        <time>2022-04-01T12:28:00Z</time>
      </trkpt>
      <trkpt lat="46.23292" lon="4.41726">
        <ele>485</ele>
        <time>2022-04-01T12:28:24Z</time>
      </trkpt>
      <trkpt lat="46.23316" lon="4.4171">
        <ele>486</ele>
        <time>2022-04-01T12:28:28Z</time>
      </trkpt>
      <trkpt lat="46.2336" lon="4.41691">
        <ele>486</ele>
        <time>2022-04-01T12:28:37Z</time>
      </trkpt>
      <trkpt lat="46.23386" lon="4.41684">
        <ele>487</ele>
        <time>2022-04-01T12:28:41Z</time>
      </trkpt>
      <trkpt lat="46.23441" lon="4.41678">
        <ele>489</ele>
        <time>2022-04-01T12:28:51Z</time>
      </trkpt>
      <trkpt lat="46.23476" lon="4.41669">
        <ele>486</ele>
        <time>2022-04-01T12:28:57Z</time>
      </trkpt>
      <trkpt lat="46.23507" lon="4.41648">
        <ele>486</ele>
        <time>2022-04-01T12:29:04Z</time>
      </trkpt>
      <trkpt lat="46.23519" lon="4.41636">
        <ele>487</ele>
        <time>2022-04-01T12:29:06Z</time>
      </trkpt>
      <trkpt lat="46.23529" lon="4.41621">
        <ele>487</ele>
        <time>2022-04-01T12:29:09Z</time>
      </trkpt>
      <trkpt lat="46.23539" lon="4.41594">
        <ele>484</ele>
        <time>2022-04-01T12:29:12Z</time>
      </trkpt>
      <trkpt lat="46.23555" lon="4.41492">
        <ele>478</ele>
        <time>2022-04-01T12:29:25Z</time>
      </trkpt>
      <trkpt lat="46.23561" lon="4.41415">
        <ele>478</ele>
        <time>2022-04-01T12:29:35Z</time>
      </trkpt>
      <trkpt lat="46.2357" lon="4.41379">
        <ele>476</ele>
        <time>2022-04-01T12:29:40Z</time>
      </trkpt>
      <trkpt lat="46.23579" lon="4.41358">
        <ele>474</ele>
        <time>2022-04-01T12:29:43Z</time>
      </trkpt>
      <trkpt lat="46.23587" lon="4.41345">
        <ele>472</ele>
        <time>2022-04-01T12:29:45Z</time>
      </trkpt>
      <trkpt lat="46.23604" lon="4.41326">
        <ele>473</ele>
        <time>2022-04-01T12:29:49Z</time>
      </trkpt>
      <trkpt lat="46.23637" lon="4.41296">
        <ele>472</ele>
        <time>2022-04-01T12:29:56Z</time>
      </trkpt>
      <trkpt lat="46.23683" lon="4.4125">
        <ele>464</ele>
        <time>2022-04-01T12:30:05Z</time>
      </trkpt>
      <trkpt lat="46.23693" lon="4.41242">
        <ele>465</ele>
        <time>2022-04-01T12:30:07Z</time>
      </trkpt>
      <trkpt lat="46.23704" lon="4.41236">
        <ele>465</ele>
        <time>2022-04-01T12:30:10Z</time>
      </trkpt>
      <trkpt lat="46.23761" lon="4.41224">
        <ele>463</ele>
        <time>2022-04-01T12:30:20Z</time>
      </trkpt>
      <trkpt lat="46.23789" lon="4.41214">
        <ele>462</ele>
        <time>2022-04-01T12:30:25Z</time>
      </trkpt>
      <trkpt lat="46.23808" lon="4.41204">
        <ele>460</ele>
        <time>2022-04-01T12:30:29Z</time>
      </trkpt>
      <trkpt lat="46.23821" lon="4.41193">
        <ele>459</ele>
        <time>2022-04-01T12:30:31Z</time>
      </trkpt>
      <trkpt lat="46.23933" lon="4.41068">
        <ele>456</ele>
        <time>2022-04-01T12:30:56Z</time>
      </trkpt>
      <trkpt lat="46.23971" lon="4.41028">
        <ele>459</ele>
        <time>2022-04-01T12:31:05Z</time>
      </trkpt>
      <trkpt lat="46.23994" lon="4.40991">
        <ele>459</ele>
        <time>2022-04-01T12:31:11Z</time>
      </trkpt>
      <trkpt lat="46.24016" lon="4.40938">
        <ele>456</ele>
        <time>2022-04-01T12:31:19Z</time>
      </trkpt>
      <trkpt lat="46.24027" lon="4.40918">
        <ele>455</ele>
        <time>2022-04-01T12:31:22Z</time>
      </trkpt>
      <trkpt lat="46.2404" lon="4.409">
        <ele>454</ele>
        <time>2022-04-01T12:31:25Z</time>
      </trkpt>
      <trkpt lat="46.24054" lon="4.40888">
        <ele>454</ele>
        <time>2022-04-01T12:31:28Z</time>
      </trkpt>
      <trkpt lat="46.24073" lon="4.40878">
        <ele>454</ele>
        <time>2022-04-01T12:31:31Z</time>
      </trkpt>
      <trkpt lat="46.24102" lon="4.4087">
        <ele>454</ele>
        <time>2022-04-01T12:31:37Z</time>
      </trkpt>
      <trkpt lat="46.24135" lon="4.40863">
        <ele>452</ele>
        <time>2022-04-01T12:31:43Z</time>
      </trkpt>
      <trkpt lat="46.24202" lon="4.40858">
        <ele>452</ele>
        <time>2022-04-01T12:31:54Z</time>
      </trkpt>
      <trkpt lat="46.24217" lon="4.40853">
        <ele>451</ele>
        <time>2022-04-01T12:31:57Z</time>
      </trkpt>
      <trkpt lat="46.24234" lon="4.40845">
        <ele>451</ele>
        <time>2022-04-01T12:32:00Z</time>
      </trkpt>
      <trkpt lat="46.24279" lon="4.40811">
        <ele>450</ele>
        <time>2022-04-01T12:32:09Z</time>
      </trkpt>
      <trkpt lat="46.24293" lon="4.40803">
        <ele>450</ele>
        <time>2022-04-01T12:32:12Z</time>
      </trkpt>
      <trkpt lat="46.24373" lon="4.40776">
        <ele>450</ele>
        <time>2022-04-01T12:32:27Z</time>
      </trkpt>
      <trkpt lat="46.24393" lon="4.40765">
        <ele>449</ele>
        <time>2022-04-01T12:32:31Z</time>
      </trkpt>
      <trkpt lat="46.2447" lon="4.40706">
        <ele>450</ele>
        <time>2022-04-01T12:32:46Z</time>
      </trkpt>
      <trkpt lat="46.24494" lon="4.4069">
        <ele>451</ele>
        <time>2022-04-01T12:32:51Z</time>
      </trkpt>
      <trkpt lat="46.24625" lon="4.40634">
        <ele>453</ele>
        <time>2022-04-01T12:33:15Z</time>
      </trkpt>
      <trkpt lat="46.24641" lon="4.40629">
        <ele>453</ele>
        <time>2022-04-01T12:33:18Z</time>
      </trkpt>
      <trkpt lat="46.24656" lon="4.40628">
        <ele>454</ele>
        <time>2022-04-01T12:33:21Z</time>
      </trkpt>
      <trkpt lat="46.24695" lon="4.40632">
        <ele>457</ele>
        <time>2022-04-01T12:33:28Z</time>
      </trkpt>
      <trkpt lat="46.24706" lon="4.40631">
        <ele>457</ele>
        <time>2022-04-01T12:33:30Z</time>
      </trkpt>
      <trkpt lat="46.24721" lon="4.40627">
        <ele>458</ele>
        <time>2022-04-01T12:33:32Z</time>
      </trkpt>
      <trkpt lat="46.2473" lon="4.40622">
        <ele>458</ele>
        <time>2022-04-01T12:33:34Z</time>
      </trkpt>
      <trkpt lat="46.24741" lon="4.40613">
        <ele>457</ele>
        <time>2022-04-01T12:33:36Z</time>
      </trkpt>
      <trkpt lat="46.24751" lon="4.40602">
        <ele>457</ele>
        <time>2022-04-01T12:33:38Z</time>
      </trkpt>
      <trkpt lat="46.24787" lon="4.40538">
        <ele>461</ele>
        <time>2022-04-01T12:33:49Z</time>
      </trkpt>
      <trkpt lat="46.24842" lon="4.40455">
        <ele>464</ele>
        <time>2022-04-01T12:34:03Z</time>
      </trkpt>
      <trkpt lat="46.2486" lon="4.40437">
        <ele>465</ele>
        <time>2022-04-01T12:34:07Z</time>
      </trkpt>
      <trkpt lat="46.24878" lon="4.40424">
        <ele>466</ele>
        <time>2022-04-01T12:34:10Z</time>
      </trkpt>
      <trkpt lat="46.24953" lon="4.40385">
        <ele>468</ele>
        <time>2022-04-01T12:34:24Z</time>
      </trkpt>
      <trkpt lat="46.24977" lon="4.40377">
        <ele>468</ele>
        <time>2022-04-01T12:34:29Z</time>
      </trkpt>
      <trkpt lat="46.25002" lon="4.40379">
        <ele>469</ele>
        <time>2022-04-01T12:34:33Z</time>
      </trkpt>
      <trkpt lat="46.25019" lon="4.40387">
        <ele>469</ele>
        <time>2022-04-01T12:34:36Z</time>
      </trkpt>
      <trkpt lat="46.25039" lon="4.40406">
        <ele>471</ele>
        <time>2022-04-01T12:34:41Z</time>
      </trkpt>
      <trkpt lat="46.25078" lon="4.40455">
        <ele>473</ele>
        <time>2022-04-01T12:34:50Z</time>
      </trkpt>
      <trkpt lat="46.25146" lon="4.40552">
        <ele>474</ele>
        <time>2022-04-01T12:35:07Z</time>
      </trkpt>
      <trkpt lat="46.25166" lon="4.40573">
        <ele>472</ele>
        <time>2022-04-01T12:35:11Z</time>
      </trkpt>
      <trkpt lat="46.25193" lon="4.40589">
        <ele>471</ele>
        <time>2022-04-01T12:35:16Z</time>
      </trkpt>
      <trkpt lat="46.25209" lon="4.40592">
        <ele>470</ele>
        <time>2022-04-01T12:35:19Z</time>
      </trkpt>
      <trkpt lat="46.25227" lon="4.40593">
        <ele>469</ele>
        <time>2022-04-01T12:35:23Z</time>
      </trkpt>
      <trkpt lat="46.25243" lon="4.40591">
        <ele>468</ele>
        <time>2022-04-01T12:35:25Z</time>
      </trkpt>
      <trkpt lat="46.25273" lon="4.40578">
        <ele>467</ele>
        <time>2022-04-01T12:35:31Z</time>
      </trkpt>
      <trkpt lat="46.25288" lon="4.40566">
        <ele>466</ele>
        <time>2022-04-01T12:35:34Z</time>
      </trkpt>
      <trkpt lat="46.25302" lon="4.40552">
        <ele>465</ele>
        <time>2022-04-01T12:35:37Z</time>
      </trkpt>
      <trkpt lat="46.2531" lon="4.40537">
        <ele>464</ele>
        <time>2022-04-01T12:35:39Z</time>
      </trkpt>
      <trkpt lat="46.2532" lon="4.40513">
        <ele>462</ele>
        <time>2022-04-01T12:35:43Z</time>
      </trkpt>
      <trkpt lat="46.2533" lon="4.4048">
        <ele>459</ele>
        <time>2022-04-01T12:35:47Z</time>
      </trkpt>
      <trkpt lat="46.25338" lon="4.40463">
        <ele>458</ele>
        <time>2022-04-01T12:35:50Z</time>
      </trkpt>
      <trkpt lat="46.25345" lon="4.40452">
        <ele>457</ele>
        <time>2022-04-01T12:35:52Z</time>
      </trkpt>
      <trkpt lat="46.25359" lon="4.40439">
        <ele>456</ele>
        <time>2022-04-01T12:35:55Z</time>
      </trkpt>
      <trkpt lat="46.25377" lon="4.40428">
        <ele>456</ele>
        <time>2022-04-01T12:35:58Z</time>
      </trkpt>
      <trkpt lat="46.25416" lon="4.40416">
        <ele>455</ele>
        <time>2022-04-01T12:36:05Z</time>
      </trkpt>
      <trkpt lat="46.2544" lon="4.40415">
        <ele>453</ele>
        <time>2022-04-01T12:36:09Z</time>
      </trkpt>
      <trkpt lat="46.25459" lon="4.40418">
        <ele>453</ele>
        <time>2022-04-01T12:36:13Z</time>
      </trkpt>
      <trkpt lat="46.25484" lon="4.40426">
        <ele>452</ele>
        <time>2022-04-01T12:36:17Z</time>
      </trkpt>
      <trkpt lat="46.25518" lon="4.40441">
        <ele>452</ele>
        <time>2022-04-01T12:36:24Z</time>
      </trkpt>
      <trkpt lat="46.25534" lon="4.40445">
        <ele>452</ele>
        <time>2022-04-01T12:36:27Z</time>
      </trkpt>
      <trkpt lat="46.25546" lon="4.40444">
        <ele>452</ele>
        <time>2022-04-01T12:36:29Z</time>
      </trkpt>
      <trkpt lat="46.25563" lon="4.40437">
        <ele>451</ele>
        <time>2022-04-01T12:36:32Z</time>
      </trkpt>
      <trkpt lat="46.2559" lon="4.40412">
        <ele>449</ele>
        <time>2022-04-01T12:36:38Z</time>
      </trkpt>
      <trkpt lat="46.2563" lon="4.40369">
        <ele>448</ele>
        <time>2022-04-01T12:36:46Z</time>
      </trkpt>
      <trkpt lat="46.25651" lon="4.40352">
        <ele>449</ele>
        <time>2022-04-01T12:36:51Z</time>
      </trkpt>
      <trkpt lat="46.25672" lon="4.40341">
        <ele>449</ele>
        <time>2022-04-01T12:36:55Z</time>
      </trkpt>
      <trkpt lat="46.25693" lon="4.40334">
        <ele>447</ele>
        <time>2022-04-01T12:36:59Z</time>
      </trkpt>
      <trkpt lat="46.2587" lon="4.40294">
        <ele>435</ele>
        <time>2022-04-01T12:37:30Z</time>
      </trkpt>
      <trkpt lat="46.25888" lon="4.40287">
        <ele>434</ele>
        <time>2022-04-01T12:37:34Z</time>
      </trkpt>
      <trkpt lat="46.25908" lon="4.40274">
        <ele>432</ele>
        <time>2022-04-01T12:37:38Z</time>
      </trkpt>
      <trkpt lat="46.25926" lon="4.40253">
        <ele>431</ele>
        <time>2022-04-01T12:37:42Z</time>
      </trkpt>
      <trkpt lat="46.26052" lon="4.40084">
        <ele>428</ele>
        <time>2022-04-01T12:38:12Z</time>
      </trkpt>
      <trkpt lat="46.26066" lon="4.4007">
        <ele>428</ele>
        <time>2022-04-01T12:38:15Z</time>
      </trkpt>
      <trkpt lat="46.26078" lon="4.40062">
        <ele>428</ele>
        <time>2022-04-01T12:38:18Z</time>
      </trkpt>
      <trkpt lat="46.26093" lon="4.40056">
        <ele>427</ele>
        <time>2022-04-01T12:38:20Z</time>
      </trkpt>
      <trkpt lat="46.26108" lon="4.40055">
        <ele>426</ele>
        <time>2022-04-01T12:38:23Z</time>
      </trkpt>
      <trkpt lat="46.2613" lon="4.40057">
        <ele>426</ele>
        <time>2022-04-01T12:38:27Z</time>
      </trkpt>
      <trkpt lat="46.26206" lon="4.40079">
        <ele>427</ele>
        <time>2022-04-01T12:38:41Z</time>
      </trkpt>
      <trkpt lat="46.2624" lon="4.40081">
        <ele>426</ele>
        <time>2022-04-01T12:38:47Z</time>
      </trkpt>
      <trkpt lat="46.26257" lon="4.40079">
        <ele>426</ele>
        <time>2022-04-01T12:38:50Z</time>
      </trkpt>
      <trkpt lat="46.26279" lon="4.40073">
        <ele>426</ele>
        <time>2022-04-01T12:38:54Z</time>
      </trkpt>
      <trkpt lat="46.26298" lon="4.40064">
        <ele>426</ele>
        <time>2022-04-01T12:38:57Z</time>
      </trkpt>
      <trkpt lat="46.26324" lon="4.40048">
        <ele>424</ele>
        <time>2022-04-01T12:39:03Z</time>
      </trkpt>
      <trkpt lat="46.26343" lon="4.40023">
        <ele>423</ele>
        <time>2022-04-01T12:39:07Z</time>
      </trkpt>
      <trkpt lat="46.26374" lon="4.39966">
        <ele>425</ele>
        <time>2022-04-01T12:39:16Z</time>
      </trkpt>
      <trkpt lat="46.26404" lon="4.39926">
        <ele>428</ele>
        <time>2022-04-01T12:39:23Z</time>
      </trkpt>
      <trkpt lat="46.2642" lon="4.39911">
        <ele>429</ele>
        <time>2022-04-01T12:39:27Z</time>
      </trkpt>
      <trkpt lat="46.26483" lon="4.39873">
        <ele>433</ele>
        <time>2022-04-01T12:39:39Z</time>
      </trkpt>
      <trkpt lat="46.26502" lon="4.39856">
        <ele>431</ele>
        <time>2022-04-01T12:39:43Z</time>
      </trkpt>
      <trkpt lat="46.26517" lon="4.39838">
        <ele>429</ele>
        <time>2022-04-01T12:39:46Z</time>
      </trkpt>
      <trkpt lat="46.26553" lon="4.39783">
        <ele>429</ele>
        <time>2022-04-01T12:39:56Z</time>
      </trkpt>
      <trkpt lat="46.26577" lon="4.39755">
        <ele>422</ele>
        <time>2022-04-01T12:40:01Z</time>
      </trkpt>
      <trkpt lat="46.26643" lon="4.39691">
        <ele>422</ele>
        <time>2022-04-01T12:40:15Z</time>
      </trkpt>
      <trkpt lat="46.26662" lon="4.39676">
        <ele>421</ele>
        <time>2022-04-01T12:40:19Z</time>
      </trkpt>
      <trkpt lat="46.26681" lon="4.39665">
        <ele>420</ele>
        <time>2022-04-01T12:40:23Z</time>
      </trkpt>
      <trkpt lat="46.269" lon="4.39603">
        <ele>413</ele>
        <time>2022-04-01T12:41:02Z</time>
      </trkpt>
      <trkpt lat="46.2692" lon="4.39596">
        <ele>411</ele>
        <time>2022-04-01T12:41:06Z</time>
      </trkpt>
      <trkpt lat="46.26942" lon="4.39579">
        <ele>408</ele>
        <time>2022-04-01T12:41:10Z</time>
      </trkpt>
      <trkpt lat="46.26972" lon="4.39548">
        <ele>409</ele>
        <time>2022-04-01T12:41:17Z</time>
      </trkpt>
      <trkpt lat="46.26994" lon="4.39518">
        <ele>409</ele>
        <time>2022-04-01T12:41:22Z</time>
      </trkpt>
      <trkpt lat="46.27021" lon="4.39471">
        <ele>413</ele>
        <time>2022-04-01T12:41:30Z</time>
      </trkpt>
      <trkpt lat="46.27026" lon="4.39464">
        <ele>414</ele>
        <time>2022-04-01T12:41:31Z</time>
      </trkpt>
      <trkpt lat="46.27031" lon="4.39455">
        <ele>415</ele>
        <time>2022-04-01T12:41:33Z</time>
      </trkpt>
      <trkpt lat="46.27063" lon="4.39387">
        <ele>418</ele>
        <time>2022-04-01T12:41:43Z</time>
      </trkpt>
      <trkpt lat="46.27094" lon="4.39311">
        <ele>415</ele>
        <time>2022-04-01T12:41:54Z</time>
      </trkpt>
      <trkpt lat="46.27145" lon="4.3921">
        <ele>415</ele>
        <time>2022-04-01T12:42:09Z</time>
      </trkpt>
      <trkpt lat="46.27158" lon="4.39176">
        <ele>414</ele>
        <time>2022-04-01T12:42:14Z</time>
      </trkpt>
      <trkpt lat="46.27193" lon="4.39043">
        <ele>412</ele>
        <time>2022-04-01T12:42:31Z</time>
      </trkpt>
      <trkpt lat="46.27266" lon="4.38779">
        <ele>403</ele>
        <time>2022-04-01T12:43:06Z</time>
      </trkpt>
      <trkpt lat="46.27313" lon="4.38594">
        <ele>403</ele>
        <time>2022-04-01T12:43:30Z</time>
      </trkpt>
      <trkpt lat="46.27319" lon="4.38555">
        <ele>403</ele>
        <time>2022-04-01T12:43:35Z</time>
      </trkpt>
      <trkpt lat="46.27322" lon="4.38515">
        <ele>403</ele>
        <time>2022-04-01T12:43:40Z</time>
      </trkpt>
      <trkpt lat="46.27347" lon="4.38023">
        <ele>399</ele>
        <time>2022-04-01T12:44:41Z</time>
      </trkpt>
      <trkpt lat="46.27346" lon="4.37968">
        <ele>401</ele>
        <time>2022-04-01T12:44:48Z</time>
      </trkpt>
      <trkpt lat="46.27339" lon="4.37914">
        <ele>401</ele>
        <time>2022-04-01T12:44:55Z</time>
      </trkpt>
      <trkpt lat="46.27324" lon="4.37836">
        <ele>400</ele>
        <time>2022-04-01T12:45:04Z</time>
      </trkpt>
      <trkpt lat="46.2732" lon="4.37813">
        <ele>400</ele>
        <time>2022-04-01T12:45:07Z</time>
      </trkpt>
      <trkpt lat="46.2732" lon="4.37787">
        <ele>400</ele>
        <time>2022-04-01T12:45:11Z</time>
      </trkpt>
      <trkpt lat="46.27323" lon="4.37765">
        <ele>400</ele>
        <time>2022-04-01T12:45:13Z</time>
      </trkpt>
      <trkpt lat="46.2735" lon="4.37635">
        <ele>403</ele>
        <time>2022-04-01T12:45:30Z</time>
      </trkpt>
      <trkpt lat="46.27352" lon="4.37606">
        <ele>402</ele>
        <time>2022-04-01T12:45:34Z</time>
      </trkpt>
      <trkpt lat="46.2735" lon="4.37559">
        <ele>401</ele>
        <time>2022-04-01T12:45:39Z</time>
      </trkpt>
      <trkpt lat="46.27336" lon="4.37477">
        <ele>399</ele>
        <time>2022-04-01T12:45:50Z</time>
      </trkpt>
      <trkpt lat="46.27335" lon="4.37457">
        <ele>398</ele>
        <time>2022-04-01T12:45:52Z</time>
      </trkpt>
      <trkpt lat="46.27337" lon="4.3743">
        <ele>398</ele>
        <time>2022-04-01T12:45:56Z</time>
      </trkpt>
      <trkpt lat="46.2734" lon="4.37414">
        <ele>397</ele>
        <time>2022-04-01T12:45:58Z</time>
      </trkpt>
      <trkpt lat="46.27346" lon="4.37396">
        <ele>396</ele>
        <time>2022-04-01T12:46:00Z</time>
      </trkpt>
      <trkpt lat="46.27352" lon="4.37381">
        <ele>396</ele>
        <time>2022-04-01T12:46:02Z</time>
      </trkpt>
      <trkpt lat="46.27369" lon="4.37356">
        <ele>395</ele>
        <time>2022-04-01T12:46:07Z</time>
      </trkpt>
      <trkpt lat="46.27379" lon="4.37346">
        <ele>394</ele>
        <time>2022-04-01T12:46:09Z</time>
      </trkpt>
      <trkpt lat="46.27404" lon="4.37332">
        <ele>394</ele>
        <time>2022-04-01T12:46:13Z</time>
      </trkpt>
      <trkpt lat="46.27493" lon="4.37304">
        <ele>394</ele>
        <time>2022-04-01T12:46:30Z</time>
      </trkpt>
      <trkpt lat="46.27528" lon="4.37299">
        <ele>394</ele>
        <time>2022-04-01T12:46:36Z</time>
      </trkpt>
      <trkpt lat="46.27544" lon="4.37301">
        <ele>394</ele>
        <time>2022-04-01T12:46:39Z</time>
      </trkpt>
      <trkpt lat="46.27561" lon="4.37307">
        <ele>394</ele>
        <time>2022-04-01T12:46:42Z</time>
      </trkpt>
      <trkpt lat="46.27585" lon="4.37321">
        <ele>395</ele>
        <time>2022-04-01T12:46:47Z</time>
      </trkpt>
      <trkpt lat="46.2761" lon="4.37339">
        <ele>394</ele>
        <time>2022-04-01T12:46:51Z</time>
      </trkpt>
      <trkpt lat="46.27691" lon="4.37406">
        <ele>393</ele>
        <time>2022-04-01T12:47:08Z</time>
      </trkpt>
      <trkpt lat="46.27709" lon="4.37417">
        <ele>393</ele>
        <time>2022-04-01T12:47:12Z</time>
      </trkpt>
      <trkpt lat="46.2773" lon="4.37426">
        <ele>394</ele>
        <time>2022-04-01T12:47:15Z</time>
      </trkpt>
      <trkpt lat="46.27745" lon="4.37426">
        <ele>394</ele>
        <time>2022-04-01T12:47:18Z</time>
      </trkpt>
      <trkpt lat="46.27765" lon="4.3742">
        <ele>393</ele>
        <time>2022-04-01T12:47:22Z</time>
      </trkpt>
      <trkpt lat="46.27779" lon="4.37411">
        <ele>392</ele>
        <time>2022-04-01T12:47:24Z</time>
      </trkpt>
      <trkpt lat="46.27801" lon="4.37389">
        <ele>392</ele>
        <time>2022-04-01T12:47:29Z</time>
      </trkpt>
      <trkpt lat="46.27883" lon="4.37267">
        <ele>387</ele>
        <time>2022-04-01T12:47:50Z</time>
      </trkpt>
      <trkpt lat="46.27925" lon="4.37223">
        <ele>385</ele>
        <time>2022-04-01T12:47:59Z</time>
      </trkpt>
      <trkpt lat="46.27943" lon="4.37198">
        <ele>385</ele>
        <time>2022-04-01T12:48:04Z</time>
      </trkpt>
      <trkpt lat="46.27984" lon="4.37133">
        <ele>384</ele>
        <time>2022-04-01T12:48:15Z</time>
      </trkpt>
      <trkpt lat="46.28024" lon="4.37063">
        <ele>385</ele>
        <time>2022-04-01T12:48:26Z</time>
      </trkpt>
      <trkpt lat="46.28049" lon="4.37004">
        <ele>387</ele>
        <time>2022-04-01T12:48:34Z</time>
      </trkpt>
      <trkpt lat="46.28063" lon="4.36952">
        <ele>390</ele>
        <time>2022-04-01T12:48:41Z</time>
      </trkpt>
      <trkpt lat="46.28066" lon="4.36935">
        <ele>390</ele>
        <time>2022-04-01T12:48:43Z</time>
      </trkpt>
      <trkpt lat="46.28065" lon="4.3689">
        <ele>391</ele>
        <time>2022-04-01T12:48:49Z</time>
      </trkpt>
      <trkpt lat="46.28046" lon="4.36681">
        <ele>386</ele>
        <time>2022-04-01T12:49:15Z</time>
      </trkpt>
      <trkpt lat="46.28019" lon="4.36435">
        <ele>379</ele>
        <time>2022-04-01T12:49:45Z</time>
      </trkpt>
      <trkpt lat="46.28018" lon="4.36407">
        <ele>379</ele>
        <time>2022-04-01T12:49:49Z</time>
      </trkpt>
      <trkpt lat="46.2802" lon="4.36355">
        <ele>377</ele>
        <time>2022-04-01T12:49:55Z</time>
      </trkpt>
      <trkpt lat="46.28026" lon="4.36323">
        <ele>377</ele>
        <time>2022-04-01T12:49:59Z</time>
      </trkpt>
      <trkpt lat="46.28035" lon="4.36294">
        <ele>377</ele>
        <time>2022-04-01T12:50:03Z</time>
      </trkpt>
      <trkpt lat="46.28106" lon="4.36119">
        <ele>376</ele>
        <time>2022-04-01T12:50:28Z</time>
      </trkpt>
      <trkpt lat="46.28323" lon="4.35535">
        <ele>375</ele>
        <time>2022-04-01T12:51:50Z</time>
      </trkpt>
      <trkpt lat="46.28333" lon="4.35498">
        <ele>375</ele>
        <time>2022-04-01T12:51:55Z</time>
      </trkpt>
      <trkpt lat="46.28342" lon="4.35452">
        <ele>377</ele>
        <time>2022-04-01T12:52:01Z</time>
      </trkpt>
      <trkpt lat="46.28357" lon="4.3531">
        <ele>382</ele>
        <time>2022-04-01T12:52:18Z</time>
      </trkpt>
      <trkpt lat="46.28376" lon="4.35084">
        <ele>378</ele>
        <time>2022-04-01T12:52:46Z</time>
      </trkpt>
      <trkpt lat="46.2838" lon="4.35063">
        <ele>377</ele>
        <time>2022-04-01T12:52:49Z</time>
      </trkpt>
      <trkpt lat="46.28393" lon="4.35026">
        <ele>375</ele>
        <time>2022-04-01T12:52:54Z</time>
      </trkpt>
      <trkpt lat="46.28403" lon="4.3501">
        <ele>374</ele>
        <time>2022-04-01T12:52:57Z</time>
      </trkpt>
      <trkpt lat="46.28448" lon="4.34953">
        <ele>371</ele>
        <time>2022-04-01T12:53:07Z</time>
      </trkpt>
      <trkpt lat="46.2846" lon="4.34935">
        <ele>371</ele>
        <time>2022-04-01T12:53:10Z</time>
      </trkpt>
      <trkpt lat="46.28483" lon="4.34891">
        <ele>370</ele>
        <time>2022-04-01T12:53:17Z</time>
      </trkpt>
      <trkpt lat="46.28567" lon="4.34713">
        <ele>368</ele>
        <time>2022-04-01T12:53:44Z</time>
      </trkpt>
      <trkpt lat="46.28578" lon="4.34685">
        <ele>369</ele>
        <time>2022-04-01T12:53:48Z</time>
      </trkpt>
      <trkpt lat="46.28585" lon="4.34659">
        <ele>369</ele>
        <time>2022-04-01T12:53:51Z</time>
      </trkpt>
      <trkpt lat="46.2859" lon="4.3463">
        <ele>370</ele>
        <time>2022-04-01T12:53:55Z</time>
      </trkpt>
      <trkpt lat="46.28593" lon="4.34598">
        <ele>371</ele>
        <time>2022-04-01T12:53:59Z</time>
      </trkpt>
      <trkpt lat="46.28594" lon="4.3456">
        <ele>371</ele>
        <time>2022-04-01T12:54:03Z</time>
      </trkpt>
      <trkpt lat="46.28591" lon="4.34529">
        <ele>371</ele>
        <time>2022-04-01T12:54:07Z</time>
      </trkpt>
      <trkpt lat="46.28586" lon="4.34498">
        <ele>371</ele>
        <time>2022-04-01T12:54:11Z</time>
      </trkpt>
      <trkpt lat="46.28575" lon="4.34463">
        <ele>372</ele>
        <time>2022-04-01T12:54:16Z</time>
      </trkpt>
      <trkpt lat="46.28561" lon="4.34426">
        <ele>372</ele>
        <time>2022-04-01T12:54:21Z</time>
      </trkpt>
      <trkpt lat="46.28547" lon="4.34397">
        <ele>372</ele>
        <time>2022-04-01T12:54:25Z</time>
      </trkpt>
      <trkpt lat="46.28535" lon="4.34376">
        <ele>372</ele>
        <time>2022-04-01T12:54:29Z</time>
      </trkpt>
      <trkpt lat="46.28493" lon="4.34319">
        <ele>370</ele>
        <time>2022-04-01T12:54:39Z</time>
      </trkpt>
      <trkpt lat="46.2848" lon="4.34295">
        <ele>371</ele>
        <time>2022-04-01T12:54:43Z</time>
      </trkpt>
      <trkpt lat="46.28472" lon="4.34272">
        <ele>371</ele>
        <time>2022-04-01T12:54:46Z</time>
      </trkpt>
      <trkpt lat="46.28467" lon="4.34251">
        <ele>371</ele>
        <time>2022-04-01T12:54:49Z</time>
      </trkpt>
      <trkpt lat="46.28466" lon="4.34234">
        <ele>371</ele>
        <time>2022-04-01T12:54:51Z</time>
      </trkpt>
      <trkpt lat="46.28468" lon="4.34208">
        <ele>372</ele>
        <time>2022-04-01T12:54:54Z</time>
      </trkpt>
      <trkpt lat="46.28472" lon="4.34188">
        <ele>372</ele>
        <time>2022-04-01T12:54:57Z</time>
      </trkpt>
      <trkpt lat="46.28478" lon="4.34169">
        <ele>372</ele>
        <time>2022-04-01T12:54:59Z</time>
      </trkpt>
      <trkpt lat="46.28527" lon="4.34056">
        <ele>371</ele>
        <time>2022-04-01T12:55:15Z</time>
      </trkpt>
      <trkpt lat="46.28542" lon="4.33999">
        <ele>371</ele>
        <time>2022-04-01T12:55:23Z</time>
      </trkpt>
      <trkpt lat="46.28553" lon="4.33933">
        <ele>370</ele>
        <time>2022-04-01T12:55:31Z</time>
      </trkpt>
      <trkpt lat="46.28559" lon="4.33911">
        <ele>369</ele>
        <time>2022-04-01T12:55:34Z</time>
      </trkpt>
      <trkpt lat="46.28567" lon="4.33889">
        <ele>368</ele>
        <time>2022-04-01T12:55:37Z</time>
      </trkpt>
      <trkpt lat="46.2859" lon="4.3385">
        <ele>367</ele>
        <time>2022-04-01T12:55:44Z</time>
      </trkpt>
      <trkpt lat="46.28614" lon="4.33814">
        <ele>368</ele>
        <time>2022-04-01T12:55:50Z</time>
      </trkpt>
      <trkpt lat="46.2864" lon="4.33784">
        <ele>368</ele>
        <time>2022-04-01T12:55:56Z</time>
      </trkpt>
      <trkpt lat="46.2871" lon="4.33715">
        <ele>365</ele>
        <time>2022-04-01T12:56:11Z</time>
      </trkpt>
      <trkpt lat="46.28733" lon="4.33688">
        <ele>365</ele>
        <time>2022-04-01T12:56:16Z</time>
      </trkpt>
      <trkpt lat="46.28749" lon="4.33666">
        <ele>364</ele>
        <time>2022-04-01T12:56:20Z</time>
      </trkpt>
      <trkpt lat="46.28764" lon="4.3364">
        <ele>363</ele>
        <time>2022-04-01T12:56:24Z</time>
      </trkpt>
      <trkpt lat="46.2878" lon="4.33603">
        <ele>362</ele>
        <time>2022-04-01T12:56:29Z</time>
      </trkpt>
      <trkpt lat="46.28793" lon="4.33569">
        <ele>361</ele>
        <time>2022-04-01T12:56:34Z</time>
      </trkpt>
      <trkpt lat="46.28803" lon="4.33535">
        <ele>361</ele>
        <time>2022-04-01T12:56:39Z</time>
      </trkpt>
      <trkpt lat="46.2885" lon="4.33317">
        <ele>365</ele>
        <time>2022-04-01T12:57:07Z</time>
      </trkpt>
      <trkpt lat="46.28864" lon="4.3326">
        <ele>366</ele>
        <time>2022-04-01T12:57:14Z</time>
      </trkpt>
      <trkpt lat="46.28874" lon="4.33229">
        <ele>367</ele>
        <time>2022-04-01T12:57:19Z</time>
      </trkpt>
      <trkpt lat="46.28887" lon="4.33194">
        <ele>368</ele>
        <time>2022-04-01T12:57:23Z</time>
      </trkpt>
      <trkpt lat="46.28896" lon="4.33173">
        <ele>368</ele>
        <time>2022-04-01T12:57:26Z</time>
      </trkpt>
      <trkpt lat="46.28907" lon="4.33152">
        <ele>369</ele>
        <time>2022-04-01T12:57:30Z</time>
      </trkpt>
      <trkpt lat="46.28921" lon="4.33115">
        <ele>369</ele>
        <time>2022-04-01T12:57:35Z</time>
      </trkpt>
      <trkpt lat="46.28935" lon="4.33067">
        <ele>370</ele>
        <time>2022-04-01T12:57:41Z</time>
      </trkpt>
      <trkpt lat="46.28948" lon="4.33005">
        <ele>371</ele>
        <time>2022-04-01T12:57:49Z</time>
      </trkpt>
      <trkpt lat="46.28945" lon="4.32948">
        <ele>373</ele>
        <time>2022-04-01T12:57:56Z</time>
      </trkpt>
      <trkpt lat="46.28943" lon="4.32934">
        <ele>373</ele>
        <time>2022-04-01T12:57:58Z</time>
      </trkpt>
      <trkpt lat="46.28941" lon="4.32795">
        <ele>375</ele>
        <time>2022-04-01T12:58:15Z</time>
      </trkpt>
      <trkpt lat="46.28947" lon="4.32706">
        <ele>376</ele>
        <time>2022-04-01T12:58:26Z</time>
      </trkpt>
      <trkpt lat="46.28953" lon="4.32662">
        <ele>377</ele>
        <time>2022-04-01T12:58:32Z</time>
      </trkpt>
      <trkpt lat="46.28962" lon="4.32485">
        <ele>380</ele>
        <time>2022-04-01T12:58:53Z</time>
      </trkpt>
      <trkpt lat="46.28989" lon="4.32136">
        <ele>381</ele>
        <time>2022-04-01T12:59:37Z</time>
      </trkpt>
      <trkpt lat="46.29001" lon="4.32011">
        <ele>385</ele>
        <time>2022-04-01T12:59:52Z</time>
      </trkpt>
      <trkpt lat="46.28965" lon="4.32003">
        <ele>384</ele>
        <time>2022-04-01T12:59:59Z</time>
      </trkpt>
      <trkpt lat="46.29001" lon="4.32011">
        <ele>385</ele>
        <time>2022-04-01T13:00:05Z</time>
      </trkpt>
      <trkpt lat="46.29016" lon="4.3192">
        <ele>387</ele>
        <time>2022-04-01T13:00:17Z</time>
      </trkpt>
      <trkpt lat="46.2902" lon="4.31913">
        <ele>387</ele>
        <time>2022-04-01T13:00:18Z</time>
      </trkpt>
      <trkpt lat="46.29027" lon="4.31916">
        <ele>387</ele>
        <time>2022-04-01T13:00:19Z</time>
      </trkpt>
      <trkpt lat="46.2903" lon="4.31915">
        <ele>387</ele>
        <time>2022-04-01T13:00:20Z</time>
      </trkpt>
      <trkpt lat="46.29034" lon="4.3191">
        <ele>387</ele>
        <time>2022-04-01T13:00:20Z</time>
      </trkpt>
      <trkpt lat="46.29035" lon="4.31902">
        <ele>387</ele>
        <time>2022-04-01T13:00:21Z</time>
      </trkpt>
      <trkpt lat="46.29031" lon="4.31893">
        <ele>387</ele>
        <time>2022-04-01T13:00:23Z</time>
      </trkpt>
      <trkpt lat="46.29024" lon="4.31891">
        <ele>387</ele>
        <time>2022-04-01T13:00:24Z</time>
      </trkpt>
      <trkpt lat="46.29019" lon="4.31849">
        <ele>388</ele>
        <time>2022-04-01T13:00:29Z</time>
      </trkpt>
      <trkpt lat="46.29027" lon="4.31808">
        <ele>387</ele>
        <time>2022-04-01T13:00:35Z</time>
      </trkpt>
      <trkpt lat="46.29054" lon="4.31713">
        <ele>384</ele>
        <time>2022-04-01T13:00:47Z</time>
      </trkpt>
      <trkpt lat="46.29089" lon="4.31579">
        <ele>379</ele>
        <time>2022-04-01T13:01:05Z</time>
      </trkpt>
      <trkpt lat="46.29092" lon="4.31558">
        <ele>379</ele>
        <time>2022-04-01T13:01:07Z</time>
      </trkpt>
      <trkpt lat="46.2909" lon="4.31493">
        <ele>379</ele>
        <time>2022-04-01T13:01:15Z</time>
      </trkpt>
      <trkpt lat="46.29117" lon="4.31193">
        <ele>380</ele>
        <time>2022-04-01T13:01:53Z</time>
      </trkpt>
      <trkpt lat="46.29125" lon="4.31153">
        <ele>380</ele>
        <time>2022-04-01T13:01:58Z</time>
      </trkpt>
      <trkpt lat="46.29146" lon="4.31059">
        <ele>380</ele>
        <time>2022-04-01T13:02:10Z</time>
      </trkpt>
      <trkpt lat="46.29158" lon="4.31024">
        <ele>381</ele>
        <time>2022-04-01T13:02:15Z</time>
      </trkpt>
      <trkpt lat="46.29188" lon="4.30954">
        <ele>381</ele>
        <time>2022-04-01T13:02:25Z</time>
      </trkpt>
      <trkpt lat="46.29247" lon="4.30827">
        <ele>378</ele>
        <time>2022-04-01T13:02:44Z</time>
      </trkpt>
      <trkpt lat="46.29273" lon="4.30769">
        <ele>380</ele>
        <time>2022-04-01T13:02:52Z</time>
      </trkpt>
      <trkpt lat="46.29283" lon="4.30728">
        <ele>380</ele>
        <time>2022-04-01T13:02:57Z</time>
      </trkpt>
      <trkpt lat="46.29284" lon="4.30714">
        <ele>380</ele>
        <time>2022-04-01T13:02:59Z</time>
      </trkpt>
      <trkpt lat="46.29279" lon="4.30681">
        <ele>380</ele>
        <time>2022-04-01T13:03:03Z</time>
      </trkpt>
      <trkpt lat="46.29254" lon="4.30597">
        <ele>376</ele>
        <time>2022-04-01T13:03:15Z</time>
      </trkpt>
      <trkpt lat="46.29253" lon="4.30574">
        <ele>375</ele>
        <time>2022-04-01T13:03:17Z</time>
      </trkpt>
      <trkpt lat="46.29237" lon="4.30558">
        <ele>375</ele>
        <time>2022-04-01T13:03:21Z</time>
      </trkpt>
      <trkpt lat="46.29215" lon="4.30511">
        <ele>375</ele>
        <time>2022-04-01T13:03:28Z</time>
      </trkpt>
      <trkpt lat="46.29199" lon="4.30422">
        <ele>377</ele>
        <time>2022-04-01T13:03:39Z</time>
      </trkpt>
      <trkpt lat="46.29169" lon="4.30434">
        <ele>378</ele>
        <time>2022-04-01T13:03:45Z</time>
      </trkpt>
      <trkpt lat="46.29152" lon="4.30443">
        <ele>379</ele>
        <time>2022-04-01T13:03:48Z</time>
      </trkpt>
      <trkpt lat="46.29132" lon="4.30458">
        <ele>380</ele>
        <time>2022-04-01T13:03:52Z</time>
      </trkpt>
      <trkpt lat="46.291" lon="4.30493">
        <ele>383</ele>
        <time>2022-04-01T13:03:59Z</time>
      </trkpt>
      <trkpt lat="46.29061" lon="4.30384">
        <ele>383</ele>
        <time>2022-04-01T13:04:14Z</time>
      </trkpt>
      <trkpt lat="46.29002" lon="4.30286">
        <ele>381</ele>
        <time>2022-04-01T13:04:30Z</time>
      </trkpt>
      <trkpt lat="46.28825" lon="4.3007">
        <ele>369</ele>
        <time>2022-04-01T13:05:11Z</time>
      </trkpt>
      <trkpt lat="46.28764" lon="4.29992">
        <ele>368</ele>
        <time>2022-04-01T13:05:26Z</time>
      </trkpt>
      <trkpt lat="46.2876" lon="4.29981">
        <ele>368</ele>
        <time>2022-04-01T13:05:27Z</time>
      </trkpt>
      <trkpt lat="46.28752" lon="4.29976">
        <ele>368</ele>
        <time>2022-04-01T13:05:29Z</time>
      </trkpt>
      <trkpt lat="46.28727" lon="4.29948">
        <ele>368</ele>
        <time>2022-04-01T13:05:35Z</time>
      </trkpt>
      <trkpt lat="46.28674" lon="4.29879">
        <ele>368</ele>
        <time>2022-04-01T13:05:47Z</time>
      </trkpt>
      <trkpt lat="46.2867" lon="4.29873">
        <ele>367</ele>
        <time>2022-04-01T13:05:48Z</time>
      </trkpt>
      <trkpt lat="46.28672" lon="4.29853">
        <ele>367</ele>
        <time>2022-04-01T13:05:51Z</time>
      </trkpt>
      <trkpt lat="46.28673" lon="4.29847">
        <ele>367</ele>
        <time>2022-04-01T13:05:52Z</time>
      </trkpt>
      <trkpt lat="46.2868" lon="4.29812">
        <ele>369</ele>
        <time>2022-04-01T13:05:56Z</time>
      </trkpt>
      <trkpt lat="46.28687" lon="4.29798">
        <ele>370</ele>
        <time>2022-04-01T13:05:58Z</time>
      </trkpt>
      <trkpt lat="46.28693" lon="4.29792">
        <ele>370</ele>
        <time>2022-04-01T13:05:59Z</time>
      </trkpt>
      <trkpt lat="46.28831" lon="4.29752">
        <ele>369</ele>
        <time>2022-04-01T13:06:24Z</time>
      </trkpt>
      <trkpt lat="46.28843" lon="4.29746">
        <ele>369</ele>
        <time>2022-04-01T13:06:27Z</time>
      </trkpt>
      <trkpt lat="46.28852" lon="4.29738">
        <ele>369</ele>
        <time>2022-04-01T13:06:29Z</time>
      </trkpt>
      <trkpt lat="46.28861" lon="4.29727">
        <ele>369</ele>
        <time>2022-04-01T13:06:31Z</time>
      </trkpt>
      <trkpt lat="46.28867" lon="4.29714">
        <ele>369</ele>
        <time>2022-04-01T13:06:33Z</time>
      </trkpt>
      <trkpt lat="46.28873" lon="4.29688">
        <ele>370</ele>
        <time>2022-04-01T13:06:36Z</time>
      </trkpt>
      <trkpt lat="46.28874" lon="4.29672">
        <ele>371</ele>
        <time>2022-04-01T13:06:38Z</time>
      </trkpt>
      <trkpt lat="46.2887" lon="4.29644">
        <ele>372</ele>
        <time>2022-04-01T13:06:41Z</time>
      </trkpt>
      <trkpt lat="46.28835" lon="4.29537">
        <ele>374</ele>
        <time>2022-04-01T13:06:56Z</time>
      </trkpt>
      <trkpt lat="46.28825" lon="4.29504">
        <ele>375</ele>
        <time>2022-04-01T13:07:00Z</time>
      </trkpt>
      <trkpt lat="46.28822" lon="4.29478">
        <ele>376</ele>
        <time>2022-04-01T13:07:04Z</time>
      </trkpt>
      <trkpt lat="46.28822" lon="4.29466">
        <ele>376</ele>
        <time>2022-04-01T13:07:05Z</time>
      </trkpt>
      <trkpt lat="46.28824" lon="4.29448">
        <ele>376</ele>
        <time>2022-04-01T13:07:07Z</time>
      </trkpt>
      <trkpt lat="46.28841" lon="4.29351">
        <ele>379</ele>
        <time>2022-04-01T13:07:20Z</time>
      </trkpt>
      <trkpt lat="46.28845" lon="4.2932">
        <ele>380</ele>
        <time>2022-04-01T13:07:24Z</time>
      </trkpt>
      <trkpt lat="46.28851" lon="4.292">
        <ele>382</ele>
        <time>2022-04-01T13:07:38Z</time>
      </trkpt>
      <trkpt lat="46.28849" lon="4.29162">
        <ele>383</ele>
        <time>2022-04-01T13:07:43Z</time>
      </trkpt>
      <trkpt lat="46.28804" lon="4.28973">
        <ele>388</ele>
        <time>2022-04-01T13:08:08Z</time>
      </trkpt>
      <trkpt lat="46.28628" lon="4.28487">
        <ele>403</ele>
        <time>2022-04-01T13:09:15Z</time>
      </trkpt>
      <trkpt lat="46.28617" lon="4.28449">
        <ele>403</ele>
        <time>2022-04-01T13:09:20Z</time>
      </trkpt>
      <trkpt lat="46.28613" lon="4.2843">
        <ele>403</ele>
        <time>2022-04-01T13:09:23Z</time>
      </trkpt>
      <trkpt lat="46.28609" lon="4.28383">
        <ele>402</ele>
        <time>2022-04-01T13:09:28Z</time>
      </trkpt>
      <trkpt lat="46.28609" lon="4.28364">
        <ele>401</ele>
        <time>2022-04-01T13:09:31Z</time>
      </trkpt>
      <trkpt lat="46.28614" lon="4.2833">
        <ele>400</ele>
        <time>2022-04-01T13:09:35Z</time>
      </trkpt>
      <trkpt lat="46.28626" lon="4.28285">
        <ele>397</ele>
        <time>2022-04-01T13:09:41Z</time>
      </trkpt>
      <trkpt lat="46.28639" lon="4.28249">
        <ele>395</ele>
        <time>2022-04-01T13:09:46Z</time>
      </trkpt>
      <trkpt lat="46.2866" lon="4.28213">
        <ele>393</ele>
        <time>2022-04-01T13:09:52Z</time>
      </trkpt>
      <trkpt lat="46.28758" lon="4.28108">
        <ele>390</ele>
        <time>2022-04-01T13:10:13Z</time>
      </trkpt>
      <trkpt lat="46.28766" lon="4.28097">
        <ele>390</ele>
        <time>2022-04-01T13:10:15Z</time>
      </trkpt>
      <trkpt lat="46.28776" lon="4.28079">
        <ele>389</ele>
        <time>2022-04-01T13:10:18Z</time>
      </trkpt>
      <trkpt lat="46.2878" lon="4.28068">
        <ele>388</ele>
        <time>2022-04-01T13:10:20Z</time>
      </trkpt>
      <trkpt lat="46.28783" lon="4.28042">
        <ele>387</ele>
        <time>2022-04-01T13:10:23Z</time>
      </trkpt>
      <trkpt lat="46.28791" lon="4.27852">
        <ele>381</ele>
        <time>2022-04-01T13:10:46Z</time>
      </trkpt>
      <trkpt lat="46.28796" lon="4.27822">
        <ele>380</ele>
        <time>2022-04-01T13:10:50Z</time>
      </trkpt>
      <trkpt lat="46.28805" lon="4.27799">
        <ele>379</ele>
        <time>2022-04-01T13:10:54Z</time>
      </trkpt>
      <trkpt lat="46.28813" lon="4.27788">
        <ele>378</ele>
        <time>2022-04-01T13:10:55Z</time>
      </trkpt>
      <trkpt lat="46.28831" lon="4.27775">
        <ele>378</ele>
        <time>2022-04-01T13:10:59Z</time>
      </trkpt>
      <trkpt lat="46.28858" lon="4.27766">
        <ele>377</ele>
        <time>2022-04-01T13:11:04Z</time>
      </trkpt>
      <trkpt lat="46.28885" lon="4.27762">
        <ele>377</ele>
        <time>2022-04-01T13:11:09Z</time>
      </trkpt>
      <trkpt lat="46.28912" lon="4.27763">
        <ele>377</ele>
        <time>2022-04-01T13:11:14Z</time>
      </trkpt>
      <trkpt lat="46.29063" lon="4.278">
        <ele>371</ele>
        <time>2022-04-01T13:11:41Z</time>
      </trkpt>
      <trkpt lat="46.29088" lon="4.27802">
        <ele>370</ele>
        <time>2022-04-01T13:11:45Z</time>
      </trkpt>
      <trkpt lat="46.29106" lon="4.27799">
        <ele>370</ele>
        <time>2022-04-01T13:11:49Z</time>
      </trkpt>
      <trkpt lat="46.29128" lon="4.27788">
        <ele>369</ele>
        <time>2022-04-01T13:11:53Z</time>
      </trkpt>
      <trkpt lat="46.29155" lon="4.27766">
        <ele>367</ele>
        <time>2022-04-01T13:11:58Z</time>
      </trkpt>
      <trkpt lat="46.2917" lon="4.27742">
        <ele>366</ele>
        <time>2022-04-01T13:12:02Z</time>
      </trkpt>
      <trkpt lat="46.29178" lon="4.27721">
        <ele>365</ele>
        <time>2022-04-01T13:12:05Z</time>
      </trkpt>
      <trkpt lat="46.29182" lon="4.27692">
        <ele>363</ele>
        <time>2022-04-01T13:12:09Z</time>
      </trkpt>
      <trkpt lat="46.29183" lon="4.27658">
        <ele>362</ele>
        <time>2022-04-01T13:12:13Z</time>
      </trkpt>
      <trkpt lat="46.29173" lon="4.27301">
        <ele>365</ele>
        <time>2022-04-01T13:12:57Z</time>
      </trkpt>
      <trkpt lat="46.29178" lon="4.27269">
        <ele>367</ele>
        <time>2022-04-01T13:13:01Z</time>
      </trkpt>
      <trkpt lat="46.29184" lon="4.27251">
        <ele>368</ele>
        <time>2022-04-01T13:13:03Z</time>
      </trkpt>
      <trkpt lat="46.29197" lon="4.27232">
        <ele>369</ele>
        <time>2022-04-01T13:13:07Z</time>
      </trkpt>
      <trkpt lat="46.29284" lon="4.27127">
        <ele>372</ele>
        <time>2022-04-01T13:13:27Z</time>
      </trkpt>
      <trkpt lat="46.29312" lon="4.27109">
        <ele>372</ele>
        <time>2022-04-01T13:13:32Z</time>
      </trkpt>
      <trkpt lat="46.29376" lon="4.27085">
        <ele>372</ele>
        <time>2022-04-01T13:13:44Z</time>
      </trkpt>
      <trkpt lat="46.29401" lon="4.27069">
        <ele>374</ele>
        <time>2022-04-01T13:13:49Z</time>
      </trkpt>
      <trkpt lat="46.29447" lon="4.27029">
        <ele>378</ele>
        <time>2022-04-01T13:13:58Z</time>
      </trkpt>
      <trkpt lat="46.29455" lon="4.27018">
        <ele>380</ele>
        <time>2022-04-01T13:14:00Z</time>
      </trkpt>
      <trkpt lat="46.29468" lon="4.26996">
        <ele>382</ele>
        <time>2022-04-01T13:14:04Z</time>
      </trkpt>
      <trkpt lat="46.29478" lon="4.26969">
        <ele>383</ele>
        <time>2022-04-01T13:14:08Z</time>
      </trkpt>
      <trkpt lat="46.29481" lon="4.26939">
        <ele>384</ele>
        <time>2022-04-01T13:14:11Z</time>
      </trkpt>
      <trkpt lat="46.29479" lon="4.26898">
        <ele>385</ele>
        <time>2022-04-01T13:14:16Z</time>
      </trkpt>
      <trkpt lat="46.29457" lon="4.26646">
        <ele>385</ele>
        <time>2022-04-01T13:14:48Z</time>
      </trkpt>
      <trkpt lat="46.29457" lon="4.26624">
        <ele>384</ele>
        <time>2022-04-01T13:14:50Z</time>
      </trkpt>
      <trkpt lat="46.29459" lon="4.26606">
        <ele>383</ele>
        <time>2022-04-01T13:14:53Z</time>
      </trkpt>
      <trkpt lat="46.29464" lon="4.26591">
        <ele>382</ele>
        <time>2022-04-01T13:14:55Z</time>
      </trkpt>
      <trkpt lat="46.29471" lon="4.26574">
        <ele>381</ele>
        <time>2022-04-01T13:14:57Z</time>
      </trkpt>
      <trkpt lat="46.29528" lon="4.26515">
        <ele>378</ele>
        <time>2022-04-01T13:15:10Z</time>
      </trkpt>
      <trkpt lat="46.29654" lon="4.26399">
        <ele>376</ele>
        <time>2022-04-01T13:15:36Z</time>
      </trkpt>
      <trkpt lat="46.29702" lon="4.26334">
        <ele>373</ele>
        <time>2022-04-01T13:15:48Z</time>
      </trkpt>
      <trkpt lat="46.29712" lon="4.26317">
        <ele>374</ele>
        <time>2022-04-01T13:15:51Z</time>
      </trkpt>
      <trkpt lat="46.29722" lon="4.26281">
        <ele>372</ele>
        <time>2022-04-01T13:15:55Z</time>
      </trkpt>
      <trkpt lat="46.29724" lon="4.26257">
        <ele>371</ele>
        <time>2022-04-01T13:15:58Z</time>
      </trkpt>
      <trkpt lat="46.2972" lon="4.26179">
        <ele>372</ele>
        <time>2022-04-01T13:16:08Z</time>
      </trkpt>
      <trkpt lat="46.29714" lon="4.26104">
        <ele>375</ele>
        <time>2022-04-01T13:16:17Z</time>
      </trkpt>
      <trkpt lat="46.29715" lon="4.26046">
        <ele>378</ele>
        <time>2022-04-01T13:16:24Z</time>
      </trkpt>
      <trkpt lat="46.29707" lon="4.26">
        <ele>382</ele>
        <time>2022-04-01T13:16:30Z</time>
      </trkpt>
      <trkpt lat="46.29682" lon="4.25634">
        <ele>391</ele>
        <time>2022-04-01T13:17:15Z</time>
      </trkpt>
      <trkpt lat="46.29681" lon="4.25595">
        <ele>393</ele>
        <time>2022-04-01T13:17:20Z</time>
      </trkpt>
      <trkpt lat="46.29686" lon="4.25557">
        <ele>394</ele>
        <time>2022-04-01T13:17:25Z</time>
      </trkpt>
      <trkpt lat="46.29702" lon="4.25497">
        <ele>396</ele>
        <time>2022-04-01T13:17:33Z</time>
      </trkpt>
      <trkpt lat="46.29805" lon="4.25195">
        <ele>404</ele>
        <time>2022-04-01T13:18:14Z</time>
      </trkpt>
      <trkpt lat="46.29821" lon="4.25134">
        <ele>405</ele>
        <time>2022-04-01T13:18:22Z</time>
      </trkpt>
      <trkpt lat="46.29826" lon="4.25106">
        <ele>405</ele>
        <time>2022-04-01T13:18:26Z</time>
      </trkpt>
      <trkpt lat="46.29831" lon="4.25062">
        <ele>405</ele>
        <time>2022-04-01T13:18:31Z</time>
      </trkpt>
      <trkpt lat="46.29844" lon="4.24723">
        <ele>411</ele>
        <time>2022-04-01T13:19:13Z</time>
      </trkpt>
      <trkpt lat="46.2984" lon="4.24699">
        <ele>412</ele>
        <time>2022-04-01T13:19:16Z</time>
      </trkpt>
      <trkpt lat="46.29834" lon="4.24683">
        <ele>412</ele>
        <time>2022-04-01T13:19:18Z</time>
      </trkpt>
      <trkpt lat="46.29822" lon="4.24666">
        <ele>412</ele>
        <time>2022-04-01T13:19:21Z</time>
      </trkpt>
      <trkpt lat="46.29765" lon="4.24609">
        <ele>411</ele>
        <time>2022-04-01T13:19:34Z</time>
      </trkpt>
      <trkpt lat="46.29756" lon="4.24593">
        <ele>411</ele>
        <time>2022-04-01T13:19:36Z</time>
      </trkpt>
      <trkpt lat="46.29752" lon="4.24578">
        <ele>411</ele>
        <time>2022-04-01T13:19:38Z</time>
      </trkpt>
      <trkpt lat="46.2975" lon="4.2456">
        <ele>412</ele>
        <time>2022-04-01T13:19:40Z</time>
      </trkpt>
      <trkpt lat="46.29751" lon="4.24541">
        <ele>413</ele>
        <time>2022-04-01T13:19:43Z</time>
      </trkpt>
      <trkpt lat="46.2977" lon="4.24254">
        <ele>420</ele>
        <time>2022-04-01T13:20:18Z</time>
      </trkpt>
      <trkpt lat="46.29769" lon="4.24222">
        <ele>422</ele>
        <time>2022-04-01T13:20:22Z</time>
      </trkpt>
      <trkpt lat="46.29765" lon="4.24207">
        <ele>422</ele>
        <time>2022-04-01T13:20:24Z</time>
      </trkpt>
      <trkpt lat="46.29751" lon="4.24169">
        <ele>424</ele>
        <time>2022-04-01T13:20:29Z</time>
      </trkpt>
      <trkpt lat="46.29678" lon="4.24022">
        <ele>429</ele>
        <time>2022-04-01T13:20:52Z</time>
      </trkpt>
      <trkpt lat="46.2967" lon="4.23996">
        <ele>430</ele>
        <time>2022-04-01T13:20:55Z</time>
      </trkpt>
      <trkpt lat="46.29667" lon="4.23979">
        <ele>431</ele>
        <time>2022-04-01T13:20:57Z</time>
      </trkpt>
      <trkpt lat="46.29667" lon="4.23961">
        <ele>431</ele>
        <time>2022-04-01T13:21:00Z</time>
      </trkpt>
      <trkpt lat="46.2967" lon="4.23934">
        <ele>432</ele>
        <time>2022-04-01T13:21:03Z</time>
      </trkpt>
      <trkpt lat="46.29693" lon="4.23828">
        <ele>435</ele>
        <time>2022-04-01T13:21:17Z</time>
      </trkpt>
      <trkpt lat="46.29695" lon="4.23803">
        <ele>436</ele>
        <time>2022-04-01T13:21:20Z</time>
      </trkpt>
      <trkpt lat="46.29693" lon="4.23783">
        <ele>436</ele>
        <time>2022-04-01T13:21:22Z</time>
      </trkpt>
      <trkpt lat="46.29689" lon="4.23764">
        <ele>437</ele>
        <time>2022-04-01T13:21:25Z</time>
      </trkpt>
      <trkpt lat="46.29679" lon="4.23742">
        <ele>437</ele>
        <time>2022-04-01T13:21:28Z</time>
      </trkpt>
      <trkpt lat="46.29653" lon="4.23714">
        <ele>439</ele>
        <time>2022-04-01T13:21:34Z</time>
      </trkpt>
      <trkpt lat="46.29589" lon="4.23656">
        <ele>443</ele>
        <time>2022-04-01T13:21:47Z</time>
      </trkpt>
      <trkpt lat="46.2956" lon="4.23624">
        <ele>446</ele>
        <time>2022-04-01T13:21:54Z</time>
      </trkpt>
      <trkpt lat="46.29479" lon="4.23508">
        <ele>449</ele>
        <time>2022-04-01T13:22:14Z</time>
      </trkpt>
      <trkpt lat="46.2947" lon="4.23491">
        <ele>450</ele>
        <time>2022-04-01T13:22:16Z</time>
      </trkpt>
      <trkpt lat="46.29462" lon="4.23466">
        <ele>450</ele>
        <time>2022-04-01T13:22:20Z</time>
      </trkpt>
      <trkpt lat="46.2946" lon="4.23439">
        <ele>451</ele>
        <time>2022-04-01T13:22:23Z</time>
      </trkpt>
      <trkpt lat="46.29462" lon="4.23416">
        <ele>451</ele>
        <time>2022-04-01T13:22:26Z</time>
      </trkpt>
      <trkpt lat="46.29466" lon="4.23396">
        <ele>452</ele>
        <time>2022-04-01T13:22:29Z</time>
      </trkpt>
      <trkpt lat="46.29544" lon="4.23131">
        <ele>459</ele>
        <time>2022-04-01T13:23:04Z</time>
      </trkpt>
      <trkpt lat="46.29607" lon="4.22907">
        <ele>463</ele>
        <time>2022-04-01T13:23:34Z</time>
      </trkpt>
      <trkpt lat="46.29617" lon="4.22879">
        <ele>464</ele>
        <time>2022-04-01T13:23:38Z</time>
      </trkpt>
      <trkpt lat="46.29624" lon="4.22864">
        <ele>464</ele>
        <time>2022-04-01T13:23:40Z</time>
      </trkpt>
      <trkpt lat="46.29633" lon="4.2285">
        <ele>465</ele>
        <time>2022-04-01T13:23:42Z</time>
      </trkpt>
      <trkpt lat="46.29667" lon="4.22812">
        <ele>465</ele>
        <time>2022-04-01T13:23:50Z</time>
      </trkpt>
      <trkpt lat="46.29684" lon="4.22797">
        <ele>466</ele>
        <time>2022-04-01T13:23:53Z</time>
      </trkpt>
      <trkpt lat="46.29716" lon="4.22756">
        <ele>467</ele>
        <time>2022-04-01T13:24:01Z</time>
      </trkpt>
      <trkpt lat="46.29841" lon="4.2259">
        <ele>469</ele>
        <time>2022-04-01T13:24:31Z</time>
      </trkpt>
      <trkpt lat="46.29856" lon="4.22564">
        <ele>470</ele>
        <time>2022-04-01T13:24:35Z</time>
      </trkpt>
      <trkpt lat="46.29866" lon="4.22535">
        <ele>471</ele>
        <time>2022-04-01T13:24:39Z</time>
      </trkpt>
      <trkpt lat="46.29874" lon="4.22488">
        <ele>472</ele>
        <time>2022-04-01T13:24:45Z</time>
      </trkpt>
      <trkpt lat="46.29882" lon="4.22117">
        <ele>465</ele>
        <time>2022-04-01T13:25:31Z</time>
      </trkpt>
      <trkpt lat="46.29881" lon="4.22085">
        <ele>465</ele>
        <time>2022-04-01T13:25:35Z</time>
      </trkpt>
      <trkpt lat="46.29875" lon="4.22053">
        <ele>466</ele>
        <time>2022-04-01T13:25:39Z</time>
      </trkpt>
      <trkpt lat="46.29857" lon="4.21998">
        <ele>466</ele>
        <time>2022-04-01T13:25:46Z</time>
      </trkpt>
      <trkpt lat="46.29659" lon="4.2163">
        <ele>462</ele>
        <time>2022-04-01T13:26:44Z</time>
      </trkpt>
      <trkpt lat="46.2965" lon="4.2161">
        <ele>461</ele>
        <time>2022-04-01T13:26:47Z</time>
      </trkpt>
      <trkpt lat="46.29641" lon="4.21583">
        <ele>460</ele>
        <time>2022-04-01T13:26:50Z</time>
      </trkpt>
      <trkpt lat="46.29634" lon="4.21552">
        <ele>459</ele>
        <time>2022-04-01T13:26:54Z</time>
      </trkpt>
      <trkpt lat="46.29629" lon="4.21522">
        <ele>459</ele>
        <time>2022-04-01T13:26:58Z</time>
      </trkpt>
      <trkpt lat="46.29598" lon="4.21272">
        <ele>455</ele>
        <time>2022-04-01T13:27:29Z</time>
      </trkpt>
      <trkpt lat="46.29592" lon="4.21251">
        <ele>455</ele>
        <time>2022-04-01T13:27:32Z</time>
      </trkpt>
      <trkpt lat="46.29576" lon="4.21218">
        <ele>454</ele>
        <time>2022-04-01T13:27:37Z</time>
      </trkpt>
      <trkpt lat="46.2956" lon="4.21195">
        <ele>453</ele>
        <time>2022-04-01T13:27:41Z</time>
      </trkpt>
      <trkpt lat="46.29213" lon="4.20833">
        <ele>447</ele>
        <time>2022-04-01T13:28:57Z</time>
      </trkpt>
      <trkpt lat="46.29193" lon="4.20809">
        <ele>446</ele>
        <time>2022-04-01T13:29:02Z</time>
      </trkpt>
      <trkpt lat="46.29183" lon="4.20788">
        <ele>445</ele>
        <time>2022-04-01T13:29:05Z</time>
      </trkpt>
      <trkpt lat="46.29176" lon="4.20768">
        <ele>445</ele>
        <time>2022-04-01T13:29:08Z</time>
      </trkpt>
      <trkpt lat="46.29171" lon="4.20739">
        <ele>444</ele>
        <time>2022-04-01T13:29:11Z</time>
      </trkpt>
      <trkpt lat="46.29169" lon="4.2071">
        <ele>444</ele>
        <time>2022-04-01T13:29:15Z</time>
      </trkpt>
      <trkpt lat="46.2917" lon="4.20676">
        <ele>443</ele>
        <time>2022-04-01T13:29:19Z</time>
      </trkpt>
      <trkpt lat="46.29173" lon="4.20649">
        <ele>443</ele>
        <time>2022-04-01T13:29:23Z</time>
      </trkpt>
      <trkpt lat="46.29185" lon="4.20608">
        <ele>443</ele>
        <time>2022-04-01T13:29:28Z</time>
      </trkpt>
      <trkpt lat="46.29238" lon="4.20506">
        <ele>440</ele>
        <time>2022-04-01T13:29:44Z</time>
      </trkpt>
      <trkpt lat="46.29245" lon="4.20485">
        <ele>439</ele>
        <time>2022-04-01T13:29:47Z</time>
      </trkpt>
      <trkpt lat="46.2925" lon="4.20464">
        <ele>439</ele>
        <time>2022-04-01T13:29:49Z</time>
      </trkpt>
      <trkpt lat="46.29253" lon="4.20431">
        <ele>438</ele>
        <time>2022-04-01T13:29:53Z</time>
      </trkpt>
      <trkpt lat="46.29251" lon="4.20409">
        <ele>438</ele>
        <time>2022-04-01T13:29:56Z</time>
      </trkpt>
      <trkpt lat="46.29135" lon="4.1979">
        <ele>455</ele>
        <time>2022-04-01T13:31:15Z</time>
      </trkpt>
      <trkpt lat="46.29105" lon="4.19636">
        <ele>460</ele>
        <time>2022-04-01T13:31:35Z</time>
      </trkpt>
      <trkpt lat="46.29074" lon="4.19463">
        <ele>465</ele>
        <time>2022-04-01T13:31:57Z</time>
      </trkpt>
      <trkpt lat="46.29064" lon="4.19429">
        <ele>466</ele>
        <time>2022-04-01T13:32:01Z</time>
      </trkpt>
      <trkpt lat="46.29053" lon="4.19407">
        <ele>466</ele>
        <time>2022-04-01T13:32:05Z</time>
      </trkpt>
      <trkpt lat="46.28919" lon="4.1922">
        <ele>464</ele>
        <time>2022-04-01T13:32:38Z</time>
      </trkpt>
      <trkpt lat="46.28893" lon="4.19178">
        <ele>464</ele>
        <time>2022-04-01T13:32:45Z</time>
      </trkpt>
      <trkpt lat="46.2882" lon="4.19019">
        <ele>460</ele>
        <time>2022-04-01T13:33:08Z</time>
      </trkpt>
      <trkpt lat="46.288" lon="4.1898">
        <ele>459</ele>
        <time>2022-04-01T13:33:14Z</time>
      </trkpt>
      <trkpt lat="46.28722" lon="4.18848">
        <ele>458</ele>
        <time>2022-04-01T13:33:35Z</time>
      </trkpt>
      <trkpt lat="46.28714" lon="4.18825">
        <ele>457</ele>
        <time>2022-04-01T13:33:39Z</time>
      </trkpt>
      <trkpt lat="46.28708" lon="4.18802">
        <ele>457</ele>
        <time>2022-04-01T13:33:42Z</time>
      </trkpt>
      <trkpt lat="46.28679" lon="4.18587">
        <ele>453</ele>
        <time>2022-04-01T13:34:08Z</time>
      </trkpt>
      <trkpt lat="46.28677" lon="4.18547">
        <ele>454</ele>
        <time>2022-04-01T13:34:13Z</time>
      </trkpt>
      <trkpt lat="46.28679" lon="4.18515">
        <ele>454</ele>
        <time>2022-04-01T13:34:17Z</time>
      </trkpt>
      <trkpt lat="46.28707" lon="4.18304">
        <ele>451</ele>
        <time>2022-04-01T13:34:44Z</time>
      </trkpt>
      <trkpt lat="46.28709" lon="4.18276">
        <ele>451</ele>
        <time>2022-04-01T13:34:47Z</time>
      </trkpt>
      <trkpt lat="46.28707" lon="4.18241">
        <ele>451</ele>
        <time>2022-04-01T13:34:52Z</time>
      </trkpt>
      <trkpt lat="46.28653" lon="4.17849">
        <ele>448</ele>
        <time>2022-04-01T13:35:41Z</time>
      </trkpt>
      <trkpt lat="46.28646" lon="4.17823">
        <ele>447</ele>
        <time>2022-04-01T13:35:44Z</time>
      </trkpt>
      <trkpt lat="46.28626" lon="4.17775">
        <ele>445</ele>
        <time>2022-04-01T13:35:51Z</time>
      </trkpt>
      <trkpt lat="46.28606" lon="4.17746">
        <ele>445</ele>
        <time>2022-04-01T13:35:56Z</time>
      </trkpt>
      <trkpt lat="46.28491" lon="4.17603">
        <ele>443</ele>
        <time>2022-04-01T13:36:23Z</time>
      </trkpt>
      <trkpt lat="46.28481" lon="4.17589">
        <ele>442</ele>
        <time>2022-04-01T13:36:26Z</time>
      </trkpt>
      <trkpt lat="46.28465" lon="4.17563">
        <ele>442</ele>
        <time>2022-04-01T13:36:30Z</time>
      </trkpt>
      <trkpt lat="46.28448" lon="4.17522">
        <ele>440</ele>
        <time>2022-04-01T13:36:36Z</time>
      </trkpt>
      <trkpt lat="46.28421" lon="4.17444">
        <ele>439</ele>
        <time>2022-04-01T13:36:46Z</time>
      </trkpt>
      <trkpt lat="46.28377" lon="4.17337">
        <ele>440</ele>
        <time>2022-04-01T13:37:02Z</time>
      </trkpt>
      <trkpt lat="46.28345" lon="4.17276">
        <ele>440</ele>
        <time>2022-04-01T13:37:11Z</time>
      </trkpt>
      <trkpt lat="46.28322" lon="4.17237">
        <ele>439</ele>
        <time>2022-04-01T13:37:17Z</time>
      </trkpt>
      <trkpt lat="46.28307" lon="4.17217">
        <ele>438</ele>
        <time>2022-04-01T13:37:21Z</time>
      </trkpt>
      <trkpt lat="46.28296" lon="4.17206">
        <ele>438</ele>
        <time>2022-04-01T13:37:23Z</time>
      </trkpt>
      <trkpt lat="46.28282" lon="4.17198">
        <ele>437</ele>
        <time>2022-04-01T13:37:26Z</time>
      </trkpt>
      <trkpt lat="46.28258" lon="4.1719">
        <ele>435</ele>
        <time>2022-04-01T13:37:31Z</time>
      </trkpt>
      <trkpt lat="46.28127" lon="4.17157">
        <ele>428</ele>
        <time>2022-04-01T13:37:54Z</time>
      </trkpt>
      <trkpt lat="46.28103" lon="4.1715">
        <ele>427</ele>
        <time>2022-04-01T13:37:59Z</time>
      </trkpt>
      <trkpt lat="46.28091" lon="4.17144">
        <ele>427</ele>
        <time>2022-04-01T13:38:01Z</time>
      </trkpt>
      <trkpt lat="46.28063" lon="4.17122">
        <ele>426</ele>
        <time>2022-04-01T13:38:06Z</time>
      </trkpt>
      <trkpt lat="46.27991" lon="4.17053">
        <ele>427</ele>
        <time>2022-04-01T13:38:22Z</time>
      </trkpt>
      <trkpt lat="46.27975" lon="4.1703">
        <ele>428</ele>
        <time>2022-04-01T13:38:26Z</time>
      </trkpt>
      <trkpt lat="46.27767" lon="4.16677">
        <ele>416</ele>
        <time>2022-04-01T13:39:23Z</time>
      </trkpt>
      <trkpt lat="46.27759" lon="4.16654">
        <ele>417</ele>
        <time>2022-04-01T13:39:26Z</time>
      </trkpt>
      <trkpt lat="46.27755" lon="4.1663">
        <ele>418</ele>
        <time>2022-04-01T13:39:29Z</time>
      </trkpt>
      <trkpt lat="46.27754" lon="4.16616">
        <ele>419</ele>
        <time>2022-04-01T13:39:31Z</time>
      </trkpt>
      <trkpt lat="46.27756" lon="4.16598">
        <ele>420</ele>
        <time>2022-04-01T13:39:33Z</time>
      </trkpt>
      <trkpt lat="46.27761" lon="4.16578">
        <ele>420</ele>
        <time>2022-04-01T13:39:36Z</time>
      </trkpt>
      <trkpt lat="46.27834" lon="4.16351">
        <ele>424</ele>
        <time>2022-04-01T13:40:06Z</time>
      </trkpt>
      <trkpt lat="46.27841" lon="4.16336">
        <ele>425</ele>
        <time>2022-04-01T13:40:09Z</time>
      </trkpt>
      <trkpt lat="46.27856" lon="4.16314">
        <ele>426</ele>
        <time>2022-04-01T13:40:12Z</time>
      </trkpt>
      <trkpt lat="46.2796" lon="4.16177">
        <ele>430</ele>
        <time>2022-04-01T13:40:38Z</time>
      </trkpt>
      <trkpt lat="46.27969" lon="4.1616">
        <ele>431</ele>
        <time>2022-04-01T13:40:40Z</time>
      </trkpt>
      <trkpt lat="46.27974" lon="4.16141">
        <ele>431</ele>
        <time>2022-04-01T13:40:43Z</time>
      </trkpt>
      <trkpt lat="46.27978" lon="4.16107">
        <ele>431</ele>
        <time>2022-04-01T13:40:47Z</time>
      </trkpt>
      <trkpt lat="46.27975" lon="4.16068">
        <ele>433</ele>
        <time>2022-04-01T13:40:52Z</time>
      </trkpt>
      <trkpt lat="46.27966" lon="4.16025">
        <ele>434</ele>
        <time>2022-04-01T13:40:57Z</time>
      </trkpt>
      <trkpt lat="46.27957" lon="4.15993">
        <ele>436</ele>
        <time>2022-04-01T13:41:01Z</time>
      </trkpt>
      <trkpt lat="46.27944" lon="4.15962">
        <ele>437</ele>
        <time>2022-04-01T13:41:06Z</time>
      </trkpt>
      <trkpt lat="46.27898" lon="4.15876">
        <ele>439</ele>
        <time>2022-04-01T13:41:19Z</time>
      </trkpt>
      <trkpt lat="46.27886" lon="4.15858">
        <ele>439</ele>
        <time>2022-04-01T13:41:22Z</time>
      </trkpt>
      <trkpt lat="46.27873" lon="4.15841">
        <ele>439</ele>
        <time>2022-04-01T13:41:26Z</time>
      </trkpt>
      <trkpt lat="46.27812" lon="4.15794">
        <ele>444</ele>
        <time>2022-04-01T13:41:38Z</time>
      </trkpt>
      <trkpt lat="46.27799" lon="4.15771">
        <ele>446</ele>
        <time>2022-04-01T13:41:41Z</time>
      </trkpt>
      <trkpt lat="46.2779" lon="4.15737">
        <ele>447</ele>
        <time>2022-04-01T13:41:46Z</time>
      </trkpt>
      <trkpt lat="46.27788" lon="4.15691">
        <ele>448</ele>
        <time>2022-04-01T13:41:52Z</time>
      </trkpt>
      <trkpt lat="46.27796" lon="4.15572">
        <ele>447</ele>
        <time>2022-04-01T13:42:06Z</time>
      </trkpt>
      <trkpt lat="46.27794" lon="4.15541">
        <ele>447</ele>
        <time>2022-04-01T13:42:10Z</time>
      </trkpt>
      <trkpt lat="46.27785" lon="4.15516">
        <ele>447</ele>
        <time>2022-04-01T13:42:14Z</time>
      </trkpt>
      <trkpt lat="46.27773" lon="4.15498">
        <ele>448</ele>
        <time>2022-04-01T13:42:17Z</time>
      </trkpt>
      <trkpt lat="46.27693" lon="4.15406">
        <ele>457</ele>
        <time>2022-04-01T13:42:35Z</time>
      </trkpt>
      <trkpt lat="46.27681" lon="4.15383">
        <ele>459</ele>
        <time>2022-04-01T13:42:38Z</time>
      </trkpt>
      <trkpt lat="46.27675" lon="4.15363">
        <ele>460</ele>
        <time>2022-04-01T13:42:41Z</time>
      </trkpt>
      <trkpt lat="46.27673" lon="4.15345">
        <ele>460</ele>
        <time>2022-04-01T13:42:43Z</time>
      </trkpt>
      <trkpt lat="46.27673" lon="4.15332">
        <ele>460</ele>
        <time>2022-04-01T13:42:45Z</time>
      </trkpt>
      <trkpt lat="46.27676" lon="4.15296">
        <ele>460</ele>
        <time>2022-04-01T13:42:49Z</time>
      </trkpt>
      <trkpt lat="46.2768" lon="4.15266">
        <ele>461</ele>
        <time>2022-04-01T13:42:53Z</time>
      </trkpt>
      <trkpt lat="46.27688" lon="4.15245">
        <ele>461</ele>
        <time>2022-04-01T13:42:56Z</time>
      </trkpt>
      <trkpt lat="46.27694" lon="4.15234">
        <ele>462</ele>
        <time>2022-04-01T13:42:58Z</time>
      </trkpt>
      <trkpt lat="46.27703" lon="4.15225">
        <ele>463</ele>
        <time>2022-04-01T13:43:00Z</time>
      </trkpt>
      <trkpt lat="46.27823" lon="4.15157">
        <ele>463</ele>
        <time>2022-04-01T13:43:23Z</time>
      </trkpt>
      <trkpt lat="46.27841" lon="4.15141">
        <ele>464</ele>
        <time>2022-04-01T13:43:26Z</time>
      </trkpt>
      <trkpt lat="46.27871" lon="4.15102">
        <ele>469</ele>
        <time>2022-04-01T13:43:34Z</time>
      </trkpt>
      <trkpt lat="46.279" lon="4.15077">
        <ele>470</ele>
        <time>2022-04-01T13:43:40Z</time>
      </trkpt>
      <trkpt lat="46.27917" lon="4.15067">
        <ele>470</ele>
        <time>2022-04-01T13:43:43Z</time>
      </trkpt>
      <trkpt lat="46.27958" lon="4.1505">
        <ele>471</ele>
        <time>2022-04-01T13:43:50Z</time>
      </trkpt>
      <trkpt lat="46.27972" lon="4.1504">
        <ele>471</ele>
        <time>2022-04-01T13:43:53Z</time>
      </trkpt>
      <trkpt lat="46.27986" lon="4.1502">
        <ele>472</ele>
        <time>2022-04-01T13:43:57Z</time>
      </trkpt>
      <trkpt lat="46.27994" lon="4.14989">
        <ele>473</ele>
        <time>2022-04-01T13:44:01Z</time>
      </trkpt>
      <trkpt lat="46.27995" lon="4.14974">
        <ele>473</ele>
        <time>2022-04-01T13:44:03Z</time>
      </trkpt>
      <trkpt lat="46.27982" lon="4.14888">
        <ele>475</ele>
        <time>2022-04-01T13:44:14Z</time>
      </trkpt>
      <trkpt lat="46.27977" lon="4.14871">
        <ele>475</ele>
        <time>2022-04-01T13:44:16Z</time>
      </trkpt>
      <trkpt lat="46.27967" lon="4.14852">
        <ele>477</ele>
        <time>2022-04-01T13:44:19Z</time>
      </trkpt>
      <trkpt lat="46.27899" lon="4.14771">
        <ele>482</ele>
        <time>2022-04-01T13:44:34Z</time>
      </trkpt>
      <trkpt lat="46.27859" lon="4.14722">
        <ele>485</ele>
        <time>2022-04-01T13:44:44Z</time>
      </trkpt>
      <trkpt lat="46.27848" lon="4.14699">
        <ele>485</ele>
        <time>2022-04-01T13:44:47Z</time>
      </trkpt>
      <trkpt lat="46.27843" lon="4.14683">
        <ele>485</ele>
        <time>2022-04-01T13:44:49Z</time>
      </trkpt>
      <trkpt lat="46.27832" lon="4.1462">
        <ele>485</ele>
        <time>2022-04-01T13:44:57Z</time>
      </trkpt>
      <trkpt lat="46.2783" lon="4.14591">
        <ele>485</ele>
        <time>2022-04-01T13:45:01Z</time>
      </trkpt>
      <trkpt lat="46.27834" lon="4.14553">
        <ele>486</ele>
        <time>2022-04-01T13:45:06Z</time>
      </trkpt>
      <trkpt lat="46.27845" lon="4.14469">
        <ele>488</ele>
        <time>2022-04-01T13:45:16Z</time>
      </trkpt>
      <trkpt lat="46.27845" lon="4.1445">
        <ele>489</ele>
        <time>2022-04-01T13:45:18Z</time>
      </trkpt>
      <trkpt lat="46.27843" lon="4.14424">
        <ele>491</ele>
        <time>2022-04-01T13:45:22Z</time>
      </trkpt>
      <trkpt lat="46.27799" lon="4.14048">
        <ele>497</ele>
        <time>2022-04-01T13:46:09Z</time>
      </trkpt>
      <trkpt lat="46.27782" lon="4.13893">
        <ele>494</ele>
        <time>2022-04-01T13:46:28Z</time>
      </trkpt>
      <trkpt lat="46.27793" lon="4.13684">
        <ele>490</ele>
        <time>2022-04-01T13:46:54Z</time>
      </trkpt>
      <trkpt lat="46.27796" lon="4.13602">
        <ele>490</ele>
        <time>2022-04-01T13:47:04Z</time>
      </trkpt>
      <trkpt lat="46.27797" lon="4.13508">
        <ele>489</ele>
        <time>2022-04-01T13:47:15Z</time>
      </trkpt>
      <trkpt lat="46.27796" lon="4.13458">
        <ele>487</ele>
        <time>2022-04-01T13:47:21Z</time>
      </trkpt>
      <trkpt lat="46.27793" lon="4.1343">
        <ele>486</ele>
        <time>2022-04-01T13:47:25Z</time>
      </trkpt>
      <trkpt lat="46.27761" lon="4.13206">
        <ele>483</ele>
        <time>2022-04-01T13:47:53Z</time>
      </trkpt>
      <trkpt lat="46.27757" lon="4.13132">
        <ele>483</ele>
        <time>2022-04-01T13:48:02Z</time>
      </trkpt>
      <trkpt lat="46.27757" lon="4.12997">
        <ele>484</ele>
        <time>2022-04-01T13:48:19Z</time>
      </trkpt>
      <trkpt lat="46.27731" lon="4.12665">
        <ele>477</ele>
        <time>2022-04-01T13:49:00Z</time>
      </trkpt>
      <trkpt lat="46.27699" lon="4.12278">
        <ele>470</ele>
        <time>2022-04-01T13:49:48Z</time>
      </trkpt>
      <trkpt lat="46.27688" lon="4.1222">
        <ele>470</ele>
        <time>2022-04-01T13:49:55Z</time>
      </trkpt>
      <trkpt lat="46.27668" lon="4.12174">
        <ele>468</ele>
        <time>2022-04-01T13:50:02Z</time>
      </trkpt>
      <trkpt lat="46.27136" lon="4.11132">
        <ele>441</ele>
        <time>2022-04-01T13:52:41Z</time>
      </trkpt>
      <trkpt lat="46.26921" lon="4.10714">
        <ele>433</ele>
        <time>2022-04-01T13:53:45Z</time>
      </trkpt>
      <trkpt lat="46.26899" lon="4.10669">
        <ele>433</ele>
        <time>2022-04-01T13:53:52Z</time>
      </trkpt>
      <trkpt lat="46.26856" lon="4.10551">
        <ele>430</ele>
        <time>2022-04-01T13:54:09Z</time>
      </trkpt>
      <trkpt lat="46.26739" lon="4.10214">
        <ele>422</ele>
        <time>2022-04-01T13:54:55Z</time>
      </trkpt>
      <trkpt lat="46.26664" lon="4.1004">
        <ele>419</ele>
        <time>2022-04-01T13:55:20Z</time>
      </trkpt>
      <trkpt lat="46.26648" lon="4.10015">
        <ele>418</ele>
        <time>2022-04-01T13:55:24Z</time>
      </trkpt>
      <trkpt lat="46.26639" lon="4.10006">
        <ele>418</ele>
        <time>2022-04-01T13:55:26Z</time>
      </trkpt>
      <trkpt lat="46.26561" lon="4.09954">
        <ele>414</ele>
        <time>2022-04-01T13:55:42Z</time>
      </trkpt>
      <trkpt lat="46.26551" lon="4.09944">
        <ele>414</ele>
        <time>2022-04-01T13:55:44Z</time>
      </trkpt>
      <trkpt lat="46.26542" lon="4.09932">
        <ele>413</ele>
        <time>2022-04-01T13:55:46Z</time>
      </trkpt>
      <trkpt lat="46.26459" lon="4.09741">
        <ele>407</ele>
        <time>2022-04-01T13:56:14Z</time>
      </trkpt>
      <trkpt lat="46.26438" lon="4.09686">
        <ele>404</ele>
        <time>2022-04-01T13:56:21Z</time>
      </trkpt>
      <trkpt lat="46.2639" lon="4.09519">
        <ele>397</ele>
        <time>2022-04-01T13:56:44Z</time>
      </trkpt>
      <trkpt lat="46.26319" lon="4.0918">
        <ele>384</ele>
        <time>2022-04-01T13:57:27Z</time>
      </trkpt>
      <trkpt lat="46.26316" lon="4.0916">
        <ele>383</ele>
        <time>2022-04-01T13:57:30Z</time>
      </trkpt>
      <trkpt lat="46.26316" lon="4.09121">
        <ele>382</ele>
        <time>2022-04-01T13:57:34Z</time>
      </trkpt>
      <trkpt lat="46.26366" lon="4.09105">
        <ele>380</ele>
        <time>2022-04-01T13:57:44Z</time>
      </trkpt>
      <trkpt lat="46.26374" lon="4.09101">
        <ele>380</ele>
        <time>2022-04-01T13:57:45Z</time>
      </trkpt>
      <trkpt lat="46.2638" lon="4.09095">
        <ele>379</ele>
        <time>2022-04-01T13:57:46Z</time>
      </trkpt>
      <trkpt lat="46.26384" lon="4.09087">
        <ele>379</ele>
        <time>2022-04-01T13:57:48Z</time>
      </trkpt>
      <trkpt lat="46.26392" lon="4.0906">
        <ele>378</ele>
        <time>2022-04-01T13:57:51Z</time>
      </trkpt>
      <trkpt lat="46.26412" lon="4.09014">
        <ele>376</ele>
        <time>2022-04-01T13:57:58Z</time>
      </trkpt>
      <trkpt lat="46.26419" lon="4.09014">
        <ele>376</ele>
        <time>2022-04-01T13:57:59Z</time>
      </trkpt>
      <trkpt lat="46.26428" lon="4.09006">
        <ele>376</ele>
        <time>2022-04-01T13:58:01Z</time>
      </trkpt>
      <trkpt lat="46.26453" lon="4.08961">
        <ele>375</ele>
        <time>2022-04-01T13:58:08Z</time>
      </trkpt>
      <trkpt lat="46.26462" lon="4.08952">
        <ele>374</ele>
        <time>2022-04-01T13:58:10Z</time>
      </trkpt>
      <trkpt lat="46.26497" lon="4.08935">
        <ele>371</ele>
        <time>2022-04-01T13:58:17Z</time>
      </trkpt>
      <trkpt lat="46.26511" lon="4.08923">
        <ele>370</ele>
        <time>2022-04-01T13:58:20Z</time>
      </trkpt>
      <trkpt lat="46.26572" lon="4.08837">
        <ele>364</ele>
        <time>2022-04-01T13:58:35Z</time>
      </trkpt>
      <trkpt lat="46.26588" lon="4.08806">
        <ele>363</ele>
        <time>2022-04-01T13:58:39Z</time>
      </trkpt>
      <trkpt lat="46.26595" lon="4.08775">
        <ele>363</ele>
        <time>2022-04-01T13:58:43Z</time>
      </trkpt>
      <trkpt lat="46.26604" lon="4.08665">
        <ele>361</ele>
        <time>2022-04-01T13:58:57Z</time>
      </trkpt>
      <trkpt lat="46.26608" lon="4.08644">
        <ele>360</ele>
        <time>2022-04-01T13:59:00Z</time>
      </trkpt>
      <trkpt lat="46.26645" lon="4.08505">
        <ele>358</ele>
        <time>2022-04-01T13:59:18Z</time>
      </trkpt>
      <trkpt lat="46.26651" lon="4.08476">
        <ele>357</ele>
        <time>2022-04-01T13:59:22Z</time>
      </trkpt>
      <trkpt lat="46.26652" lon="4.08449">
        <ele>356</ele>
        <time>2022-04-01T13:59:25Z</time>
      </trkpt>
      <trkpt lat="46.26652" lon="4.08297">
        <ele>348</ele>
        <time>2022-04-01T13:59:44Z</time>
      </trkpt>
      <trkpt lat="46.2666" lon="4.08226">
        <ele>344</ele>
        <time>2022-04-01T13:59:53Z</time>
      </trkpt>
      <trkpt lat="46.2666" lon="4.08143">
        <ele>339</ele>
        <time>2022-04-01T14:00:03Z</time>
      </trkpt>
      <trkpt lat="46.26663" lon="4.08121">
        <ele>339</ele>
        <time>2022-04-01T14:00:06Z</time>
      </trkpt>
      <trkpt lat="46.26678" lon="4.08072">
        <ele>343</ele>
        <time>2022-04-01T14:00:12Z</time>
      </trkpt>
      <trkpt lat="46.26681" lon="4.0805">
        <ele>345</ele>
        <time>2022-04-01T14:00:15Z</time>
      </trkpt>
      <trkpt lat="46.26676" lon="4.08033">
        <ele>344</ele>
        <time>2022-04-01T14:00:17Z</time>
      </trkpt>
      <trkpt lat="46.26666" lon="4.08018">
        <ele>342</ele>
        <time>2022-04-01T14:00:20Z</time>
      </trkpt>
      <trkpt lat="46.26613" lon="4.07975">
        <ele>334</ele>
        <time>2022-04-01T14:00:31Z</time>
      </trkpt>
      <trkpt lat="46.26596" lon="4.07957">
        <ele>332</ele>
        <time>2022-04-01T14:00:34Z</time>
      </trkpt>
      <trkpt lat="46.26585" lon="4.0794">
        <ele>331</ele>
        <time>2022-04-01T14:00:37Z</time>
      </trkpt>
      <trkpt lat="46.26577" lon="4.07922">
        <ele>331</ele>
        <time>2022-04-01T14:00:40Z</time>
      </trkpt>
      <trkpt lat="46.26573" lon="4.07899">
        <ele>329</ele>
        <time>2022-04-01T14:00:43Z</time>
      </trkpt>
      <trkpt lat="46.26575" lon="4.07877">
        <ele>329</ele>
        <time>2022-04-01T14:00:46Z</time>
      </trkpt>
      <trkpt lat="46.26583" lon="4.07842">
        <ele>329</ele>
        <time>2022-04-01T14:00:50Z</time>
      </trkpt>
      <trkpt lat="46.26623" lon="4.07695">
        <ele>327</ele>
        <time>2022-04-01T14:01:10Z</time>
      </trkpt>
      <trkpt lat="46.26648" lon="4.07591">
        <ele>323</ele>
        <time>2022-04-01T14:01:23Z</time>
      </trkpt>
      <trkpt lat="46.2669" lon="4.07454">
        <ele>317</ele>
        <time>2022-04-01T14:01:42Z</time>
      </trkpt>
      <trkpt lat="46.26705" lon="4.07397">
        <ele>315</ele>
        <time>2022-04-01T14:01:49Z</time>
      </trkpt>
      <trkpt lat="46.26723" lon="4.07317">
        <ele>310</ele>
        <time>2022-04-01T14:01:59Z</time>
      </trkpt>
      <trkpt lat="46.26743" lon="4.07274">
        <ele>306</ele>
        <time>2022-04-01T14:02:06Z</time>
      </trkpt>
      <trkpt lat="46.26797" lon="4.07175">
        <ele>304</ele>
        <time>2022-04-01T14:02:21Z</time>
      </trkpt>
      <trkpt lat="46.26807" lon="4.07149">
        <ele>304</ele>
        <time>2022-04-01T14:02:25Z</time>
      </trkpt>
      <trkpt lat="46.26813" lon="4.07125">
        <ele>304</ele>
        <time>2022-04-01T14:02:28Z</time>
      </trkpt>
      <trkpt lat="46.26825" lon="4.07072">
        <ele>303</ele>
        <time>2022-04-01T14:02:35Z</time>
      </trkpt>
      <trkpt lat="46.2685" lon="4.06946">
        <ele>297</ele>
        <time>2022-04-01T14:02:51Z</time>
      </trkpt>
      <trkpt lat="46.26866" lon="4.06878">
        <ele>293</ele>
        <time>2022-04-01T14:03:00Z</time>
      </trkpt>
      <trkpt lat="46.26926" lon="4.06655">
        <ele>289</ele>
        <time>2022-04-01T14:03:29Z</time>
      </trkpt>
      <trkpt lat="46.2695" lon="4.06557">
        <ele>291</ele>
        <time>2022-04-01T14:03:42Z</time>
      </trkpt>
      <trkpt lat="46.26985" lon="4.06365">
        <ele>287</ele>
        <time>2022-04-01T14:04:06Z</time>
      </trkpt>
      <trkpt lat="46.27148" lon="4.0585">
        <ele>287</ele>
        <time>2022-04-01T14:05:16Z</time>
      </trkpt>
      <trkpt lat="46.27154" lon="4.05822">
        <ele>287</ele>
        <time>2022-04-01T14:05:20Z</time>
      </trkpt>
      <trkpt lat="46.27156" lon="4.05801">
        <ele>287</ele>
        <time>2022-04-01T14:05:22Z</time>
      </trkpt>
      <trkpt lat="46.27154" lon="4.05739">
        <ele>285</ele>
        <time>2022-04-01T14:05:30Z</time>
      </trkpt>
      <trkpt lat="46.27156" lon="4.05708">
        <ele>285</ele>
        <time>2022-04-01T14:05:34Z</time>
      </trkpt>
      <trkpt lat="46.27199" lon="4.05502">
        <ele>283</ele>
        <time>2022-04-01T14:06:00Z</time>
      </trkpt>
      <trkpt lat="46.27231" lon="4.05387">
        <ele>279</ele>
        <time>2022-04-01T14:06:16Z</time>
      </trkpt>
      <trkpt lat="46.27241" lon="4.05363">
        <ele>277</ele>
        <time>2022-04-01T14:06:19Z</time>
      </trkpt>
      <trkpt lat="46.27274" lon="4.05309">
        <ele>277</ele>
        <time>2022-04-01T14:06:28Z</time>
      </trkpt>
      <trkpt lat="46.2729" lon="4.05279">
        <ele>277</ele>
        <time>2022-04-01T14:06:33Z</time>
      </trkpt>
      <trkpt lat="46.27317" lon="4.05172">
        <ele>273</ele>
        <time>2022-04-01T14:06:47Z</time>
      </trkpt>
      <trkpt lat="46.27356" lon="4.05033">
        <ele>272</ele>
        <time>2022-04-01T14:07:05Z</time>
      </trkpt>
      <trkpt lat="46.27363" lon="4.05019">
        <ele>272</ele>
        <time>2022-04-01T14:07:07Z</time>
      </trkpt>
      <trkpt lat="46.27417" lon="4.04936">
        <ele>271</ele>
        <time>2022-04-01T14:07:21Z</time>
      </trkpt>
      <trkpt lat="46.27493" lon="4.04814">
        <ele>267</ele>
        <time>2022-04-01T14:07:41Z</time>
      </trkpt>
      <trkpt lat="46.27504" lon="4.04793">
        <ele>267</ele>
        <time>2022-04-01T14:07:45Z</time>
      </trkpt>
      <trkpt lat="46.27512" lon="4.04768">
        <ele>267</ele>
        <time>2022-04-01T14:07:48Z</time>
      </trkpt>
      <trkpt lat="46.27533" lon="4.04576">
        <ele>266</ele>
        <time>2022-04-01T14:08:12Z</time>
      </trkpt>
      <trkpt lat="46.27532" lon="4.04555">
        <ele>265</ele>
        <time>2022-04-01T14:08:14Z</time>
      </trkpt>
      <trkpt lat="46.27525" lon="4.04478">
        <ele>263</ele>
        <time>2022-04-01T14:08:24Z</time>
      </trkpt>
      <trkpt lat="46.27533" lon="4.0445">
        <ele>264</ele>
        <time>2022-04-01T14:08:28Z</time>
      </trkpt>
      <trkpt lat="46.27536" lon="4.04412">
        <ele>264</ele>
        <time>2022-04-01T14:08:32Z</time>
      </trkpt>
      <trkpt lat="46.27537" lon="4.04405">
        <ele>264</ele>
        <time>2022-04-01T14:08:33Z</time>
      </trkpt>
      <trkpt lat="46.2754" lon="4.04338">
        <ele>264</ele>
        <time>2022-04-01T14:08:42Z</time>
      </trkpt>
      <trkpt lat="46.27547" lon="4.04282">
        <ele>262</ele>
        <time>2022-04-01T14:08:49Z</time>
      </trkpt>
      <trkpt lat="46.27556" lon="4.04153">
        <ele>260</ele>
        <time>2022-04-01T14:09:05Z</time>
      </trkpt>
      <trkpt lat="46.27546" lon="4.04086">
        <ele>261</ele>
        <time>2022-04-01T14:09:13Z</time>
      </trkpt>
      <trkpt lat="46.27551" lon="4.04028">
        <ele>261</ele>
        <time>2022-04-01T14:09:20Z</time>
      </trkpt>
      <trkpt lat="46.27589" lon="4.04037">
        <ele>260</ele>
        <time>2022-04-01T14:09:27Z</time>
      </trkpt>
      <trkpt lat="46.27596" lon="4.04034">
        <ele>260</ele>
        <time>2022-04-01T14:09:28Z</time>
      </trkpt>
      <trkpt lat="46.27603" lon="4.04024">
        <ele>261</ele>
        <time>2022-04-01T14:09:30Z</time>
      </trkpt>
      <trkpt lat="46.27644" lon="4.03884">
        <ele>257</ele>
        <time>2022-04-01T14:09:49Z</time>
      </trkpt>
      <trkpt lat="46.27662" lon="4.03843">
        <ele>255</ele>
        <time>2022-04-01T14:09:55Z</time>
      </trkpt>
      <trkpt lat="46.27669" lon="4.03835">
        <ele>255</ele>
        <time>2022-04-01T14:09:56Z</time>
      </trkpt>
      <trkpt lat="46.27679" lon="4.03829">
        <ele>255</ele>
        <time>2022-04-01T14:09:58Z</time>
      </trkpt>
      <trkpt lat="46.27728" lon="4.0382">
        <ele>256</ele>
        <time>2022-04-01T14:10:07Z</time>
      </trkpt>
      <trkpt lat="46.27735" lon="4.03811">
        <ele>256</ele>
        <time>2022-04-01T14:10:09Z</time>
      </trkpt>
      <trkpt lat="46.27746" lon="4.03817">
        <ele>256</ele>
        <time>2022-04-01T14:10:11Z</time>
      </trkpt>
      <trkpt lat="46.27806" lon="4.0381">
        <ele>257</ele>
        <time>2022-04-01T14:10:21Z</time>
      </trkpt>
      <trkpt lat="46.27897" lon="4.03803">
        <ele>256</ele>
        <time>2022-04-01T14:10:38Z</time>
      </trkpt>
      <trkpt lat="46.27919" lon="4.038">
        <ele>256</ele>
        <time>2022-04-01T14:10:42Z</time>
      </trkpt>
      <trkpt lat="46.27927" lon="4.03798">
        <ele>255</ele>
        <time>2022-04-01T14:10:43Z</time>
      </trkpt>
      <trkpt lat="46.27942" lon="4.03784">
        <ele>255</ele>
        <time>2022-04-01T14:10:46Z</time>
      </trkpt>
      <trkpt lat="46.2797" lon="4.03735">
        <ele>253</ele>
        <time>2022-04-01T14:10:54Z</time>
      </trkpt>
      <trkpt lat="46.28029" lon="4.03685">
        <ele>252</ele>
        <time>2022-04-01T14:11:06Z</time>
      </trkpt>
      <trkpt lat="46.28033" lon="4.03679">
        <ele>252</ele>
        <time>2022-04-01T14:11:07Z</time>
      </trkpt>
      <trkpt lat="46.28038" lon="4.03667">
        <ele>252</ele>
        <time>2022-04-01T14:11:09Z</time>
      </trkpt>
      <trkpt lat="46.28042" lon="4.03642">
        <ele>251</ele>
        <time>2022-04-01T14:11:12Z</time>
      </trkpt>
      <trkpt lat="46.28057" lon="4.03648">
        <ele>252</ele>
        <time>2022-04-01T14:11:15Z</time>
      </trkpt>
      <trkpt lat="46.2807" lon="4.0366">
        <ele>252</ele>
        <time>2022-04-01T14:11:18Z</time>
      </trkpt>
      <trkpt lat="46.28084" lon="4.03668">
        <ele>253</ele>
        <time>2022-04-01T14:11:20Z</time>
      </trkpt>
      <trkpt lat="46.28095" lon="4.03671">
        <ele>254</ele>
        <time>2022-04-01T14:11:22Z</time>
      </trkpt>
      <trkpt lat="46.28139" lon="4.03674">
        <ele>256</ele>
        <time>2022-04-01T14:11:30Z</time>
      </trkpt>
      <trkpt lat="46.28182" lon="4.0367">
        <ele>257</ele>
        <time>2022-04-01T14:11:38Z</time>
      </trkpt>
      <trkpt lat="46.28226" lon="4.03659">
        <ele>258</ele>
        <time>2022-04-01T14:11:46Z</time>
      </trkpt>
      <trkpt lat="46.2827" lon="4.03644">
        <ele>258</ele>
        <time>2022-04-01T14:11:54Z</time>
      </trkpt>
      <trkpt lat="46.28311" lon="4.03624">
        <ele>256</ele>
        <time>2022-04-01T14:12:02Z</time>
      </trkpt>
      <trkpt lat="46.28342" lon="4.03603">
        <ele>255</ele>
        <time>2022-04-01T14:12:08Z</time>
      </trkpt>
      <trkpt lat="46.28388" lon="4.03565">
        <ele>254</ele>
        <time>2022-04-01T14:12:17Z</time>
      </trkpt>
      <trkpt lat="46.28552" lon="4.03415">
        <ele>251</ele>
        <time>2022-04-01T14:12:52Z</time>
      </trkpt>
      <trkpt lat="46.28583" lon="4.03387">
        <ele>250</ele>
        <time>2022-04-01T14:12:58Z</time>
      </trkpt>
      <trkpt lat="46.28682" lon="4.03303">
        <ele>258</ele>
        <time>2022-04-01T14:13:18Z</time>
      </trkpt>
      <trkpt lat="46.28774" lon="4.03232">
        <ele>261</ele>
        <time>2022-04-01T14:13:37Z</time>
      </trkpt>
      <trkpt lat="46.2887" lon="4.03173">
        <ele>257</ele>
        <time>2022-04-01T14:13:56Z</time>
      </trkpt>
      <trkpt lat="46.28942" lon="4.03135">
        <ele>255</ele>
        <time>2022-04-01T14:14:09Z</time>
      </trkpt>
      <trkpt lat="46.28981" lon="4.03106">
        <ele>257</ele>
        <time>2022-04-01T14:14:17Z</time>
      </trkpt>
      <trkpt lat="46.29026" lon="4.0306">
        <ele>260</ele>
        <time>2022-04-01T14:14:27Z</time>
      </trkpt>
      <trkpt lat="46.29148" lon="4.02913">
        <ele>260</ele>
        <time>2022-04-01T14:14:55Z</time>
      </trkpt>
      <trkpt lat="46.29164" lon="4.02898">
        <ele>260</ele>
        <time>2022-04-01T14:14:58Z</time>
      </trkpt>
      <trkpt lat="46.29201" lon="4.02874">
        <ele>263</ele>
        <time>2022-04-01T14:15:06Z</time>
      </trkpt>
      <trkpt lat="46.29238" lon="4.02855">
        <ele>265</ele>
        <time>2022-04-01T14:15:13Z</time>
      </trkpt>
      <trkpt lat="46.29288" lon="4.02824">
        <ele>262</ele>
        <time>2022-04-01T14:15:22Z</time>
      </trkpt>
      <trkpt lat="46.29351" lon="4.02805">
        <ele>259</ele>
        <time>2022-04-01T14:15:34Z</time>
      </trkpt>
      <trkpt lat="46.29397" lon="4.02804">
        <ele>259</ele>
        <time>2022-04-01T14:15:42Z</time>
      </trkpt>
      <trkpt lat="46.29465" lon="4.02811">
        <ele>259</ele>
        <time>2022-04-01T14:15:54Z</time>
      </trkpt>
      <trkpt lat="46.29533" lon="4.02834">
        <ele>260</ele>
        <time>2022-04-01T14:16:07Z</time>
      </trkpt>
      <trkpt lat="46.29574" lon="4.02855">
        <ele>259</ele>
        <time>2022-04-01T14:16:14Z</time>
      </trkpt>
      <trkpt lat="46.29715" lon="4.02951">
        <ele>257</ele>
        <time>2022-04-01T14:16:42Z</time>
      </trkpt>
      <trkpt lat="46.29744" lon="4.02968">
        <ele>257</ele>
        <time>2022-04-01T14:16:48Z</time>
      </trkpt>
      <trkpt lat="46.29797" lon="4.02991">
        <ele>257</ele>
        <time>2022-04-01T14:16:57Z</time>
      </trkpt>
      <trkpt lat="46.29871" lon="4.03008">
        <ele>256</ele>
        <time>2022-04-01T14:17:11Z</time>
      </trkpt>
      <trkpt lat="46.29969" lon="4.03007">
        <ele>255</ele>
        <time>2022-04-01T14:17:28Z</time>
      </trkpt>
      <trkpt lat="46.30278" lon="4.02953">
        <ele>253</ele>
        <time>2022-04-01T14:18:24Z</time>
      </trkpt>
      <trkpt lat="46.3055" lon="4.02909">
        <ele>253</ele>
        <time>2022-04-01T14:19:12Z</time>
      </trkpt>
      <trkpt lat="46.30766" lon="4.0287">
        <ele>256</ele>
        <time>2022-04-01T14:19:51Z</time>
      </trkpt>
      <trkpt lat="46.30908" lon="4.02849">
        <ele>255</ele>
        <time>2022-04-01T14:20:16Z</time>
      </trkpt>
      <trkpt lat="46.31042" lon="4.02847">
        <ele>255</ele>
        <time>2022-04-01T14:20:40Z</time>
      </trkpt>
      <trkpt lat="46.31167" lon="4.02849">
        <ele>254</ele>
        <time>2022-04-01T14:21:02Z</time>
      </trkpt>
      <trkpt lat="46.31295" lon="4.02847">
        <ele>253</ele>
        <time>2022-04-01T14:21:25Z</time>
      </trkpt>
      <trkpt lat="46.31463" lon="4.02849">
        <ele>251</ele>
        <time>2022-04-01T14:21:55Z</time>
      </trkpt>
      <trkpt lat="46.31578" lon="4.02846">
        <ele>249</ele>
        <time>2022-04-01T14:22:16Z</time>
      </trkpt>
      <trkpt lat="46.31774" lon="4.02847">
        <ele>249</ele>
        <time>2022-04-01T14:22:50Z</time>
      </trkpt>
      <trkpt lat="46.32076" lon="4.02842">
        <ele>251</ele>
        <time>2022-04-01T14:23:44Z</time>
      </trkpt>
      <trkpt lat="46.32308" lon="4.02847">
        <ele>250</ele>
        <time>2022-04-01T14:24:25Z</time>
      </trkpt>
      <trkpt lat="46.32394" lon="4.02843">
        <ele>249</ele>
        <time>2022-04-01T14:24:41Z</time>
      </trkpt>
      <trkpt lat="46.32479" lon="4.02845">
        <ele>248</ele>
        <time>2022-04-01T14:24:56Z</time>
      </trkpt>
      <trkpt lat="46.32857" lon="4.02841">
        <ele>249</ele>
        <time>2022-04-01T14:26:03Z</time>
      </trkpt>
      <trkpt lat="46.33811" lon="4.0284">
        <ele>248</ele>
        <time>2022-04-01T14:28:53Z</time>
      </trkpt>
      <trkpt lat="46.33991" lon="4.02835">
        <ele>248</ele>
        <time>2022-04-01T14:29:25Z</time>
      </trkpt>
      <trkpt lat="46.34266" lon="4.02835">
        <ele>248</ele>
        <time>2022-04-01T14:30:14Z</time>
      </trkpt>
      <trkpt lat="46.34394" lon="4.02831">
        <ele>248</ele>
        <time>2022-04-01T14:30:37Z</time>
      </trkpt>
      <trkpt lat="46.34505" lon="4.02833">
        <ele>249</ele>
        <time>2022-04-01T14:30:56Z</time>
      </trkpt>
      <trkpt lat="46.34663" lon="4.02829">
        <ele>247</ele>
        <time>2022-04-01T14:31:25Z</time>
      </trkpt>
      <trkpt lat="46.34866" lon="4.02831">
        <ele>248</ele>
        <time>2022-04-01T14:32:01Z</time>
      </trkpt>
      <trkpt lat="46.34879" lon="4.02739">
        <ele>247</ele>
        <time>2022-04-01T14:32:12Z</time>
      </trkpt>
      <trkpt lat="46.34881" lon="4.02708">
        <ele>247</ele>
        <time>2022-04-01T14:32:16Z</time>
      </trkpt>
      <trkpt lat="46.34881" lon="4.02687">
        <ele>247</ele>
        <time>2022-04-01T14:32:19Z</time>
      </trkpt>
      <trkpt lat="46.34865" lon="4.02523">
        <ele>247</ele>
        <time>2022-04-01T14:32:39Z</time>
      </trkpt>
      <trkpt lat="46.34869" lon="4.02491">
        <ele>247</ele>
        <time>2022-04-01T14:32:43Z</time>
      </trkpt>
      <trkpt lat="46.34888" lon="4.02396">
        <ele>247</ele>
        <time>2022-04-01T14:32:55Z</time>
      </trkpt>
      <trkpt lat="46.34897" lon="4.02346">
        <ele>247</ele>
        <time>2022-04-01T14:33:01Z</time>
      </trkpt>
      <trkpt lat="46.34901" lon="4.02296">
        <ele>245</ele>
        <time>2022-04-01T14:33:08Z</time>
      </trkpt>
      <trkpt lat="46.34919" lon="4.01909">
        <ele>242</ele>
        <time>2022-04-01T14:33:55Z</time>
      </trkpt>
      <trkpt lat="46.34927" lon="4.01809">
        <ele>244</ele>
        <time>2022-04-01T14:34:08Z</time>
      </trkpt>
      <trkpt lat="46.34933" lon="4.0179">
        <ele>245</ele>
        <time>2022-04-01T14:34:10Z</time>
      </trkpt>
      <trkpt lat="46.34939" lon="4.01775">
        <ele>245</ele>
        <time>2022-04-01T14:34:12Z</time>
      </trkpt>
      <trkpt lat="46.35072" lon="4.01565">
        <ele>242</ele>
        <time>2022-04-01T14:34:47Z</time>
      </trkpt>
      <trkpt lat="46.35098" lon="4.01515">
        <ele>241</ele>
        <time>2022-04-01T14:34:55Z</time>
      </trkpt>
      <trkpt lat="46.35281" lon="4.01106">
        <ele>240</ele>
        <time>2022-04-01T14:35:55Z</time>
      </trkpt>
      <trkpt lat="46.35294" lon="4.01081">
        <ele>240</ele>
        <time>2022-04-01T14:35:59Z</time>
      </trkpt>
      <trkpt lat="46.35304" lon="4.01066">
        <ele>240</ele>
        <time>2022-04-01T14:36:01Z</time>
      </trkpt>
      <trkpt lat="46.35327" lon="4.01036">
        <ele>241</ele>
        <time>2022-04-01T14:36:07Z</time>
      </trkpt>
      <trkpt lat="46.35332" lon="4.01026">
        <ele>241</ele>
        <time>2022-04-01T14:36:08Z</time>
      </trkpt>
      <trkpt lat="46.35336" lon="4.01016">
        <ele>241</ele>
        <time>2022-04-01T14:36:10Z</time>
      </trkpt>
      <trkpt lat="46.35338" lon="4.00993">
        <ele>241</ele>
        <time>2022-04-01T14:36:13Z</time>
      </trkpt>
      <trkpt lat="46.35336" lon="4.00946">
        <ele>239</ele>
        <time>2022-04-01T14:36:18Z</time>
      </trkpt>
      <trkpt lat="46.35338" lon="4.00933">
        <ele>239</ele>
        <time>2022-04-01T14:36:20Z</time>
      </trkpt>
      <trkpt lat="46.35345" lon="4.00911">
        <ele>238</ele>
        <time>2022-04-01T14:36:23Z</time>
      </trkpt>
      <trkpt lat="46.35395" lon="4.00826">
        <ele>237</ele>
        <time>2022-04-01T14:36:37Z</time>
      </trkpt>
      <trkpt lat="46.35425" lon="4.00772">
        <ele>237</ele>
        <time>2022-04-01T14:36:45Z</time>
      </trkpt>
      <trkpt lat="46.35445" lon="4.00724">
        <ele>238</ele>
        <time>2022-04-01T14:36:52Z</time>
      </trkpt>
      <trkpt lat="46.35454" lon="4.00696">
        <ele>238</ele>
        <time>2022-04-01T14:36:56Z</time>
      </trkpt>
      <trkpt lat="46.35459" lon="4.00675">
        <ele>238</ele>
        <time>2022-04-01T14:36:59Z</time>
      </trkpt>
      <trkpt lat="46.35475" lon="4.00567">
        <ele>236</ele>
        <time>2022-04-01T14:37:12Z</time>
      </trkpt>
      <trkpt lat="46.35486" lon="4.00535">
        <ele>236</ele>
        <time>2022-04-01T14:37:17Z</time>
      </trkpt>
      <trkpt lat="46.35541" lon="4.00409">
        <ele>237</ele>
        <time>2022-04-01T14:37:35Z</time>
      </trkpt>
      <trkpt lat="46.35882" lon="3.99521">
        <ele>236</ele>
        <time>2022-04-01T14:39:40Z</time>
      </trkpt>
      <trkpt lat="46.35894" lon="3.99464">
        <ele>235</ele>
        <time>2022-04-01T14:39:47Z</time>
      </trkpt>
      <trkpt lat="46.35899" lon="3.99404">
        <ele>235</ele>
        <time>2022-04-01T14:39:54Z</time>
      </trkpt>
      <trkpt lat="46.35918" lon="3.98911">
        <ele>236</ele>
        <time>2022-04-01T14:40:55Z</time>
      </trkpt>
      <trkpt lat="46.3593" lon="3.98625">
        <ele>237</ele>
        <time>2022-04-01T14:41:30Z</time>
      </trkpt>
      <trkpt lat="46.35937" lon="3.98459">
        <ele>241</ele>
        <time>2022-04-01T14:41:51Z</time>
      </trkpt>
      <trkpt lat="46.35931" lon="3.98389">
        <ele>242</ele>
        <time>2022-04-01T14:41:59Z</time>
      </trkpt>
      <trkpt lat="46.35929" lon="3.98354">
        <ele>242</ele>
        <time>2022-04-01T14:42:04Z</time>
      </trkpt>
      <trkpt lat="46.35928" lon="3.98344">
        <ele>242</ele>
        <time>2022-04-01T14:42:05Z</time>
      </trkpt>
      <trkpt lat="46.35951" lon="3.98342">
        <ele>242</ele>
        <time>2022-04-01T14:42:09Z</time>
      </trkpt>
      <trkpt lat="46.35973" lon="3.98344">
        <ele>242</ele>
        <time>2022-04-01T14:42:13Z</time>
      </trkpt>
      <trkpt lat="46.36014" lon="3.98361">
        <ele>241</ele>
        <time>2022-04-01T14:42:20Z</time>
      </trkpt>
      <trkpt lat="46.36076" lon="3.98418">
        <ele>242</ele>
        <time>2022-04-01T14:42:33Z</time>
      </trkpt>
      <trkpt lat="46.36095" lon="3.98432">
        <ele>242</ele>
        <time>2022-04-01T14:42:37Z</time>
      </trkpt>
      <trkpt lat="46.36113" lon="3.98436">
        <ele>242</ele>
        <time>2022-04-01T14:42:41Z</time>
      </trkpt>
      <trkpt lat="46.36189" lon="3.98435">
        <ele>242</ele>
        <time>2022-04-01T14:42:54Z</time>
      </trkpt>
      <trkpt lat="46.36247" lon="3.98437">
        <ele>242</ele>
        <time>2022-04-01T14:43:04Z</time>
      </trkpt>
      <trkpt lat="46.36293" lon="3.98443">
        <ele>242</ele>
        <time>2022-04-01T14:43:13Z</time>
      </trkpt>
      <trkpt lat="46.36351" lon="3.98447">
        <ele>242</ele>
        <time>2022-04-01T14:43:23Z</time>
      </trkpt>
      <trkpt lat="46.3639" lon="3.98443">
        <ele>242</ele>
        <time>2022-04-01T14:43:30Z</time>
      </trkpt>
      <trkpt lat="46.3642" lon="3.98436">
        <ele>242</ele>
        <time>2022-04-01T14:43:35Z</time>
      </trkpt>
      <trkpt lat="46.36499" lon="3.98391">
        <ele>241</ele>
        <time>2022-04-01T14:43:50Z</time>
      </trkpt>
      <trkpt lat="46.36529" lon="3.98382">
        <ele>242</ele>
        <time>2022-04-01T14:43:56Z</time>
      </trkpt>
      <trkpt lat="46.36683" lon="3.98355">
        <ele>242</ele>
        <time>2022-04-01T14:44:23Z</time>
      </trkpt>
      <trkpt lat="46.36884" lon="3.98303">
        <ele>244</ele>
        <time>2022-04-01T14:45:00Z</time>
      </trkpt>
      <trkpt lat="46.36914" lon="3.98304">
        <ele>244</ele>
        <time>2022-04-01T14:45:05Z</time>
      </trkpt>
      <trkpt lat="46.36958" lon="3.98318">
        <ele>244</ele>
        <time>2022-04-01T14:45:13Z</time>
      </trkpt>
      <trkpt lat="46.36987" lon="3.98331">
        <ele>244</ele>
        <time>2022-04-01T14:45:19Z</time>
      </trkpt>
      <trkpt lat="46.37034" lon="3.98337">
        <ele>244</ele>
        <time>2022-04-01T14:45:27Z</time>
      </trkpt>
      <trkpt lat="46.37059" lon="3.98327">
        <ele>243</ele>
        <time>2022-04-01T14:45:32Z</time>
      </trkpt>
      <trkpt lat="46.37158" lon="3.98261">
        <ele>243</ele>
        <time>2022-04-01T14:45:51Z</time>
      </trkpt>
      <trkpt lat="46.3719" lon="3.98229">
        <ele>243</ele>
        <time>2022-04-01T14:45:58Z</time>
      </trkpt>
      <trkpt lat="46.37215" lon="3.98196">
        <ele>244</ele>
        <time>2022-04-01T14:46:04Z</time>
      </trkpt>
      <trkpt lat="46.3723" lon="3.98181">
        <ele>244</ele>
        <time>2022-04-01T14:46:07Z</time>
      </trkpt>
      <trkpt lat="46.37339" lon="3.98086">
        <ele>241</ele>
        <time>2022-04-01T14:46:30Z</time>
      </trkpt>
      <trkpt lat="46.37367" lon="3.98059">
        <ele>241</ele>
        <time>2022-04-01T14:46:36Z</time>
      </trkpt>
      <trkpt lat="46.37473" lon="3.9793">
        <ele>242</ele>
        <time>2022-04-01T14:47:00Z</time>
      </trkpt>
      <trkpt lat="46.37498" lon="3.97906">
        <ele>242</ele>
        <time>2022-04-01T14:47:06Z</time>
      </trkpt>
      <trkpt lat="46.37522" lon="3.97895">
        <ele>242</ele>
        <time>2022-04-01T14:47:10Z</time>
      </trkpt>
      <trkpt lat="46.37586" lon="3.97896">
        <ele>242</ele>
        <time>2022-04-01T14:47:22Z</time>
      </trkpt>
      <trkpt lat="46.37646" lon="3.97894">
        <ele>243</ele>
        <time>2022-04-01T14:47:32Z</time>
      </trkpt>
      <trkpt lat="46.37728" lon="3.97883">
        <ele>242</ele>
        <time>2022-04-01T14:47:47Z</time>
      </trkpt>
      <trkpt lat="46.37783" lon="3.97866">
        <ele>242</ele>
        <time>2022-04-01T14:47:57Z</time>
      </trkpt>
      <trkpt lat="46.37856" lon="3.97858">
        <ele>241</ele>
        <time>2022-04-01T14:48:10Z</time>
      </trkpt>
      <trkpt lat="46.37888" lon="3.97849">
        <ele>242</ele>
        <time>2022-04-01T14:48:16Z</time>
      </trkpt>
      <trkpt lat="46.37944" lon="3.97823">
        <ele>242</ele>
        <time>2022-04-01T14:48:26Z</time>
      </trkpt>
      <trkpt lat="46.37956" lon="3.97823">
        <ele>242</ele>
        <time>2022-04-01T14:48:28Z</time>
      </trkpt>
      <trkpt lat="46.37995" lon="3.97829">
        <ele>243</ele>
        <time>2022-04-01T14:48:35Z</time>
      </trkpt>
      <trkpt lat="46.38108" lon="3.97761">
        <ele>242</ele>
        <time>2022-04-01T14:48:57Z</time>
      </trkpt>
      <trkpt lat="46.38427" lon="3.97633">
        <ele>240</ele>
        <time>2022-04-01T14:49:56Z</time>
      </trkpt>
      <trkpt lat="46.38446" lon="3.9761">
        <ele>240</ele>
        <time>2022-04-01T14:50:00Z</time>
      </trkpt>
      <trkpt lat="46.38458" lon="3.97576">
        <ele>240</ele>
        <time>2022-04-01T14:50:05Z</time>
      </trkpt>
      <trkpt lat="46.3847" lon="3.97513">
        <ele>241</ele>
        <time>2022-04-01T14:50:13Z</time>
      </trkpt>
      <trkpt lat="46.38476" lon="3.97502">
        <ele>241</ele>
        <time>2022-04-01T14:50:15Z</time>
      </trkpt>
      <trkpt lat="46.38488" lon="3.97497">
        <ele>241</ele>
        <time>2022-04-01T14:50:17Z</time>
      </trkpt>
      <trkpt lat="46.38507" lon="3.97498">
        <ele>241</ele>
        <time>2022-04-01T14:50:20Z</time>
      </trkpt>
      <trkpt lat="46.38539" lon="3.97506">
        <ele>241</ele>
        <time>2022-04-01T14:50:26Z</time>
      </trkpt>
      <trkpt lat="46.38666" lon="3.97582">
        <ele>240</ele>
        <time>2022-04-01T14:50:51Z</time>
      </trkpt>
      <trkpt lat="46.38692" lon="3.9759">
        <ele>240</ele>
        <time>2022-04-01T14:50:55Z</time>
      </trkpt>
      <trkpt lat="46.38741" lon="3.97597">
        <ele>241</ele>
        <time>2022-04-01T14:51:04Z</time>
      </trkpt>
      <trkpt lat="46.38759" lon="3.97606">
        <ele>241</ele>
        <time>2022-04-01T14:51:07Z</time>
      </trkpt>
      <trkpt lat="46.38855" lon="3.97681">
        <ele>241</ele>
        <time>2022-04-01T14:51:27Z</time>
      </trkpt>
      <trkpt lat="46.3888" lon="3.97689">
        <ele>241</ele>
        <time>2022-04-01T14:51:31Z</time>
      </trkpt>
      <trkpt lat="46.38931" lon="3.97695">
        <ele>241</ele>
        <time>2022-04-01T14:51:41Z</time>
      </trkpt>
      <trkpt lat="46.38969" lon="3.97697">
        <ele>241</ele>
        <time>2022-04-01T14:51:47Z</time>
      </trkpt>
      <trkpt lat="46.39024" lon="3.97689">
        <ele>241</ele>
        <time>2022-04-01T14:51:57Z</time>
      </trkpt>
      <trkpt lat="46.391" lon="3.97668">
        <ele>241</ele>
        <time>2022-04-01T14:52:11Z</time>
      </trkpt>
      <trkpt lat="46.39144" lon="3.97644">
        <ele>240</ele>
        <time>2022-04-01T14:52:19Z</time>
      </trkpt>
      <trkpt lat="46.3919" lon="3.97608">
        <ele>240</ele>
        <time>2022-04-01T14:52:29Z</time>
      </trkpt>
      <trkpt lat="46.39251" lon="3.97549">
        <ele>241</ele>
        <time>2022-04-01T14:52:42Z</time>
      </trkpt>
      <trkpt lat="46.39295" lon="3.97483">
        <ele>241</ele>
        <time>2022-04-01T14:52:53Z</time>
      </trkpt>
      <trkpt lat="46.39347" lon="3.9744">
        <ele>240</ele>
        <time>2022-04-01T14:53:04Z</time>
      </trkpt>
      <trkpt lat="46.39388" lon="3.97419">
        <ele>240</ele>
        <time>2022-04-01T14:53:11Z</time>
      </trkpt>
      <trkpt lat="46.39431" lon="3.97404">
        <ele>240</ele>
        <time>2022-04-01T14:53:19Z</time>
      </trkpt>
      <trkpt lat="46.39603" lon="3.97381">
        <ele>239</ele>
        <time>2022-04-01T14:53:50Z</time>
      </trkpt>
      <trkpt lat="46.39645" lon="3.9738">
        <ele>238</ele>
        <time>2022-04-01T14:53:57Z</time>
      </trkpt>
      <trkpt lat="46.39679" lon="3.97386">
        <ele>238</ele>
        <time>2022-04-01T14:54:03Z</time>
      </trkpt>
      <trkpt lat="46.39785" lon="3.97423">
        <ele>240</ele>
        <time>2022-04-01T14:54:23Z</time>
      </trkpt>
      <trkpt lat="46.39858" lon="3.97466">
        <ele>239</ele>
        <time>2022-04-01T14:54:37Z</time>
      </trkpt>
      <trkpt lat="46.39951" lon="3.97502">
        <ele>239</ele>
        <time>2022-04-01T14:54:54Z</time>
      </trkpt>
      <trkpt lat="46.40033" lon="3.97526">
        <ele>239</ele>
        <time>2022-04-01T14:55:09Z</time>
      </trkpt>
      <trkpt lat="46.40103" lon="3.97542">
        <ele>239</ele>
        <time>2022-04-01T14:55:21Z</time>
      </trkpt>
      <trkpt lat="46.40133" lon="3.97544">
        <ele>239</ele>
        <time>2022-04-01T14:55:27Z</time>
      </trkpt>
      <trkpt lat="46.40353" lon="3.97546">
        <ele>239</ele>
        <time>2022-04-01T14:56:06Z</time>
      </trkpt>
      <trkpt lat="46.40409" lon="3.97532">
        <ele>238</ele>
        <time>2022-04-01T14:56:16Z</time>
      </trkpt>
      <trkpt lat="46.4044" lon="3.97529">
        <ele>239</ele>
        <time>2022-04-01T14:56:22Z</time>
      </trkpt>
      <trkpt lat="46.40461" lon="3.97533">
        <ele>239</ele>
        <time>2022-04-01T14:56:25Z</time>
      </trkpt>
      <trkpt lat="46.40518" lon="3.97558">
        <ele>239</ele>
        <time>2022-04-01T14:56:36Z</time>
      </trkpt>
      <trkpt lat="46.40544" lon="3.97568">
        <ele>239</ele>
        <time>2022-04-01T14:56:41Z</time>
      </trkpt>
      <trkpt lat="46.40577" lon="3.97566">
        <ele>239</ele>
        <time>2022-04-01T14:56:47Z</time>
      </trkpt>
      <trkpt lat="46.40649" lon="3.97556">
        <ele>238</ele>
        <time>2022-04-01T14:57:00Z</time>
      </trkpt>
      <trkpt lat="46.4069" lon="3.97553">
        <ele>238</ele>
        <time>2022-04-01T14:57:07Z</time>
      </trkpt>
      <trkpt lat="46.40905" lon="3.9759">
        <ele>240</ele>
        <time>2022-04-01T14:57:45Z</time>
      </trkpt>
      <trkpt lat="46.41007" lon="3.97595">
        <ele>241</ele>
        <time>2022-04-01T14:58:04Z</time>
      </trkpt>
      <trkpt lat="46.41078" lon="3.97608">
        <ele>243</ele>
        <time>2022-04-01T14:58:16Z</time>
      </trkpt>
      <trkpt lat="46.4111" lon="3.97599">
        <ele>242</ele>
        <time>2022-04-01T14:58:22Z</time>
      </trkpt>
      <trkpt lat="46.41176" lon="3.97569">
        <ele>241</ele>
        <time>2022-04-01T14:58:34Z</time>
      </trkpt>
      <trkpt lat="46.41236" lon="3.97554">
        <ele>242</ele>
        <time>2022-04-01T14:58:45Z</time>
      </trkpt>
      <trkpt lat="46.41434" lon="3.97411">
        <ele>241</ele>
        <time>2022-04-01T14:59:25Z</time>
      </trkpt>
      <trkpt lat="46.41456" lon="3.97399">
        <ele>241</ele>
        <time>2022-04-01T14:59:29Z</time>
      </trkpt>
      <trkpt lat="46.41464" lon="3.9742">
        <ele>242</ele>
        <time>2022-04-01T14:59:32Z</time>
      </trkpt>
      <trkpt lat="46.41474" lon="3.97448">
        <ele>241</ele>
        <time>2022-04-01T14:59:36Z</time>
      </trkpt>
      <trkpt lat="46.41494" lon="3.97474">
        <ele>241</ele>
        <time>2022-04-01T14:59:40Z</time>
      </trkpt>
      <trkpt lat="46.41539" lon="3.97513">
        <ele>240</ele>
        <time>2022-04-01T14:59:50Z</time>
      </trkpt>
      <trkpt lat="46.41559" lon="3.97525">
        <ele>240</ele>
        <time>2022-04-01T14:59:53Z</time>
      </trkpt>
      <trkpt lat="46.41995" lon="3.97688">
        <ele>241</ele>
        <time>2022-04-01T15:01:14Z</time>
      </trkpt>
      <trkpt lat="46.42128" lon="3.97719">
        <ele>239</ele>
        <time>2022-04-01T15:01:38Z</time>
      </trkpt>
      <trkpt lat="46.42145" lon="3.97718">
        <ele>238</ele>
        <time>2022-04-01T15:01:41Z</time>
      </trkpt>
      <trkpt lat="46.42223" lon="3.97707">
        <ele>237</ele>
        <time>2022-04-01T15:01:55Z</time>
      </trkpt>
      <trkpt lat="46.4223" lon="3.97707">
        <ele>237</ele>
        <time>2022-04-01T15:01:56Z</time>
      </trkpt>
      <trkpt lat="46.42318" lon="3.97696">
        <ele>238</ele>
        <time>2022-04-01T15:02:11Z</time>
      </trkpt>
      <trkpt lat="46.42381" lon="3.97679">
        <ele>240</ele>
        <time>2022-04-01T15:02:23Z</time>
      </trkpt>
      <trkpt lat="46.42522" lon="3.97623">
        <ele>240</ele>
        <time>2022-04-01T15:02:49Z</time>
      </trkpt>
      <trkpt lat="46.42684" lon="3.97523">
        <ele>236</ele>
        <time>2022-04-01T15:03:20Z</time>
      </trkpt>
      <trkpt lat="46.42898" lon="3.97407">
        <ele>240</ele>
        <time>2022-04-01T15:04:01Z</time>
      </trkpt>
      <trkpt lat="46.42943" lon="3.97414">
        <ele>241</ele>
        <time>2022-04-01T15:04:09Z</time>
      </trkpt>
      <trkpt lat="46.43039" lon="3.97441">
        <ele>241</ele>
        <time>2022-04-01T15:04:26Z</time>
      </trkpt>
      <trkpt lat="46.43087" lon="3.97438">
        <ele>241</ele>
        <time>2022-04-01T15:04:35Z</time>
      </trkpt>
      <trkpt lat="46.43269" lon="3.97405">
        <ele>243</ele>
        <time>2022-04-01T15:05:08Z</time>
      </trkpt>
      <trkpt lat="46.43431" lon="3.97402">
        <ele>244</ele>
        <time>2022-04-01T15:05:36Z</time>
      </trkpt>
      <trkpt lat="46.43543" lon="3.97383">
        <ele>246</ele>
        <time>2022-04-01T15:05:56Z</time>
      </trkpt>
      <trkpt lat="46.43562" lon="3.97383">
        <ele>246</ele>
        <time>2022-04-01T15:06:00Z</time>
      </trkpt>
      <trkpt lat="46.43679" lon="3.974">
        <ele>247</ele>
        <time>2022-04-01T15:06:21Z</time>
      </trkpt>
      <trkpt lat="46.43726" lon="3.97396">
        <ele>246</ele>
        <time>2022-04-01T15:06:29Z</time>
      </trkpt>
      <trkpt lat="46.43781" lon="3.97388">
        <ele>244</ele>
        <time>2022-04-01T15:06:39Z</time>
      </trkpt>
      <trkpt lat="46.43882" lon="3.97397">
        <ele>243</ele>
        <time>2022-04-01T15:06:57Z</time>
      </trkpt>
      <trkpt lat="46.44004" lon="3.97428">
        <ele>243</ele>
        <time>2022-04-01T15:07:19Z</time>
      </trkpt>
      <trkpt lat="46.44194" lon="3.97468">
        <ele>243</ele>
        <time>2022-04-01T15:07:53Z</time>
      </trkpt>
      <trkpt lat="46.44246" lon="3.97455">
        <ele>241</ele>
        <time>2022-04-01T15:08:03Z</time>
      </trkpt>
      <trkpt lat="46.4439" lon="3.97345">
        <ele>236</ele>
        <time>2022-04-01T15:08:31Z</time>
      </trkpt>
      <trkpt lat="46.44478" lon="3.97291">
        <ele>235</ele>
        <time>2022-04-01T15:08:48Z</time>
      </trkpt>
      <trkpt lat="46.44603" lon="3.97223">
        <ele>235</ele>
        <time>2022-04-01T15:09:12Z</time>
      </trkpt>
      <trkpt lat="46.44702" lon="3.97157">
        <ele>234</ele>
        <time>2022-04-01T15:09:32Z</time>
      </trkpt>
      <trkpt lat="46.44714" lon="3.97152">
        <ele>233</ele>
        <time>2022-04-01T15:09:34Z</time>
      </trkpt>
      <trkpt lat="46.4473" lon="3.9713">
        <ele>233</ele>
        <time>2022-04-01T15:09:38Z</time>
      </trkpt>
      <trkpt lat="46.45052" lon="3.96887">
        <ele>232</ele>
        <time>2022-04-01T15:10:42Z</time>
      </trkpt>
      <trkpt lat="46.45141" lon="3.96815">
        <ele>232</ele>
        <time>2022-04-01T15:11:00Z</time>
      </trkpt>
      <trkpt lat="46.4516" lon="3.96794">
        <ele>232</ele>
        <time>2022-04-01T15:11:05Z</time>
      </trkpt>
      <trkpt lat="46.45184" lon="3.96723">
        <ele>233</ele>
        <time>2022-04-01T15:11:14Z</time>
      </trkpt>
      <trkpt lat="46.45203" lon="3.96708">
        <ele>233</ele>
        <time>2022-04-01T15:11:18Z</time>
      </trkpt>
      <trkpt lat="46.45292" lon="3.96668">
        <ele>232</ele>
        <time>2022-04-01T15:11:35Z</time>
      </trkpt>
      <trkpt lat="46.45288" lon="3.96644">
        <ele>233</ele>
        <time>2022-04-01T15:11:38Z</time>
      </trkpt>
      <trkpt lat="46.45283" lon="3.96622">
        <ele>233</ele>
        <time>2022-04-01T15:11:41Z</time>
      </trkpt>
      <trkpt lat="46.45282" lon="3.96611">
        <ele>233</ele>
        <time>2022-04-01T15:11:42Z</time>
      </trkpt>
      <trkpt lat="46.45284" lon="3.96605">
        <ele>233</ele>
        <time>2022-04-01T15:11:43Z</time>
      </trkpt>
      <trkpt lat="46.4529" lon="3.966">
        <ele>233</ele>
        <time>2022-04-01T15:11:44Z</time>
      </trkpt>
      <trkpt lat="46.45316" lon="3.9659">
        <ele>232</ele>
        <time>2022-04-01T15:11:49Z</time>
      </trkpt>
      <trkpt lat="46.45503" lon="3.96504">
        <ele>231</ele>
        <time>2022-04-01T15:12:24Z</time>
      </trkpt>
      <trkpt lat="46.45528" lon="3.96498">
        <ele>231</ele>
        <time>2022-04-01T15:12:28Z</time>
      </trkpt>
      <trkpt lat="46.45839" lon="3.96351">
        <ele>231</ele>
        <time>2022-04-01T15:13:26Z</time>
      </trkpt>
      <trkpt lat="46.4586" lon="3.96334">
        <ele>232</ele>
        <time>2022-04-01T15:13:31Z</time>
      </trkpt>
      <trkpt lat="46.46016" lon="3.96187">
        <ele>230</ele>
        <time>2022-04-01T15:14:04Z</time>
      </trkpt>
      <trkpt lat="46.46065" lon="3.96136">
        <ele>230</ele>
        <time>2022-04-01T15:14:15Z</time>
      </trkpt>
      <trkpt lat="46.4608" lon="3.96122">
        <ele>229</ele>
        <time>2022-04-01T15:14:18Z</time>
      </trkpt>
      <trkpt lat="46.46221" lon="3.95978">
        <ele>230</ele>
        <time>2022-04-01T15:14:48Z</time>
      </trkpt>
      <trkpt lat="46.46237" lon="3.95958">
        <ele>231</ele>
        <time>2022-04-01T15:14:52Z</time>
      </trkpt>
      <trkpt lat="46.46251" lon="3.95932">
        <ele>232</ele>
        <time>2022-04-01T15:14:56Z</time>
      </trkpt>
      <trkpt lat="46.46263" lon="3.95901">
        <ele>231</ele>
        <time>2022-04-01T15:15:01Z</time>
      </trkpt>
      <trkpt lat="46.4627" lon="3.95873">
        <ele>231</ele>
        <time>2022-04-01T15:15:04Z</time>
      </trkpt>
      <trkpt lat="46.46274" lon="3.95846">
        <ele>231</ele>
        <time>2022-04-01T15:15:08Z</time>
      </trkpt>
      <trkpt lat="46.46273" lon="3.9565">
        <ele>232</ele>
        <time>2022-04-01T15:15:32Z</time>
      </trkpt>
      <trkpt lat="46.46275" lon="3.95615">
        <ele>232</ele>
        <time>2022-04-01T15:15:36Z</time>
      </trkpt>
      <trkpt lat="46.4628" lon="3.95583">
        <ele>232</ele>
        <time>2022-04-01T15:15:40Z</time>
      </trkpt>
      <trkpt lat="46.46289" lon="3.95551">
        <ele>232</ele>
        <time>2022-04-01T15:15:44Z</time>
      </trkpt>
      <trkpt lat="46.46303" lon="3.95518">
        <ele>231</ele>
        <time>2022-04-01T15:15:49Z</time>
      </trkpt>
      <trkpt lat="46.46314" lon="3.95502">
        <ele>231</ele>
        <time>2022-04-01T15:15:52Z</time>
      </trkpt>
      <trkpt lat="46.46467" lon="3.95331">
        <ele>231</ele>
        <time>2022-04-01T15:16:26Z</time>
      </trkpt>
      <trkpt lat="46.46491" lon="3.95301">
        <ele>231</ele>
        <time>2022-04-01T15:16:32Z</time>
      </trkpt>
      <trkpt lat="46.46554" lon="3.9521">
        <ele>231</ele>
        <time>2022-04-01T15:16:48Z</time>
      </trkpt>
      <trkpt lat="46.4658" lon="3.95162">
        <ele>230</ele>
        <time>2022-04-01T15:16:55Z</time>
      </trkpt>
      <trkpt lat="46.46606" lon="3.95103">
        <ele>230</ele>
        <time>2022-04-01T15:17:04Z</time>
      </trkpt>
      <trkpt lat="46.46654" lon="3.94969">
        <ele>230</ele>
        <time>2022-04-01T15:17:22Z</time>
      </trkpt>
      <trkpt lat="46.46696" lon="3.9484">
        <ele>230</ele>
        <time>2022-04-01T15:17:40Z</time>
      </trkpt>
      <trkpt lat="46.46723" lon="3.94767">
        <ele>230</ele>
        <time>2022-04-01T15:17:50Z</time>
      </trkpt>
      <trkpt lat="46.46763" lon="3.94669">
        <ele>230</ele>
        <time>2022-04-01T15:18:04Z</time>
      </trkpt>
      <trkpt lat="46.46843" lon="3.94489">
        <ele>229</ele>
        <time>2022-04-01T15:18:30Z</time>
      </trkpt>
      <trkpt lat="46.46908" lon="3.94349">
        <ele>231</ele>
        <time>2022-04-01T15:18:51Z</time>
      </trkpt>
      <trkpt lat="46.46932" lon="3.94305">
        <ele>231</ele>
        <time>2022-04-01T15:18:58Z</time>
      </trkpt>
      <trkpt lat="46.46935" lon="3.94298">
        <ele>231</ele>
        <time>2022-04-01T15:18:59Z</time>
      </trkpt>
      <trkpt lat="46.46934" lon="3.94292">
        <ele>231</ele>
        <time>2022-04-01T15:18:59Z</time>
      </trkpt>
      <trkpt lat="46.46925" lon="3.94274">
        <ele>231</ele>
        <time>2022-04-01T15:19:02Z</time>
      </trkpt>
      <trkpt lat="46.46927" lon="3.94262">
        <ele>231</ele>
        <time>2022-04-01T15:19:04Z</time>
      </trkpt>
      <trkpt lat="46.46932" lon="3.94256">
        <ele>231</ele>
        <time>2022-04-01T15:19:05Z</time>
      </trkpt>
      <trkpt lat="46.46937" lon="3.94258">
        <ele>231</ele>
        <time>2022-04-01T15:19:06Z</time>
      </trkpt>
      <trkpt lat="46.46943" lon="3.94268">
        <ele>231</ele>
        <time>2022-04-01T15:19:07Z</time>
      </trkpt>
      <trkpt lat="46.46951" lon="3.94288">
        <ele>231</ele>
        <time>2022-04-01T15:19:10Z</time>
      </trkpt>
      <trkpt lat="46.46956" lon="3.94314">
        <ele>231</ele>
        <time>2022-04-01T15:19:13Z</time>
      </trkpt>
      <trkpt lat="46.46956" lon="3.94351">
        <ele>231</ele>
        <time>2022-04-01T15:19:18Z</time>
      </trkpt>
      <trkpt lat="46.46959" lon="3.9437">
        <ele>230</ele>
        <time>2022-04-01T15:19:20Z</time>
      </trkpt>
      <trkpt lat="46.46963" lon="3.94387">
        <ele>231</ele>
        <time>2022-04-01T15:19:23Z</time>
      </trkpt>
      <trkpt lat="46.46982" lon="3.9443">
        <ele>230</ele>
        <time>2022-04-01T15:19:29Z</time>
      </trkpt>
      <trkpt lat="46.46969" lon="3.94401">
        <ele>231</ele>
        <time>2022-04-01T15:19:33Z</time>
      </trkpt>
      <trkpt lat="46.46964" lon="3.94349">
        <ele>230</ele>
        <time>2022-04-01T15:19:39Z</time>
      </trkpt>
      <trkpt lat="46.46963" lon="3.94313">
        <ele>230</ele>
        <time>2022-04-01T15:19:44Z</time>
      </trkpt>
      <trkpt lat="46.46969" lon="3.94278">
        <ele>230</ele>
        <time>2022-04-01T15:19:48Z</time>
      </trkpt>
      <trkpt lat="46.46969" lon="3.94256">
        <ele>230</ele>
        <time>2022-04-01T15:19:51Z</time>
      </trkpt>
      <trkpt lat="46.46962" lon="3.94216">
        <ele>230</ele>
        <time>2022-04-01T15:19:56Z</time>
      </trkpt>
      <trkpt lat="46.46959" lon="3.94206">
        <ele>230</ele>
        <time>2022-04-01T15:19:57Z</time>
      </trkpt>
      <trkpt lat="46.46953" lon="3.94199">
        <ele>231</ele>
        <time>2022-04-01T15:19:59Z</time>
      </trkpt>
      <trkpt lat="46.46947" lon="3.94195">
        <ele>231</ele>
        <time>2022-04-01T15:20:00Z</time>
      </trkpt>
      <trkpt lat="46.46936" lon="3.94181">
        <ele>231</ele>
        <time>2022-04-01T15:20:03Z</time>
      </trkpt>
      <trkpt lat="46.46903" lon="3.94107">
        <ele>231</ele>
        <time>2022-04-01T15:20:13Z</time>
      </trkpt>
      <trkpt lat="46.46889" lon="3.94085">
        <ele>231</ele>
        <time>2022-04-01T15:20:17Z</time>
      </trkpt>
      <trkpt lat="46.46886" lon="3.94081">
        <ele>231</ele>
        <time>2022-04-01T15:20:18Z</time>
      </trkpt>
      <trkpt lat="46.46859" lon="3.94042">
        <ele>231</ele>
        <time>2022-04-01T15:20:24Z</time>
      </trkpt>
      <trkpt lat="46.46805" lon="3.93953">
        <ele>232</ele>
        <time>2022-04-01T15:20:39Z</time>
      </trkpt>
      <trkpt lat="46.46709" lon="3.93775">
        <ele>235</ele>
        <time>2022-04-01T15:21:07Z</time>
      </trkpt>
      <trkpt lat="46.46698" lon="3.93762">
        <ele>236</ele>
        <time>2022-04-01T15:21:09Z</time>
      </trkpt>
      <trkpt lat="46.46652" lon="3.93735">
        <ele>239</ele>
        <time>2022-04-01T15:21:18Z</time>
      </trkpt>
      <trkpt lat="46.4664" lon="3.93726">
        <ele>239</ele>
        <time>2022-04-01T15:21:20Z</time>
      </trkpt>
      <trkpt lat="46.46624" lon="3.93706">
        <ele>239</ele>
        <time>2022-04-01T15:21:24Z</time>
      </trkpt>
      <trkpt lat="46.46476" lon="3.93488">
        <ele>238</ele>
        <time>2022-04-01T15:22:02Z</time>
      </trkpt>
      <trkpt lat="46.46461" lon="3.93472">
        <ele>238</ele>
        <time>2022-04-01T15:22:05Z</time>
      </trkpt>
      <trkpt lat="46.46445" lon="3.93461">
        <ele>237</ele>
        <time>2022-04-01T15:22:08Z</time>
      </trkpt>
      <trkpt lat="46.46425" lon="3.93453">
        <ele>236</ele>
        <time>2022-04-01T15:22:12Z</time>
      </trkpt>
      <trkpt lat="46.46408" lon="3.93452">
        <ele>235</ele>
        <time>2022-04-01T15:22:15Z</time>
      </trkpt>
      <trkpt lat="46.46371" lon="3.93459">
        <ele>234</ele>
        <time>2022-04-01T15:22:22Z</time>
      </trkpt>
      <trkpt lat="46.46346" lon="3.93456">
        <ele>233</ele>
        <time>2022-04-01T15:22:26Z</time>
      </trkpt>
      <trkpt lat="46.46332" lon="3.93449">
        <ele>233</ele>
        <time>2022-04-01T15:22:29Z</time>
      </trkpt>
      <trkpt lat="46.46315" lon="3.93433">
        <ele>231</ele>
        <time>2022-04-01T15:22:32Z</time>
      </trkpt>
      <trkpt lat="46.46255" lon="3.93358">
        <ele>229</ele>
        <time>2022-04-01T15:22:46Z</time>
      </trkpt>
      <trkpt lat="46.46218" lon="3.93316">
        <ele>230</ele>
        <time>2022-04-01T15:22:55Z</time>
      </trkpt>
      <trkpt lat="46.46174" lon="3.93277">
        <ele>230</ele>
        <time>2022-04-01T15:23:04Z</time>
      </trkpt>
      <trkpt lat="46.4607" lon="3.9319">
        <ele>230</ele>
        <time>2022-04-01T15:23:25Z</time>
      </trkpt>
      <trkpt lat="46.46049" lon="3.93175">
        <ele>230</ele>
        <time>2022-04-01T15:23:29Z</time>
      </trkpt>
      <trkpt lat="46.46016" lon="3.93157">
        <ele>231</ele>
        <time>2022-04-01T15:23:36Z</time>
      </trkpt>
      <trkpt lat="46.4597" lon="3.93143">
        <ele>231</ele>
        <time>2022-04-01T15:23:44Z</time>
      </trkpt>
      <trkpt lat="46.45951" lon="3.93134">
        <ele>231</ele>
        <time>2022-04-01T15:23:48Z</time>
      </trkpt>
      <trkpt lat="46.45929" lon="3.93119">
        <ele>231</ele>
        <time>2022-04-01T15:23:52Z</time>
      </trkpt>
      <trkpt lat="46.45908" lon="3.93098">
        <ele>231</ele>
        <time>2022-04-01T15:23:56Z</time>
      </trkpt>
      <trkpt lat="46.4589" lon="3.93077">
        <ele>231</ele>
        <time>2022-04-01T15:24:01Z</time>
      </trkpt>
      <trkpt lat="46.45872" lon="3.93052">
        <ele>230</ele>
        <time>2022-04-01T15:24:05Z</time>
      </trkpt>
      <trkpt lat="46.45848" lon="3.93017">
        <ele>231</ele>
        <time>2022-04-01T15:24:11Z</time>
      </trkpt>
      <trkpt lat="46.45691" lon="3.9278">
        <ele>239</ele>
        <time>2022-04-01T15:24:51Z</time>
      </trkpt>
      <trkpt lat="46.45466" lon="3.92449">
        <ele>246</ele>
        <time>2022-04-01T15:25:48Z</time>
      </trkpt>
      <trkpt lat="46.45427" lon="3.92387">
        <ele>246</ele>
        <time>2022-04-01T15:25:59Z</time>
      </trkpt>
      <trkpt lat="46.454" lon="3.92334">
        <ele>248</ele>
        <time>2022-04-01T15:26:07Z</time>
      </trkpt>
      <trkpt lat="46.45382" lon="3.92291">
        <ele>249</ele>
        <time>2022-04-01T15:26:13Z</time>
      </trkpt>
      <trkpt lat="46.45367" lon="3.92249">
        <ele>251</ele>
        <time>2022-04-01T15:26:19Z</time>
      </trkpt>
      <trkpt lat="46.45351" lon="3.92194">
        <ele>253</ele>
        <time>2022-04-01T15:26:26Z</time>
      </trkpt>
      <trkpt lat="46.45343" lon="3.92159">
        <ele>255</ele>
        <time>2022-04-01T15:26:31Z</time>
      </trkpt>
      <trkpt lat="46.45333" lon="3.92107">
        <ele>256</ele>
        <time>2022-04-01T15:26:37Z</time>
      </trkpt>
      <trkpt lat="46.45272" lon="3.91604">
        <ele>269</ele>
        <time>2022-04-01T15:27:40Z</time>
      </trkpt>
      <trkpt lat="46.45277" lon="3.91601">
        <ele>269</ele>
        <time>2022-04-01T15:27:41Z</time>
      </trkpt>
      <trkpt lat="46.45285" lon="3.9159">
        <ele>269</ele>
        <time>2022-04-01T15:27:43Z</time>
      </trkpt>
      <trkpt lat="46.45286" lon="3.91574">
        <ele>270</ele>
        <time>2022-04-01T15:27:45Z</time>
      </trkpt>
      <trkpt lat="46.45281" lon="3.91561">
        <ele>269</ele>
        <time>2022-04-01T15:27:46Z</time>
      </trkpt>
      <trkpt lat="46.45278" lon="3.91557">
        <ele>269</ele>
        <time>2022-04-01T15:27:47Z</time>
      </trkpt>
      <trkpt lat="46.45269" lon="3.91553">
        <ele>269</ele>
        <time>2022-04-01T15:27:49Z</time>
      </trkpt>
      <trkpt lat="46.45265" lon="3.91554">
        <ele>270</ele>
        <time>2022-04-01T15:27:50Z</time>
      </trkpt>
      <trkpt lat="46.45246" lon="3.91565">
        <ele>270</ele>
        <time>2022-04-01T15:27:53Z</time>
      </trkpt>
      <trkpt lat="46.45225" lon="3.91573">
        <ele>270</ele>
        <time>2022-04-01T15:27:57Z</time>
      </trkpt>
      <trkpt lat="46.44997" lon="3.9154">
        <ele>271</ele>
        <time>2022-04-01T15:28:38Z</time>
      </trkpt>
      <trkpt lat="46.44742" lon="3.91523">
        <ele>272</ele>
        <time>2022-04-01T15:29:23Z</time>
      </trkpt>
      <trkpt lat="46.4471" lon="3.91519">
        <ele>272</ele>
        <time>2022-04-01T15:29:29Z</time>
      </trkpt>
      <trkpt lat="46.4468" lon="3.91513">
        <ele>272</ele>
        <time>2022-04-01T15:29:34Z</time>
      </trkpt>
      <trkpt lat="46.44648" lon="3.91504">
        <ele>273</ele>
        <time>2022-04-01T15:29:40Z</time>
      </trkpt>
      <trkpt lat="46.44605" lon="3.91489">
        <ele>274</ele>
        <time>2022-04-01T15:29:48Z</time>
      </trkpt>
      <trkpt lat="46.44551" lon="3.91462">
        <ele>275</ele>
        <time>2022-04-01T15:29:58Z</time>
      </trkpt>
      <trkpt lat="46.44499" lon="3.9143">
        <ele>274</ele>
        <time>2022-04-01T15:30:08Z</time>
      </trkpt>
      <trkpt lat="46.44169" lon="3.91198">
        <ele>278</ele>
        <time>2022-04-01T15:31:14Z</time>
      </trkpt>
      <trkpt lat="46.44111" lon="3.91155">
        <ele>283</ele>
        <time>2022-04-01T15:31:25Z</time>
      </trkpt>
      <trkpt lat="46.44024" lon="3.91073">
        <ele>284</ele>
        <time>2022-04-01T15:31:44Z</time>
      </trkpt>
      <trkpt lat="46.43783" lon="3.90834">
        <ele>285</ele>
        <time>2022-04-01T15:32:36Z</time>
      </trkpt>
      <trkpt lat="46.43746" lon="3.90802">
        <ele>284</ele>
        <time>2022-04-01T15:32:43Z</time>
      </trkpt>
      <trkpt lat="46.43697" lon="3.90768">
        <ele>286</ele>
        <time>2022-04-01T15:32:53Z</time>
      </trkpt>
      <trkpt lat="46.43643" lon="3.90742">
        <ele>286</ele>
        <time>2022-04-01T15:33:03Z</time>
      </trkpt>
      <trkpt lat="46.43612" lon="3.90731">
        <ele>286</ele>
        <time>2022-04-01T15:33:09Z</time>
      </trkpt>
      <trkpt lat="46.43581" lon="3.90723">
        <ele>286</ele>
        <time>2022-04-01T15:33:14Z</time>
      </trkpt>
      <trkpt lat="46.43525" lon="3.90718">
        <ele>283</ele>
        <time>2022-04-01T15:33:24Z</time>
      </trkpt>
      <trkpt lat="46.43499" lon="3.90719">
        <ele>281</ele>
        <time>2022-04-01T15:33:29Z</time>
      </trkpt>
      <trkpt lat="46.4344" lon="3.90729">
        <ele>280</ele>
        <time>2022-04-01T15:33:39Z</time>
      </trkpt>
      <trkpt lat="46.43379" lon="3.90752">
        <ele>280</ele>
        <time>2022-04-01T15:33:51Z</time>
      </trkpt>
      <trkpt lat="46.43348" lon="3.90769">
        <ele>281</ele>
        <time>2022-04-01T15:33:57Z</time>
      </trkpt>
      <trkpt lat="46.43313" lon="3.90791">
        <ele>281</ele>
        <time>2022-04-01T15:34:03Z</time>
      </trkpt>
      <trkpt lat="46.43237" lon="3.90844">
        <ele>282</ele>
        <time>2022-04-01T15:34:18Z</time>
      </trkpt>
      <trkpt lat="46.43162" lon="3.90899">
        <ele>280</ele>
        <time>2022-04-01T15:34:33Z</time>
      </trkpt>
      <trkpt lat="46.43126" lon="3.90921">
        <ele>281</ele>
        <time>2022-04-01T15:34:40Z</time>
      </trkpt>
      <trkpt lat="46.4309" lon="3.9094">
        <ele>283</ele>
        <time>2022-04-01T15:34:47Z</time>
      </trkpt>
      <trkpt lat="46.43065" lon="3.90952">
        <ele>283</ele>
        <time>2022-04-01T15:34:52Z</time>
      </trkpt>
      <trkpt lat="46.43037" lon="3.90961">
        <ele>283</ele>
        <time>2022-04-01T15:34:57Z</time>
      </trkpt>
      <trkpt lat="46.43012" lon="3.90966">
        <ele>283</ele>
        <time>2022-04-01T15:35:01Z</time>
      </trkpt>
      <trkpt lat="46.42963" lon="3.90971">
        <ele>282</ele>
        <time>2022-04-01T15:35:10Z</time>
      </trkpt>
      <trkpt lat="46.42933" lon="3.9097">
        <ele>282</ele>
        <time>2022-04-01T15:35:15Z</time>
      </trkpt>
      <trkpt lat="46.42899" lon="3.90964">
        <ele>281</ele>
        <time>2022-04-01T15:35:22Z</time>
      </trkpt>
      <trkpt lat="46.42869" lon="3.90956">
        <ele>280</ele>
        <time>2022-04-01T15:35:27Z</time>
      </trkpt>
      <trkpt lat="46.42831" lon="3.9094">
        <ele>279</ele>
        <time>2022-04-01T15:35:34Z</time>
      </trkpt>
      <trkpt lat="46.42312" lon="3.90682">
        <ele>286</ele>
        <time>2022-04-01T15:37:12Z</time>
      </trkpt>
      <trkpt lat="46.42275" lon="3.90668">
        <ele>287</ele>
        <time>2022-04-01T15:37:18Z</time>
      </trkpt>
      <trkpt lat="46.42246" lon="3.9066">
        <ele>288</ele>
        <time>2022-04-01T15:37:24Z</time>
      </trkpt>
      <trkpt lat="46.42222" lon="3.90655">
        <ele>288</ele>
        <time>2022-04-01T15:37:28Z</time>
      </trkpt>
      <trkpt lat="46.42194" lon="3.90652">
        <ele>288</ele>
        <time>2022-04-01T15:37:33Z</time>
      </trkpt>
      <trkpt lat="46.41971" lon="3.9066">
        <ele>290</ele>
        <time>2022-04-01T15:38:13Z</time>
      </trkpt>
      <trkpt lat="46.41928" lon="3.90658">
        <ele>290</ele>
        <time>2022-04-01T15:38:20Z</time>
      </trkpt>
      <trkpt lat="46.41668" lon="3.90629">
        <ele>291</ele>
        <time>2022-04-01T15:39:07Z</time>
      </trkpt>
      <trkpt lat="46.41332" lon="3.90578">
        <ele>292</ele>
        <time>2022-04-01T15:40:07Z</time>
      </trkpt>
      <trkpt lat="46.41299" lon="3.90569">
        <ele>292</ele>
        <time>2022-04-01T15:40:13Z</time>
      </trkpt>
      <trkpt lat="46.41174" lon="3.90525">
        <ele>294</ele>
        <time>2022-04-01T15:40:36Z</time>
      </trkpt>
      <trkpt lat="46.41057" lon="3.90488">
        <ele>296</ele>
        <time>2022-04-01T15:40:57Z</time>
      </trkpt>
      <trkpt lat="46.40989" lon="3.90461">
        <ele>295</ele>
        <time>2022-04-01T15:41:10Z</time>
      </trkpt>
      <trkpt lat="46.40939" lon="3.90431">
        <ele>293</ele>
        <time>2022-04-01T15:41:19Z</time>
      </trkpt>
      <trkpt lat="46.40896" lon="3.90397">
        <ele>292</ele>
        <time>2022-04-01T15:41:28Z</time>
      </trkpt>
      <trkpt lat="46.40871" lon="3.90374">
        <ele>292</ele>
        <time>2022-04-01T15:41:33Z</time>
      </trkpt>
      <trkpt lat="46.40118" lon="3.89553">
        <ele>294</ele>
        <time>2022-04-01T15:44:21Z</time>
      </trkpt>
      <trkpt lat="46.40059" lon="3.89494">
        <ele>291</ele>
        <time>2022-04-01T15:44:33Z</time>
      </trkpt>
      <trkpt lat="46.40001" lon="3.89445">
        <ele>287</ele>
        <time>2022-04-01T15:44:45Z</time>
      </trkpt>
      <trkpt lat="46.39942" lon="3.89402">
        <ele>286</ele>
        <time>2022-04-01T15:44:57Z</time>
      </trkpt>
      <trkpt lat="46.39872" lon="3.89364">
        <ele>285</ele>
        <time>2022-04-01T15:45:10Z</time>
      </trkpt>
      <trkpt lat="46.3981" lon="3.89337">
        <ele>284</ele>
        <time>2022-04-01T15:45:22Z</time>
      </trkpt>
      <trkpt lat="46.39744" lon="3.89313">
        <ele>281</ele>
        <time>2022-04-01T15:45:34Z</time>
      </trkpt>
      <trkpt lat="46.39454" lon="3.8922">
        <ele>281</ele>
        <time>2022-04-01T15:46:27Z</time>
      </trkpt>
      <trkpt lat="46.39385" lon="3.89191">
        <ele>283</ele>
        <time>2022-04-01T15:46:40Z</time>
      </trkpt>
      <trkpt lat="46.39314" lon="3.8915">
        <ele>284</ele>
        <time>2022-04-01T15:46:53Z</time>
      </trkpt>
      <trkpt lat="46.39261" lon="3.89115">
        <ele>286</ele>
        <time>2022-04-01T15:47:04Z</time>
      </trkpt>
      <trkpt lat="46.39226" lon="3.89087">
        <ele>287</ele>
        <time>2022-04-01T15:47:11Z</time>
      </trkpt>
      <trkpt lat="46.39191" lon="3.89056">
        <ele>287</ele>
        <time>2022-04-01T15:47:18Z</time>
      </trkpt>
      <trkpt lat="46.39111" lon="3.88973">
        <ele>289</ele>
        <time>2022-04-01T15:47:36Z</time>
      </trkpt>
      <trkpt lat="46.39077" lon="3.88932">
        <ele>291</ele>
        <time>2022-04-01T15:47:43Z</time>
      </trkpt>
      <trkpt lat="46.38416" lon="3.88007">
        <ele>305</ele>
        <time>2022-04-01T15:50:27Z</time>
      </trkpt>
      <trkpt lat="46.38302" lon="3.87874">
        <ele>306</ele>
        <time>2022-04-01T15:50:53Z</time>
      </trkpt>
      <trkpt lat="46.38032" lon="3.87547">
        <ele>298</ele>
        <time>2022-04-01T15:51:56Z</time>
      </trkpt>
      <trkpt lat="46.37978" lon="3.87471">
        <ele>297</ele>
        <time>2022-04-01T15:52:09Z</time>
      </trkpt>
      <trkpt lat="46.3792" lon="3.87383">
        <ele>295</ele>
        <time>2022-04-01T15:52:24Z</time>
      </trkpt>
      <trkpt lat="46.37566" lon="3.86713">
        <ele>299</ele>
        <time>2022-04-01T15:54:08Z</time>
      </trkpt>
      <trkpt lat="46.37516" lon="3.86632">
        <ele>301</ele>
        <time>2022-04-01T15:54:21Z</time>
      </trkpt>
      <trkpt lat="46.3748" lon="3.86579">
        <ele>302</ele>
        <time>2022-04-01T15:54:30Z</time>
      </trkpt>
      <trkpt lat="46.37026" lon="3.85967">
        <ele>293</ele>
        <time>2022-04-01T15:56:20Z</time>
      </trkpt>
      <trkpt lat="46.36944" lon="3.85852">
        <ele>291</ele>
        <time>2022-04-01T15:56:41Z</time>
      </trkpt>
      <trkpt lat="46.36903" lon="3.85784">
        <ele>290</ele>
        <time>2022-04-01T15:56:52Z</time>
      </trkpt>
      <trkpt lat="46.36879" lon="3.85726">
        <ele>290</ele>
        <time>2022-04-01T15:57:00Z</time>
      </trkpt>
      <trkpt lat="46.36857" lon="3.85654">
        <ele>291</ele>
        <time>2022-04-01T15:57:10Z</time>
      </trkpt>
      <trkpt lat="46.36839" lon="3.85578">
        <ele>293</ele>
        <time>2022-04-01T15:57:20Z</time>
      </trkpt>
      <trkpt lat="46.36729" lon="3.84952">
        <ele>304</ele>
        <time>2022-04-01T15:58:39Z</time>
      </trkpt>
      <trkpt lat="46.36663" lon="3.84565">
        <ele>306</ele>
        <time>2022-04-01T15:59:28Z</time>
      </trkpt>
      <trkpt lat="46.36645" lon="3.84481">
        <ele>305</ele>
        <time>2022-04-01T15:59:39Z</time>
      </trkpt>
      <trkpt lat="46.36626" lon="3.84414">
        <ele>305</ele>
        <time>2022-04-01T15:59:47Z</time>
      </trkpt>
      <trkpt lat="46.36509" lon="3.84045">
        <ele>309</ele>
        <time>2022-04-01T16:00:37Z</time>
      </trkpt>
      <trkpt lat="46.36486" lon="3.83954">
        <ele>310</ele>
        <time>2022-04-01T16:00:49Z</time>
      </trkpt>
      <trkpt lat="46.36464" lon="3.83834">
        <ele>310</ele>
        <time>2022-04-01T16:01:04Z</time>
      </trkpt>
      <trkpt lat="46.36384" lon="3.83353">
        <ele>297</ele>
        <time>2022-04-01T16:02:05Z</time>
      </trkpt>
      <trkpt lat="46.36281" lon="3.82695">
        <ele>284</ele>
        <time>2022-04-01T16:03:28Z</time>
      </trkpt>
      <trkpt lat="46.36257" lon="3.82578">
        <ele>287</ele>
        <time>2022-04-01T16:03:43Z</time>
      </trkpt>
      <trkpt lat="46.36224" lon="3.82457">
        <ele>286</ele>
        <time>2022-04-01T16:03:59Z</time>
      </trkpt>
      <trkpt lat="46.36204" lon="3.82398">
        <ele>285</ele>
        <time>2022-04-01T16:04:07Z</time>
      </trkpt>
      <trkpt lat="46.36179" lon="3.82334">
        <ele>286</ele>
        <time>2022-04-01T16:04:16Z</time>
      </trkpt>
      <trkpt lat="46.3614" lon="3.82245">
        <ele>286</ele>
        <time>2022-04-01T16:04:29Z</time>
      </trkpt>
      <trkpt lat="46.36036" lon="3.82055">
        <ele>290</ele>
        <time>2022-04-01T16:04:59Z</time>
      </trkpt>
      <trkpt lat="46.35967" lon="3.81934">
        <ele>292</ele>
        <time>2022-04-01T16:05:18Z</time>
      </trkpt>
      <trkpt lat="46.35892" lon="3.8181">
        <ele>293</ele>
        <time>2022-04-01T16:05:38Z</time>
      </trkpt>
      <trkpt lat="46.35849" lon="3.8175">
        <ele>293</ele>
        <time>2022-04-01T16:05:49Z</time>
      </trkpt>
      <trkpt lat="46.35777" lon="3.8166">
        <ele>287</ele>
        <time>2022-04-01T16:06:06Z</time>
      </trkpt>
      <trkpt lat="46.35651" lon="3.81518">
        <ele>283</ele>
        <time>2022-04-01T16:06:34Z</time>
      </trkpt>
      <trkpt lat="46.3557" lon="3.81431">
        <ele>288</ele>
        <time>2022-04-01T16:06:52Z</time>
      </trkpt>
      <trkpt lat="46.35529" lon="3.81381">
        <ele>291</ele>
        <time>2022-04-01T16:07:02Z</time>
      </trkpt>
      <trkpt lat="46.35482" lon="3.81318">
        <ele>289</ele>
        <time>2022-04-01T16:07:13Z</time>
      </trkpt>
      <trkpt lat="46.35242" lon="3.80977">
        <ele>293</ele>
        <time>2022-04-01T16:08:13Z</time>
      </trkpt>
      <trkpt lat="46.35208" lon="3.80915">
        <ele>290</ele>
        <time>2022-04-01T16:08:23Z</time>
      </trkpt>
      <trkpt lat="46.35184" lon="3.80859">
        <ele>289</ele>
        <time>2022-04-01T16:08:31Z</time>
      </trkpt>
      <trkpt lat="46.35171" lon="3.80827">
        <ele>289</ele>
        <time>2022-04-01T16:08:35Z</time>
      </trkpt>
      <trkpt lat="46.35162" lon="3.80797">
        <ele>289</ele>
        <time>2022-04-01T16:08:39Z</time>
      </trkpt>
      <trkpt lat="46.35149" lon="3.80751">
        <ele>289</ele>
        <time>2022-04-01T16:08:46Z</time>
      </trkpt>
      <trkpt lat="46.3514" lon="3.8071">
        <ele>292</ele>
        <time>2022-04-01T16:08:51Z</time>
      </trkpt>
      <trkpt lat="46.35132" lon="3.80658">
        <ele>293</ele>
        <time>2022-04-01T16:08:57Z</time>
      </trkpt>
      <trkpt lat="46.35126" lon="3.80605">
        <ele>293</ele>
        <time>2022-04-01T16:09:04Z</time>
      </trkpt>
      <trkpt lat="46.35102" lon="3.8014">
        <ele>295</ele>
        <time>2022-04-01T16:10:01Z</time>
      </trkpt>
      <trkpt lat="46.35087" lon="3.80036">
        <ele>293</ele>
        <time>2022-04-01T16:10:14Z</time>
      </trkpt>
      <trkpt lat="46.35066" lon="3.79956">
        <ele>293</ele>
        <time>2022-04-01T16:10:25Z</time>
      </trkpt>
      <trkpt lat="46.35051" lon="3.79887">
        <ele>294</ele>
        <time>2022-04-01T16:10:34Z</time>
      </trkpt>
      <trkpt lat="46.35034" lon="3.79801">
        <ele>294</ele>
        <time>2022-04-01T16:10:45Z</time>
      </trkpt>
      <trkpt lat="46.35029" lon="3.79747">
        <ele>294</ele>
        <time>2022-04-01T16:10:51Z</time>
      </trkpt>
      <trkpt lat="46.35028" lon="3.79674">
        <ele>292</ele>
        <time>2022-04-01T16:11:00Z</time>
      </trkpt>
      <trkpt lat="46.3503" lon="3.79655">
        <ele>292</ele>
        <time>2022-04-01T16:11:03Z</time>
      </trkpt>
      <trkpt lat="46.35052" lon="3.79564">
        <ele>293</ele>
        <time>2022-04-01T16:11:14Z</time>
      </trkpt>
      <trkpt lat="46.35057" lon="3.79524">
        <ele>293</ele>
        <time>2022-04-01T16:11:19Z</time>
      </trkpt>
      <trkpt lat="46.35048" lon="3.7936">
        <ele>294</ele>
        <time>2022-04-01T16:11:40Z</time>
      </trkpt>
      <trkpt lat="46.35053" lon="3.79357">
        <ele>294</ele>
        <time>2022-04-01T16:11:41Z</time>
      </trkpt>
      <trkpt lat="46.3506" lon="3.79349">
        <ele>294</ele>
        <time>2022-04-01T16:11:42Z</time>
      </trkpt>
      <trkpt lat="46.35064" lon="3.7934">
        <ele>294</ele>
        <time>2022-04-01T16:11:44Z</time>
      </trkpt>
      <trkpt lat="46.35066" lon="3.79297">
        <ele>294</ele>
        <time>2022-04-01T16:11:49Z</time>
      </trkpt>
      <trkpt lat="46.35073" lon="3.79267">
        <ele>293</ele>
        <time>2022-04-01T16:11:53Z</time>
      </trkpt>
      <trkpt lat="46.35098" lon="3.79216">
        <ele>294</ele>
        <time>2022-04-01T16:12:00Z</time>
      </trkpt>
      <trkpt lat="46.35107" lon="3.79186">
        <ele>294</ele>
        <time>2022-04-01T16:12:04Z</time>
      </trkpt>
      <trkpt lat="46.35121" lon="3.79153">
        <ele>294</ele>
        <time>2022-04-01T16:12:09Z</time>
      </trkpt>
      <trkpt lat="46.35167" lon="3.79074">
        <ele>293</ele>
        <time>2022-04-01T16:12:22Z</time>
      </trkpt>
      <trkpt lat="46.35188" lon="3.79031">
        <ele>296</ele>
        <time>2022-04-01T16:12:28Z</time>
      </trkpt>
      <trkpt lat="46.35198" lon="3.78996">
        <ele>297</ele>
        <time>2022-04-01T16:12:33Z</time>
      </trkpt>
      <trkpt lat="46.35233" lon="3.78729">
        <ele>298</ele>
        <time>2022-04-01T16:13:06Z</time>
      </trkpt>
      <trkpt lat="46.35243" lon="3.78687">
        <ele>299</ele>
        <time>2022-04-01T16:13:12Z</time>
      </trkpt>
      <trkpt lat="46.35256" lon="3.78648">
        <ele>300</ele>
        <time>2022-04-01T16:13:17Z</time>
      </trkpt>
      <trkpt lat="46.35281" lon="3.78606">
        <ele>303</ele>
        <time>2022-04-01T16:13:24Z</time>
      </trkpt>
      <trkpt lat="46.35528" lon="3.78244">
        <ele>322</ele>
        <time>2022-04-01T16:14:26Z</time>
      </trkpt>
      <trkpt lat="46.35608" lon="3.78123">
        <ele>333</ele>
        <time>2022-04-01T16:14:47Z</time>
      </trkpt>
      <trkpt lat="46.35625" lon="3.78103">
        <ele>333</ele>
        <time>2022-04-01T16:14:51Z</time>
      </trkpt>
      <trkpt lat="46.35643" lon="3.78086">
        <ele>333</ele>
        <time>2022-04-01T16:14:55Z</time>
      </trkpt>
      <trkpt lat="46.35694" lon="3.78047">
        <ele>332</ele>
        <time>2022-04-01T16:15:05Z</time>
      </trkpt>
      <trkpt lat="46.35698" lon="3.78054">
        <ele>332</ele>
        <time>2022-04-01T16:15:06Z</time>
      </trkpt>
      <trkpt lat="46.35703" lon="3.78058">
        <ele>332</ele>
        <time>2022-04-01T16:15:07Z</time>
      </trkpt>
      <trkpt lat="46.35712" lon="3.78057">
        <ele>332</ele>
        <time>2022-04-01T16:15:09Z</time>
      </trkpt>
      <trkpt lat="46.35717" lon="3.78049">
        <ele>331</ele>
        <time>2022-04-01T16:15:10Z</time>
      </trkpt>
      <trkpt lat="46.35719" lon="3.78037">
        <ele>331</ele>
        <time>2022-04-01T16:15:12Z</time>
      </trkpt>
      <trkpt lat="46.35717" lon="3.78029">
        <ele>331</ele>
        <time>2022-04-01T16:15:13Z</time>
      </trkpt>
      <trkpt lat="46.35712" lon="3.78023">
        <ele>332</ele>
        <time>2022-04-01T16:15:14Z</time>
      </trkpt>
      <trkpt lat="46.35706" lon="3.78021">
        <ele>332</ele>
        <time>2022-04-01T16:15:15Z</time>
      </trkpt>
      <trkpt lat="46.357" lon="3.78023">
        <ele>332</ele>
        <time>2022-04-01T16:15:16Z</time>
      </trkpt>
      <trkpt lat="46.35692" lon="3.77957">
        <ele>332</ele>
        <time>2022-04-01T16:15:24Z</time>
      </trkpt>
      <trkpt lat="46.35685" lon="3.77916">
        <ele>332</ele>
        <time>2022-04-01T16:15:29Z</time>
      </trkpt>
      <trkpt lat="46.35676" lon="3.77882">
        <ele>333</ele>
        <time>2022-04-01T16:15:34Z</time>
      </trkpt>
      <trkpt lat="46.3566" lon="3.77857">
        <ele>334</ele>
        <time>2022-04-01T16:15:38Z</time>
      </trkpt>
      <trkpt lat="46.35586" lon="3.77764">
        <ele>337</ele>
        <time>2022-04-01T16:15:56Z</time>
      </trkpt>
      <trkpt lat="46.35572" lon="3.77742">
        <ele>336</ele>
        <time>2022-04-01T16:15:59Z</time>
      </trkpt>
      <trkpt lat="46.35563" lon="3.77715">
        <ele>334</ele>
        <time>2022-04-01T16:16:03Z</time>
      </trkpt>
      <trkpt lat="46.35547" lon="3.77615">
        <ele>332</ele>
        <time>2022-04-01T16:16:15Z</time>
      </trkpt>
      <trkpt lat="46.35541" lon="3.77529">
        <ele>335</ele>
        <time>2022-04-01T16:16:26Z</time>
      </trkpt>
      <trkpt lat="46.35527" lon="3.77232">
        <ele>346</ele>
        <time>2022-04-01T16:17:03Z</time>
      </trkpt>
      <trkpt lat="46.3552" lon="3.77191">
        <ele>346</ele>
        <time>2022-04-01T16:17:08Z</time>
      </trkpt>
      <trkpt lat="46.35497" lon="3.7713">
        <ele>348</ele>
        <time>2022-04-01T16:17:16Z</time>
      </trkpt>
      <trkpt lat="46.35084" lon="3.76392">
        <ele>358</ele>
        <time>2022-04-01T16:19:13Z</time>
      </trkpt>
      <trkpt lat="46.35069" lon="3.7637">
        <ele>358</ele>
        <time>2022-04-01T16:19:17Z</time>
      </trkpt>
      <trkpt lat="46.35053" lon="3.76356">
        <ele>357</ele>
        <time>2022-04-01T16:19:20Z</time>
      </trkpt>
      <trkpt lat="46.35039" lon="3.76347">
        <ele>357</ele>
        <time>2022-04-01T16:19:23Z</time>
      </trkpt>
      <trkpt lat="46.34941" lon="3.76323">
        <ele>357</ele>
        <time>2022-04-01T16:19:41Z</time>
      </trkpt>
      <trkpt lat="46.34919" lon="3.76313">
        <ele>357</ele>
        <time>2022-04-01T16:19:45Z</time>
      </trkpt>
      <trkpt lat="46.34905" lon="3.76302">
        <ele>357</ele>
        <time>2022-04-01T16:19:48Z</time>
      </trkpt>
      <trkpt lat="46.34895" lon="3.76289">
        <ele>358</ele>
        <time>2022-04-01T16:19:50Z</time>
      </trkpt>
      <trkpt lat="46.34884" lon="3.76271">
        <ele>358</ele>
        <time>2022-04-01T16:19:53Z</time>
      </trkpt>
      <trkpt lat="46.34817" lon="3.76123">
        <ele>361</ele>
        <time>2022-04-01T16:20:15Z</time>
      </trkpt>
      <trkpt lat="46.34781" lon="3.76047">
        <ele>363</ele>
        <time>2022-04-01T16:20:26Z</time>
      </trkpt>
      <trkpt lat="46.34707" lon="3.75925">
        <ele>364</ele>
        <time>2022-04-01T16:20:46Z</time>
      </trkpt>
      <trkpt lat="46.34695" lon="3.75898">
        <ele>365</ele>
        <time>2022-04-01T16:20:50Z</time>
      </trkpt>
      <trkpt lat="46.34627" lon="3.75671">
        <ele>369</ele>
        <time>2022-04-01T16:21:20Z</time>
      </trkpt>
      <trkpt lat="46.34608" lon="3.75618">
        <ele>370</ele>
        <time>2022-04-01T16:21:28Z</time>
      </trkpt>
      <trkpt lat="46.34598" lon="3.75597">
        <ele>370</ele>
        <time>2022-04-01T16:21:31Z</time>
      </trkpt>
      <trkpt lat="46.34028" lon="3.74783">
        <ele>382</ele>
        <time>2022-04-01T16:23:53Z</time>
      </trkpt>
      <trkpt lat="46.3389" lon="3.74591">
        <ele>386</ele>
        <time>2022-04-01T16:24:27Z</time>
      </trkpt>
      <trkpt lat="46.33878" lon="3.7457">
        <ele>386</ele>
        <time>2022-04-01T16:24:30Z</time>
      </trkpt>
      <trkpt lat="46.33863" lon="3.74536">
        <ele>387</ele>
        <time>2022-04-01T16:24:35Z</time>
      </trkpt>
      <trkpt lat="46.33823" lon="3.74555">
        <ele>387</ele>
        <time>2022-04-01T16:24:43Z</time>
      </trkpt>
      <trkpt lat="46.33803" lon="3.74569">
        <ele>386</ele>
        <time>2022-04-01T16:24:47Z</time>
      </trkpt>
      <trkpt lat="46.33791" lon="3.74583">
        <ele>386</ele>
        <time>2022-04-01T16:24:50Z</time>
      </trkpt>
      <trkpt lat="46.33785" lon="3.74599">
        <ele>386</ele>
        <time>2022-04-01T16:24:52Z</time>
      </trkpt>
      <trkpt lat="46.33753" lon="3.7471">
        <ele>387</ele>
        <time>2022-04-01T16:25:07Z</time>
      </trkpt>
      <trkpt lat="46.33739" lon="3.74746">
        <ele>388</ele>
        <time>2022-04-01T16:25:12Z</time>
      </trkpt>
      <trkpt lat="46.33664" lon="3.74877">
        <ele>394</ele>
        <time>2022-04-01T16:25:33Z</time>
      </trkpt>
      <trkpt lat="46.33641" lon="3.74906">
        <ele>397</ele>
        <time>2022-04-01T16:25:38Z</time>
      </trkpt>
      <trkpt lat="46.33627" lon="3.74916">
        <ele>398</ele>
        <time>2022-04-01T16:25:41Z</time>
      </trkpt>
      <trkpt lat="46.33611" lon="3.7492">
        <ele>399</ele>
        <time>2022-04-01T16:25:44Z</time>
      </trkpt>
      <trkpt lat="46.33597" lon="3.74922">
        <ele>400</ele>
        <time>2022-04-01T16:25:46Z</time>
      </trkpt>
      <trkpt lat="46.33582" lon="3.74919">
        <ele>401</ele>
        <time>2022-04-01T16:25:49Z</time>
      </trkpt>
      <trkpt lat="46.33563" lon="3.74909">
        <ele>401</ele>
        <time>2022-04-01T16:25:53Z</time>
      </trkpt>
      <trkpt lat="46.3314" lon="3.74582">
        <ele>423</ele>
        <time>2022-04-01T16:27:18Z</time>
      </trkpt>
      <trkpt lat="46.32984" lon="3.74448">
        <ele>429</ele>
        <time>2022-04-01T16:27:50Z</time>
      </trkpt>
      <trkpt lat="46.32974" lon="3.74441">
        <ele>429</ele>
        <time>2022-04-01T16:27:52Z</time>
      </trkpt>
      <trkpt lat="46.3296" lon="3.74438">
        <ele>430</ele>
        <time>2022-04-01T16:27:55Z</time>
      </trkpt>
      <trkpt lat="46.32946" lon="3.74438">
        <ele>430</ele>
        <time>2022-04-01T16:27:57Z</time>
      </trkpt>
      <trkpt lat="46.32933" lon="3.74444">
        <ele>431</ele>
        <time>2022-04-01T16:28:00Z</time>
      </trkpt>
      <trkpt lat="46.3292" lon="3.74453">
        <ele>431</ele>
        <time>2022-04-01T16:28:02Z</time>
      </trkpt>
      <trkpt lat="46.32854" lon="3.74514">
        <ele>435</ele>
        <time>2022-04-01T16:28:16Z</time>
      </trkpt>
      <trkpt lat="46.3283" lon="3.74533">
        <ele>437</ele>
        <time>2022-04-01T16:28:21Z</time>
      </trkpt>
      <trkpt lat="46.32762" lon="3.74573">
        <ele>439</ele>
        <time>2022-04-01T16:28:34Z</time>
      </trkpt>
      <trkpt lat="46.32746" lon="3.74581">
        <ele>439</ele>
        <time>2022-04-01T16:28:37Z</time>
      </trkpt>
      <trkpt lat="46.32734" lon="3.74585">
        <ele>439</ele>
        <time>2022-04-01T16:28:39Z</time>
      </trkpt>
      <trkpt lat="46.32724" lon="3.74585">
        <ele>439</ele>
        <time>2022-04-01T16:28:41Z</time>
      </trkpt>
      <trkpt lat="46.32713" lon="3.74582">
        <ele>440</ele>
        <time>2022-04-01T16:28:43Z</time>
      </trkpt>
      <trkpt lat="46.32702" lon="3.74575">
        <ele>440</ele>
        <time>2022-04-01T16:28:45Z</time>
      </trkpt>
      <trkpt lat="46.32653" lon="3.7453">
        <ele>443</ele>
        <time>2022-04-01T16:28:55Z</time>
      </trkpt>
      <trkpt lat="46.3264" lon="3.7452">
        <ele>444</ele>
        <time>2022-04-01T16:28:58Z</time>
      </trkpt>
      <trkpt lat="46.32616" lon="3.74509">
        <ele>444</ele>
        <time>2022-04-01T16:29:02Z</time>
      </trkpt>
      <trkpt lat="46.32592" lon="3.74504">
        <ele>444</ele>
        <time>2022-04-01T16:29:07Z</time>
      </trkpt>
      <trkpt lat="46.32412" lon="3.74487">
        <ele>457</ele>
        <time>2022-04-01T16:29:39Z</time>
      </trkpt>
      <trkpt lat="46.32393" lon="3.74488">
        <ele>458</ele>
        <time>2022-04-01T16:29:42Z</time>
      </trkpt>
      <trkpt lat="46.32374" lon="3.74494">
        <ele>459</ele>
        <time>2022-04-01T16:29:46Z</time>
      </trkpt>
      <trkpt lat="46.32337" lon="3.74513">
        <ele>462</ele>
        <time>2022-04-01T16:29:53Z</time>
      </trkpt>
      <trkpt lat="46.32298" lon="3.74524">
        <ele>463</ele>
        <time>2022-04-01T16:30:00Z</time>
      </trkpt>
      <trkpt lat="46.32128" lon="3.74535">
        <ele>480</ele>
        <time>2022-04-01T16:30:30Z</time>
      </trkpt>
      <trkpt lat="46.32096" lon="3.74532">
        <ele>482</ele>
        <time>2022-04-01T16:30:36Z</time>
      </trkpt>
      <trkpt lat="46.32" lon="3.74503">
        <ele>481</ele>
        <time>2022-04-01T16:30:53Z</time>
      </trkpt>
      <trkpt lat="46.31925" lon="3.74483">
        <ele>483</ele>
        <time>2022-04-01T16:31:07Z</time>
      </trkpt>
      <trkpt lat="46.31888" lon="3.7448">
        <ele>484</ele>
        <time>2022-04-01T16:31:13Z</time>
      </trkpt>
      <trkpt lat="46.31826" lon="3.74485">
        <ele>488</ele>
        <time>2022-04-01T16:31:24Z</time>
      </trkpt>
      <trkpt lat="46.31739" lon="3.74495">
        <ele>495</ele>
        <time>2022-04-01T16:31:40Z</time>
      </trkpt>
      <trkpt lat="46.31696" lon="3.74507">
        <ele>493</ele>
        <time>2022-04-01T16:31:48Z</time>
      </trkpt>
      <trkpt lat="46.31664" lon="3.74518">
        <ele>493</ele>
        <time>2022-04-01T16:31:54Z</time>
      </trkpt>
      <trkpt lat="46.31618" lon="3.74543">
        <ele>490</ele>
        <time>2022-04-01T16:32:02Z</time>
      </trkpt>
      <trkpt lat="46.3157" lon="3.74579">
        <ele>487</ele>
        <time>2022-04-01T16:32:12Z</time>
      </trkpt>
      <trkpt lat="46.31506" lon="3.74648">
        <ele>484</ele>
        <time>2022-04-01T16:32:26Z</time>
      </trkpt>
      <trkpt lat="46.3144" lon="3.74698">
        <ele>480</ele>
        <time>2022-04-01T16:32:39Z</time>
      </trkpt>
      <trkpt lat="46.314" lon="3.74725">
        <ele>478</ele>
        <time>2022-04-01T16:32:47Z</time>
      </trkpt>
      <trkpt lat="46.31383" lon="3.74734">
        <ele>478</ele>
        <time>2022-04-01T16:32:50Z</time>
      </trkpt>
      <trkpt lat="46.31344" lon="3.74749">
        <ele>479</ele>
        <time>2022-04-01T16:32:58Z</time>
      </trkpt>
      <trkpt lat="46.31331" lon="3.74756">
        <ele>479</ele>
        <time>2022-04-01T16:33:00Z</time>
      </trkpt>
      <trkpt lat="46.31318" lon="3.74766">
        <ele>480</ele>
        <time>2022-04-01T16:33:03Z</time>
      </trkpt>
      <trkpt lat="46.31294" lon="3.74794">
        <ele>482</ele>
        <time>2022-04-01T16:33:08Z</time>
      </trkpt>
      <trkpt lat="46.31214" lon="3.74901">
        <ele>485</ele>
        <time>2022-04-01T16:33:28Z</time>
      </trkpt>
      <trkpt lat="46.31194" lon="3.74922">
        <ele>485</ele>
        <time>2022-04-01T16:33:32Z</time>
      </trkpt>
      <trkpt lat="46.31172" lon="3.74936">
        <ele>485</ele>
        <time>2022-04-01T16:33:36Z</time>
      </trkpt>
      <trkpt lat="46.31147" lon="3.74941">
        <ele>485</ele>
        <time>2022-04-01T16:33:41Z</time>
      </trkpt>
      <trkpt lat="46.31121" lon="3.74939">
        <ele>484</ele>
        <time>2022-04-01T16:33:45Z</time>
      </trkpt>
      <trkpt lat="46.30961" lon="3.74889">
        <ele>483</ele>
        <time>2022-04-01T16:34:15Z</time>
      </trkpt>
      <trkpt lat="46.30826" lon="3.74915">
        <ele>479</ele>
        <time>2022-04-01T16:34:39Z</time>
      </trkpt>
      <trkpt lat="46.30771" lon="3.7493">
        <ele>478</ele>
        <time>2022-04-01T16:34:49Z</time>
      </trkpt>
      <trkpt lat="46.30716" lon="3.74957">
        <ele>479</ele>
        <time>2022-04-01T16:34:59Z</time>
      </trkpt>
      <trkpt lat="46.30624" lon="3.74947">
        <ele>483</ele>
        <time>2022-04-01T16:35:15Z</time>
      </trkpt>
      <trkpt lat="46.30382" lon="3.74772">
        <ele>491</ele>
        <time>2022-04-01T16:36:04Z</time>
      </trkpt>
      <trkpt lat="46.30369" lon="3.74765">
        <ele>491</ele>
        <time>2022-04-01T16:36:06Z</time>
      </trkpt>
      <trkpt lat="46.30356" lon="3.74761">
        <ele>492</ele>
        <time>2022-04-01T16:36:08Z</time>
      </trkpt>
      <trkpt lat="46.30305" lon="3.74761">
        <ele>492</ele>
        <time>2022-04-01T16:36:18Z</time>
      </trkpt>
      <trkpt lat="46.30293" lon="3.74765">
        <ele>493</ele>
        <time>2022-04-01T16:36:20Z</time>
      </trkpt>
      <trkpt lat="46.30281" lon="3.74772">
        <ele>493</ele>
        <time>2022-04-01T16:36:22Z</time>
      </trkpt>
      <trkpt lat="46.30017" lon="3.7504">
        <ele>493</ele>
        <time>2022-04-01T16:37:19Z</time>
      </trkpt>
      <trkpt lat="46.30001" lon="3.75053">
        <ele>493</ele>
        <time>2022-04-01T16:37:23Z</time>
      </trkpt>
      <trkpt lat="46.29981" lon="3.75066">
        <ele>493</ele>
        <time>2022-04-01T16:37:27Z</time>
      </trkpt>
      <trkpt lat="46.29667" lon="3.7517">
        <ele>492</ele>
        <time>2022-04-01T16:38:24Z</time>
      </trkpt>
      <trkpt lat="46.29532" lon="3.75199">
        <ele>488</ele>
        <time>2022-04-01T16:38:48Z</time>
      </trkpt>
      <trkpt lat="46.29517" lon="3.75198">
        <ele>487</ele>
        <time>2022-04-01T16:38:51Z</time>
      </trkpt>
      <trkpt lat="46.29474" lon="3.7518">
        <ele>487</ele>
        <time>2022-04-01T16:38:59Z</time>
      </trkpt>
      <trkpt lat="46.2936" lon="3.75122">
        <ele>482</ele>
        <time>2022-04-01T16:39:20Z</time>
      </trkpt>
      <trkpt lat="46.29321" lon="3.75096">
        <ele>479</ele>
        <time>2022-04-01T16:39:28Z</time>
      </trkpt>
      <trkpt lat="46.29311" lon="3.75092">
        <ele>478</ele>
        <time>2022-04-01T16:39:30Z</time>
      </trkpt>
      <trkpt lat="46.29299" lon="3.75095">
        <ele>478</ele>
        <time>2022-04-01T16:39:32Z</time>
      </trkpt>
      <trkpt lat="46.29293" lon="3.75104">
        <ele>479</ele>
        <time>2022-04-01T16:39:33Z</time>
      </trkpt>
      <trkpt lat="46.29288" lon="3.75125">
        <ele>481</ele>
        <time>2022-04-01T16:39:36Z</time>
      </trkpt>
      <trkpt lat="46.29283" lon="3.75163">
        <ele>484</ele>
        <time>2022-04-01T16:39:41Z</time>
      </trkpt>
      <trkpt lat="46.29288" lon="3.7519">
        <ele>486</ele>
        <time>2022-04-01T16:39:44Z</time>
      </trkpt>
      <trkpt lat="46.29305" lon="3.75226">
        <ele>489</ele>
        <time>2022-04-01T16:39:50Z</time>
      </trkpt>
      <trkpt lat="46.29312" lon="3.75251">
        <ele>490</ele>
        <time>2022-04-01T16:39:53Z</time>
      </trkpt>
      <trkpt lat="46.29312" lon="3.75268">
        <ele>491</ele>
        <time>2022-04-01T16:39:55Z</time>
      </trkpt>
      <trkpt lat="46.29311" lon="3.7529">
        <ele>491</ele>
        <time>2022-04-01T16:39:58Z</time>
      </trkpt>
      <trkpt lat="46.29303" lon="3.75311">
        <ele>492</ele>
        <time>2022-04-01T16:40:01Z</time>
      </trkpt>
      <trkpt lat="46.29291" lon="3.75329">
        <ele>493</ele>
        <time>2022-04-01T16:40:04Z</time>
      </trkpt>
      <trkpt lat="46.29276" lon="3.7534">
        <ele>493</ele>
        <time>2022-04-01T16:40:07Z</time>
      </trkpt>
      <trkpt lat="46.29231" lon="3.75367">
        <ele>494</ele>
        <time>2022-04-01T16:40:16Z</time>
      </trkpt>
      <trkpt lat="46.2919" lon="3.75388">
        <ele>496</ele>
        <time>2022-04-01T16:40:23Z</time>
      </trkpt>
      <trkpt lat="46.29092" lon="3.75432">
        <ele>502</ele>
        <time>2022-04-01T16:40:42Z</time>
      </trkpt>
      <trkpt lat="46.29026" lon="3.75453">
        <ele>509</ele>
        <time>2022-04-01T16:40:54Z</time>
      </trkpt>
      <trkpt lat="46.28785" lon="3.75518">
        <ele>518</ele>
        <time>2022-04-01T16:41:37Z</time>
      </trkpt>
      <trkpt lat="46.28754" lon="3.75524">
        <ele>518</ele>
        <time>2022-04-01T16:41:43Z</time>
      </trkpt>
      <trkpt lat="46.2865" lon="3.75528">
        <ele>520</ele>
        <time>2022-04-01T16:42:01Z</time>
      </trkpt>
      <trkpt lat="46.286" lon="3.75532">
        <ele>521</ele>
        <time>2022-04-01T16:42:10Z</time>
      </trkpt>
      <trkpt lat="46.28537" lon="3.75541">
        <ele>520</ele>
        <time>2022-04-01T16:42:21Z</time>
      </trkpt>
      <trkpt lat="46.28511" lon="3.75548">
        <ele>519</ele>
        <time>2022-04-01T16:42:26Z</time>
      </trkpt>
      <trkpt lat="46.28491" lon="3.75559">
        <ele>519</ele>
        <time>2022-04-01T16:42:30Z</time>
      </trkpt>
      <trkpt lat="46.28475" lon="3.75573">
        <ele>519</ele>
        <time>2022-04-01T16:42:33Z</time>
      </trkpt>
      <trkpt lat="46.28432" lon="3.7562">
        <ele>520</ele>
        <time>2022-04-01T16:42:43Z</time>
      </trkpt>
      <trkpt lat="46.28369" lon="3.75671">
        <ele>522</ele>
        <time>2022-04-01T16:42:56Z</time>
      </trkpt>
      <trkpt lat="46.28326" lon="3.75711">
        <ele>524</ele>
        <time>2022-04-01T16:43:05Z</time>
      </trkpt>
      <trkpt lat="46.28264" lon="3.75788">
        <ele>526</ele>
        <time>2022-04-01T16:43:19Z</time>
      </trkpt>
      <trkpt lat="46.28229" lon="3.75839">
        <ele>524</ele>
        <time>2022-04-01T16:43:28Z</time>
      </trkpt>
      <trkpt lat="46.28078" lon="3.76098">
        <ele>511</ele>
        <time>2022-04-01T16:44:10Z</time>
      </trkpt>
      <trkpt lat="46.28058" lon="3.76121">
        <ele>512</ele>
        <time>2022-04-01T16:44:14Z</time>
      </trkpt>
      <trkpt lat="46.27964" lon="3.76188">
        <ele>511</ele>
        <time>2022-04-01T16:44:33Z</time>
      </trkpt>
      <trkpt lat="46.27795" lon="3.76313">
        <ele>512</ele>
        <time>2022-04-01T16:45:07Z</time>
      </trkpt>
      <trkpt lat="46.27689" lon="3.76377">
        <ele>518</ele>
        <time>2022-04-01T16:45:27Z</time>
      </trkpt>
      <trkpt lat="46.27643" lon="3.76402">
        <ele>523</ele>
        <time>2022-04-01T16:45:36Z</time>
      </trkpt>
      <trkpt lat="46.27605" lon="3.76416">
        <ele>527</ele>
        <time>2022-04-01T16:45:43Z</time>
      </trkpt>
      <trkpt lat="46.27553" lon="3.76422">
        <ele>529</ele>
        <time>2022-04-01T16:45:52Z</time>
      </trkpt>
      <trkpt lat="46.27466" lon="3.76418">
        <ele>523</ele>
        <time>2022-04-01T16:46:08Z</time>
      </trkpt>
      <trkpt lat="46.2744" lon="3.76423">
        <ele>521</ele>
        <time>2022-04-01T16:46:12Z</time>
      </trkpt>
      <trkpt lat="46.27417" lon="3.76433">
        <ele>520</ele>
        <time>2022-04-01T16:46:17Z</time>
      </trkpt>
      <trkpt lat="46.27372" lon="3.76463">
        <ele>516</ele>
        <time>2022-04-01T16:46:25Z</time>
      </trkpt>
      <trkpt lat="46.27335" lon="3.76501">
        <ele>512</ele>
        <time>2022-04-01T16:46:34Z</time>
      </trkpt>
      <trkpt lat="46.27319" lon="3.76527">
        <ele>510</ele>
        <time>2022-04-01T16:46:38Z</time>
      </trkpt>
      <trkpt lat="46.27302" lon="3.76564">
        <ele>508</ele>
        <time>2022-04-01T16:46:43Z</time>
      </trkpt>
      <trkpt lat="46.27282" lon="3.76639">
        <ele>503</ele>
        <time>2022-04-01T16:46:53Z</time>
      </trkpt>
      <trkpt lat="46.27271" lon="3.76689">
        <ele>500</ele>
        <time>2022-04-01T16:47:00Z</time>
      </trkpt>
      <trkpt lat="46.27269" lon="3.76714">
        <ele>498</ele>
        <time>2022-04-01T16:47:03Z</time>
      </trkpt>
      <trkpt lat="46.27271" lon="3.76744">
        <ele>498</ele>
        <time>2022-04-01T16:47:06Z</time>
      </trkpt>
      <trkpt lat="46.2728" lon="3.76817">
        <ele>495</ele>
        <time>2022-04-01T16:47:16Z</time>
      </trkpt>
      <trkpt lat="46.27281" lon="3.76854">
        <ele>494</ele>
        <time>2022-04-01T16:47:20Z</time>
      </trkpt>
      <trkpt lat="46.27276" lon="3.7688">
        <ele>492</ele>
        <time>2022-04-01T16:47:23Z</time>
      </trkpt>
      <trkpt lat="46.27266" lon="3.76901">
        <ele>490</ele>
        <time>2022-04-01T16:47:27Z</time>
      </trkpt>
      <trkpt lat="46.27192" lon="3.76992">
        <ele>481</ele>
        <time>2022-04-01T16:47:44Z</time>
      </trkpt>
      <trkpt lat="46.2718" lon="3.7701">
        <ele>480</ele>
        <time>2022-04-01T16:47:47Z</time>
      </trkpt>
      <trkpt lat="46.27121" lon="3.77123">
        <ele>476</ele>
        <time>2022-04-01T16:48:04Z</time>
      </trkpt>
      <trkpt lat="46.27081" lon="3.77186">
        <ele>474</ele>
        <time>2022-04-01T16:48:15Z</time>
      </trkpt>
      <trkpt lat="46.2701" lon="3.77277">
        <ele>472</ele>
        <time>2022-04-01T16:48:32Z</time>
      </trkpt>
      <trkpt lat="46.26848" lon="3.77475">
        <ele>468</ele>
        <time>2022-04-01T16:49:09Z</time>
      </trkpt>
      <trkpt lat="46.26783" lon="3.77541">
        <ele>465</ele>
        <time>2022-04-01T16:49:24Z</time>
      </trkpt>
      <trkpt lat="46.2676" lon="3.77561">
        <ele>464</ele>
        <time>2022-04-01T16:49:28Z</time>
      </trkpt>
      <trkpt lat="46.2675" lon="3.77568">
        <ele>464</ele>
        <time>2022-04-01T16:49:30Z</time>
      </trkpt>
      <trkpt lat="46.26739" lon="3.77571">
        <ele>463</ele>
        <time>2022-04-01T16:49:32Z</time>
      </trkpt>
      <trkpt lat="46.26732" lon="3.77568">
        <ele>463</ele>
        <time>2022-04-01T16:49:34Z</time>
      </trkpt>
      <trkpt lat="46.26696" lon="3.77654">
        <ele>460</ele>
        <time>2022-04-01T16:49:46Z</time>
      </trkpt>
      <trkpt lat="46.26668" lon="3.77687">
        <ele>460</ele>
        <time>2022-04-01T16:49:52Z</time>
      </trkpt>
      <trkpt lat="46.2658" lon="3.77767">
        <ele>461</ele>
        <time>2022-04-01T16:50:11Z</time>
      </trkpt>
      <trkpt lat="46.26455" lon="3.77891">
        <ele>455</ele>
        <time>2022-04-01T16:50:38Z</time>
      </trkpt>
      <trkpt lat="46.26434" lon="3.77916">
        <ele>454</ele>
        <time>2022-04-01T16:50:43Z</time>
      </trkpt>
      <trkpt lat="46.26309" lon="3.78202">
        <ele>448</ele>
        <time>2022-04-01T16:51:24Z</time>
      </trkpt>
      <trkpt lat="46.26294" lon="3.78241">
        <ele>449</ele>
        <time>2022-04-01T16:51:30Z</time>
      </trkpt>
      <trkpt lat="46.26285" lon="3.78274">
        <ele>450</ele>
        <time>2022-04-01T16:51:34Z</time>
      </trkpt>
      <trkpt lat="46.26275" lon="3.78341">
        <ele>449</ele>
        <time>2022-04-01T16:51:43Z</time>
      </trkpt>
      <trkpt lat="46.26221" lon="3.78757">
        <ele>437</ele>
        <time>2022-04-01T16:52:35Z</time>
      </trkpt>
      <trkpt lat="46.26221" lon="3.78786">
        <ele>435</ele>
        <time>2022-04-01T16:52:38Z</time>
      </trkpt>
      <trkpt lat="46.26223" lon="3.78816">
        <ele>434</ele>
        <time>2022-04-01T16:52:42Z</time>
      </trkpt>
      <trkpt lat="46.26342" lon="3.7937">
        <ele>417</ele>
        <time>2022-04-01T16:53:53Z</time>
      </trkpt>
      <trkpt lat="46.2636" lon="3.79419">
        <ele>415</ele>
        <time>2022-04-01T16:54:00Z</time>
      </trkpt>
      <trkpt lat="46.26449" lon="3.79595">
        <ele>411</ele>
        <time>2022-04-01T16:54:27Z</time>
      </trkpt>
      <trkpt lat="46.26464" lon="3.79613">
        <ele>411</ele>
        <time>2022-04-01T16:54:30Z</time>
      </trkpt>
      <trkpt lat="46.26995" lon="3.79948">
        <ele>413</ele>
        <time>2022-04-01T16:56:14Z</time>
      </trkpt>
      <trkpt lat="46.27004" lon="3.79963">
        <ele>413</ele>
        <time>2022-04-01T16:56:16Z</time>
      </trkpt>
      <trkpt lat="46.27013" lon="3.7999">
        <ele>412</ele>
        <time>2022-04-01T16:56:20Z</time>
      </trkpt>
      <trkpt lat="46.27021" lon="3.8002">
        <ele>411</ele>
        <time>2022-04-01T16:56:24Z</time>
      </trkpt>
      <trkpt lat="46.27026" lon="3.80054">
        <ele>409</ele>
        <time>2022-04-01T16:56:28Z</time>
      </trkpt>
      <trkpt lat="46.27027" lon="3.80074">
        <ele>408</ele>
        <time>2022-04-01T16:56:30Z</time>
      </trkpt>
      <trkpt lat="46.27032" lon="3.80092">
        <ele>408</ele>
        <time>2022-04-01T16:56:33Z</time>
      </trkpt>
      <trkpt lat="46.27034" lon="3.80099">
        <ele>407</ele>
        <time>2022-04-01T16:56:34Z</time>
      </trkpt>
      <trkpt lat="46.27041" lon="3.80113">
        <ele>407</ele>
        <time>2022-04-01T16:56:36Z</time>
      </trkpt>
      <trkpt lat="46.27045" lon="3.8013">
        <ele>406</ele>
        <time>2022-04-01T16:56:38Z</time>
      </trkpt>
      <trkpt lat="46.27034" lon="3.80162">
        <ele>403</ele>
        <time>2022-04-01T16:56:42Z</time>
      </trkpt>
      <trkpt lat="46.27003" lon="3.80224">
        <ele>398</ele>
        <time>2022-04-01T16:56:52Z</time>
      </trkpt>
      <trkpt lat="46.27" lon="3.80234">
        <ele>398</ele>
        <time>2022-04-01T16:56:53Z</time>
      </trkpt>
      <trkpt lat="46.26998" lon="3.80256">
        <ele>397</ele>
        <time>2022-04-01T16:56:56Z</time>
      </trkpt>
      <trkpt lat="46.27038" lon="3.80481">
        <ele>382</ele>
        <time>2022-04-01T16:57:24Z</time>
      </trkpt>
      <trkpt lat="46.27043" lon="3.80487">
        <ele>382</ele>
        <time>2022-04-01T16:57:26Z</time>
      </trkpt>
      <trkpt lat="46.27039" lon="3.80504">
        <ele>381</ele>
        <time>2022-04-01T16:57:28Z</time>
      </trkpt>
      <trkpt lat="46.27036" lon="3.80532">
        <ele>380</ele>
        <time>2022-04-01T16:57:31Z</time>
      </trkpt>
      <trkpt lat="46.27036" lon="3.80587">
        <ele>377</ele>
        <time>2022-04-01T16:57:38Z</time>
      </trkpt>
      <trkpt lat="46.27088" lon="3.81204">
        <ele>381</ele>
        <time>2022-04-01T16:58:55Z</time>
      </trkpt>
      <trkpt lat="46.27088" lon="3.81226">
        <ele>381</ele>
        <time>2022-04-01T16:58:57Z</time>
      </trkpt>
      <trkpt lat="46.27086" lon="3.81251">
        <ele>381</ele>
        <time>2022-04-01T16:59:00Z</time>
      </trkpt>
      <trkpt lat="46.27018" lon="3.81744">
        <ele>375</ele>
        <time>2022-04-01T17:00:02Z</time>
      </trkpt>
      <trkpt lat="46.26998" lon="3.81812">
        <ele>372</ele>
        <time>2022-04-01T17:00:11Z</time>
      </trkpt>
      <trkpt lat="46.26935" lon="3.81984">
        <ele>366</ele>
        <time>2022-04-01T17:00:35Z</time>
      </trkpt>
      <trkpt lat="46.26925" lon="3.82023">
        <ele>365</ele>
        <time>2022-04-01T17:00:40Z</time>
      </trkpt>
      <trkpt lat="46.26873" lon="3.8225">
        <ele>357</ele>
        <time>2022-04-01T17:01:10Z</time>
      </trkpt>
      <trkpt lat="46.26847" lon="3.82442">
        <ele>350</ele>
        <time>2022-04-01T17:01:34Z</time>
      </trkpt>
      <trkpt lat="46.26842" lon="3.82495">
        <ele>347</ele>
        <time>2022-04-01T17:01:40Z</time>
      </trkpt>
      <trkpt lat="46.26846" lon="3.82549">
        <ele>345</ele>
        <time>2022-04-01T17:01:47Z</time>
      </trkpt>
      <trkpt lat="46.26888" lon="3.83012">
        <ele>330</ele>
        <time>2022-04-01T17:02:44Z</time>
      </trkpt>
      <trkpt lat="46.26888" lon="3.83032">
        <ele>329</ele>
        <time>2022-04-01T17:02:47Z</time>
      </trkpt>
      <trkpt lat="46.26887" lon="3.83052">
        <ele>328</ele>
        <time>2022-04-01T17:02:49Z</time>
      </trkpt>
      <trkpt lat="46.26834" lon="3.83459">
        <ele>307</ele>
        <time>2022-04-01T17:03:40Z</time>
      </trkpt>
      <trkpt lat="46.26828" lon="3.8349">
        <ele>306</ele>
        <time>2022-04-01T17:03:44Z</time>
      </trkpt>
      <trkpt lat="46.26822" lon="3.83509">
        <ele>306</ele>
        <time>2022-04-01T17:03:47Z</time>
      </trkpt>
      <trkpt lat="46.26765" lon="3.83617">
        <ele>305</ele>
        <time>2022-04-01T17:04:04Z</time>
      </trkpt>
      <trkpt lat="46.26758" lon="3.8363">
        <ele>305</ele>
        <time>2022-04-01T17:04:06Z</time>
      </trkpt>
      <trkpt lat="46.26744" lon="3.83657">
        <ele>305</ele>
        <time>2022-04-01T17:04:10Z</time>
      </trkpt>
      <trkpt lat="46.26735" lon="3.83683">
        <ele>306</ele>
        <time>2022-04-01T17:04:13Z</time>
      </trkpt>
      <trkpt lat="46.26729" lon="3.83707">
        <ele>306</ele>
        <time>2022-04-01T17:04:16Z</time>
      </trkpt>
      <trkpt lat="46.26593" lon="3.84436">
        <ele>310</ele>
        <time>2022-04-01T17:05:49Z</time>
      </trkpt>
      <trkpt lat="46.26588" lon="3.84455">
        <ele>310</ele>
        <time>2022-04-01T17:05:52Z</time>
      </trkpt>
      <trkpt lat="46.26579" lon="3.84478">
        <ele>311</ele>
        <time>2022-04-01T17:05:55Z</time>
      </trkpt>
      <trkpt lat="46.2621" lon="3.85208">
        <ele>299</ele>
        <time>2022-04-01T17:07:46Z</time>
      </trkpt>
      <trkpt lat="46.26199" lon="3.8524">
        <ele>300</ele>
        <time>2022-04-01T17:07:51Z</time>
      </trkpt>
      <trkpt lat="46.26161" lon="3.85404">
        <ele>300</ele>
        <time>2022-04-01T17:08:12Z</time>
      </trkpt>
      <trkpt lat="46.26148" lon="3.85454">
        <ele>300</ele>
        <time>2022-04-01T17:08:19Z</time>
      </trkpt>
      <trkpt lat="46.26067" lon="3.85732">
        <ele>299</ele>
        <time>2022-04-01T17:08:56Z</time>
      </trkpt>
      <trkpt lat="46.2604" lon="3.8581">
        <ele>298</ele>
        <time>2022-04-01T17:09:06Z</time>
      </trkpt>
      <trkpt lat="46.25943" lon="3.86063">
        <ele>297</ele>
        <time>2022-04-01T17:09:42Z</time>
      </trkpt>
      <trkpt lat="46.25939" lon="3.86079">
        <ele>297</ele>
        <time>2022-04-01T17:09:44Z</time>
      </trkpt>
      <trkpt lat="46.25936" lon="3.86094">
        <ele>298</ele>
        <time>2022-04-01T17:09:46Z</time>
      </trkpt>
      <trkpt lat="46.25936" lon="3.86108">
        <ele>298</ele>
        <time>2022-04-01T17:09:48Z</time>
      </trkpt>
      <trkpt lat="46.25954" lon="3.86419">
        <ele>293</ele>
        <time>2022-04-01T17:10:26Z</time>
      </trkpt>
      <trkpt lat="46.25958" lon="3.86557">
        <ele>294</ele>
        <time>2022-04-01T17:10:43Z</time>
      </trkpt>
      <trkpt lat="46.25954" lon="3.86591">
        <ele>294</ele>
        <time>2022-04-01T17:10:47Z</time>
      </trkpt>
      <trkpt lat="46.25906" lon="3.86847">
        <ele>295</ele>
        <time>2022-04-01T17:11:20Z</time>
      </trkpt>
      <trkpt lat="46.25893" lon="3.86895">
        <ele>296</ele>
        <time>2022-04-01T17:11:26Z</time>
      </trkpt>
      <trkpt lat="46.25845" lon="3.87019">
        <ele>297</ele>
        <time>2022-04-01T17:11:44Z</time>
      </trkpt>
      <trkpt lat="46.25794" lon="3.87128">
        <ele>294</ele>
        <time>2022-04-01T17:12:00Z</time>
      </trkpt>
      <trkpt lat="46.25775" lon="3.8718">
        <ele>292</ele>
        <time>2022-04-01T17:12:07Z</time>
      </trkpt>
      <trkpt lat="46.25734" lon="3.87303">
        <ele>289</ele>
        <time>2022-04-01T17:12:24Z</time>
      </trkpt>
      <trkpt lat="46.25708" lon="3.87427">
        <ele>286</ele>
        <time>2022-04-01T17:12:40Z</time>
      </trkpt>
      <trkpt lat="46.25705" lon="3.87467">
        <ele>285</ele>
        <time>2022-04-01T17:12:45Z</time>
      </trkpt>
      <trkpt lat="46.25709" lon="3.87763">
        <ele>288</ele>
        <time>2022-04-01T17:13:21Z</time>
      </trkpt>
      <trkpt lat="46.25708" lon="3.87794">
        <ele>287</ele>
        <time>2022-04-01T17:13:25Z</time>
      </trkpt>
      <trkpt lat="46.25705" lon="3.8783">
        <ele>286</ele>
        <time>2022-04-01T17:13:30Z</time>
      </trkpt>
      <trkpt lat="46.25694" lon="3.87899">
        <ele>282</ele>
        <time>2022-04-01T17:13:38Z</time>
      </trkpt>
      <trkpt lat="46.25538" lon="3.88472">
        <ele>278</ele>
        <time>2022-04-01T17:14:54Z</time>
      </trkpt>
      <trkpt lat="46.25478" lon="3.88684">
        <ele>276</ele>
        <time>2022-04-01T17:15:22Z</time>
      </trkpt>
      <trkpt lat="46.25414" lon="3.88902">
        <ele>277</ele>
        <time>2022-04-01T17:15:51Z</time>
      </trkpt>
      <trkpt lat="46.25408" lon="3.88922">
        <ele>277</ele>
        <time>2022-04-01T17:15:54Z</time>
      </trkpt>
      <trkpt lat="46.25404" lon="3.88941">
        <ele>277</ele>
        <time>2022-04-01T17:15:57Z</time>
      </trkpt>
      <trkpt lat="46.25402" lon="3.88959">
        <ele>278</ele>
        <time>2022-04-01T17:15:59Z</time>
      </trkpt>
      <trkpt lat="46.25402" lon="3.88977">
        <ele>278</ele>
        <time>2022-04-01T17:16:01Z</time>
      </trkpt>
      <trkpt lat="46.25407" lon="3.89001">
        <ele>278</ele>
        <time>2022-04-01T17:16:04Z</time>
      </trkpt>
      <trkpt lat="46.25427" lon="3.89047">
        <ele>279</ele>
        <time>2022-04-01T17:16:11Z</time>
      </trkpt>
      <trkpt lat="46.25469" lon="3.89134">
        <ele>279</ele>
        <time>2022-04-01T17:16:24Z</time>
      </trkpt>
      <trkpt lat="46.25479" lon="3.89161">
        <ele>278</ele>
        <time>2022-04-01T17:16:28Z</time>
      </trkpt>
      <trkpt lat="46.25501" lon="3.89265">
        <ele>277</ele>
        <time>2022-04-01T17:16:41Z</time>
      </trkpt>
      <trkpt lat="46.25508" lon="3.8931">
        <ele>277</ele>
        <time>2022-04-01T17:16:47Z</time>
      </trkpt>
      <trkpt lat="46.25473" lon="3.89311">
        <ele>278</ele>
        <time>2022-04-01T17:16:53Z</time>
      </trkpt>
      <trkpt lat="46.25465" lon="3.89308">
        <ele>279</ele>
        <time>2022-04-01T17:16:54Z</time>
      </trkpt>
      <trkpt lat="46.25458" lon="3.89299">
        <ele>279</ele>
        <time>2022-04-01T17:16:56Z</time>
      </trkpt>
      <trkpt lat="46.25446" lon="3.89259">
        <ele>281</ele>
        <time>2022-04-01T17:17:01Z</time>
      </trkpt>
      <trkpt lat="46.25435" lon="3.89238">
        <ele>282</ele>
        <time>2022-04-01T17:17:05Z</time>
      </trkpt>
      <trkpt lat="46.25413" lon="3.89202">
        <ele>283</ele>
        <time>2022-04-01T17:17:11Z</time>
      </trkpt>
      <trkpt lat="46.25394" lon="3.89177">
        <ele>283</ele>
        <time>2022-04-01T17:17:15Z</time>
      </trkpt>
      <trkpt lat="46.25373" lon="3.89154">
        <ele>284</ele>
        <time>2022-04-01T17:17:20Z</time>
      </trkpt>
      <trkpt lat="46.253" lon="3.89099">
        <ele>287</ele>
        <time>2022-04-01T17:17:34Z</time>
      </trkpt>
      <trkpt lat="46.25287" lon="3.89091">
        <ele>288</ele>
        <time>2022-04-01T17:17:37Z</time>
      </trkpt>
      <trkpt lat="46.25277" lon="3.89089">
        <ele>289</ele>
        <time>2022-04-01T17:17:39Z</time>
      </trkpt>
      <trkpt lat="46.25092" lon="3.89103">
        <ele>299</ele>
        <time>2022-04-01T17:18:12Z</time>
      </trkpt>
      <trkpt lat="46.25062" lon="3.89102">
        <ele>299</ele>
        <time>2022-04-01T17:18:17Z</time>
      </trkpt>
      <trkpt lat="46.24876" lon="3.89032">
        <ele>300</ele>
        <time>2022-04-01T17:18:51Z</time>
      </trkpt>
      <trkpt lat="46.24861" lon="3.89029">
        <ele>299</ele>
        <time>2022-04-01T17:18:54Z</time>
      </trkpt>
      <trkpt lat="46.24846" lon="3.8903">
        <ele>299</ele>
        <time>2022-04-01T17:18:57Z</time>
      </trkpt>
      <trkpt lat="46.24706" lon="3.89071">
        <ele>303</ele>
        <time>2022-04-01T17:19:22Z</time>
      </trkpt>
      <trkpt lat="46.24673" lon="3.89091">
        <ele>305</ele>
        <time>2022-04-01T17:19:28Z</time>
      </trkpt>
      <trkpt lat="46.24579" lon="3.89164">
        <ele>310</ele>
        <time>2022-04-01T17:19:47Z</time>
      </trkpt>
      <trkpt lat="46.24533" lon="3.89198">
        <ele>309</ele>
        <time>2022-04-01T17:19:57Z</time>
      </trkpt>
      <trkpt lat="46.24509" lon="3.89209">
        <ele>309</ele>
        <time>2022-04-01T17:20:01Z</time>
      </trkpt>
      <trkpt lat="46.24481" lon="3.89214">
        <ele>310</ele>
        <time>2022-04-01T17:20:06Z</time>
      </trkpt>
      <trkpt lat="46.24461" lon="3.89215">
        <ele>310</ele>
        <time>2022-04-01T17:20:10Z</time>
      </trkpt>
      <trkpt lat="46.24439" lon="3.89213">
        <ele>311</ele>
        <time>2022-04-01T17:20:14Z</time>
      </trkpt>
      <trkpt lat="46.24409" lon="3.89202">
        <ele>312</ele>
        <time>2022-04-01T17:20:19Z</time>
      </trkpt>
      <trkpt lat="46.24397" lon="3.89196">
        <ele>312</ele>
        <time>2022-04-01T17:20:21Z</time>
      </trkpt>
      <trkpt lat="46.24355" lon="3.89162">
        <ele>313</ele>
        <time>2022-04-01T17:20:30Z</time>
      </trkpt>
      <trkpt lat="46.2421" lon="3.89074">
        <ele>314</ele>
        <time>2022-04-01T17:20:58Z</time>
      </trkpt>
      <trkpt lat="46.24189" lon="3.89059">
        <ele>313</ele>
        <time>2022-04-01T17:21:02Z</time>
      </trkpt>
      <trkpt lat="46.24145" lon="3.89023">
        <ele>312</ele>
        <time>2022-04-01T17:21:11Z</time>
      </trkpt>
      <trkpt lat="46.24125" lon="3.8901">
        <ele>311</ele>
        <time>2022-04-01T17:21:15Z</time>
      </trkpt>
      <trkpt lat="46.24063" lon="3.88985">
        <ele>312</ele>
        <time>2022-04-01T17:21:26Z</time>
      </trkpt>
      <trkpt lat="46.24048" lon="3.88986">
        <ele>313</ele>
        <time>2022-04-01T17:21:29Z</time>
      </trkpt>
      <trkpt lat="46.23976" lon="3.89013">
        <ele>314</ele>
        <time>2022-04-01T17:21:42Z</time>
      </trkpt>
      <trkpt lat="46.23956" lon="3.89018">
        <ele>313</ele>
        <time>2022-04-01T17:21:46Z</time>
      </trkpt>
      <trkpt lat="46.23917" lon="3.89019">
        <ele>311</ele>
        <time>2022-04-01T17:21:53Z</time>
      </trkpt>
      <trkpt lat="46.239" lon="3.89016">
        <ele>310</ele>
        <time>2022-04-01T17:21:56Z</time>
      </trkpt>
      <trkpt lat="46.23871" lon="3.89007">
        <ele>310</ele>
        <time>2022-04-01T17:22:01Z</time>
      </trkpt>
      <trkpt lat="46.23801" lon="3.88974">
        <ele>310</ele>
        <time>2022-04-01T17:22:14Z</time>
      </trkpt>
      <trkpt lat="46.23661" lon="3.88916">
        <ele>308</ele>
        <time>2022-04-01T17:22:40Z</time>
      </trkpt>
      <trkpt lat="46.23639" lon="3.88908">
        <ele>308</ele>
        <time>2022-04-01T17:22:44Z</time>
      </trkpt>
      <trkpt lat="46.23567" lon="3.88891">
        <ele>308</ele>
        <time>2022-04-01T17:22:57Z</time>
      </trkpt>
      <trkpt lat="46.23482" lon="3.88875">
        <ele>306</ele>
        <time>2022-04-01T17:23:12Z</time>
      </trkpt>
      <trkpt lat="46.23449" lon="3.88864">
        <ele>306</ele>
        <time>2022-04-01T17:23:19Z</time>
      </trkpt>
      <trkpt lat="46.23408" lon="3.8885">
        <ele>305</ele>
        <time>2022-04-01T17:23:26Z</time>
      </trkpt>
      <trkpt lat="46.23371" lon="3.88834">
        <ele>306</ele>
        <time>2022-04-01T17:23:33Z</time>
      </trkpt>
      <trkpt lat="46.23269" lon="3.88781">
        <ele>308</ele>
        <time>2022-04-01T17:23:52Z</time>
      </trkpt>
      <trkpt lat="46.2325" lon="3.88774">
        <ele>308</ele>
        <time>2022-04-01T17:23:56Z</time>
      </trkpt>
      <trkpt lat="46.23126" lon="3.88737">
        <ele>309</ele>
        <time>2022-04-01T17:24:18Z</time>
      </trkpt>
      <trkpt lat="46.23027" lon="3.88714">
        <ele>309</ele>
        <time>2022-04-01T17:24:36Z</time>
      </trkpt>
      <trkpt lat="46.22939" lon="3.88678">
        <ele>309</ele>
        <time>2022-04-01T17:24:52Z</time>
      </trkpt>
      <trkpt lat="46.22757" lon="3.88547">
        <ele>312</ele>
        <time>2022-04-01T17:25:28Z</time>
      </trkpt>
      <trkpt lat="46.22647" lon="3.88517">
        <ele>319</ele>
        <time>2022-04-01T17:25:48Z</time>
      </trkpt>
      <trkpt lat="46.22376" lon="3.88495">
        <ele>316</ele>
        <time>2022-04-01T17:26:37Z</time>
      </trkpt>
      <trkpt lat="46.22355" lon="3.88492">
        <ele>315</ele>
        <time>2022-04-01T17:26:40Z</time>
      </trkpt>
      <trkpt lat="46.22331" lon="3.88482">
        <ele>315</ele>
        <time>2022-04-01T17:26:45Z</time>
      </trkpt>
      <trkpt lat="46.22283" lon="3.88457">
        <ele>314</ele>
        <time>2022-04-01T17:26:54Z</time>
      </trkpt>
      <trkpt lat="46.22145" lon="3.88331">
        <ele>312</ele>
        <time>2022-04-01T17:27:23Z</time>
      </trkpt>
      <trkpt lat="46.22132" lon="3.88322">
        <ele>312</ele>
        <time>2022-04-01T17:27:26Z</time>
      </trkpt>
      <trkpt lat="46.22022" lon="3.88289">
        <ele>313</ele>
        <time>2022-04-01T17:27:46Z</time>
      </trkpt>
      <trkpt lat="46.21975" lon="3.88285">
        <ele>314</ele>
        <time>2022-04-01T17:27:54Z</time>
      </trkpt>
      <trkpt lat="46.21855" lon="3.88283">
        <ele>316</ele>
        <time>2022-04-01T17:28:15Z</time>
      </trkpt>
      <trkpt lat="46.21832" lon="3.88279">
        <ele>316</ele>
        <time>2022-04-01T17:28:19Z</time>
      </trkpt>
      <trkpt lat="46.21776" lon="3.88256">
        <ele>318</ele>
        <time>2022-04-01T17:28:30Z</time>
      </trkpt>
      <trkpt lat="46.21745" lon="3.88246">
        <ele>320</ele>
        <time>2022-04-01T17:28:35Z</time>
      </trkpt>
      <trkpt lat="46.21702" lon="3.88237">
        <ele>321</ele>
        <time>2022-04-01T17:28:43Z</time>
      </trkpt>
      <trkpt lat="46.21629" lon="3.88216">
        <ele>322</ele>
        <time>2022-04-01T17:28:56Z</time>
      </trkpt>
      <trkpt lat="46.21597" lon="3.88202">
        <ele>321</ele>
        <time>2022-04-01T17:29:02Z</time>
      </trkpt>
      <trkpt lat="46.2157" lon="3.88185">
        <ele>321</ele>
        <time>2022-04-01T17:29:08Z</time>
      </trkpt>
      <trkpt lat="46.21416" lon="3.88074">
        <ele>322</ele>
        <time>2022-04-01T17:29:38Z</time>
      </trkpt>
      <trkpt lat="46.21396" lon="3.88055">
        <ele>321</ele>
        <time>2022-04-01T17:29:42Z</time>
      </trkpt>
      <trkpt lat="46.21339" lon="3.87993">
        <ele>318</ele>
        <time>2022-04-01T17:29:55Z</time>
      </trkpt>
      <trkpt lat="46.21286" lon="3.87929">
        <ele>319</ele>
        <time>2022-04-01T17:30:07Z</time>
      </trkpt>
      <trkpt lat="46.21232" lon="3.87901">
        <ele>320</ele>
        <time>2022-04-01T17:30:18Z</time>
      </trkpt>
      <trkpt lat="46.21103" lon="3.87841">
        <ele>325</ele>
        <time>2022-04-01T17:30:42Z</time>
      </trkpt>
      <trkpt lat="46.20826" lon="3.87693">
        <ele>323</ele>
        <time>2022-04-01T17:31:34Z</time>
      </trkpt>
      <trkpt lat="46.20662" lon="3.87587">
        <ele>318</ele>
        <time>2022-04-01T17:32:06Z</time>
      </trkpt>
      <trkpt lat="46.20407" lon="3.8748">
        <ele>316</ele>
        <time>2022-04-01T17:32:54Z</time>
      </trkpt>
      <trkpt lat="46.20349" lon="3.87448">
        <ele>316</ele>
        <time>2022-04-01T17:33:05Z</time>
      </trkpt>
      <trkpt lat="46.20246" lon="3.87358">
        <ele>320</ele>
        <time>2022-04-01T17:33:26Z</time>
      </trkpt>
      <trkpt lat="46.20098" lon="3.8727">
        <ele>326</ele>
        <time>2022-04-01T17:33:54Z</time>
      </trkpt>
      <trkpt lat="46.19923" lon="3.87212">
        <ele>337</ele>
        <time>2022-04-01T17:34:26Z</time>
      </trkpt>
      <trkpt lat="46.19901" lon="3.87207">
        <ele>338</ele>
        <time>2022-04-01T17:34:30Z</time>
      </trkpt>
      <trkpt lat="46.19869" lon="3.87207">
        <ele>339</ele>
        <time>2022-04-01T17:34:36Z</time>
      </trkpt>
      <trkpt lat="46.19781" lon="3.87219">
        <ele>339</ele>
        <time>2022-04-01T17:34:52Z</time>
      </trkpt>
      <trkpt lat="46.19711" lon="3.87243">
        <ele>335</ele>
        <time>2022-04-01T17:35:05Z</time>
      </trkpt>
      <trkpt lat="46.19605" lon="3.87238">
        <ele>330</ele>
        <time>2022-04-01T17:35:23Z</time>
      </trkpt>
      <trkpt lat="46.19391" lon="3.8722">
        <ele>323</ele>
        <time>2022-04-01T17:36:02Z</time>
      </trkpt>
      <trkpt lat="46.19338" lon="3.87221">
        <ele>323</ele>
        <time>2022-04-01T17:36:11Z</time>
      </trkpt>
      <trkpt lat="46.1922" lon="3.87257">
        <ele>330</ele>
        <time>2022-04-01T17:36:33Z</time>
      </trkpt>
      <trkpt lat="46.19006" lon="3.8733">
        <ele>337</ele>
        <time>2022-04-01T17:37:12Z</time>
      </trkpt>
      <trkpt lat="46.18911" lon="3.8733">
        <ele>334</ele>
        <time>2022-04-01T17:37:29Z</time>
      </trkpt>
      <trkpt lat="46.18841" lon="3.87366">
        <ele>333</ele>
        <time>2022-04-01T17:37:42Z</time>
      </trkpt>
      <trkpt lat="46.18755" lon="3.87381">
        <ele>334</ele>
        <time>2022-04-01T17:37:57Z</time>
      </trkpt>
      <trkpt lat="46.18707" lon="3.87328">
        <ele>336</ele>
        <time>2022-04-01T17:38:08Z</time>
      </trkpt>
      <trkpt lat="46.18679" lon="3.87302">
        <ele>337</ele>
        <time>2022-04-01T17:38:14Z</time>
      </trkpt>
      <trkpt lat="46.18651" lon="3.87282">
        <ele>338</ele>
        <time>2022-04-01T17:38:19Z</time>
      </trkpt>
      <trkpt lat="46.18619" lon="3.87265">
        <ele>339</ele>
        <time>2022-04-01T17:38:25Z</time>
      </trkpt>
      <trkpt lat="46.18575" lon="3.87248">
        <ele>340</ele>
        <time>2022-04-01T17:38:34Z</time>
      </trkpt>
      <trkpt lat="46.1852" lon="3.87235">
        <ele>339</ele>
        <time>2022-04-01T17:38:43Z</time>
      </trkpt>
      <trkpt lat="46.18488" lon="3.87225">
        <ele>338</ele>
        <time>2022-04-01T17:38:49Z</time>
      </trkpt>
      <trkpt lat="46.18463" lon="3.87213">
        <ele>336</ele>
        <time>2022-04-01T17:38:54Z</time>
      </trkpt>
      <trkpt lat="46.18433" lon="3.87195">
        <ele>334</ele>
        <time>2022-04-01T17:39:00Z</time>
      </trkpt>
      <trkpt lat="46.18405" lon="3.8718">
        <ele>332</ele>
        <time>2022-04-01T17:39:05Z</time>
      </trkpt>
      <trkpt lat="46.18384" lon="3.87169">
        <ele>332</ele>
        <time>2022-04-01T17:39:09Z</time>
      </trkpt>
      <trkpt lat="46.18357" lon="3.8716">
        <ele>331</ele>
        <time>2022-04-01T17:39:14Z</time>
      </trkpt>
      <trkpt lat="46.1833" lon="3.87157">
        <ele>330</ele>
        <time>2022-04-01T17:39:19Z</time>
      </trkpt>
      <trkpt lat="46.183" lon="3.87157">
        <ele>328</ele>
        <time>2022-04-01T17:39:24Z</time>
      </trkpt>
      <trkpt lat="46.18269" lon="3.87165">
        <ele>327</ele>
        <time>2022-04-01T17:39:30Z</time>
      </trkpt>
      <trkpt lat="46.18232" lon="3.87179">
        <ele>326</ele>
        <time>2022-04-01T17:39:37Z</time>
      </trkpt>
      <trkpt lat="46.18206" lon="3.87185">
        <ele>325</ele>
        <time>2022-04-01T17:39:41Z</time>
      </trkpt>
      <trkpt lat="46.18173" lon="3.87187">
        <ele>325</ele>
        <time>2022-04-01T17:39:47Z</time>
      </trkpt>
      <trkpt lat="46.18148" lon="3.87184">
        <ele>326</ele>
        <time>2022-04-01T17:39:52Z</time>
      </trkpt>
      <trkpt lat="46.18072" lon="3.8715">
        <ele>329</ele>
        <time>2022-04-01T17:40:06Z</time>
      </trkpt>
      <trkpt lat="46.18014" lon="3.87116">
        <ele>330</ele>
        <time>2022-04-01T17:40:17Z</time>
      </trkpt>
      <trkpt lat="46.17888" lon="3.87021">
        <ele>333</ele>
        <time>2022-04-01T17:40:42Z</time>
      </trkpt>
      <trkpt lat="46.17799" lon="3.8698">
        <ele>332</ele>
        <time>2022-04-01T17:40:59Z</time>
      </trkpt>
      <trkpt lat="46.17709" lon="3.86942">
        <ele>336</ele>
        <time>2022-04-01T17:41:15Z</time>
      </trkpt>
      <trkpt lat="46.17561" lon="3.86867">
        <ele>344</ele>
        <time>2022-04-01T17:41:43Z</time>
      </trkpt>
      <trkpt lat="46.1755" lon="3.86848">
        <ele>345</ele>
        <time>2022-04-01T17:41:46Z</time>
      </trkpt>
      <trkpt lat="46.17541" lon="3.86827">
        <ele>346</ele>
        <time>2022-04-01T17:41:49Z</time>
      </trkpt>
      <trkpt lat="46.17495" lon="3.86878">
        <ele>346</ele>
        <time>2022-04-01T17:42:00Z</time>
      </trkpt>
      <trkpt lat="46.17441" lon="3.8695">
        <ele>345</ele>
        <time>2022-04-01T17:42:13Z</time>
      </trkpt>
      <trkpt lat="46.17401" lon="3.87011">
        <ele>344</ele>
        <time>2022-04-01T17:42:23Z</time>
      </trkpt>
      <trkpt lat="46.17369" lon="3.87071">
        <ele>341</ele>
        <time>2022-04-01T17:42:33Z</time>
      </trkpt>
      <trkpt lat="46.17017" lon="3.8739">
        <ele>334</ele>
        <time>2022-04-01T17:43:46Z</time>
      </trkpt>
      <trkpt lat="46.16982" lon="3.87412">
        <ele>334</ele>
        <time>2022-04-01T17:43:53Z</time>
      </trkpt>
      <trkpt lat="46.16957" lon="3.87421">
        <ele>333</ele>
        <time>2022-04-01T17:43:58Z</time>
      </trkpt>
      <trkpt lat="46.16932" lon="3.87424">
        <ele>333</ele>
        <time>2022-04-01T17:44:02Z</time>
      </trkpt>
      <trkpt lat="46.16909" lon="3.87422">
        <ele>332</ele>
        <time>2022-04-01T17:44:06Z</time>
      </trkpt>
      <trkpt lat="46.1688" lon="3.87413">
        <ele>332</ele>
        <time>2022-04-01T17:44:12Z</time>
      </trkpt>
      <trkpt lat="46.16862" lon="3.87401">
        <ele>332</ele>
        <time>2022-04-01T17:44:15Z</time>
      </trkpt>
      <trkpt lat="46.16826" lon="3.87367">
        <ele>332</ele>
        <time>2022-04-01T17:44:23Z</time>
      </trkpt>
      <trkpt lat="46.16761" lon="3.87294">
        <ele>334</ele>
        <time>2022-04-01T17:44:38Z</time>
      </trkpt>
      <trkpt lat="46.16736" lon="3.87272">
        <ele>335</ele>
        <time>2022-04-01T17:44:43Z</time>
      </trkpt>
      <trkpt lat="46.16716" lon="3.87262">
        <ele>335</ele>
        <time>2022-04-01T17:44:47Z</time>
      </trkpt>
      <trkpt lat="46.16685" lon="3.87255">
        <ele>334</ele>
        <time>2022-04-01T17:44:52Z</time>
      </trkpt>
      <trkpt lat="46.16665" lon="3.87256">
        <ele>334</ele>
        <time>2022-04-01T17:44:56Z</time>
      </trkpt>
      <trkpt lat="46.16543" lon="3.87283">
        <ele>344</ele>
        <time>2022-04-01T17:45:18Z</time>
      </trkpt>
      <trkpt lat="46.16409" lon="3.87327">
        <ele>346</ele>
        <time>2022-04-01T17:45:42Z</time>
      </trkpt>
      <trkpt lat="46.16385" lon="3.87338">
        <ele>346</ele>
        <time>2022-04-01T17:45:47Z</time>
      </trkpt>
      <trkpt lat="46.16271" lon="3.87425">
        <ele>346</ele>
        <time>2022-04-01T17:46:09Z</time>
      </trkpt>
      <trkpt lat="46.16215" lon="3.87474">
        <ele>346</ele>
        <time>2022-04-01T17:46:21Z</time>
      </trkpt>
      <trkpt lat="46.16128" lon="3.87562">
        <ele>345</ele>
        <time>2022-04-01T17:46:40Z</time>
      </trkpt>
      <trkpt lat="46.16089" lon="3.8759">
        <ele>344</ele>
        <time>2022-04-01T17:46:48Z</time>
      </trkpt>
      <trkpt lat="46.16027" lon="3.87607">
        <ele>341</ele>
        <time>2022-04-01T17:46:59Z</time>
      </trkpt>
      <trkpt lat="46.15831" lon="3.87648">
        <ele>337</ele>
        <time>2022-04-01T17:47:34Z</time>
      </trkpt>
      <trkpt lat="46.15824" lon="3.8765">
        <ele>337</ele>
        <time>2022-04-01T17:47:36Z</time>
      </trkpt>
      <trkpt lat="46.15739" lon="3.87673">
        <ele>338</ele>
        <time>2022-04-01T17:47:51Z</time>
      </trkpt>
      <trkpt lat="46.15634" lon="3.87717">
        <ele>339</ele>
        <time>2022-04-01T17:48:10Z</time>
      </trkpt>
      <trkpt lat="46.15585" lon="3.87745">
        <ele>338</ele>
        <time>2022-04-01T17:48:20Z</time>
      </trkpt>
      <trkpt lat="46.15519" lon="3.87791">
        <ele>341</ele>
        <time>2022-04-01T17:48:33Z</time>
      </trkpt>
      <trkpt lat="46.15455" lon="3.87845">
        <ele>343</ele>
        <time>2022-04-01T17:48:46Z</time>
      </trkpt>
      <trkpt lat="46.15402" lon="3.87895">
        <ele>343</ele>
        <time>2022-04-01T17:48:57Z</time>
      </trkpt>
      <trkpt lat="46.15341" lon="3.87969">
        <ele>345</ele>
        <time>2022-04-01T17:49:11Z</time>
      </trkpt>
      <trkpt lat="46.15202" lon="3.88162">
        <ele>349</ele>
        <time>2022-04-01T17:49:46Z</time>
      </trkpt>
      <trkpt lat="46.15097" lon="3.88273">
        <ele>344</ele>
        <time>2022-04-01T17:50:09Z</time>
      </trkpt>
      <trkpt lat="46.14382" lon="3.88949">
        <ele>362</ele>
        <time>2022-04-01T17:52:41Z</time>
      </trkpt>
      <trkpt lat="46.14203" lon="3.89121">
        <ele>360</ele>
        <time>2022-04-01T17:53:19Z</time>
      </trkpt>
      <trkpt lat="46.14168" lon="3.89151">
        <ele>359</ele>
        <time>2022-04-01T17:53:26Z</time>
      </trkpt>
      <trkpt lat="46.14074" lon="3.89213">
        <ele>353</ele>
        <time>2022-04-01T17:53:45Z</time>
      </trkpt>
      <trkpt lat="46.13984" lon="3.89284">
        <ele>348</ele>
        <time>2022-04-01T17:54:03Z</time>
      </trkpt>
      <trkpt lat="46.13849" lon="3.89395">
        <ele>341</ele>
        <time>2022-04-01T17:54:31Z</time>
      </trkpt>
      <trkpt lat="46.13839" lon="3.89398">
        <ele>341</ele>
        <time>2022-04-01T17:54:33Z</time>
      </trkpt>
      <trkpt lat="46.13829" lon="3.89405">
        <ele>340</ele>
        <time>2022-04-01T17:54:35Z</time>
      </trkpt>
      <trkpt lat="46.13817" lon="3.8942">
        <ele>340</ele>
        <time>2022-04-01T17:54:37Z</time>
      </trkpt>
      <trkpt lat="46.13767" lon="3.8938">
        <ele>341</ele>
        <time>2022-04-01T17:54:48Z</time>
      </trkpt>
      <trkpt lat="46.13737" lon="3.89367">
        <ele>341</ele>
        <time>2022-04-01T17:54:53Z</time>
      </trkpt>
      <trkpt lat="46.13711" lon="3.89364">
        <ele>340</ele>
        <time>2022-04-01T17:54:58Z</time>
      </trkpt>
      <trkpt lat="46.13661" lon="3.89362">
        <ele>339</ele>
        <time>2022-04-01T17:55:07Z</time>
      </trkpt>
      <trkpt lat="46.13565" lon="3.89381">
        <ele>337</ele>
        <time>2022-04-01T17:55:24Z</time>
      </trkpt>
      <trkpt lat="46.13554" lon="3.89383">
        <ele>337</ele>
        <time>2022-04-01T17:55:26Z</time>
      </trkpt>
      <trkpt lat="46.13437" lon="3.89404">
        <ele>340</ele>
        <time>2022-04-01T17:55:47Z</time>
      </trkpt>
      <trkpt lat="46.13237" lon="3.89454">
        <ele>350</ele>
        <time>2022-04-01T17:56:23Z</time>
      </trkpt>
      <trkpt lat="46.13215" lon="3.89453">
        <ele>350</ele>
        <time>2022-04-01T17:56:27Z</time>
      </trkpt>
      <trkpt lat="46.13194" lon="3.8944">
        <ele>351</ele>
        <time>2022-04-01T17:56:31Z</time>
      </trkpt>
      <trkpt lat="46.13174" lon="3.89413">
        <ele>351</ele>
        <time>2022-04-01T17:56:36Z</time>
      </trkpt>
      <trkpt lat="46.1316" lon="3.89386">
        <ele>351</ele>
        <time>2022-04-01T17:56:40Z</time>
      </trkpt>
      <trkpt lat="46.13148" lon="3.89371">
        <ele>351</ele>
        <time>2022-04-01T17:56:43Z</time>
      </trkpt>
      <trkpt lat="46.13135" lon="3.89362">
        <ele>351</ele>
        <time>2022-04-01T17:56:45Z</time>
      </trkpt>
      <trkpt lat="46.13113" lon="3.8936">
        <ele>350</ele>
        <time>2022-04-01T17:56:49Z</time>
      </trkpt>
      <trkpt lat="46.13097" lon="3.89368">
        <ele>350</ele>
        <time>2022-04-01T17:56:52Z</time>
      </trkpt>
      <trkpt lat="46.13075" lon="3.89388">
        <ele>349</ele>
        <time>2022-04-01T17:56:57Z</time>
      </trkpt>
      <trkpt lat="46.13022" lon="3.89448">
        <ele>349</ele>
        <time>2022-04-01T17:57:09Z</time>
      </trkpt>
      <trkpt lat="46.12987" lon="3.89477">
        <ele>350</ele>
        <time>2022-04-01T17:57:16Z</time>
      </trkpt>
      <trkpt lat="46.1295" lon="3.89498">
        <ele>351</ele>
        <time>2022-04-01T17:57:23Z</time>
      </trkpt>
      <trkpt lat="46.12915" lon="3.89509">
        <ele>352</ele>
        <time>2022-04-01T17:57:30Z</time>
      </trkpt>
      <trkpt lat="46.12702" lon="3.89543">
        <ele>359</ele>
        <time>2022-04-01T17:58:08Z</time>
      </trkpt>
      <trkpt lat="46.1266" lon="3.89554">
        <ele>360</ele>
        <time>2022-04-01T17:58:15Z</time>
      </trkpt>
      <trkpt lat="46.12625" lon="3.89571">
        <ele>360</ele>
        <time>2022-04-01T17:58:22Z</time>
      </trkpt>
      <trkpt lat="46.12522" lon="3.89653">
        <ele>360</ele>
        <time>2022-04-01T17:58:43Z</time>
      </trkpt>
      <trkpt lat="46.12463" lon="3.89695">
        <ele>360</ele>
        <time>2022-04-01T17:58:54Z</time>
      </trkpt>
      <trkpt lat="46.12374" lon="3.89754">
        <ele>357</ele>
        <time>2022-04-01T17:59:12Z</time>
      </trkpt>
      <trkpt lat="46.12246" lon="3.89812">
        <ele>353</ele>
        <time>2022-04-01T17:59:36Z</time>
      </trkpt>
      <trkpt lat="46.12204" lon="3.89826">
        <ele>352</ele>
        <time>2022-04-01T17:59:43Z</time>
      </trkpt>
      <trkpt lat="46.12093" lon="3.89857">
        <ele>348</ele>
        <time>2022-04-01T18:00:04Z</time>
      </trkpt>
      <trkpt lat="46.12065" lon="3.89861">
        <ele>347</ele>
        <time>2022-04-01T18:00:09Z</time>
      </trkpt>
      <trkpt lat="46.12034" lon="3.89861">
        <ele>347</ele>
        <time>2022-04-01T18:00:14Z</time>
      </trkpt>
      <trkpt lat="46.12011" lon="3.89857">
        <ele>346</ele>
        <time>2022-04-01T18:00:18Z</time>
      </trkpt>
      <trkpt lat="46.11961" lon="3.8984">
        <ele>346</ele>
        <time>2022-04-01T18:00:27Z</time>
      </trkpt>
      <trkpt lat="46.1179" lon="3.89779">
        <ele>343</ele>
        <time>2022-04-01T18:00:59Z</time>
      </trkpt>
      <trkpt lat="46.11753" lon="3.89771">
        <ele>342</ele>
        <time>2022-04-01T18:01:05Z</time>
      </trkpt>
      <trkpt lat="46.11717" lon="3.89768">
        <ele>343</ele>
        <time>2022-04-01T18:01:12Z</time>
      </trkpt>
      <trkpt lat="46.11648" lon="3.89776">
        <ele>344</ele>
        <time>2022-04-01T18:01:24Z</time>
      </trkpt>
      <trkpt lat="46.11617" lon="3.89785">
        <ele>343</ele>
        <time>2022-04-01T18:01:30Z</time>
      </trkpt>
      <trkpt lat="46.11583" lon="3.89799">
        <ele>342</ele>
        <time>2022-04-01T18:01:36Z</time>
      </trkpt>
      <trkpt lat="46.11491" lon="3.89849">
        <ele>343</ele>
        <time>2022-04-01T18:01:54Z</time>
      </trkpt>
      <trkpt lat="46.1145" lon="3.89878">
        <ele>345</ele>
        <time>2022-04-01T18:02:02Z</time>
      </trkpt>
      <trkpt lat="46.11427" lon="3.89897">
        <ele>345</ele>
        <time>2022-04-01T18:02:06Z</time>
      </trkpt>
      <trkpt lat="46.11362" lon="3.89966">
        <ele>345</ele>
        <time>2022-04-01T18:02:21Z</time>
      </trkpt>
      <trkpt lat="46.1134" lon="3.89983">
        <ele>345</ele>
        <time>2022-04-01T18:02:25Z</time>
      </trkpt>
      <trkpt lat="46.11297" lon="3.9001">
        <ele>345</ele>
        <time>2022-04-01T18:02:33Z</time>
      </trkpt>
      <trkpt lat="46.11268" lon="3.90021">
        <ele>346</ele>
        <time>2022-04-01T18:02:39Z</time>
      </trkpt>
      <trkpt lat="46.11127" lon="3.90055">
        <ele>345</ele>
        <time>2022-04-01T18:03:04Z</time>
      </trkpt>
      <trkpt lat="46.11095" lon="3.90066">
        <ele>344</ele>
        <time>2022-04-01T18:03:10Z</time>
      </trkpt>
      <trkpt lat="46.1106" lon="3.90087">
        <ele>343</ele>
        <time>2022-04-01T18:03:17Z</time>
      </trkpt>
      <trkpt lat="46.1103" lon="3.9011">
        <ele>343</ele>
        <time>2022-04-01T18:03:23Z</time>
      </trkpt>
      <trkpt lat="46.10979" lon="3.90151">
        <ele>343</ele>
        <time>2022-04-01T18:03:33Z</time>
      </trkpt>
      <trkpt lat="46.10956" lon="3.90164">
        <ele>344</ele>
        <time>2022-04-01T18:03:38Z</time>
      </trkpt>
      <trkpt lat="46.10889" lon="3.90193">
        <ele>348</ele>
        <time>2022-04-01T18:03:50Z</time>
      </trkpt>
      <trkpt lat="46.10853" lon="3.90212">
        <ele>350</ele>
        <time>2022-04-01T18:03:57Z</time>
      </trkpt>
      <trkpt lat="46.10818" lon="3.90234">
        <ele>351</ele>
        <time>2022-04-01T18:04:04Z</time>
      </trkpt>
      <trkpt lat="46.10745" lon="3.90289">
        <ele>352</ele>
        <time>2022-04-01T18:04:18Z</time>
      </trkpt>
      <trkpt lat="46.10489" lon="3.90473">
        <ele>369</ele>
        <time>2022-04-01T18:05:09Z</time>
      </trkpt>
      <trkpt lat="46.10458" lon="3.90498">
        <ele>369</ele>
        <time>2022-04-01T18:05:16Z</time>
      </trkpt>
      <trkpt lat="46.10436" lon="3.90526">
        <ele>369</ele>
        <time>2022-04-01T18:05:21Z</time>
      </trkpt>
      <trkpt lat="46.1041" lon="3.90564">
        <ele>369</ele>
        <time>2022-04-01T18:05:27Z</time>
      </trkpt>
      <trkpt lat="46.10395" lon="3.90589">
        <ele>368</ele>
        <time>2022-04-01T18:05:32Z</time>
      </trkpt>
      <trkpt lat="46.10336" lon="3.90709">
        <ele>364</ele>
        <time>2022-04-01T18:05:50Z</time>
      </trkpt>
      <trkpt lat="46.10323" lon="3.9073">
        <ele>364</ele>
        <time>2022-04-01T18:05:53Z</time>
      </trkpt>
      <trkpt lat="46.10304" lon="3.90757">
        <ele>363</ele>
        <time>2022-04-01T18:05:58Z</time>
      </trkpt>
      <trkpt lat="46.10231" lon="3.9084">
        <ele>361</ele>
        <time>2022-04-01T18:06:14Z</time>
      </trkpt>
      <trkpt lat="46.09947" lon="3.91099">
        <ele>363</ele>
        <time>2022-04-01T18:07:14Z</time>
      </trkpt>
      <trkpt lat="46.09906" lon="3.91125">
        <ele>362</ele>
        <time>2022-04-01T18:07:22Z</time>
      </trkpt>
      <trkpt lat="46.09877" lon="3.91134">
        <ele>361</ele>
        <time>2022-04-01T18:07:27Z</time>
      </trkpt>
      <trkpt lat="46.09792" lon="3.9114">
        <ele>357</ele>
        <time>2022-04-01T18:07:43Z</time>
      </trkpt>
      <trkpt lat="46.09769" lon="3.91147">
        <ele>355</ele>
        <time>2022-04-01T18:07:47Z</time>
      </trkpt>
      <trkpt lat="46.09747" lon="3.91159">
        <ele>354</ele>
        <time>2022-04-01T18:07:51Z</time>
      </trkpt>
      <trkpt lat="46.09728" lon="3.91177">
        <ele>355</ele>
        <time>2022-04-01T18:07:55Z</time>
      </trkpt>
      <trkpt lat="46.09711" lon="3.91197">
        <ele>355</ele>
        <time>2022-04-01T18:07:59Z</time>
      </trkpt>
      <trkpt lat="46.09699" lon="3.91218">
        <ele>356</ele>
        <time>2022-04-01T18:08:02Z</time>
      </trkpt>
      <trkpt lat="46.09689" lon="3.9124">
        <ele>356</ele>
        <time>2022-04-01T18:08:06Z</time>
      </trkpt>
      <trkpt lat="46.09682" lon="3.91264">
        <ele>357</ele>
        <time>2022-04-01T18:08:09Z</time>
      </trkpt>
      <trkpt lat="46.09674" lon="3.91304">
        <ele>356</ele>
        <time>2022-04-01T18:08:14Z</time>
      </trkpt>
      <trkpt lat="46.09655" lon="3.91439">
        <ele>359</ele>
        <time>2022-04-01T18:08:31Z</time>
      </trkpt>
      <trkpt lat="46.09648" lon="3.91468">
        <ele>360</ele>
        <time>2022-04-01T18:08:35Z</time>
      </trkpt>
      <trkpt lat="46.09641" lon="3.91496">
        <ele>361</ele>
        <time>2022-04-01T18:08:38Z</time>
      </trkpt>
      <trkpt lat="46.09629" lon="3.91526">
        <ele>362</ele>
        <time>2022-04-01T18:08:43Z</time>
      </trkpt>
      <trkpt lat="46.09617" lon="3.9155">
        <ele>362</ele>
        <time>2022-04-01T18:08:46Z</time>
      </trkpt>
      <trkpt lat="46.09603" lon="3.9157">
        <ele>363</ele>
        <time>2022-04-01T18:08:50Z</time>
      </trkpt>
      <trkpt lat="46.09576" lon="3.91605">
        <ele>364</ele>
        <time>2022-04-01T18:08:56Z</time>
      </trkpt>
      <trkpt lat="46.09449" lon="3.91762">
        <ele>368</ele>
        <time>2022-04-01T18:09:26Z</time>
      </trkpt>
      <trkpt lat="46.09424" lon="3.91788">
        <ele>368</ele>
        <time>2022-04-01T18:09:31Z</time>
      </trkpt>
      <trkpt lat="46.09403" lon="3.91807">
        <ele>368</ele>
        <time>2022-04-01T18:09:36Z</time>
      </trkpt>
      <trkpt lat="46.09359" lon="3.91835">
        <ele>367</ele>
        <time>2022-04-01T18:09:44Z</time>
      </trkpt>
      <trkpt lat="46.09333" lon="3.91838">
        <ele>368</ele>
        <time>2022-04-01T18:09:49Z</time>
      </trkpt>
      <trkpt lat="46.09324" lon="3.91837">
        <ele>368</ele>
        <time>2022-04-01T18:09:51Z</time>
      </trkpt>
      <trkpt lat="46.09315" lon="3.91829">
        <ele>369</ele>
        <time>2022-04-01T18:09:53Z</time>
      </trkpt>
      <trkpt lat="46.09306" lon="3.91828">
        <ele>370</ele>
        <time>2022-04-01T18:09:54Z</time>
      </trkpt>
      <trkpt lat="46.093" lon="3.91832">
        <ele>370</ele>
        <time>2022-04-01T18:09:55Z</time>
      </trkpt>
      <trkpt lat="46.09296" lon="3.91837">
        <ele>370</ele>
        <time>2022-04-01T18:09:56Z</time>
      </trkpt>
      <trkpt lat="46.09292" lon="3.91848">
        <ele>369</ele>
        <time>2022-04-01T18:09:58Z</time>
      </trkpt>
      <trkpt lat="46.09278" lon="3.9186">
        <ele>370</ele>
        <time>2022-04-01T18:10:01Z</time>
      </trkpt>
      <trkpt lat="46.09268" lon="3.91863">
        <ele>370</ele>
        <time>2022-04-01T18:10:03Z</time>
      </trkpt>
      <trkpt lat="46.09259" lon="3.9187">
        <ele>370</ele>
        <time>2022-04-01T18:10:04Z</time>
      </trkpt>
      <trkpt lat="46.09195" lon="3.91889">
        <ele>368</ele>
        <time>2022-04-01T18:10:16Z</time>
      </trkpt>
      <trkpt lat="46.09171" lon="3.91892">
        <ele>368</ele>
        <time>2022-04-01T18:10:20Z</time>
      </trkpt>
      <trkpt lat="46.09113" lon="3.91893">
        <ele>365</ele>
        <time>2022-04-01T18:10:31Z</time>
      </trkpt>
      <trkpt lat="46.08767" lon="3.91889">
        <ele>351</ele>
        <time>2022-04-01T18:11:32Z</time>
      </trkpt>
      <trkpt lat="46.08289" lon="3.91882">
        <ele>360</ele>
        <time>2022-04-01T18:12:57Z</time>
      </trkpt>
      <trkpt lat="46.07914" lon="3.91878">
        <ele>366</ele>
        <time>2022-04-01T18:14:04Z</time>
      </trkpt>
      <trkpt lat="46.07875" lon="3.91883">
        <ele>367</ele>
        <time>2022-04-01T18:14:11Z</time>
      </trkpt>
      <trkpt lat="46.07832" lon="3.91896">
        <ele>367</ele>
        <time>2022-04-01T18:14:19Z</time>
      </trkpt>
      <trkpt lat="46.07787" lon="3.91919">
        <ele>369</ele>
        <time>2022-04-01T18:14:27Z</time>
      </trkpt>
      <trkpt lat="46.07705" lon="3.91974">
        <ele>371</ele>
        <time>2022-04-01T18:14:43Z</time>
      </trkpt>
      <trkpt lat="46.077" lon="3.91973">
        <ele>371</ele>
        <time>2022-04-01T18:14:44Z</time>
      </trkpt>
      <trkpt lat="46.0768" lon="3.91979">
        <ele>372</ele>
        <time>2022-04-01T18:14:48Z</time>
      </trkpt>
      <trkpt lat="46.07671" lon="3.91973">
        <ele>372</ele>
        <time>2022-04-01T18:14:50Z</time>
      </trkpt>
      <trkpt lat="46.0766" lon="3.91973">
        <ele>373</ele>
        <time>2022-04-01T18:14:52Z</time>
      </trkpt>
      <trkpt lat="46.07652" lon="3.91981">
        <ele>373</ele>
        <time>2022-04-01T18:14:53Z</time>
      </trkpt>
      <trkpt lat="46.07648" lon="3.91993">
        <ele>372</ele>
        <time>2022-04-01T18:14:55Z</time>
      </trkpt>
      <trkpt lat="46.07644" lon="3.92002">
        <ele>372</ele>
        <time>2022-04-01T18:14:56Z</time>
      </trkpt>
      <trkpt lat="46.07631" lon="3.92013">
        <ele>372</ele>
        <time>2022-04-01T18:14:59Z</time>
      </trkpt>
      <trkpt lat="46.07626" lon="3.9202">
        <ele>372</ele>
        <time>2022-04-01T18:15:00Z</time>
      </trkpt>
      <trkpt lat="46.07578" lon="3.9205">
        <ele>371</ele>
        <time>2022-04-01T18:15:09Z</time>
      </trkpt>
      <trkpt lat="46.07559" lon="3.92065">
        <ele>371</ele>
        <time>2022-04-01T18:15:13Z</time>
      </trkpt>
      <trkpt lat="46.0754" lon="3.92084">
        <ele>370</ele>
        <time>2022-04-01T18:15:17Z</time>
      </trkpt>
      <trkpt lat="46.07446" lon="3.92208">
        <ele>366</ele>
        <time>2022-04-01T18:15:40Z</time>
      </trkpt>
      <trkpt lat="46.07427" lon="3.92228">
        <ele>364</ele>
        <time>2022-04-01T18:15:44Z</time>
      </trkpt>
      <trkpt lat="46.07395" lon="3.92254">
        <ele>362</ele>
        <time>2022-04-01T18:15:51Z</time>
      </trkpt>
      <trkpt lat="46.07371" lon="3.92269">
        <ele>361</ele>
        <time>2022-04-01T18:15:55Z</time>
      </trkpt>
      <trkpt lat="46.07337" lon="3.92281">
        <ele>360</ele>
        <time>2022-04-01T18:16:02Z</time>
      </trkpt>
      <trkpt lat="46.07321" lon="3.92285">
        <ele>360</ele>
        <time>2022-04-01T18:16:05Z</time>
      </trkpt>
      <trkpt lat="46.07288" lon="3.92288">
        <ele>360</ele>
        <time>2022-04-01T18:16:10Z</time>
      </trkpt>
      <trkpt lat="46.07273" lon="3.92287">
        <ele>360</ele>
        <time>2022-04-01T18:16:13Z</time>
      </trkpt>
      <trkpt lat="46.07236" lon="3.9228">
        <ele>362</ele>
        <time>2022-04-01T18:16:20Z</time>
      </trkpt>
      <trkpt lat="46.07227" lon="3.92276">
        <ele>363</ele>
        <time>2022-04-01T18:16:21Z</time>
      </trkpt>
      <trkpt lat="46.07148" lon="3.92239">
        <ele>367</ele>
        <time>2022-04-01T18:16:36Z</time>
      </trkpt>
      <trkpt lat="46.06896" lon="3.92112">
        <ele>382</ele>
        <time>2022-04-01T18:17:24Z</time>
      </trkpt>
      <trkpt lat="46.06865" lon="3.92104">
        <ele>383</ele>
        <time>2022-04-01T18:17:29Z</time>
      </trkpt>
      <trkpt lat="46.06842" lon="3.92103">
        <ele>385</ele>
        <time>2022-04-01T18:17:33Z</time>
      </trkpt>
      <trkpt lat="46.06825" lon="3.92104">
        <ele>386</ele>
        <time>2022-04-01T18:17:36Z</time>
      </trkpt>
      <trkpt lat="46.06801" lon="3.92111">
        <ele>388</ele>
        <time>2022-04-01T18:17:41Z</time>
      </trkpt>
      <trkpt lat="46.06783" lon="3.9212">
        <ele>389</ele>
        <time>2022-04-01T18:17:44Z</time>
      </trkpt>
      <trkpt lat="46.06763" lon="3.92133">
        <ele>390</ele>
        <time>2022-04-01T18:17:48Z</time>
      </trkpt>
      <trkpt lat="46.06686" lon="3.92199">
        <ele>397</ele>
        <time>2022-04-01T18:18:04Z</time>
      </trkpt>
      <trkpt lat="46.06658" lon="3.92213">
        <ele>398</ele>
        <time>2022-04-01T18:18:09Z</time>
      </trkpt>
      <trkpt lat="46.06566" lon="3.92244">
        <ele>397</ele>
        <time>2022-04-01T18:18:26Z</time>
      </trkpt>
      <trkpt lat="46.0654" lon="3.9226">
        <ele>396</ele>
        <time>2022-04-01T18:18:31Z</time>
      </trkpt>
      <trkpt lat="46.06521" lon="3.92279">
        <ele>395</ele>
        <time>2022-04-01T18:18:35Z</time>
      </trkpt>
      <trkpt lat="46.0644" lon="3.9238">
        <ele>392</ele>
        <time>2022-04-01T18:18:54Z</time>
      </trkpt>
      <trkpt lat="46.06324" lon="3.92507">
        <ele>385</ele>
        <time>2022-04-01T18:19:20Z</time>
      </trkpt>
      <trkpt lat="46.06285" lon="3.92546">
        <ele>385</ele>
        <time>2022-04-01T18:19:29Z</time>
      </trkpt>
      <trkpt lat="46.0611" lon="3.927">
        <ele>378</ele>
        <time>2022-04-01T18:20:05Z</time>
      </trkpt>
      <trkpt lat="46.05908" lon="3.92813">
        <ele>376</ele>
        <time>2022-04-01T18:20:44Z</time>
      </trkpt>
      <trkpt lat="46.05837" lon="3.92854">
        <ele>380</ele>
        <time>2022-04-01T18:20:57Z</time>
      </trkpt>
      <trkpt lat="46.05783" lon="3.92892">
        <ele>381</ele>
        <time>2022-04-01T18:21:08Z</time>
      </trkpt>
      <trkpt lat="46.05747" lon="3.92922">
        <ele>381</ele>
        <time>2022-04-01T18:21:15Z</time>
      </trkpt>
      <trkpt lat="46.05696" lon="3.92969">
        <ele>381</ele>
        <time>2022-04-01T18:21:26Z</time>
      </trkpt>
      <trkpt lat="46.05566" lon="3.93106">
        <ele>378</ele>
        <time>2022-04-01T18:21:55Z</time>
      </trkpt>
      <trkpt lat="46.05544" lon="3.93122">
        <ele>378</ele>
        <time>2022-04-01T18:21:59Z</time>
      </trkpt>
      <trkpt lat="46.05525" lon="3.93139">
        <ele>377</ele>
        <time>2022-04-01T18:22:03Z</time>
      </trkpt>
      <trkpt lat="46.05489" lon="3.9318">
        <ele>376</ele>
        <time>2022-04-01T18:22:11Z</time>
      </trkpt>
      <trkpt lat="46.05453" lon="3.93234">
        <ele>375</ele>
        <time>2022-04-01T18:22:21Z</time>
      </trkpt>
      <trkpt lat="46.05436" lon="3.93267">
        <ele>373</ele>
        <time>2022-04-01T18:22:26Z</time>
      </trkpt>
      <trkpt lat="46.05428" lon="3.93293">
        <ele>372</ele>
        <time>2022-04-01T18:22:29Z</time>
      </trkpt>
      <trkpt lat="46.05395" lon="3.93354">
        <ele>370</ele>
        <time>2022-04-01T18:22:39Z</time>
      </trkpt>
      <trkpt lat="46.05377" lon="3.93382">
        <ele>369</ele>
        <time>2022-04-01T18:22:44Z</time>
      </trkpt>
      <trkpt lat="46.05356" lon="3.93409">
        <ele>369</ele>
        <time>2022-04-01T18:22:49Z</time>
      </trkpt>
      <trkpt lat="46.05327" lon="3.93439">
        <ele>368</ele>
        <time>2022-04-01T18:22:55Z</time>
      </trkpt>
      <trkpt lat="46.0528" lon="3.93475">
        <ele>368</ele>
        <time>2022-04-01T18:23:04Z</time>
      </trkpt>
      <trkpt lat="46.05225" lon="3.93511">
        <ele>367</ele>
        <time>2022-04-01T18:23:15Z</time>
      </trkpt>
      <trkpt lat="46.05205" lon="3.93517">
        <ele>367</ele>
        <time>2022-04-01T18:23:19Z</time>
      </trkpt>
      <trkpt lat="46.05194" lon="3.93517">
        <ele>367</ele>
        <time>2022-04-01T18:23:21Z</time>
      </trkpt>
      <trkpt lat="46.0519" lon="3.93515">
        <ele>367</ele>
        <time>2022-04-01T18:23:21Z</time>
      </trkpt>
      <trkpt lat="46.05188" lon="3.93512">
        <ele>367</ele>
        <time>2022-04-01T18:23:22Z</time>
      </trkpt>
      <trkpt lat="46.05182" lon="3.93492">
        <ele>367</ele>
        <time>2022-04-01T18:23:25Z</time>
      </trkpt>
      <trkpt lat="46.0518" lon="3.93476">
        <ele>367</ele>
        <time>2022-04-01T18:23:27Z</time>
      </trkpt>
      <trkpt lat="46.05184" lon="3.93441">
        <ele>368</ele>
        <time>2022-04-01T18:23:31Z</time>
      </trkpt>
      <trkpt lat="46.05188" lon="3.93378">
        <ele>368</ele>
        <time>2022-04-01T18:23:39Z</time>
      </trkpt>
      <trkpt lat="46.05186" lon="3.93328">
        <ele>368</ele>
        <time>2022-04-01T18:23:45Z</time>
      </trkpt>
      <trkpt lat="46.05192" lon="3.93152">
        <ele>372</ele>
        <time>2022-04-01T18:24:07Z</time>
      </trkpt>
      <trkpt lat="46.05203" lon="3.93122">
        <ele>372</ele>
        <time>2022-04-01T18:24:11Z</time>
      </trkpt>
      <trkpt lat="46.05194" lon="3.93086">
        <ele>373</ele>
        <time>2022-04-01T18:24:16Z</time>
      </trkpt>
      <trkpt lat="46.05203" lon="3.92672">
        <ele>384</ele>
        <time>2022-04-01T18:25:07Z</time>
      </trkpt>
      <trkpt lat="46.05201" lon="3.92665">
        <ele>384</ele>
        <time>2022-04-01T18:25:08Z</time>
      </trkpt>
      <trkpt lat="46.05206" lon="3.92589">
        <ele>386</ele>
        <time>2022-04-01T18:25:17Z</time>
      </trkpt>
      <trkpt lat="46.05206" lon="3.92582">
        <ele>386</ele>
        <time>2022-04-01T18:25:18Z</time>
      </trkpt>
      <trkpt lat="46.05202" lon="3.92571">
        <ele>386</ele>
        <time>2022-04-01T18:25:20Z</time>
      </trkpt>
      <trkpt lat="46.05205" lon="3.92564">
        <ele>387</ele>
        <time>2022-04-01T18:25:21Z</time>
      </trkpt>
      <trkpt lat="46.05203" lon="3.92552">
        <ele>387</ele>
        <time>2022-04-01T18:25:22Z</time>
      </trkpt>
      <trkpt lat="46.05197" lon="3.92546">
        <ele>387</ele>
        <time>2022-04-01T18:25:23Z</time>
      </trkpt>
      <trkpt lat="46.05192" lon="3.92547">
        <ele>386</ele>
        <time>2022-04-01T18:25:24Z</time>
      </trkpt>
      <trkpt lat="46.05157" lon="3.92383">
        <ele>391</ele>
        <time>2022-04-01T18:25:46Z</time>
      </trkpt>
      <trkpt lat="46.05118" lon="3.9223">
        <ele>396</ele>
        <time>2022-04-01T18:26:06Z</time>
      </trkpt>
      <trkpt lat="46.051" lon="3.92168">
        <ele>397</ele>
        <time>2022-04-01T18:26:14Z</time>
      </trkpt>
      <trkpt lat="46.05068" lon="3.92081">
        <ele>399</ele>
        <time>2022-04-01T18:26:26Z</time>
      </trkpt>
      <trkpt lat="46.05067" lon="3.92052">
        <ele>402</ele>
        <time>2022-04-01T18:26:30Z</time>
      </trkpt>
      <trkpt lat="46.05059" lon="3.91982">
        <ele>408</ele>
        <time>2022-04-01T18:26:38Z</time>
      </trkpt>
      <trkpt lat="46.05059" lon="3.91961">
        <ele>409</ele>
        <time>2022-04-01T18:26:41Z</time>
      </trkpt>
      <trkpt lat="46.05063" lon="3.91893">
        <ele>414</ele>
        <time>2022-04-01T18:26:49Z</time>
      </trkpt>
      <trkpt lat="46.05058" lon="3.91847">
        <ele>413</ele>
        <time>2022-04-01T18:26:55Z</time>
      </trkpt>
      <trkpt lat="46.05051" lon="3.91827">
        <ele>412</ele>
        <time>2022-04-01T18:26:58Z</time>
      </trkpt>
      <trkpt lat="46.0504" lon="3.9179">
        <ele>409</ele>
        <time>2022-04-01T18:27:03Z</time>
      </trkpt>
      <trkpt lat="46.05043" lon="3.91777">
        <ele>410</ele>
        <time>2022-04-01T18:27:05Z</time>
      </trkpt>
      <trkpt lat="46.05044" lon="3.91751">
        <ele>411</ele>
        <time>2022-04-01T18:27:08Z</time>
      </trkpt>
      <trkpt lat="46.05042" lon="3.91695">
        <ele>412</ele>
        <time>2022-04-01T18:27:15Z</time>
      </trkpt>
      <trkpt lat="46.05038" lon="3.91679">
        <ele>411</ele>
        <time>2022-04-01T18:27:17Z</time>
      </trkpt>
      <trkpt lat="46.05032" lon="3.91666">
        <ele>411</ele>
        <time>2022-04-01T18:27:19Z</time>
      </trkpt>
      <trkpt lat="46.05025" lon="3.91656">
        <ele>410</ele>
        <time>2022-04-01T18:27:21Z</time>
      </trkpt>
      <trkpt lat="46.04998" lon="3.91634">
        <ele>407</ele>
        <time>2022-04-01T18:27:26Z</time>
      </trkpt>
      <trkpt lat="46.04992" lon="3.91624">
        <ele>407</ele>
        <time>2022-04-01T18:27:28Z</time>
      </trkpt>
      <trkpt lat="46.04954" lon="3.91495">
        <ele>409</ele>
        <time>2022-04-01T18:27:45Z</time>
      </trkpt>
      <trkpt lat="46.04952" lon="3.9148">
        <ele>408</ele>
        <time>2022-04-01T18:27:47Z</time>
      </trkpt>
      <trkpt lat="46.04952" lon="3.91456">
        <ele>408</ele>
        <time>2022-04-01T18:27:50Z</time>
      </trkpt>
      <trkpt lat="46.04958" lon="3.91434">
        <ele>410</ele>
        <time>2022-04-01T18:27:53Z</time>
      </trkpt>
      <trkpt lat="46.04983" lon="3.91384">
        <ele>416</ele>
        <time>2022-04-01T18:28:00Z</time>
      </trkpt>
      <trkpt lat="46.05021" lon="3.91287">
        <ele>418</ele>
        <time>2022-04-01T18:28:14Z</time>
      </trkpt>
      <trkpt lat="46.05035" lon="3.91245">
        <ele>418</ele>
        <time>2022-04-01T18:28:20Z</time>
      </trkpt>
      <trkpt lat="46.05041" lon="3.91217">
        <ele>421</ele>
        <time>2022-04-01T18:28:24Z</time>
      </trkpt>
      <trkpt lat="46.05045" lon="3.91185">
        <ele>423</ele>
        <time>2022-04-01T18:28:28Z</time>
      </trkpt>
      <trkpt lat="46.05045" lon="3.9115">
        <ele>425</ele>
        <time>2022-04-01T18:28:32Z</time>
      </trkpt>
      <trkpt lat="46.05037" lon="3.911">
        <ele>428</ele>
        <time>2022-04-01T18:28:38Z</time>
      </trkpt>
      <trkpt lat="46.05005" lon="3.90949">
        <ele>435</ele>
        <time>2022-04-01T18:28:58Z</time>
      </trkpt>
      <trkpt lat="46.05002" lon="3.90936">
        <ele>436</ele>
        <time>2022-04-01T18:28:59Z</time>
      </trkpt>
      <trkpt lat="46.04967" lon="3.90893">
        <ele>434</ele>
        <time>2022-04-01T18:29:08Z</time>
      </trkpt>
      <trkpt lat="46.04932" lon="3.90864">
        <ele>432</ele>
        <time>2022-04-01T18:29:15Z</time>
      </trkpt>
      <trkpt lat="46.04884" lon="3.90831">
        <ele>427</ele>
        <time>2022-04-01T18:29:24Z</time>
      </trkpt>
      <trkpt lat="46.04865" lon="3.90813">
        <ele>424</ele>
        <time>2022-04-01T18:29:28Z</time>
      </trkpt>
      <trkpt lat="46.04849" lon="3.90784">
        <ele>422</ele>
        <time>2022-04-01T18:29:33Z</time>
      </trkpt>
      <trkpt lat="46.04855" lon="3.90619">
        <ele>425</ele>
        <time>2022-04-01T18:29:53Z</time>
      </trkpt>
      <trkpt lat="46.04876" lon="3.90521">
        <ele>429</ele>
        <time>2022-04-01T18:30:06Z</time>
      </trkpt>
      <trkpt lat="46.04876" lon="3.90495">
        <ele>428</ele>
        <time>2022-04-01T18:30:09Z</time>
      </trkpt>
      <trkpt lat="46.04871" lon="3.90467">
        <ele>431</ele>
        <time>2022-04-01T18:30:13Z</time>
      </trkpt>
      <trkpt lat="46.04861" lon="3.90435">
        <ele>432</ele>
        <time>2022-04-01T18:30:17Z</time>
      </trkpt>
      <trkpt lat="46.04855" lon="3.90425">
        <ele>432</ele>
        <time>2022-04-01T18:30:19Z</time>
      </trkpt>
      <trkpt lat="46.04845" lon="3.90415">
        <ele>432</ele>
        <time>2022-04-01T18:30:21Z</time>
      </trkpt>
      <trkpt lat="46.04793" lon="3.90385">
        <ele>430</ele>
        <time>2022-04-01T18:30:31Z</time>
      </trkpt>
      <trkpt lat="46.04775" lon="3.90365">
        <ele>430</ele>
        <time>2022-04-01T18:30:35Z</time>
      </trkpt>
      <trkpt lat="46.04702" lon="3.90212">
        <ele>433</ele>
        <time>2022-04-01T18:30:58Z</time>
      </trkpt>
      <trkpt lat="46.04688" lon="3.90179">
        <ele>431</ele>
        <time>2022-04-01T18:31:03Z</time>
      </trkpt>
      <trkpt lat="46.04686" lon="3.90143">
        <ele>432</ele>
        <time>2022-04-01T18:31:07Z</time>
      </trkpt>
      <trkpt lat="46.04687" lon="3.89964">
        <ele>430</ele>
        <time>2022-04-01T18:31:29Z</time>
      </trkpt>
      <trkpt lat="46.04662" lon="3.89859">
        <ele>432</ele>
        <time>2022-04-01T18:31:43Z</time>
      </trkpt>
      <trkpt lat="46.04625" lon="3.89764">
        <ele>432</ele>
        <time>2022-04-01T18:31:56Z</time>
      </trkpt>
      <trkpt lat="46.04591" lon="3.89681">
        <ele>423</ele>
        <time>2022-04-01T18:32:08Z</time>
      </trkpt>
      <trkpt lat="46.04572" lon="3.8951">
        <ele>430</ele>
        <time>2022-04-01T18:32:30Z</time>
      </trkpt>
      <trkpt lat="46.04562" lon="3.89447">
        <ele>431</ele>
        <time>2022-04-01T18:32:38Z</time>
      </trkpt>
      <trkpt lat="46.04564" lon="3.89385">
        <ele>431</ele>
        <time>2022-04-01T18:32:45Z</time>
      </trkpt>
      <trkpt lat="46.04578" lon="3.89306">
        <ele>428</ele>
        <time>2022-04-01T18:32:55Z</time>
      </trkpt>
      <trkpt lat="46.04581" lon="3.8928">
        <ele>428</ele>
        <time>2022-04-01T18:32:59Z</time>
      </trkpt>
      <trkpt lat="46.04579" lon="3.89255">
        <ele>427</ele>
        <time>2022-04-01T18:33:02Z</time>
      </trkpt>
      <trkpt lat="46.04569" lon="3.89217">
        <ele>430</ele>
        <time>2022-04-01T18:33:07Z</time>
      </trkpt>
      <trkpt lat="46.04527" lon="3.89098">
        <ele>434</ele>
        <time>2022-04-01T18:33:23Z</time>
      </trkpt>
      <trkpt lat="46.04502" lon="3.89057">
        <ele>431</ele>
        <time>2022-04-01T18:33:30Z</time>
      </trkpt>
      <trkpt lat="46.04395" lon="3.88917">
        <ele>433</ele>
        <time>2022-04-01T18:33:56Z</time>
      </trkpt>
      <trkpt lat="46.04384" lon="3.88892">
        <ele>435</ele>
        <time>2022-04-01T18:33:59Z</time>
      </trkpt>
      <trkpt lat="46.04379" lon="3.88864">
        <ele>436</ele>
        <time>2022-04-01T18:34:03Z</time>
      </trkpt>
      <trkpt lat="46.04369" lon="3.88741">
        <ele>436</ele>
        <time>2022-04-01T18:34:18Z</time>
      </trkpt>
      <trkpt lat="46.04358" lon="3.8865">
        <ele>438</ele>
        <time>2022-04-01T18:34:30Z</time>
      </trkpt>
      <trkpt lat="46.04353" lon="3.88557">
        <ele>443</ele>
        <time>2022-04-01T18:34:41Z</time>
      </trkpt>
      <trkpt lat="46.04347" lon="3.88522">
        <ele>442</ele>
        <time>2022-04-01T18:34:46Z</time>
      </trkpt>
      <trkpt lat="46.04316" lon="3.88453">
        <ele>439</ele>
        <time>2022-04-01T18:34:56Z</time>
      </trkpt>
      <trkpt lat="46.04311" lon="3.88428">
        <ele>440</ele>
        <time>2022-04-01T18:34:59Z</time>
      </trkpt>
      <trkpt lat="46.04312" lon="3.88402">
        <ele>441</ele>
        <time>2022-04-01T18:35:02Z</time>
      </trkpt>
      <trkpt lat="46.04356" lon="3.88221">
        <ele>449</ele>
        <time>2022-04-01T18:35:26Z</time>
      </trkpt>
      <trkpt lat="46.04361" lon="3.88192">
        <ele>449</ele>
        <time>2022-04-01T18:35:29Z</time>
      </trkpt>
      <trkpt lat="46.0439" lon="3.88081">
        <ele>447</ele>
        <time>2022-04-01T18:35:44Z</time>
      </trkpt>
      <trkpt lat="46.04396" lon="3.88049">
        <ele>446</ele>
        <time>2022-04-01T18:35:48Z</time>
      </trkpt>
      <trkpt lat="46.04397" lon="3.88024">
        <ele>444</ele>
        <time>2022-04-01T18:35:51Z</time>
      </trkpt>
      <trkpt lat="46.04395" lon="3.87998">
        <ele>443</ele>
        <time>2022-04-01T18:35:55Z</time>
      </trkpt>
      <trkpt lat="46.04386" lon="3.87935">
        <ele>450</ele>
        <time>2022-04-01T18:36:02Z</time>
      </trkpt>
      <trkpt lat="46.04385" lon="3.87896">
        <ele>454</ele>
        <time>2022-04-01T18:36:07Z</time>
      </trkpt>
      <trkpt lat="46.04387" lon="3.87874">
        <ele>456</ele>
        <time>2022-04-01T18:36:10Z</time>
      </trkpt>
      <trkpt lat="46.04394" lon="3.87848">
        <ele>457</ele>
        <time>2022-04-01T18:36:13Z</time>
      </trkpt>
      <trkpt lat="46.04407" lon="3.8779">
        <ele>460</ele>
        <time>2022-04-01T18:36:21Z</time>
      </trkpt>
      <trkpt lat="46.04454" lon="3.87628">
        <ele>470</ele>
        <time>2022-04-01T18:36:43Z</time>
      </trkpt>
      <trkpt lat="46.04462" lon="3.87571">
        <ele>474</ele>
        <time>2022-04-01T18:36:50Z</time>
      </trkpt>
      <trkpt lat="46.04463" lon="3.87534">
        <ele>475</ele>
        <time>2022-04-01T18:36:54Z</time>
      </trkpt>
      <trkpt lat="46.04459" lon="3.87483">
        <ele>477</ele>
        <time>2022-04-01T18:37:01Z</time>
      </trkpt>
      <trkpt lat="46.04446" lon="3.87433">
        <ele>477</ele>
        <time>2022-04-01T18:37:07Z</time>
      </trkpt>
      <trkpt lat="46.04417" lon="3.87362">
        <ele>481</ele>
        <time>2022-04-01T18:37:18Z</time>
      </trkpt>
      <trkpt lat="46.04319" lon="3.87135">
        <ele>502</ele>
        <time>2022-04-01T18:37:51Z</time>
      </trkpt>
      <trkpt lat="46.04303" lon="3.87084">
        <ele>504</ele>
        <time>2022-04-01T18:37:57Z</time>
      </trkpt>
      <trkpt lat="46.04247" lon="3.86869">
        <ele>500</ele>
        <time>2022-04-01T18:38:26Z</time>
      </trkpt>
      <trkpt lat="46.04235" lon="3.86845">
        <ele>500</ele>
        <time>2022-04-01T18:38:29Z</time>
      </trkpt>
      <trkpt lat="46.04219" lon="3.86823">
        <ele>500</ele>
        <time>2022-04-01T18:38:33Z</time>
      </trkpt>
      <trkpt lat="46.04123" lon="3.86764">
        <ele>498</ele>
        <time>2022-04-01T18:38:52Z</time>
      </trkpt>
      <trkpt lat="46.04075" lon="3.86739">
        <ele>494</ele>
        <time>2022-04-01T18:39:01Z</time>
      </trkpt>
      <trkpt lat="46.04064" lon="3.86737">
        <ele>493</ele>
        <time>2022-04-01T18:39:03Z</time>
      </trkpt>
      <trkpt lat="46.0405" lon="3.8674">
        <ele>493</ele>
        <time>2022-04-01T18:39:06Z</time>
      </trkpt>
      <trkpt lat="46.04031" lon="3.86751">
        <ele>495</ele>
        <time>2022-04-01T18:39:09Z</time>
      </trkpt>
      <trkpt lat="46.04013" lon="3.86769">
        <ele>501</ele>
        <time>2022-04-01T18:39:13Z</time>
      </trkpt>
      <trkpt lat="46.03973" lon="3.86818">
        <ele>511</ele>
        <time>2022-04-01T18:39:22Z</time>
      </trkpt>
      <trkpt lat="46.03923" lon="3.86843">
        <ele>507</ele>
        <time>2022-04-01T18:39:32Z</time>
      </trkpt>
      <trkpt lat="46.03872" lon="3.86858">
        <ele>507</ele>
        <time>2022-04-01T18:39:41Z</time>
      </trkpt>
      <trkpt lat="46.03847" lon="3.86859">
        <ele>504</ele>
        <time>2022-04-01T18:39:46Z</time>
      </trkpt>
      <trkpt lat="46.03829" lon="3.86847">
        <ele>498</ele>
        <time>2022-04-01T18:39:49Z</time>
      </trkpt>
      <trkpt lat="46.03813" lon="3.86826">
        <ele>494</ele>
        <time>2022-04-01T18:39:53Z</time>
      </trkpt>
      <trkpt lat="46.03805" lon="3.86799">
        <ele>497</ele>
        <time>2022-04-01T18:39:57Z</time>
      </trkpt>
      <trkpt lat="46.03804" lon="3.86772">
        <ele>500</ele>
        <time>2022-04-01T18:40:00Z</time>
      </trkpt>
      <trkpt lat="46.03806" lon="3.86751">
        <ele>503</ele>
        <time>2022-04-01T18:40:03Z</time>
      </trkpt>
      <trkpt lat="46.0378" lon="3.86756">
        <ele>507</ele>
        <time>2022-04-01T18:40:07Z</time>
      </trkpt>
      <trkpt lat="46.0372" lon="3.86775">
        <ele>509</ele>
        <time>2022-04-01T18:40:18Z</time>
      </trkpt>
      <trkpt lat="46.03692" lon="3.8678">
        <ele>508</ele>
        <time>2022-04-01T18:40:23Z</time>
      </trkpt>
      <trkpt lat="46.03503" lon="3.86783">
        <ele>520</ele>
        <time>2022-04-01T18:40:57Z</time>
      </trkpt>
      <trkpt lat="46.03484" lon="3.86781">
        <ele>520</ele>
        <time>2022-04-01T18:41:00Z</time>
      </trkpt>
      <trkpt lat="46.03358" lon="3.86744">
        <ele>519</ele>
        <time>2022-04-01T18:41:23Z</time>
      </trkpt>
      <trkpt lat="46.03312" lon="3.86733">
        <ele>518</ele>
        <time>2022-04-01T18:41:31Z</time>
      </trkpt>
      <trkpt lat="46.03286" lon="3.86723">
        <ele>518</ele>
        <time>2022-04-01T18:41:36Z</time>
      </trkpt>
      <trkpt lat="46.03272" lon="3.86715">
        <ele>518</ele>
        <time>2022-04-01T18:41:39Z</time>
      </trkpt>
      <trkpt lat="46.03179" lon="3.86621">
        <ele>519</ele>
        <time>2022-04-01T18:41:59Z</time>
      </trkpt>
      <trkpt lat="46.03164" lon="3.86614">
        <ele>517</ele>
        <time>2022-04-01T18:42:02Z</time>
      </trkpt>
      <trkpt lat="46.03153" lon="3.86612">
        <ele>519</ele>
        <time>2022-04-01T18:42:04Z</time>
      </trkpt>
      <trkpt lat="46.03113" lon="3.8662">
        <ele>521</ele>
        <time>2022-04-01T18:42:11Z</time>
      </trkpt>
      <trkpt lat="46.03037" lon="3.86623">
        <ele>529</ele>
        <time>2022-04-01T18:42:25Z</time>
      </trkpt>
      <trkpt lat="46.03021" lon="3.8663">
        <ele>528</ele>
        <time>2022-04-01T18:42:28Z</time>
      </trkpt>
      <trkpt lat="46.02988" lon="3.86638">
        <ele>530</ele>
        <time>2022-04-01T18:42:33Z</time>
      </trkpt>
      <trkpt lat="46.0298" lon="3.86643">
        <ele>530</ele>
        <time>2022-04-01T18:42:35Z</time>
      </trkpt>
      <trkpt lat="46.02916" lon="3.86721">
        <ele>526</ele>
        <time>2022-04-01T18:42:50Z</time>
      </trkpt>
      <trkpt lat="46.029" lon="3.86734">
        <ele>523</ele>
        <time>2022-04-01T18:42:53Z</time>
      </trkpt>
      <trkpt lat="46.02888" lon="3.86736">
        <ele>522</ele>
        <time>2022-04-01T18:42:55Z</time>
      </trkpt>
      <trkpt lat="46.02878" lon="3.86734">
        <ele>523</ele>
        <time>2022-04-01T18:42:57Z</time>
      </trkpt>
      <trkpt lat="46.02866" lon="3.86724">
        <ele>524</ele>
        <time>2022-04-01T18:43:00Z</time>
      </trkpt>
      <trkpt lat="46.02849" lon="3.86689">
        <ele>530</ele>
        <time>2022-04-01T18:43:05Z</time>
      </trkpt>
      <trkpt lat="46.02833" lon="3.86633">
        <ele>536</ele>
        <time>2022-04-01T18:43:12Z</time>
      </trkpt>
      <trkpt lat="46.02819" lon="3.86567">
        <ele>543</ele>
        <time>2022-04-01T18:43:21Z</time>
      </trkpt>
      <trkpt lat="46.0282" lon="3.86552">
        <ele>544</ele>
        <time>2022-04-01T18:43:23Z</time>
      </trkpt>
      <trkpt lat="46.02838" lon="3.86502">
        <ele>543</ele>
        <time>2022-04-01T18:43:30Z</time>
      </trkpt>
      <trkpt lat="46.02856" lon="3.86435">
        <ele>552</ele>
        <time>2022-04-01T18:43:39Z</time>
      </trkpt>
      <trkpt lat="46.02864" lon="3.864">
        <ele>556</ele>
        <time>2022-04-01T18:43:43Z</time>
      </trkpt>
      <trkpt lat="46.02869" lon="3.86366">
        <ele>560</ele>
        <time>2022-04-01T18:43:47Z</time>
      </trkpt>
      <trkpt lat="46.0287" lon="3.86341">
        <ele>562</ele>
        <time>2022-04-01T18:43:51Z</time>
      </trkpt>
      <trkpt lat="46.02866" lon="3.86325">
        <ele>562</ele>
        <time>2022-04-01T18:43:53Z</time>
      </trkpt>
      <trkpt lat="46.02844" lon="3.86259">
        <ele>558</ele>
        <time>2022-04-01T18:44:02Z</time>
      </trkpt>
      <trkpt lat="46.02823" lon="3.86229">
        <ele>555</ele>
        <time>2022-04-01T18:44:07Z</time>
      </trkpt>
      <trkpt lat="46.02809" lon="3.86202">
        <ele>555</ele>
        <time>2022-04-01T18:44:11Z</time>
      </trkpt>
      <trkpt lat="46.02797" lon="3.86166">
        <ele>555</ele>
        <time>2022-04-01T18:44:16Z</time>
      </trkpt>
      <trkpt lat="46.02788" lon="3.86156">
        <ele>556</ele>
        <time>2022-04-01T18:44:18Z</time>
      </trkpt>
      <trkpt lat="46.02758" lon="3.86139">
        <ele>556</ele>
        <time>2022-04-01T18:44:24Z</time>
      </trkpt>
      <trkpt lat="46.02751" lon="3.86133">
        <ele>556</ele>
        <time>2022-04-01T18:44:25Z</time>
      </trkpt>
      <trkpt lat="46.02736" lon="3.86108">
        <ele>563</ele>
        <time>2022-04-01T18:44:29Z</time>
      </trkpt>
      <trkpt lat="46.02729" lon="3.861">
        <ele>566</ele>
        <time>2022-04-01T18:44:31Z</time>
      </trkpt>
      <trkpt lat="46.02718" lon="3.86094">
        <ele>570</ele>
        <time>2022-04-01T18:44:33Z</time>
      </trkpt>
      <trkpt lat="46.02709" lon="3.86096">
        <ele>572</ele>
        <time>2022-04-01T18:44:35Z</time>
      </trkpt>
      <trkpt lat="46.02703" lon="3.86102">
        <ele>573</ele>
        <time>2022-04-01T18:44:36Z</time>
      </trkpt>
      <trkpt lat="46.02696" lon="3.86124">
        <ele>570</ele>
        <time>2022-04-01T18:44:39Z</time>
      </trkpt>
      <trkpt lat="46.02692" lon="3.86171">
        <ele>564</ele>
        <time>2022-04-01T18:44:45Z</time>
      </trkpt>
      <trkpt lat="46.02681" lon="3.86203">
        <ele>566</ele>
        <time>2022-04-01T18:44:49Z</time>
      </trkpt>
      <trkpt lat="46.02682" lon="3.86219">
        <ele>566</ele>
        <time>2022-04-01T18:44:51Z</time>
      </trkpt>
      <trkpt lat="46.02684" lon="3.86226">
        <ele>565</ele>
        <time>2022-04-01T18:44:52Z</time>
      </trkpt>
      <trkpt lat="46.02759" lon="3.86298">
        <ele>565</ele>
        <time>2022-04-01T18:45:08Z</time>
      </trkpt>
      <trkpt lat="46.02776" lon="3.86325">
        <ele>566</ele>
        <time>2022-04-01T18:45:13Z</time>
      </trkpt>
      <trkpt lat="46.02782" lon="3.86344">
        <ele>566</ele>
        <time>2022-04-01T18:45:15Z</time>
      </trkpt>
      <trkpt lat="46.02783" lon="3.86363">
        <ele>566</ele>
        <time>2022-04-01T18:45:18Z</time>
      </trkpt>
      <trkpt lat="46.02782" lon="3.8639">
        <ele>568</ele>
        <time>2022-04-01T18:45:21Z</time>
      </trkpt>
      <trkpt lat="46.02772" lon="3.86408">
        <ele>572</ele>
        <time>2022-04-01T18:45:24Z</time>
      </trkpt>
      <trkpt lat="46.02725" lon="3.86469">
        <ele>580</ele>
        <time>2022-04-01T18:45:35Z</time>
      </trkpt>
      <trkpt lat="46.02714" lon="3.86501">
        <ele>580</ele>
        <time>2022-04-01T18:45:39Z</time>
      </trkpt>
      <trkpt lat="46.02706" lon="3.86594">
        <ele>568</ele>
        <time>2022-04-01T18:45:51Z</time>
      </trkpt>
      <trkpt lat="46.02698" lon="3.86612">
        <ele>567</ele>
        <time>2022-04-01T18:45:54Z</time>
      </trkpt>
      <trkpt lat="46.0269" lon="3.86619">
        <ele>568</ele>
        <time>2022-04-01T18:45:55Z</time>
      </trkpt>
      <trkpt lat="46.02678" lon="3.86625">
        <ele>570</ele>
        <time>2022-04-01T18:45:58Z</time>
      </trkpt>
      <trkpt lat="46.02619" lon="3.86632">
        <ele>579</ele>
        <time>2022-04-01T18:46:08Z</time>
      </trkpt>
      <trkpt lat="46.02611" lon="3.86636">
        <ele>579</ele>
        <time>2022-04-01T18:46:10Z</time>
      </trkpt>
      <trkpt lat="46.0258" lon="3.86657">
        <ele>578</ele>
        <time>2022-04-01T18:46:16Z</time>
      </trkpt>
      <trkpt lat="46.02563" lon="3.86664">
        <ele>578</ele>
        <time>2022-04-01T18:46:19Z</time>
      </trkpt>
      <trkpt lat="46.02554" lon="3.86665">
        <ele>578</ele>
        <time>2022-04-01T18:46:20Z</time>
      </trkpt>
      <trkpt lat="46.02508" lon="3.86657">
        <ele>585</ele>
        <time>2022-04-01T18:46:29Z</time>
      </trkpt>
      <trkpt lat="46.02498" lon="3.86659">
        <ele>585</ele>
        <time>2022-04-01T18:46:31Z</time>
      </trkpt>
      <trkpt lat="46.0248" lon="3.86669">
        <ele>586</ele>
        <time>2022-04-01T18:46:34Z</time>
      </trkpt>
      <trkpt lat="46.02453" lon="3.86695">
        <ele>584</ele>
        <time>2022-04-01T18:46:40Z</time>
      </trkpt>
      <trkpt lat="46.02446" lon="3.86701">
        <ele>583</ele>
        <time>2022-04-01T18:46:41Z</time>
      </trkpt>
      <trkpt lat="46.02415" lon="3.86711">
        <ele>585</ele>
        <time>2022-04-01T18:46:47Z</time>
      </trkpt>
      <trkpt lat="46.02384" lon="3.86717">
        <ele>583</ele>
        <time>2022-04-01T18:46:52Z</time>
      </trkpt>
      <trkpt lat="46.02375" lon="3.86716">
        <ele>583</ele>
        <time>2022-04-01T18:46:54Z</time>
      </trkpt>
      <trkpt lat="46.02368" lon="3.86711">
        <ele>584</ele>
        <time>2022-04-01T18:46:55Z</time>
      </trkpt>
      <trkpt lat="46.02342" lon="3.8668">
        <ele>590</ele>
        <time>2022-04-01T18:47:01Z</time>
      </trkpt>
      <trkpt lat="46.02284" lon="3.86635">
        <ele>601</ele>
        <time>2022-04-01T18:47:13Z</time>
      </trkpt>
      <trkpt lat="46.02273" lon="3.86629">
        <ele>602</ele>
        <time>2022-04-01T18:47:15Z</time>
      </trkpt>
      <trkpt lat="46.02266" lon="3.8663">
        <ele>602</ele>
        <time>2022-04-01T18:47:16Z</time>
      </trkpt>
      <trkpt lat="46.02261" lon="3.86634">
        <ele>602</ele>
        <time>2022-04-01T18:47:17Z</time>
      </trkpt>
      <trkpt lat="46.02258" lon="3.86639">
        <ele>602</ele>
        <time>2022-04-01T18:47:18Z</time>
      </trkpt>
      <trkpt lat="46.02251" lon="3.86686">
        <ele>596</ele>
        <time>2022-04-01T18:47:24Z</time>
      </trkpt>
      <trkpt lat="46.02245" lon="3.86708">
        <ele>594</ele>
        <time>2022-04-01T18:47:27Z</time>
      </trkpt>
      <trkpt lat="46.02239" lon="3.86719">
        <ele>592</ele>
        <time>2022-04-01T18:47:29Z</time>
      </trkpt>
      <trkpt lat="46.02228" lon="3.86727">
        <ele>592</ele>
        <time>2022-04-01T18:47:31Z</time>
      </trkpt>
      <trkpt lat="46.02213" lon="3.86732">
        <ele>591</ele>
        <time>2022-04-01T18:47:34Z</time>
      </trkpt>
      <trkpt lat="46.02203" lon="3.86732">
        <ele>592</ele>
        <time>2022-04-01T18:47:36Z</time>
      </trkpt>
      <trkpt lat="46.02193" lon="3.86727">
        <ele>592</ele>
        <time>2022-04-01T18:47:37Z</time>
      </trkpt>
      <trkpt lat="46.02183" lon="3.8672">
        <ele>593</ele>
        <time>2022-04-01T18:47:39Z</time>
      </trkpt>
      <trkpt lat="46.02174" lon="3.86707">
        <ele>595</ele>
        <time>2022-04-01T18:47:42Z</time>
      </trkpt>
      <trkpt lat="46.02107" lon="3.86542">
        <ele>607</ele>
        <time>2022-04-01T18:48:05Z</time>
      </trkpt>
      <trkpt lat="46.02105" lon="3.86529">
        <ele>608</ele>
        <time>2022-04-01T18:48:07Z</time>
      </trkpt>
      <trkpt lat="46.02103" lon="3.86511">
        <ele>610</ele>
        <time>2022-04-01T18:48:09Z</time>
      </trkpt>
      <trkpt lat="46.02104" lon="3.86472">
        <ele>616</ele>
        <time>2022-04-01T18:48:14Z</time>
      </trkpt>
      <trkpt lat="46.02101" lon="3.86457">
        <ele>619</ele>
        <time>2022-04-01T18:48:16Z</time>
      </trkpt>
      <trkpt lat="46.02095" lon="3.86448">
        <ele>620</ele>
        <time>2022-04-01T18:48:18Z</time>
      </trkpt>
      <trkpt lat="46.02088" lon="3.86446">
        <ele>620</ele>
        <time>2022-04-01T18:48:19Z</time>
      </trkpt>
      <trkpt lat="46.02079" lon="3.86446">
        <ele>620</ele>
        <time>2022-04-01T18:48:20Z</time>
      </trkpt>
      <trkpt lat="46.02036" lon="3.86469">
        <ele>617</ele>
        <time>2022-04-01T18:48:29Z</time>
      </trkpt>
      <trkpt lat="46.02026" lon="3.8647">
        <ele>618</ele>
        <time>2022-04-01T18:48:30Z</time>
      </trkpt>
      <trkpt lat="46.01998" lon="3.86458">
        <ele>621</ele>
        <time>2022-04-01T18:48:36Z</time>
      </trkpt>
      <trkpt lat="46.01986" lon="3.86459">
        <ele>623</ele>
        <time>2022-04-01T18:48:38Z</time>
      </trkpt>
      <trkpt lat="46.01975" lon="3.86468">
        <ele>624</ele>
        <time>2022-04-01T18:48:40Z</time>
      </trkpt>
      <trkpt lat="46.01961" lon="3.86493">
        <ele>622</ele>
        <time>2022-04-01T18:48:44Z</time>
      </trkpt>
      <trkpt lat="46.01936" lon="3.86558">
        <ele>621</ele>
        <time>2022-04-01T18:48:53Z</time>
      </trkpt>
      <trkpt lat="46.01927" lon="3.86564">
        <ele>622</ele>
        <time>2022-04-01T18:48:55Z</time>
      </trkpt>
      <trkpt lat="46.01916" lon="3.86564">
        <ele>623</ele>
        <time>2022-04-01T18:48:57Z</time>
      </trkpt>
      <trkpt lat="46.01867" lon="3.86525">
        <ele>626</ele>
        <time>2022-04-01T18:49:07Z</time>
      </trkpt>
      <trkpt lat="46.01845" lon="3.86487">
        <ele>632</ele>
        <time>2022-04-01T18:49:13Z</time>
      </trkpt>
      <trkpt lat="46.0183" lon="3.86456">
        <ele>637</ele>
        <time>2022-04-01T18:49:18Z</time>
      </trkpt>
      <trkpt lat="46.01819" lon="3.8645">
        <ele>640</ele>
        <time>2022-04-01T18:49:20Z</time>
      </trkpt>
      <trkpt lat="46.0181" lon="3.8645">
        <ele>643</ele>
        <time>2022-04-01T18:49:21Z</time>
      </trkpt>
      <trkpt lat="46.018" lon="3.86455">
        <ele>645</ele>
        <time>2022-04-01T18:49:23Z</time>
      </trkpt>
      <trkpt lat="46.01791" lon="3.86472">
        <ele>646</ele>
        <time>2022-04-01T18:49:26Z</time>
      </trkpt>
      <trkpt lat="46.01789" lon="3.86506">
        <ele>644</ele>
        <time>2022-04-01T18:49:30Z</time>
      </trkpt>
      <trkpt lat="46.01789" lon="3.86546">
        <ele>637</ele>
        <time>2022-04-01T18:49:35Z</time>
      </trkpt>
      <trkpt lat="46.01778" lon="3.86585">
        <ele>634</ele>
        <time>2022-04-01T18:49:40Z</time>
      </trkpt>
      <trkpt lat="46.01747" lon="3.86623">
        <ele>634</ele>
        <time>2022-04-01T18:49:47Z</time>
      </trkpt>
      <trkpt lat="46.01723" lon="3.86662">
        <ele>629</ele>
        <time>2022-04-01T18:49:54Z</time>
      </trkpt>
      <trkpt lat="46.01705" lon="3.86685">
        <ele>631</ele>
        <time>2022-04-01T18:49:58Z</time>
      </trkpt>
      <trkpt lat="46.01683" lon="3.86701">
        <ele>634</ele>
        <time>2022-04-01T18:50:02Z</time>
      </trkpt>
      <trkpt lat="46.01673" lon="3.86716">
        <ele>634</ele>
        <time>2022-04-01T18:50:05Z</time>
      </trkpt>
      <trkpt lat="46.0167" lon="3.86726">
        <ele>633</ele>
        <time>2022-04-01T18:50:06Z</time>
      </trkpt>
      <trkpt lat="46.0167" lon="3.86743">
        <ele>631</ele>
        <time>2022-04-01T18:50:08Z</time>
      </trkpt>
      <trkpt lat="46.01673" lon="3.86754">
        <ele>629</ele>
        <time>2022-04-01T18:50:10Z</time>
      </trkpt>
      <trkpt lat="46.0168" lon="3.86765">
        <ele>628</ele>
        <time>2022-04-01T18:50:12Z</time>
      </trkpt>
      <trkpt lat="46.01727" lon="3.86797">
        <ele>622</ele>
        <time>2022-04-01T18:50:21Z</time>
      </trkpt>
      <trkpt lat="46.01734" lon="3.86804">
        <ele>622</ele>
        <time>2022-04-01T18:50:23Z</time>
      </trkpt>
      <trkpt lat="46.01739" lon="3.86817">
        <ele>623</ele>
        <time>2022-04-01T18:50:24Z</time>
      </trkpt>
      <trkpt lat="46.01743" lon="3.86841">
        <ele>623</ele>
        <time>2022-04-01T18:50:27Z</time>
      </trkpt>
      <trkpt lat="46.01742" lon="3.86861">
        <ele>620</ele>
        <time>2022-04-01T18:50:30Z</time>
      </trkpt>
      <trkpt lat="46.01738" lon="3.86876">
        <ele>619</ele>
        <time>2022-04-01T18:50:32Z</time>
      </trkpt>
      <trkpt lat="46.01728" lon="3.8689">
        <ele>619</ele>
        <time>2022-04-01T18:50:34Z</time>
      </trkpt>
      <trkpt lat="46.01717" lon="3.86898">
        <ele>619</ele>
        <time>2022-04-01T18:50:37Z</time>
      </trkpt>
      <trkpt lat="46.01703" lon="3.86903">
        <ele>620</ele>
        <time>2022-04-01T18:50:39Z</time>
      </trkpt>
      <trkpt lat="46.01642" lon="3.86914">
        <ele>622</ele>
        <time>2022-04-01T18:50:50Z</time>
      </trkpt>
      <trkpt lat="46.01632" lon="3.86911">
        <ele>621</ele>
        <time>2022-04-01T18:50:52Z</time>
      </trkpt>
      <trkpt lat="46.01609" lon="3.86881">
        <ele>623</ele>
        <time>2022-04-01T18:50:57Z</time>
      </trkpt>
      <trkpt lat="46.0158" lon="3.86865">
        <ele>624</ele>
        <time>2022-04-01T18:51:03Z</time>
      </trkpt>
      <trkpt lat="46.01569" lon="3.86854">
        <ele>627</ele>
        <time>2022-04-01T18:51:05Z</time>
      </trkpt>
      <trkpt lat="46.01555" lon="3.86833">
        <ele>631</ele>
        <time>2022-04-01T18:51:09Z</time>
      </trkpt>
      <trkpt lat="46.01546" lon="3.86824">
        <ele>634</ele>
        <time>2022-04-01T18:51:11Z</time>
      </trkpt>
      <trkpt lat="46.01538" lon="3.86822">
        <ele>635</ele>
        <time>2022-04-01T18:51:12Z</time>
      </trkpt>
      <trkpt lat="46.01526" lon="3.86823">
        <ele>636</ele>
        <time>2022-04-01T18:51:14Z</time>
      </trkpt>
      <trkpt lat="46.01514" lon="3.86834">
        <ele>634</ele>
        <time>2022-04-01T18:51:17Z</time>
      </trkpt>
      <trkpt lat="46.01502" lon="3.86855">
        <ele>632</ele>
        <time>2022-04-01T18:51:20Z</time>
      </trkpt>
      <trkpt lat="46.015" lon="3.86868">
        <ele>631</ele>
        <time>2022-04-01T18:51:22Z</time>
      </trkpt>
      <trkpt lat="46.01482" lon="3.86887">
        <ele>630</ele>
        <time>2022-04-01T18:51:26Z</time>
      </trkpt>
      <trkpt lat="46.0147" lon="3.86893">
        <ele>630</ele>
        <time>2022-04-01T18:51:28Z</time>
      </trkpt>
      <trkpt lat="46.01463" lon="3.86893">
        <ele>630</ele>
        <time>2022-04-01T18:51:29Z</time>
      </trkpt>
      <trkpt lat="46.01447" lon="3.86888">
        <ele>632</ele>
        <time>2022-04-01T18:51:32Z</time>
      </trkpt>
      <trkpt lat="46.01436" lon="3.86902">
        <ele>631</ele>
        <time>2022-04-01T18:51:35Z</time>
      </trkpt>
      <trkpt lat="46.01384" lon="3.86893">
        <ele>634</ele>
        <time>2022-04-01T18:51:44Z</time>
      </trkpt>
      <trkpt lat="46.01365" lon="3.86875">
        <ele>636</ele>
        <time>2022-04-01T18:51:48Z</time>
      </trkpt>
      <trkpt lat="46.0135" lon="3.8687">
        <ele>637</ele>
        <time>2022-04-01T18:51:51Z</time>
      </trkpt>
      <trkpt lat="46.01339" lon="3.8687">
        <ele>637</ele>
        <time>2022-04-01T18:51:53Z</time>
      </trkpt>
      <trkpt lat="46.0133" lon="3.86878">
        <ele>637</ele>
        <time>2022-04-01T18:51:55Z</time>
      </trkpt>
      <trkpt lat="46.01318" lon="3.86909">
        <ele>637</ele>
        <time>2022-04-01T18:51:59Z</time>
      </trkpt>
      <trkpt lat="46.01304" lon="3.86956">
        <ele>636</ele>
        <time>2022-04-01T18:52:06Z</time>
      </trkpt>
      <trkpt lat="46.013" lon="3.86975">
        <ele>635</ele>
        <time>2022-04-01T18:52:08Z</time>
      </trkpt>
      <trkpt lat="46.01303" lon="3.86993">
        <ele>632</ele>
        <time>2022-04-01T18:52:10Z</time>
      </trkpt>
      <trkpt lat="46.01316" lon="3.8702">
        <ele>627</ele>
        <time>2022-04-01T18:52:14Z</time>
      </trkpt>
      <trkpt lat="46.01321" lon="3.87035">
        <ele>626</ele>
        <time>2022-04-01T18:52:17Z</time>
      </trkpt>
      <trkpt lat="46.01322" lon="3.8705">
        <ele>625</ele>
        <time>2022-04-01T18:52:18Z</time>
      </trkpt>
      <trkpt lat="46.01318" lon="3.87062">
        <ele>625</ele>
        <time>2022-04-01T18:52:20Z</time>
      </trkpt>
      <trkpt lat="46.0131" lon="3.8707">
        <ele>625</ele>
        <time>2022-04-01T18:52:22Z</time>
      </trkpt>
      <trkpt lat="46.0127" lon="3.87079">
        <ele>626</ele>
        <time>2022-04-01T18:52:29Z</time>
      </trkpt>
      <trkpt lat="46.01259" lon="3.87078">
        <ele>627</ele>
        <time>2022-04-01T18:52:31Z</time>
      </trkpt>
      <trkpt lat="46.01208" lon="3.87043">
        <ele>637</ele>
        <time>2022-04-01T18:52:41Z</time>
      </trkpt>
      <trkpt lat="46.01193" lon="3.87042">
        <ele>638</ele>
        <time>2022-04-01T18:52:44Z</time>
      </trkpt>
      <trkpt lat="46.01153" lon="3.87046">
        <ele>641</ele>
        <time>2022-04-01T18:52:51Z</time>
      </trkpt>
      <trkpt lat="46.01117" lon="3.87058">
        <ele>643</ele>
        <time>2022-04-01T18:52:57Z</time>
      </trkpt>
      <trkpt lat="46.01068" lon="3.87087">
        <ele>640</ele>
        <time>2022-04-01T18:53:07Z</time>
      </trkpt>
      <trkpt lat="46.01054" lon="3.87084">
        <ele>642</ele>
        <time>2022-04-01T18:53:09Z</time>
      </trkpt>
      <trkpt lat="46.0104" lon="3.87072">
        <ele>647</ele>
        <time>2022-04-01T18:53:12Z</time>
      </trkpt>
      <trkpt lat="46.01032" lon="3.87056">
        <ele>653</ele>
        <time>2022-04-01T18:53:15Z</time>
      </trkpt>
      <trkpt lat="46.01023" lon="3.87048">
        <ele>656</ele>
        <time>2022-04-01T18:53:17Z</time>
      </trkpt>
      <trkpt lat="46.01012" lon="3.87046">
        <ele>657</ele>
        <time>2022-04-01T18:53:18Z</time>
      </trkpt>
      <trkpt lat="46.01001" lon="3.87051">
        <ele>656</ele>
        <time>2022-04-01T18:53:21Z</time>
      </trkpt>
      <trkpt lat="46.00992" lon="3.87063">
        <ele>656</ele>
        <time>2022-04-01T18:53:23Z</time>
      </trkpt>
      <trkpt lat="46.00987" lon="3.87078">
        <ele>653</ele>
        <time>2022-04-01T18:53:25Z</time>
      </trkpt>
      <trkpt lat="46.00981" lon="3.87089">
        <ele>653</ele>
        <time>2022-04-01T18:53:26Z</time>
      </trkpt>
      <trkpt lat="46.00957" lon="3.87095">
        <ele>660</ele>
        <time>2022-04-01T18:53:31Z</time>
      </trkpt>
      <trkpt lat="46.00948" lon="3.87113">
        <ele>660</ele>
        <time>2022-04-01T18:53:34Z</time>
      </trkpt>
      <trkpt lat="46.00945" lon="3.87137">
        <ele>658</ele>
        <time>2022-04-01T18:53:37Z</time>
      </trkpt>
      <trkpt lat="46.00949" lon="3.87182">
        <ele>651</ele>
        <time>2022-04-01T18:53:42Z</time>
      </trkpt>
      <trkpt lat="46.00944" lon="3.87219">
        <ele>649</ele>
        <time>2022-04-01T18:53:47Z</time>
      </trkpt>
      <trkpt lat="46.00919" lon="3.87283">
        <ele>650</ele>
        <time>2022-04-01T18:53:56Z</time>
      </trkpt>
      <trkpt lat="46.0091" lon="3.87295">
        <ele>649</ele>
        <time>2022-04-01T18:53:58Z</time>
      </trkpt>
      <trkpt lat="46.00901" lon="3.87301">
        <ele>650</ele>
        <time>2022-04-01T18:54:00Z</time>
      </trkpt>
      <trkpt lat="46.00892" lon="3.87299">
        <ele>651</ele>
        <time>2022-04-01T18:54:01Z</time>
      </trkpt>
      <trkpt lat="46.00874" lon="3.87279">
        <ele>656</ele>
        <time>2022-04-01T18:54:06Z</time>
      </trkpt>
      <trkpt lat="46.00852" lon="3.8725">
        <ele>662</ele>
        <time>2022-04-01T18:54:11Z</time>
      </trkpt>
      <trkpt lat="46.00836" lon="3.87238">
        <ele>666</ele>
        <time>2022-04-01T18:54:14Z</time>
      </trkpt>
      <trkpt lat="46.00827" lon="3.87238">
        <ele>667</ele>
        <time>2022-04-01T18:54:16Z</time>
      </trkpt>
      <trkpt lat="46.00815" lon="3.87244">
        <ele>669</ele>
        <time>2022-04-01T18:54:18Z</time>
      </trkpt>
      <trkpt lat="46.00806" lon="3.87258">
        <ele>669</ele>
        <time>2022-04-01T18:54:20Z</time>
      </trkpt>
      <trkpt lat="46.00796" lon="3.87296">
        <ele>667</ele>
        <time>2022-04-01T18:54:25Z</time>
      </trkpt>
      <trkpt lat="46.00786" lon="3.87319">
        <ele>665</ele>
        <time>2022-04-01T18:54:29Z</time>
      </trkpt>
      <trkpt lat="46.00712" lon="3.87397">
        <ele>670</ele>
        <time>2022-04-01T18:54:45Z</time>
      </trkpt>
      <trkpt lat="46.00657" lon="3.87464">
        <ele>672</ele>
        <time>2022-04-01T18:54:58Z</time>
      </trkpt>
      <trkpt lat="46.00642" lon="3.87474">
        <ele>671</ele>
        <time>2022-04-01T18:55:01Z</time>
      </trkpt>
      <trkpt lat="46.00629" lon="3.87477">
        <ele>671</ele>
        <time>2022-04-01T18:55:03Z</time>
      </trkpt>
      <trkpt lat="46.00616" lon="3.87474">
        <ele>673</ele>
        <time>2022-04-01T18:55:05Z</time>
      </trkpt>
      <trkpt lat="46.00589" lon="3.87453">
        <ele>679</ele>
        <time>2022-04-01T18:55:11Z</time>
      </trkpt>
      <trkpt lat="46.00581" lon="3.87451">
        <ele>681</ele>
        <time>2022-04-01T18:55:12Z</time>
      </trkpt>
      <trkpt lat="46.00571" lon="3.87452">
        <ele>683</ele>
        <time>2022-04-01T18:55:14Z</time>
      </trkpt>
      <trkpt lat="46.00562" lon="3.87461">
        <ele>683</ele>
        <time>2022-04-01T18:55:16Z</time>
      </trkpt>
      <trkpt lat="46.00556" lon="3.87475">
        <ele>682</ele>
        <time>2022-04-01T18:55:18Z</time>
      </trkpt>
      <trkpt lat="46.00551" lon="3.87502">
        <ele>677</ele>
        <time>2022-04-01T18:55:22Z</time>
      </trkpt>
      <trkpt lat="46.00546" lon="3.87517">
        <ele>676</ele>
        <time>2022-04-01T18:55:24Z</time>
      </trkpt>
      <trkpt lat="46.00538" lon="3.87532">
        <ele>675</ele>
        <time>2022-04-01T18:55:26Z</time>
      </trkpt>
      <trkpt lat="46.00527" lon="3.87543">
        <ele>675</ele>
        <time>2022-04-01T18:55:28Z</time>
      </trkpt>
      <trkpt lat="46.00519" lon="3.87547">
        <ele>675</ele>
        <time>2022-04-01T18:55:30Z</time>
      </trkpt>
      <trkpt lat="46.00485" lon="3.87552">
        <ele>680</ele>
        <time>2022-04-01T18:55:36Z</time>
      </trkpt>
      <trkpt lat="46.0042" lon="3.87573">
        <ele>684</ele>
        <time>2022-04-01T18:55:48Z</time>
      </trkpt>
      <trkpt lat="46.00353" lon="3.87596">
        <ele>690</ele>
        <time>2022-04-01T18:56:00Z</time>
      </trkpt>
      <trkpt lat="46.00337" lon="3.87604">
        <ele>691</ele>
        <time>2022-04-01T18:56:03Z</time>
      </trkpt>
      <trkpt lat="46.00324" lon="3.87615">
        <ele>692</ele>
        <time>2022-04-01T18:56:06Z</time>
      </trkpt>
      <trkpt lat="46.00315" lon="3.8763">
        <ele>692</ele>
        <time>2022-04-01T18:56:08Z</time>
      </trkpt>
      <trkpt lat="46.00296" lon="3.87699">
        <ele>691</ele>
        <time>2022-04-01T18:56:17Z</time>
      </trkpt>
      <trkpt lat="46.00288" lon="3.87715">
        <ele>692</ele>
        <time>2022-04-01T18:56:20Z</time>
      </trkpt>
      <trkpt lat="46.00267" lon="3.87733">
        <ele>693</ele>
        <time>2022-04-01T18:56:24Z</time>
      </trkpt>
      <trkpt lat="46.00257" lon="3.87735">
        <ele>694</ele>
        <time>2022-04-01T18:56:26Z</time>
      </trkpt>
      <trkpt lat="46.00225" lon="3.87731">
        <ele>695</ele>
        <time>2022-04-01T18:56:32Z</time>
      </trkpt>
      <trkpt lat="46.00205" lon="3.8772">
        <ele>696</ele>
        <time>2022-04-01T18:56:35Z</time>
      </trkpt>
      <trkpt lat="46.00194" lon="3.87703">
        <ele>698</ele>
        <time>2022-04-01T18:56:38Z</time>
      </trkpt>
      <trkpt lat="46.00191" lon="3.87685">
        <ele>699</ele>
        <time>2022-04-01T18:56:41Z</time>
      </trkpt>
      <trkpt lat="46.00179" lon="3.87651">
        <ele>704</ele>
        <time>2022-04-01T18:56:45Z</time>
      </trkpt>
      <trkpt lat="46.00149" lon="3.87625">
        <ele>711</ele>
        <time>2022-04-01T18:56:52Z</time>
      </trkpt>
      <trkpt lat="46.00123" lon="3.87625">
        <ele>715</ele>
        <time>2022-04-01T18:56:56Z</time>
      </trkpt>
      <trkpt lat="46.0011" lon="3.87635">
        <ele>715</ele>
        <time>2022-04-01T18:56:59Z</time>
      </trkpt>
      <trkpt lat="46.00097" lon="3.87676">
        <ele>712</ele>
        <time>2022-04-01T18:57:04Z</time>
      </trkpt>
      <trkpt lat="46.0007" lon="3.87717">
        <ele>711</ele>
        <time>2022-04-01T18:57:11Z</time>
      </trkpt>
      <trkpt lat="46.0004" lon="3.8773">
        <ele>715</ele>
        <time>2022-04-01T18:57:17Z</time>
      </trkpt>
      <trkpt lat="46.00014" lon="3.87738">
        <ele>719</ele>
        <time>2022-04-01T18:57:22Z</time>
      </trkpt>
      <trkpt lat="45.99939" lon="3.8774">
        <ele>725</ele>
        <time>2022-04-01T18:57:35Z</time>
      </trkpt>
      <trkpt lat="45.99917" lon="3.87728">
        <ele>729</ele>
        <time>2022-04-01T18:57:39Z</time>
      </trkpt>
      <trkpt lat="45.99887" lon="3.87731">
        <ele>733</ele>
        <time>2022-04-01T18:57:45Z</time>
      </trkpt>
      <trkpt lat="45.99864" lon="3.87771">
        <ele>734</ele>
        <time>2022-04-01T18:57:51Z</time>
      </trkpt>
      <trkpt lat="45.99833" lon="3.87807">
        <ele>737</ele>
        <time>2022-04-01T18:57:58Z</time>
      </trkpt>
      <trkpt lat="45.998" lon="3.87833">
        <ele>739</ele>
        <time>2022-04-01T18:58:05Z</time>
      </trkpt>
      <trkpt lat="45.99685" lon="3.87874">
        <ele>753</ele>
        <time>2022-04-01T18:58:26Z</time>
      </trkpt>
      <trkpt lat="45.99642" lon="3.87912">
        <ele>754</ele>
        <time>2022-04-01T18:58:35Z</time>
      </trkpt>
      <trkpt lat="45.99637" lon="3.8794">
        <ele>757</ele>
        <time>2022-04-01T18:58:38Z</time>
      </trkpt>
      <trkpt lat="45.99661" lon="3.87957">
        <ele>759</ele>
        <time>2022-04-01T18:58:43Z</time>
      </trkpt>
      <trkpt lat="45.99703" lon="3.87953">
        <ele>756</ele>
        <time>2022-04-01T18:58:51Z</time>
      </trkpt>
      <trkpt lat="45.99803" lon="3.87977">
        <ele>761</ele>
        <time>2022-04-01T18:59:09Z</time>
      </trkpt>
      <trkpt lat="45.99834" lon="3.87991">
        <ele>767</ele>
        <time>2022-04-01T18:59:14Z</time>
      </trkpt>
      <trkpt lat="45.99891" lon="3.87997">
        <ele>769</ele>
        <time>2022-04-01T18:59:25Z</time>
      </trkpt>
      <trkpt lat="45.99996" lon="3.88032">
        <ele>767</ele>
        <time>2022-04-01T18:59:44Z</time>
      </trkpt>
      <trkpt lat="46.00161" lon="3.88183">
        <ele>787</ele>
        <time>2022-04-01T19:00:19Z</time>
      </trkpt>
      <trkpt lat="46.00199" lon="3.88232">
        <ele>783</ele>
        <time>2022-04-01T19:00:28Z</time>
      </trkpt>
      <trkpt lat="46.00218" lon="3.88276">
        <ele>780</ele>
        <time>2022-04-01T19:00:34Z</time>
      </trkpt>
      <trkpt lat="46.00271" lon="3.88457">
        <ele>789</ele>
        <time>2022-04-01T19:00:58Z</time>
      </trkpt>
      <trkpt lat="46.00338" lon="3.88538">
        <ele>791</ele>
        <time>2022-04-01T19:01:14Z</time>
      </trkpt>
      <trkpt lat="46.00374" lon="3.88603">
        <ele>798</ele>
        <time>2022-04-01T19:01:24Z</time>
      </trkpt>
      <trkpt lat="46.00381" lon="3.88631">
        <ele>800</ele>
        <time>2022-04-01T19:01:28Z</time>
      </trkpt>
      <trkpt lat="46.00382" lon="3.88657">
        <ele>802</ele>
        <time>2022-04-01T19:01:31Z</time>
      </trkpt>
      <trkpt lat="46.00378" lon="3.88679">
        <ele>801</ele>
        <time>2022-04-01T19:01:34Z</time>
      </trkpt>
      <trkpt lat="46.00332" lon="3.88647">
        <ele>798</ele>
        <time>2022-04-01T19:01:43Z</time>
      </trkpt>
      <trkpt lat="46.00283" lon="3.8862">
        <ele>799</ele>
        <time>2022-04-01T19:01:52Z</time>
      </trkpt>
      <trkpt lat="46.00261" lon="3.8861">
        <ele>800</ele>
        <time>2022-04-01T19:01:56Z</time>
      </trkpt>
      <trkpt lat="46.00232" lon="3.88606">
        <ele>801</ele>
        <time>2022-04-01T19:02:02Z</time>
      </trkpt>
      <trkpt lat="46.00216" lon="3.88609">
        <ele>802</ele>
        <time>2022-04-01T19:02:04Z</time>
      </trkpt>
      <trkpt lat="46.00145" lon="3.88662">
        <ele>801</ele>
        <time>2022-04-01T19:02:19Z</time>
      </trkpt>
      <trkpt lat="46.00134" lon="3.88668">
        <ele>802</ele>
        <time>2022-04-01T19:02:21Z</time>
      </trkpt>
      <trkpt lat="46.00122" lon="3.88672">
        <ele>802</ele>
        <time>2022-04-01T19:02:23Z</time>
      </trkpt>
      <trkpt lat="46.00109" lon="3.88672">
        <ele>803</ele>
        <time>2022-04-01T19:02:25Z</time>
      </trkpt>
      <trkpt lat="46.00091" lon="3.88663">
        <ele>806</ele>
        <time>2022-04-01T19:02:29Z</time>
      </trkpt>
      <trkpt lat="46.00054" lon="3.88636">
        <ele>811</ele>
        <time>2022-04-01T19:02:36Z</time>
      </trkpt>
      <trkpt lat="46.00009" lon="3.88598">
        <ele>820</ele>
        <time>2022-04-01T19:02:45Z</time>
      </trkpt>
      <trkpt lat="45.99946" lon="3.88538">
        <ele>826</ele>
        <time>2022-04-01T19:02:59Z</time>
      </trkpt>
      <trkpt lat="45.99918" lon="3.88504">
        <ele>830</ele>
        <time>2022-04-01T19:03:05Z</time>
      </trkpt>
      <trkpt lat="45.99857" lon="3.88411">
        <ele>828</ele>
        <time>2022-04-01T19:03:21Z</time>
      </trkpt>
      <trkpt lat="45.99841" lon="3.88393">
        <ele>825</ele>
        <time>2022-04-01T19:03:25Z</time>
      </trkpt>
      <trkpt lat="45.99816" lon="3.8837">
        <ele>826</ele>
        <time>2022-04-01T19:03:30Z</time>
      </trkpt>
      <trkpt lat="45.99751" lon="3.88322">
        <ele>831</ele>
        <time>2022-04-01T19:03:43Z</time>
      </trkpt>
      <trkpt lat="45.99718" lon="3.88299">
        <ele>831</ele>
        <time>2022-04-01T19:03:50Z</time>
      </trkpt>
      <trkpt lat="45.99702" lon="3.88292">
        <ele>831</ele>
        <time>2022-04-01T19:03:52Z</time>
      </trkpt>
      <trkpt lat="45.99677" lon="3.88288">
        <ele>832</ele>
        <time>2022-04-01T19:03:57Z</time>
      </trkpt>
      <trkpt lat="45.99621" lon="3.88294">
        <ele>836</ele>
        <time>2022-04-01T19:04:07Z</time>
      </trkpt>
      <trkpt lat="45.99576" lon="3.88283">
        <ele>835</ele>
        <time>2022-04-01T19:04:15Z</time>
      </trkpt>
      <trkpt lat="45.99556" lon="3.88281">
        <ele>835</ele>
        <time>2022-04-01T19:04:19Z</time>
      </trkpt>
      <trkpt lat="45.99454" lon="3.88311">
        <ele>845</ele>
        <time>2022-04-01T19:04:37Z</time>
      </trkpt>
      <trkpt lat="45.99409" lon="3.88314">
        <ele>846</ele>
        <time>2022-04-01T19:04:45Z</time>
      </trkpt>
      <trkpt lat="45.99341" lon="3.88323">
        <ele>847</ele>
        <time>2022-04-01T19:04:57Z</time>
      </trkpt>
      <trkpt lat="45.99319" lon="3.88319">
        <ele>848</ele>
        <time>2022-04-01T19:05:01Z</time>
      </trkpt>
      <trkpt lat="45.99288" lon="3.88302">
        <ele>847</ele>
        <time>2022-04-01T19:05:07Z</time>
      </trkpt>
      <trkpt lat="45.99231" lon="3.88252">
        <ele>842</ele>
        <time>2022-04-01T19:05:19Z</time>
      </trkpt>
      <trkpt lat="45.9921" lon="3.88238">
        <ele>842</ele>
        <time>2022-04-01T19:05:23Z</time>
      </trkpt>
      <trkpt lat="45.99191" lon="3.8823">
        <ele>844</ele>
        <time>2022-04-01T19:05:27Z</time>
      </trkpt>
      <trkpt lat="45.99154" lon="3.88222">
        <ele>848</ele>
        <time>2022-04-01T19:05:33Z</time>
      </trkpt>
      <trkpt lat="45.99134" lon="3.88213">
        <ele>849</ele>
        <time>2022-04-01T19:05:37Z</time>
      </trkpt>
      <trkpt lat="45.99083" lon="3.8818">
        <ele>850</ele>
        <time>2022-04-01T19:05:47Z</time>
      </trkpt>
      <trkpt lat="45.99053" lon="3.88156">
        <ele>849</ele>
        <time>2022-04-01T19:05:53Z</time>
      </trkpt>
      <trkpt lat="45.99034" lon="3.88136">
        <ele>850</ele>
        <time>2022-04-01T19:05:57Z</time>
      </trkpt>
      <trkpt lat="45.99013" lon="3.881">
        <ele>852</ele>
        <time>2022-04-01T19:06:03Z</time>
      </trkpt>
      <trkpt lat="45.9901" lon="3.88087">
        <ele>852</ele>
        <time>2022-04-01T19:06:05Z</time>
      </trkpt>
      <trkpt lat="45.99001" lon="3.88078">
        <ele>853</ele>
        <time>2022-04-01T19:06:07Z</time>
      </trkpt>
      <trkpt lat="45.98988" lon="3.88055">
        <ele>853</ele>
        <time>2022-04-01T19:06:10Z</time>
      </trkpt>
      <trkpt lat="45.98948" lon="3.87982">
        <ele>856</ele>
        <time>2022-04-01T19:06:22Z</time>
      </trkpt>
      <trkpt lat="45.98931" lon="3.87954">
        <ele>858</ele>
        <time>2022-04-01T19:06:27Z</time>
      </trkpt>
      <trkpt lat="45.98899" lon="3.8795">
        <ele>858</ele>
        <time>2022-04-01T19:06:32Z</time>
      </trkpt>
      <trkpt lat="45.98826" lon="3.87957">
        <ele>854</ele>
        <time>2022-04-01T19:06:45Z</time>
      </trkpt>
      <trkpt lat="45.9881" lon="3.87952">
        <ele>854</ele>
        <time>2022-04-01T19:06:48Z</time>
      </trkpt>
      <trkpt lat="45.98799" lon="3.87945">
        <ele>854</ele>
        <time>2022-04-01T19:06:50Z</time>
      </trkpt>
      <trkpt lat="45.98775" lon="3.8792">
        <ele>856</ele>
        <time>2022-04-01T19:06:56Z</time>
      </trkpt>
      <trkpt lat="45.98707" lon="3.8782">
        <ele>860</ele>
        <time>2022-04-01T19:07:13Z</time>
      </trkpt>
      <trkpt lat="45.98698" lon="3.87804">
        <ele>860</ele>
        <time>2022-04-01T19:07:15Z</time>
      </trkpt>
      <trkpt lat="45.9869" lon="3.87782">
        <ele>860</ele>
        <time>2022-04-01T19:07:19Z</time>
      </trkpt>
      <trkpt lat="45.98657" lon="3.87586">
        <ele>864</ele>
        <time>2022-04-01T19:07:43Z</time>
      </trkpt>
      <trkpt lat="45.98657" lon="3.8757">
        <ele>864</ele>
        <time>2022-04-01T19:07:45Z</time>
      </trkpt>
      <trkpt lat="45.98664" lon="3.87529">
        <ele>865</ele>
        <time>2022-04-01T19:07:51Z</time>
      </trkpt>
      <trkpt lat="45.98689" lon="3.87467">
        <ele>868</ele>
        <time>2022-04-01T19:08:00Z</time>
      </trkpt>
      <trkpt lat="45.98771" lon="3.87287">
        <ele>876</ele>
        <time>2022-04-01T19:08:26Z</time>
      </trkpt>
      <trkpt lat="45.9877" lon="3.87251">
        <ele>877</ele>
        <time>2022-04-01T19:08:31Z</time>
      </trkpt>
      <trkpt lat="45.98756" lon="3.8722">
        <ele>880</ele>
        <time>2022-04-01T19:08:35Z</time>
      </trkpt>
      <trkpt lat="45.98728" lon="3.87202">
        <ele>880</ele>
        <time>2022-04-01T19:08:41Z</time>
      </trkpt>
      <trkpt lat="45.98689" lon="3.87189">
        <ele>879</ele>
        <time>2022-04-01T19:08:48Z</time>
      </trkpt>
      <trkpt lat="45.98669" lon="3.87172">
        <ele>881</ele>
        <time>2022-04-01T19:08:52Z</time>
      </trkpt>
      <trkpt lat="45.98614" lon="3.87052">
        <ele>898</ele>
        <time>2022-04-01T19:09:10Z</time>
      </trkpt>
      <trkpt lat="45.98605" lon="3.87041">
        <ele>898</ele>
        <time>2022-04-01T19:09:12Z</time>
      </trkpt>
      <trkpt lat="45.98585" lon="3.87041">
        <ele>895</ele>
        <time>2022-04-01T19:09:15Z</time>
      </trkpt>
      <trkpt lat="45.98573" lon="3.8705">
        <ele>895</ele>
        <time>2022-04-01T19:09:18Z</time>
      </trkpt>
      <trkpt lat="45.98541" lon="3.8709">
        <ele>891</ele>
        <time>2022-04-01T19:09:25Z</time>
      </trkpt>
      <trkpt lat="45.98513" lon="3.87105">
        <ele>891</ele>
        <time>2022-04-01T19:09:31Z</time>
      </trkpt>
      <trkpt lat="45.98482" lon="3.87108">
        <ele>895</ele>
        <time>2022-04-01T19:09:36Z</time>
      </trkpt>
      <trkpt lat="45.98446" lon="3.87116">
        <ele>899</ele>
        <time>2022-04-01T19:09:43Z</time>
      </trkpt>
      <trkpt lat="45.9835" lon="3.87212">
        <ele>896</ele>
        <time>2022-04-01T19:10:03Z</time>
      </trkpt>
      <trkpt lat="45.98322" lon="3.87203">
        <ele>900</ele>
        <time>2022-04-01T19:10:08Z</time>
      </trkpt>
      <trkpt lat="45.98293" lon="3.87175">
        <ele>906</ele>
        <time>2022-04-01T19:10:15Z</time>
      </trkpt>
      <trkpt lat="45.98259" lon="3.87152">
        <ele>910</ele>
        <time>2022-04-01T19:10:21Z</time>
      </trkpt>
      <trkpt lat="45.9821" lon="3.87181">
        <ele>909</ele>
        <time>2022-04-01T19:10:31Z</time>
      </trkpt>
      <trkpt lat="45.98162" lon="3.87233">
        <ele>907</ele>
        <time>2022-04-01T19:10:41Z</time>
      </trkpt>
      <trkpt lat="45.98125" lon="3.87249">
        <ele>909</ele>
        <time>2022-04-01T19:10:48Z</time>
      </trkpt>
      <trkpt lat="45.9808" lon="3.87281">
        <ele>907</ele>
        <time>2022-04-01T19:10:57Z</time>
      </trkpt>
      <trkpt lat="45.98022" lon="3.87279">
        <ele>907</ele>
        <time>2022-04-01T19:11:08Z</time>
      </trkpt>
      <trkpt lat="45.97965" lon="3.87281">
        <ele>910</ele>
        <time>2022-04-01T19:11:18Z</time>
      </trkpt>
      <trkpt lat="45.97894" lon="3.87291">
        <ele>917</ele>
        <time>2022-04-01T19:11:30Z</time>
      </trkpt>
      <trkpt lat="45.97876" lon="3.87328">
        <ele>915</ele>
        <time>2022-04-01T19:11:36Z</time>
      </trkpt>
      <trkpt lat="45.97865" lon="3.87381">
        <ele>913</ele>
        <time>2022-04-01T19:11:43Z</time>
      </trkpt>
      <trkpt lat="45.9784" lon="3.87436">
        <ele>912</ele>
        <time>2022-04-01T19:11:51Z</time>
      </trkpt>
      <trkpt lat="45.97813" lon="3.87462">
        <ele>911</ele>
        <time>2022-04-01T19:11:57Z</time>
      </trkpt>
      <trkpt lat="45.97786" lon="3.87462">
        <ele>915</ele>
        <time>2022-04-01T19:12:02Z</time>
      </trkpt>
      <trkpt lat="45.97743" lon="3.87447">
        <ele>925</ele>
        <time>2022-04-01T19:12:09Z</time>
      </trkpt>
      <trkpt lat="45.9771" lon="3.87465">
        <ele>927</ele>
        <time>2022-04-01T19:12:16Z</time>
      </trkpt>
      <trkpt lat="45.97651" lon="3.87566">
        <ele>922</ele>
        <time>2022-04-01T19:12:32Z</time>
      </trkpt>
      <trkpt lat="45.97607" lon="3.87667">
        <ele>917</ele>
        <time>2022-04-01T19:12:47Z</time>
      </trkpt>
      <trkpt lat="45.97585" lon="3.87776">
        <ele>914</ele>
        <time>2022-04-01T19:13:01Z</time>
      </trkpt>
      <trkpt lat="45.97553" lon="3.87854">
        <ele>915</ele>
        <time>2022-04-01T19:13:12Z</time>
      </trkpt>
      <trkpt lat="45.97484" lon="3.87978">
        <ele>921</ele>
        <time>2022-04-01T19:13:32Z</time>
      </trkpt>
      <trkpt lat="45.97466" lon="3.88003">
        <ele>921</ele>
        <time>2022-04-01T19:13:36Z</time>
      </trkpt>
      <trkpt lat="45.9744" lon="3.88031">
        <ele>921</ele>
        <time>2022-04-01T19:13:42Z</time>
      </trkpt>
      <trkpt lat="45.97381" lon="3.88103">
        <ele>922</ele>
        <time>2022-04-01T19:13:56Z</time>
      </trkpt>
      <trkpt lat="45.97367" lon="3.88128">
        <ele>922</ele>
        <time>2022-04-01T19:14:00Z</time>
      </trkpt>
      <trkpt lat="45.97331" lon="3.88283">
        <ele>919</ele>
        <time>2022-04-01T19:14:20Z</time>
      </trkpt>
      <trkpt lat="45.97274" lon="3.88334">
        <ele>924</ele>
        <time>2022-04-01T19:14:32Z</time>
      </trkpt>
      <trkpt lat="45.97243" lon="3.88335">
        <ele>929</ele>
        <time>2022-04-01T19:14:37Z</time>
      </trkpt>
      <trkpt lat="45.97182" lon="3.88395">
        <ele>919</ele>
        <time>2022-04-01T19:14:50Z</time>
      </trkpt>
      <trkpt lat="45.97134" lon="3.8843">
        <ele>914</ele>
        <time>2022-04-01T19:15:00Z</time>
      </trkpt>
      <trkpt lat="45.97102" lon="3.88439">
        <ele>912</ele>
        <time>2022-04-01T19:15:06Z</time>
      </trkpt>
      <trkpt lat="45.97073" lon="3.88428">
        <ele>912</ele>
        <time>2022-04-01T19:15:11Z</time>
      </trkpt>
      <trkpt lat="45.97002" lon="3.88391">
        <ele>910</ele>
        <time>2022-04-01T19:15:25Z</time>
      </trkpt>
      <trkpt lat="45.96965" lon="3.88352">
        <ele>910</ele>
        <time>2022-04-01T19:15:33Z</time>
      </trkpt>
      <trkpt lat="45.96952" lon="3.88333">
        <ele>911</ele>
        <time>2022-04-01T19:15:36Z</time>
      </trkpt>
      <trkpt lat="45.96907" lon="3.8821">
        <ele>920</ele>
        <time>2022-04-01T19:15:53Z</time>
      </trkpt>
      <trkpt lat="45.96876" lon="3.88176">
        <ele>921</ele>
        <time>2022-04-01T19:16:00Z</time>
      </trkpt>
      <trkpt lat="45.9685" lon="3.8816">
        <ele>921</ele>
        <time>2022-04-01T19:16:05Z</time>
      </trkpt>
      <trkpt lat="45.96744" lon="3.88165">
        <ele>914</ele>
        <time>2022-04-01T19:16:24Z</time>
      </trkpt>
      <trkpt lat="45.96705" lon="3.88145">
        <ele>913</ele>
        <time>2022-04-01T19:16:31Z</time>
      </trkpt>
      <trkpt lat="45.9667" lon="3.88113">
        <ele>914</ele>
        <time>2022-04-01T19:16:39Z</time>
      </trkpt>
      <trkpt lat="45.96647" lon="3.88069">
        <ele>918</ele>
        <time>2022-04-01T19:16:46Z</time>
      </trkpt>
      <trkpt lat="45.96586" lon="3.8801">
        <ele>919</ele>
        <time>2022-04-01T19:16:59Z</time>
      </trkpt>
      <trkpt lat="45.96575" lon="3.87987">
        <ele>920</ele>
        <time>2022-04-01T19:17:02Z</time>
      </trkpt>
      <trkpt lat="45.9655" lon="3.87929">
        <ele>922</ele>
        <time>2022-04-01T19:17:11Z</time>
      </trkpt>
      <trkpt lat="45.96529" lon="3.87895">
        <ele>924</ele>
        <time>2022-04-01T19:17:16Z</time>
      </trkpt>
      <trkpt lat="45.96515" lon="3.87877">
        <ele>926</ele>
        <time>2022-04-01T19:17:20Z</time>
      </trkpt>
      <trkpt lat="45.96494" lon="3.87866">
        <ele>926</ele>
        <time>2022-04-01T19:17:24Z</time>
      </trkpt>
      <trkpt lat="45.9643" lon="3.87857">
        <ele>918</ele>
        <time>2022-04-01T19:17:35Z</time>
      </trkpt>
      <trkpt lat="45.96383" lon="3.87844">
        <ele>913</ele>
        <time>2022-04-01T19:17:44Z</time>
      </trkpt>
      <trkpt lat="45.96351" lon="3.87827">
        <ele>911</ele>
        <time>2022-04-01T19:17:50Z</time>
      </trkpt>
      <trkpt lat="45.96306" lon="3.87768">
        <ele>916</ele>
        <time>2022-04-01T19:18:00Z</time>
      </trkpt>
      <trkpt lat="45.96239" lon="3.87733">
        <ele>913</ele>
        <time>2022-04-01T19:18:13Z</time>
      </trkpt>
      <trkpt lat="45.96204" lon="3.87739">
        <ele>911</ele>
        <time>2022-04-01T19:18:19Z</time>
      </trkpt>
      <trkpt lat="45.96133" lon="3.87781">
        <ele>907</ele>
        <time>2022-04-01T19:18:33Z</time>
      </trkpt>
      <trkpt lat="45.96038" lon="3.87842">
        <ele>908</ele>
        <time>2022-04-01T19:18:52Z</time>
      </trkpt>
      <trkpt lat="45.9602" lon="3.87858">
        <ele>908</ele>
        <time>2022-04-01T19:18:55Z</time>
      </trkpt>
      <trkpt lat="45.9597" lon="3.87927">
        <ele>905</ele>
        <time>2022-04-01T19:19:08Z</time>
      </trkpt>
      <trkpt lat="45.95844" lon="3.88049">
        <ele>911</ele>
        <time>2022-04-01T19:19:35Z</time>
      </trkpt>
      <trkpt lat="45.95795" lon="3.88102">
        <ele>910</ele>
        <time>2022-04-01T19:19:46Z</time>
      </trkpt>
      <trkpt lat="45.95725" lon="3.88212">
        <ele>904</ele>
        <time>2022-04-01T19:20:04Z</time>
      </trkpt>
      <trkpt lat="45.95689" lon="3.88241">
        <ele>902</ele>
        <time>2022-04-01T19:20:11Z</time>
      </trkpt>
      <trkpt lat="45.95663" lon="3.88254">
        <ele>902</ele>
        <time>2022-04-01T19:20:16Z</time>
      </trkpt>
      <trkpt lat="45.95645" lon="3.88259">
        <ele>900</ele>
        <time>2022-04-01T19:20:20Z</time>
      </trkpt>
      <trkpt lat="45.95626" lon="3.88258">
        <ele>899</ele>
        <time>2022-04-01T19:20:23Z</time>
      </trkpt>
      <trkpt lat="45.9561" lon="3.88252">
        <ele>898</ele>
        <time>2022-04-01T19:20:26Z</time>
      </trkpt>
      <trkpt lat="45.95592" lon="3.88239">
        <ele>898</ele>
        <time>2022-04-01T19:20:29Z</time>
      </trkpt>
      <trkpt lat="45.95576" lon="3.88219">
        <ele>899</ele>
        <time>2022-04-01T19:20:33Z</time>
      </trkpt>
      <trkpt lat="45.95543" lon="3.88131">
        <ele>903</ele>
        <time>2022-04-01T19:20:46Z</time>
      </trkpt>
      <trkpt lat="45.95502" lon="3.88046">
        <ele>904</ele>
        <time>2022-04-01T19:20:58Z</time>
      </trkpt>
      <trkpt lat="45.95457" lon="3.87979">
        <ele>902</ele>
        <time>2022-04-01T19:21:10Z</time>
      </trkpt>
      <trkpt lat="45.95411" lon="3.8792">
        <ele>900</ele>
        <time>2022-04-01T19:21:21Z</time>
      </trkpt>
      <trkpt lat="45.95375" lon="3.87883">
        <ele>901</ele>
        <time>2022-04-01T19:21:29Z</time>
      </trkpt>
      <trkpt lat="45.95354" lon="3.87866">
        <ele>899</ele>
        <time>2022-04-01T19:21:33Z</time>
      </trkpt>
      <trkpt lat="45.95336" lon="3.87865">
        <ele>896</ele>
        <time>2022-04-01T19:21:36Z</time>
      </trkpt>
      <trkpt lat="45.95188" lon="3.87649">
        <ele>900</ele>
        <time>2022-04-01T19:22:14Z</time>
      </trkpt>
      <trkpt lat="45.95149" lon="3.87598">
        <ele>901</ele>
        <time>2022-04-01T19:22:23Z</time>
      </trkpt>
      <trkpt lat="45.95125" lon="3.87581">
        <ele>900</ele>
        <time>2022-04-01T19:22:28Z</time>
      </trkpt>
      <trkpt lat="45.95096" lon="3.87581">
        <ele>897</ele>
        <time>2022-04-01T19:22:33Z</time>
      </trkpt>
      <trkpt lat="45.9507" lon="3.87598">
        <ele>896</ele>
        <time>2022-04-01T19:22:38Z</time>
      </trkpt>
      <trkpt lat="45.95053" lon="3.87621">
        <ele>896</ele>
        <time>2022-04-01T19:22:42Z</time>
      </trkpt>
      <trkpt lat="45.95043" lon="3.87653">
        <ele>896</ele>
        <time>2022-04-01T19:22:47Z</time>
      </trkpt>
      <trkpt lat="45.95028" lon="3.87761">
        <ele>895</ele>
        <time>2022-04-01T19:23:00Z</time>
      </trkpt>
      <trkpt lat="45.95021" lon="3.87798">
        <ele>894</ele>
        <time>2022-04-01T19:23:05Z</time>
      </trkpt>
      <trkpt lat="45.9501" lon="3.87824">
        <ele>894</ele>
        <time>2022-04-01T19:23:09Z</time>
      </trkpt>
      <trkpt lat="45.94987" lon="3.87854">
        <ele>895</ele>
        <time>2022-04-01T19:23:14Z</time>
      </trkpt>
      <trkpt lat="45.94959" lon="3.87871">
        <ele>896</ele>
        <time>2022-04-01T19:23:20Z</time>
      </trkpt>
      <trkpt lat="45.94925" lon="3.87871">
        <ele>899</ele>
        <time>2022-04-01T19:23:26Z</time>
      </trkpt>
      <trkpt lat="45.94899" lon="3.8786">
        <ele>900</ele>
        <time>2022-04-01T19:23:31Z</time>
      </trkpt>
      <trkpt lat="45.94763" lon="3.87749">
        <ele>913</ele>
        <time>2022-04-01T19:23:58Z</time>
      </trkpt>
      <trkpt lat="45.94652" lon="3.87684">
        <ele>915</ele>
        <time>2022-04-01T19:24:20Z</time>
      </trkpt>
      <trkpt lat="45.94632" lon="3.87658">
        <ele>914</ele>
        <time>2022-04-01T19:24:24Z</time>
      </trkpt>
      <trkpt lat="45.9458" lon="3.87561">
        <ele>917</ele>
        <time>2022-04-01T19:24:40Z</time>
      </trkpt>
      <trkpt lat="45.94556" lon="3.8752">
        <ele>917</ele>
        <time>2022-04-01T19:24:46Z</time>
      </trkpt>
      <trkpt lat="45.94517" lon="3.87483">
        <ele>916</ele>
        <time>2022-04-01T19:24:55Z</time>
      </trkpt>
      <trkpt lat="45.94389" lon="3.87387">
        <ele>915</ele>
        <time>2022-04-01T19:25:20Z</time>
      </trkpt>
      <trkpt lat="45.94351" lon="3.87346">
        <ele>911</ele>
        <time>2022-04-01T19:25:29Z</time>
      </trkpt>
      <trkpt lat="45.94336" lon="3.87318">
        <ele>909</ele>
        <time>2022-04-01T19:25:33Z</time>
      </trkpt>
      <trkpt lat="45.94319" lon="3.87282">
        <ele>906</ele>
        <time>2022-04-01T19:25:38Z</time>
      </trkpt>
      <trkpt lat="45.94306" lon="3.87242">
        <ele>904</ele>
        <time>2022-04-01T19:25:44Z</time>
      </trkpt>
      <trkpt lat="45.94296" lon="3.87205">
        <ele>901</ele>
        <time>2022-04-01T19:25:49Z</time>
      </trkpt>
      <trkpt lat="45.94273" lon="3.87046">
        <ele>886</ele>
        <time>2022-04-01T19:26:09Z</time>
      </trkpt>
      <trkpt lat="45.94263" lon="3.87008">
        <ele>883</ele>
        <time>2022-04-01T19:26:14Z</time>
      </trkpt>
      <trkpt lat="45.94249" lon="3.86977">
        <ele>880</ele>
        <time>2022-04-01T19:26:19Z</time>
      </trkpt>
      <trkpt lat="45.9423" lon="3.86944">
        <ele>878</ele>
        <time>2022-04-01T19:26:24Z</time>
      </trkpt>
      <trkpt lat="45.94214" lon="3.86923">
        <ele>877</ele>
        <time>2022-04-01T19:26:28Z</time>
      </trkpt>
      <trkpt lat="45.94192" lon="3.86901">
        <ele>877</ele>
        <time>2022-04-01T19:26:32Z</time>
      </trkpt>
      <trkpt lat="45.94169" lon="3.86883">
        <ele>876</ele>
        <time>2022-04-01T19:26:37Z</time>
      </trkpt>
      <trkpt lat="45.94142" lon="3.8687">
        <ele>876</ele>
        <time>2022-04-01T19:26:42Z</time>
      </trkpt>
      <trkpt lat="45.93659" lon="3.86722">
        <ele>851</ele>
        <time>2022-04-01T19:28:10Z</time>
      </trkpt>
      <trkpt lat="45.93625" lon="3.8671">
        <ele>848</ele>
        <time>2022-04-01T19:28:16Z</time>
      </trkpt>
      <trkpt lat="45.93572" lon="3.86678">
        <ele>843</ele>
        <time>2022-04-01T19:28:27Z</time>
      </trkpt>
      <trkpt lat="45.93548" lon="3.86656">
        <ele>841</ele>
        <time>2022-04-01T19:28:32Z</time>
      </trkpt>
      <trkpt lat="45.93501" lon="3.86607">
        <ele>836</ele>
        <time>2022-04-01T19:28:42Z</time>
      </trkpt>
      <trkpt lat="45.93475" lon="3.86572">
        <ele>834</ele>
        <time>2022-04-01T19:28:48Z</time>
      </trkpt>
      <trkpt lat="45.93299" lon="3.8627">
        <ele>816</ele>
        <time>2022-04-01T19:29:37Z</time>
      </trkpt>
      <trkpt lat="45.93273" lon="3.86233">
        <ele>813</ele>
        <time>2022-04-01T19:29:44Z</time>
      </trkpt>
      <trkpt lat="45.93256" lon="3.86217">
        <ele>812</ele>
        <time>2022-04-01T19:29:47Z</time>
      </trkpt>
      <trkpt lat="45.93239" lon="3.8621">
        <ele>811</ele>
        <time>2022-04-01T19:29:50Z</time>
      </trkpt>
      <trkpt lat="45.93222" lon="3.86205">
        <ele>810</ele>
        <time>2022-04-01T19:29:53Z</time>
      </trkpt>
      <trkpt lat="45.93163" lon="3.86205">
        <ele>809</ele>
        <time>2022-04-01T19:30:04Z</time>
      </trkpt>
      <trkpt lat="45.93144" lon="3.86202">
        <ele>809</ele>
        <time>2022-04-01T19:30:07Z</time>
      </trkpt>
      <trkpt lat="45.93125" lon="3.8619">
        <ele>808</ele>
        <time>2022-04-01T19:30:11Z</time>
      </trkpt>
      <trkpt lat="45.93111" lon="3.86173">
        <ele>806</ele>
        <time>2022-04-01T19:30:14Z</time>
      </trkpt>
      <trkpt lat="45.93095" lon="3.86141">
        <ele>804</ele>
        <time>2022-04-01T19:30:19Z</time>
      </trkpt>
      <trkpt lat="45.93088" lon="3.86108">
        <ele>803</ele>
        <time>2022-04-01T19:30:23Z</time>
      </trkpt>
      <trkpt lat="45.93088" lon="3.86074">
        <ele>801</ele>
        <time>2022-04-01T19:30:28Z</time>
      </trkpt>
      <trkpt lat="45.93091" lon="3.86039">
        <ele>801</ele>
        <time>2022-04-01T19:30:32Z</time>
      </trkpt>
      <trkpt lat="45.93125" lon="3.8589">
        <ele>793</ele>
        <time>2022-04-01T19:30:51Z</time>
      </trkpt>
      <trkpt lat="45.93127" lon="3.85842">
        <ele>791</ele>
        <time>2022-04-01T19:30:57Z</time>
      </trkpt>
      <trkpt lat="45.93118" lon="3.8581">
        <ele>788</ele>
        <time>2022-04-01T19:31:02Z</time>
      </trkpt>
      <trkpt lat="45.93106" lon="3.85788">
        <ele>787</ele>
        <time>2022-04-01T19:31:05Z</time>
      </trkpt>
      <trkpt lat="45.93033" lon="3.85702">
        <ele>790</ele>
        <time>2022-04-01T19:31:22Z</time>
      </trkpt>
      <trkpt lat="45.93011" lon="3.85669">
        <ele>790</ele>
        <time>2022-04-01T19:31:27Z</time>
      </trkpt>
      <trkpt lat="45.92998" lon="3.85635">
        <ele>790</ele>
        <time>2022-04-01T19:31:32Z</time>
      </trkpt>
      <trkpt lat="45.92988" lon="3.85597">
        <ele>789</ele>
        <time>2022-04-01T19:31:37Z</time>
      </trkpt>
      <trkpt lat="45.92989" lon="3.85567">
        <ele>786</ele>
        <time>2022-04-01T19:31:41Z</time>
      </trkpt>
      <trkpt lat="45.92994" lon="3.85527">
        <ele>782</ele>
        <time>2022-04-01T19:31:46Z</time>
      </trkpt>
      <trkpt lat="45.93012" lon="3.85457">
        <ele>771</ele>
        <time>2022-04-01T19:31:55Z</time>
      </trkpt>
      <trkpt lat="45.93013" lon="3.85436">
        <ele>769</ele>
        <time>2022-04-01T19:31:58Z</time>
      </trkpt>
      <trkpt lat="45.93008" lon="3.85412">
        <ele>768</ele>
        <time>2022-04-01T19:32:01Z</time>
      </trkpt>
      <trkpt lat="45.93" lon="3.85398">
        <ele>767</ele>
        <time>2022-04-01T19:32:03Z</time>
      </trkpt>
      <trkpt lat="45.9299" lon="3.85385">
        <ele>766</ele>
        <time>2022-04-01T19:32:06Z</time>
      </trkpt>
      <trkpt lat="45.92938" lon="3.85352">
        <ele>764</ele>
        <time>2022-04-01T19:32:16Z</time>
      </trkpt>
      <trkpt lat="45.9292" lon="3.85346">
        <ele>765</ele>
        <time>2022-04-01T19:32:19Z</time>
      </trkpt>
      <trkpt lat="45.92883" lon="3.8534">
        <ele>769</ele>
        <time>2022-04-01T19:32:26Z</time>
      </trkpt>
      <trkpt lat="45.92865" lon="3.85331">
        <ele>771</ele>
        <time>2022-04-01T19:32:29Z</time>
      </trkpt>
      <trkpt lat="45.92853" lon="3.85319">
        <ele>770</ele>
        <time>2022-04-01T19:32:32Z</time>
      </trkpt>
      <trkpt lat="45.92843" lon="3.85305">
        <ele>768</ele>
        <time>2022-04-01T19:32:34Z</time>
      </trkpt>
      <trkpt lat="45.92817" lon="3.85246">
        <ele>761</ele>
        <time>2022-04-01T19:32:43Z</time>
      </trkpt>
      <trkpt lat="45.92804" lon="3.85219">
        <ele>758</ele>
        <time>2022-04-01T19:32:47Z</time>
      </trkpt>
      <trkpt lat="45.92743" lon="3.85135">
        <ele>756</ele>
        <time>2022-04-01T19:33:02Z</time>
      </trkpt>
      <trkpt lat="45.92703" lon="3.85058">
        <ele>750</ele>
        <time>2022-04-01T19:33:14Z</time>
      </trkpt>
      <trkpt lat="45.92629" lon="3.84934">
        <ele>744</ele>
        <time>2022-04-01T19:33:34Z</time>
      </trkpt>
      <trkpt lat="45.9258" lon="3.84872">
        <ele>738</ele>
        <time>2022-04-01T19:33:46Z</time>
      </trkpt>
      <trkpt lat="45.92537" lon="3.84825">
        <ele>732</ele>
        <time>2022-04-01T19:33:55Z</time>
      </trkpt>
      <trkpt lat="45.92458" lon="3.84785">
        <ele>733</ele>
        <time>2022-04-01T19:34:10Z</time>
      </trkpt>
      <trkpt lat="45.92438" lon="3.8477">
        <ele>733</ele>
        <time>2022-04-01T19:34:14Z</time>
      </trkpt>
      <trkpt lat="45.92419" lon="3.84749">
        <ele>731</ele>
        <time>2022-04-01T19:34:18Z</time>
      </trkpt>
      <trkpt lat="45.92374" lon="3.8468">
        <ele>720</ele>
        <time>2022-04-01T19:34:30Z</time>
      </trkpt>
      <trkpt lat="45.92357" lon="3.84662">
        <ele>718</ele>
        <time>2022-04-01T19:34:34Z</time>
      </trkpt>
      <trkpt lat="45.92335" lon="3.84644">
        <ele>717</ele>
        <time>2022-04-01T19:34:38Z</time>
      </trkpt>
      <trkpt lat="45.92289" lon="3.84613">
        <ele>712</ele>
        <time>2022-04-01T19:34:47Z</time>
      </trkpt>
      <trkpt lat="45.92252" lon="3.84596">
        <ele>710</ele>
        <time>2022-04-01T19:34:54Z</time>
      </trkpt>
      <trkpt lat="45.92212" lon="3.84585">
        <ele>706</ele>
        <time>2022-04-01T19:35:02Z</time>
      </trkpt>
      <trkpt lat="45.92137" lon="3.84578">
        <ele>702</ele>
        <time>2022-04-01T19:35:15Z</time>
      </trkpt>
      <trkpt lat="45.9203" lon="3.84543">
        <ele>692</ele>
        <time>2022-04-01T19:35:34Z</time>
      </trkpt>
      <trkpt lat="45.92007" lon="3.84539">
        <ele>690</ele>
        <time>2022-04-01T19:35:39Z</time>
      </trkpt>
      <trkpt lat="45.91929" lon="3.84546">
        <ele>687</ele>
        <time>2022-04-01T19:35:52Z</time>
      </trkpt>
      <trkpt lat="45.91908" lon="3.84543">
        <ele>686</ele>
        <time>2022-04-01T19:35:56Z</time>
      </trkpt>
      <trkpt lat="45.91783" lon="3.84432">
        <ele>674</ele>
        <time>2022-04-01T19:36:22Z</time>
      </trkpt>
      <trkpt lat="45.91763" lon="3.84419">
        <ele>673</ele>
        <time>2022-04-01T19:36:26Z</time>
      </trkpt>
      <trkpt lat="45.91754" lon="3.84418">
        <ele>673</ele>
        <time>2022-04-01T19:36:28Z</time>
      </trkpt>
      <trkpt lat="45.91734" lon="3.84421">
        <ele>672</ele>
        <time>2022-04-01T19:36:31Z</time>
      </trkpt>
      <trkpt lat="45.91721" lon="3.84425">
        <ele>671</ele>
        <time>2022-04-01T19:36:34Z</time>
      </trkpt>
      <trkpt lat="45.91632" lon="3.84482">
        <ele>669</ele>
        <time>2022-04-01T19:36:51Z</time>
      </trkpt>
      <trkpt lat="45.91542" lon="3.84531">
        <ele>662</ele>
        <time>2022-04-01T19:37:08Z</time>
      </trkpt>
      <trkpt lat="45.91536" lon="3.84543">
        <ele>663</ele>
        <time>2022-04-01T19:37:10Z</time>
      </trkpt>
      <trkpt lat="45.91527" lon="3.84537">
        <ele>660</ele>
        <time>2022-04-01T19:37:12Z</time>
      </trkpt>
      <trkpt lat="45.91504" lon="3.84543">
        <ele>657</ele>
        <time>2022-04-01T19:37:16Z</time>
      </trkpt>
      <trkpt lat="45.91485" lon="3.84553">
        <ele>656</ele>
        <time>2022-04-01T19:37:20Z</time>
      </trkpt>
      <trkpt lat="45.91453" lon="3.84601">
        <ele>655</ele>
        <time>2022-04-01T19:37:28Z</time>
      </trkpt>
      <trkpt lat="45.91443" lon="3.84606">
        <ele>654</ele>
        <time>2022-04-01T19:37:30Z</time>
      </trkpt>
      <trkpt lat="45.91433" lon="3.84645">
        <ele>654</ele>
        <time>2022-04-01T19:37:35Z</time>
      </trkpt>
      <trkpt lat="45.91424" lon="3.8467">
        <ele>653</ele>
        <time>2022-04-01T19:37:38Z</time>
      </trkpt>
      <trkpt lat="45.91393" lon="3.8478">
        <ele>654</ele>
        <time>2022-04-01T19:37:53Z</time>
      </trkpt>
      <trkpt lat="45.91389" lon="3.848">
        <ele>653</ele>
        <time>2022-04-01T19:37:56Z</time>
      </trkpt>
      <trkpt lat="45.91373" lon="3.84843">
        <ele>654</ele>
        <time>2022-04-01T19:38:02Z</time>
      </trkpt>
      <trkpt lat="45.91363" lon="3.84858">
        <ele>655</ele>
        <time>2022-04-01T19:38:04Z</time>
      </trkpt>
      <trkpt lat="45.91349" lon="3.84869">
        <ele>656</ele>
        <time>2022-04-01T19:38:07Z</time>
      </trkpt>
      <trkpt lat="45.91266" lon="3.84919">
        <ele>658</ele>
        <time>2022-04-01T19:38:23Z</time>
      </trkpt>
      <trkpt lat="45.91225" lon="3.84934">
        <ele>658</ele>
        <time>2022-04-01T19:38:31Z</time>
      </trkpt>
      <trkpt lat="45.91138" lon="3.84956">
        <ele>654</ele>
        <time>2022-04-01T19:38:46Z</time>
      </trkpt>
      <trkpt lat="45.91052" lon="3.8499">
        <ele>656</ele>
        <time>2022-04-01T19:39:02Z</time>
      </trkpt>
      <trkpt lat="45.91041" lon="3.84992">
        <ele>657</ele>
        <time>2022-04-01T19:39:04Z</time>
      </trkpt>
      <trkpt lat="45.91029" lon="3.84988">
        <ele>658</ele>
        <time>2022-04-01T19:39:06Z</time>
      </trkpt>
      <trkpt lat="45.91015" lon="3.84973">
        <ele>657</ele>
        <time>2022-04-01T19:39:10Z</time>
      </trkpt>
      <trkpt lat="45.90986" lon="3.84913">
        <ele>651</ele>
        <time>2022-04-01T19:39:19Z</time>
      </trkpt>
      <trkpt lat="45.90974" lon="3.84898">
        <ele>649</ele>
        <time>2022-04-01T19:39:21Z</time>
      </trkpt>
      <trkpt lat="45.90951" lon="3.84884">
        <ele>649</ele>
        <time>2022-04-01T19:39:26Z</time>
      </trkpt>
      <trkpt lat="45.90932" lon="3.84881">
        <ele>649</ele>
        <time>2022-04-01T19:39:29Z</time>
      </trkpt>
      <trkpt lat="45.90917" lon="3.84881">
        <ele>650</ele>
        <time>2022-04-01T19:39:32Z</time>
      </trkpt>
      <trkpt lat="45.90899" lon="3.8489">
        <ele>650</ele>
        <time>2022-04-01T19:39:35Z</time>
      </trkpt>
      <trkpt lat="45.90876" lon="3.84905">
        <ele>649</ele>
        <time>2022-04-01T19:39:40Z</time>
      </trkpt>
      <trkpt lat="45.90713" lon="3.85067">
        <ele>645</ele>
        <time>2022-04-01T19:40:15Z</time>
      </trkpt>
      <trkpt lat="45.90685" lon="3.85098">
        <ele>643</ele>
        <time>2022-04-01T19:40:21Z</time>
      </trkpt>
      <trkpt lat="45.90668" lon="3.8513">
        <ele>641</ele>
        <time>2022-04-01T19:40:26Z</time>
      </trkpt>
      <trkpt lat="45.90659" lon="3.85174">
        <ele>641</ele>
        <time>2022-04-01T19:40:32Z</time>
      </trkpt>
      <trkpt lat="45.90673" lon="3.85282">
        <ele>644</ele>
        <time>2022-04-01T19:40:46Z</time>
      </trkpt>
      <trkpt lat="45.90671" lon="3.85304">
        <ele>644</ele>
        <time>2022-04-01T19:40:48Z</time>
      </trkpt>
      <trkpt lat="45.90661" lon="3.8533">
        <ele>642</ele>
        <time>2022-04-01T19:40:52Z</time>
      </trkpt>
      <trkpt lat="45.9065" lon="3.85344">
        <ele>641</ele>
        <time>2022-04-01T19:40:55Z</time>
      </trkpt>
      <trkpt lat="45.90634" lon="3.85358">
        <ele>641</ele>
        <time>2022-04-01T19:40:58Z</time>
      </trkpt>
      <trkpt lat="45.90619" lon="3.8536">
        <ele>641</ele>
        <time>2022-04-01T19:41:01Z</time>
      </trkpt>
      <trkpt lat="45.90603" lon="3.85355">
        <ele>641</ele>
        <time>2022-04-01T19:41:04Z</time>
      </trkpt>
      <trkpt lat="45.9054" lon="3.85322">
        <ele>637</ele>
        <time>2022-04-01T19:41:15Z</time>
      </trkpt>
      <trkpt lat="45.90511" lon="3.85314">
        <ele>635</ele>
        <time>2022-04-01T19:41:21Z</time>
      </trkpt>
      <trkpt lat="45.90449" lon="3.85321">
        <ele>633</ele>
        <time>2022-04-01T19:41:32Z</time>
      </trkpt>
      <trkpt lat="45.90422" lon="3.85338">
        <ele>634</ele>
        <time>2022-04-01T19:41:37Z</time>
      </trkpt>
      <trkpt lat="45.9037" lon="3.85387">
        <ele>637</ele>
        <time>2022-04-01T19:41:48Z</time>
      </trkpt>
      <trkpt lat="45.90339" lon="3.85409">
        <ele>637</ele>
        <time>2022-04-01T19:41:54Z</time>
      </trkpt>
      <trkpt lat="45.90256" lon="3.85449">
        <ele>636</ele>
        <time>2022-04-01T19:42:10Z</time>
      </trkpt>
      <trkpt lat="45.90227" lon="3.85475">
        <ele>633</ele>
        <time>2022-04-01T19:42:16Z</time>
      </trkpt>
      <trkpt lat="45.90146" lon="3.85612">
        <ele>629</ele>
        <time>2022-04-01T19:42:38Z</time>
      </trkpt>
      <trkpt lat="45.90121" lon="3.8564">
        <ele>628</ele>
        <time>2022-04-01T19:42:44Z</time>
      </trkpt>
      <trkpt lat="45.90062" lon="3.85699">
        <ele>625</ele>
        <time>2022-04-01T19:42:57Z</time>
      </trkpt>
      <trkpt lat="45.90042" lon="3.85727">
        <ele>625</ele>
        <time>2022-04-01T19:43:02Z</time>
      </trkpt>
      <trkpt lat="45.90034" lon="3.85753">
        <ele>625</ele>
        <time>2022-04-01T19:43:05Z</time>
      </trkpt>
      <trkpt lat="45.90012" lon="3.8584">
        <ele>624</ele>
        <time>2022-04-01T19:43:17Z</time>
      </trkpt>
      <trkpt lat="45.89997" lon="3.85875">
        <ele>620</ele>
        <time>2022-04-01T19:43:22Z</time>
      </trkpt>
      <trkpt lat="45.89939" lon="3.85953">
        <ele>617</ele>
        <time>2022-04-01T19:43:36Z</time>
      </trkpt>
      <trkpt lat="45.8973" lon="3.8613">
        <ele>601</ele>
        <time>2022-04-01T19:44:19Z</time>
      </trkpt>
      <trkpt lat="45.896" lon="3.86246">
        <ele>589</ele>
        <time>2022-04-01T19:44:46Z</time>
      </trkpt>
      <trkpt lat="45.89576" lon="3.86284">
        <ele>588</ele>
        <time>2022-04-01T19:44:53Z</time>
      </trkpt>
      <trkpt lat="45.89567" lon="3.8631">
        <ele>588</ele>
        <time>2022-04-01T19:44:56Z</time>
      </trkpt>
      <trkpt lat="45.89564" lon="3.86347">
        <ele>590</ele>
        <time>2022-04-01T19:45:01Z</time>
      </trkpt>
      <trkpt lat="45.89562" lon="3.86392">
        <ele>592</ele>
        <time>2022-04-01T19:45:06Z</time>
      </trkpt>
      <trkpt lat="45.89555" lon="3.8642">
        <ele>593</ele>
        <time>2022-04-01T19:45:10Z</time>
      </trkpt>
      <trkpt lat="45.89538" lon="3.86439">
        <ele>593</ele>
        <time>2022-04-01T19:45:14Z</time>
      </trkpt>
      <trkpt lat="45.89518" lon="3.86446">
        <ele>593</ele>
        <time>2022-04-01T19:45:18Z</time>
      </trkpt>
      <trkpt lat="45.89488" lon="3.86445">
        <ele>593</ele>
        <time>2022-04-01T19:45:23Z</time>
      </trkpt>
      <trkpt lat="45.89462" lon="3.8645">
        <ele>594</ele>
        <time>2022-04-01T19:45:28Z</time>
      </trkpt>
      <trkpt lat="45.89444" lon="3.86459">
        <ele>595</ele>
        <time>2022-04-01T19:45:31Z</time>
      </trkpt>
      <trkpt lat="45.89428" lon="3.86475">
        <ele>596</ele>
        <time>2022-04-01T19:45:34Z</time>
      </trkpt>
      <trkpt lat="45.89414" lon="3.86497">
        <ele>598</ele>
        <time>2022-04-01T19:45:38Z</time>
      </trkpt>
      <trkpt lat="45.89402" lon="3.86528">
        <ele>598</ele>
        <time>2022-04-01T19:45:42Z</time>
      </trkpt>
      <trkpt lat="45.89317" lon="3.86849">
        <ele>599</ele>
        <time>2022-04-01T19:46:25Z</time>
      </trkpt>
      <trkpt lat="45.89316" lon="3.86865">
        <ele>598</ele>
        <time>2022-04-01T19:46:27Z</time>
      </trkpt>
      <trkpt lat="45.8932" lon="3.86885">
        <ele>598</ele>
        <time>2022-04-01T19:46:30Z</time>
      </trkpt>
      <trkpt lat="45.89329" lon="3.86902">
        <ele>599</ele>
        <time>2022-04-01T19:46:32Z</time>
      </trkpt>
      <trkpt lat="45.89348" lon="3.86928">
        <ele>600</ele>
        <time>2022-04-01T19:46:37Z</time>
      </trkpt>
      <trkpt lat="45.89385" lon="3.86968">
        <ele>601</ele>
        <time>2022-04-01T19:46:45Z</time>
      </trkpt>
      <trkpt lat="45.89396" lon="3.86997">
        <ele>601</ele>
        <time>2022-04-01T19:46:49Z</time>
      </trkpt>
      <trkpt lat="45.89394" lon="3.87016">
        <ele>602</ele>
        <time>2022-04-01T19:46:52Z</time>
      </trkpt>
      <trkpt lat="45.89388" lon="3.87033">
        <ele>603</ele>
        <time>2022-04-01T19:46:54Z</time>
      </trkpt>
      <trkpt lat="45.89378" lon="3.87045">
        <ele>603</ele>
        <time>2022-04-01T19:46:56Z</time>
      </trkpt>
      <trkpt lat="45.89329" lon="3.87074">
        <ele>601</ele>
        <time>2022-04-01T19:47:06Z</time>
      </trkpt>
      <trkpt lat="45.89274" lon="3.87117">
        <ele>603</ele>
        <time>2022-04-01T19:47:17Z</time>
      </trkpt>
      <trkpt lat="45.89258" lon="3.87134">
        <ele>603</ele>
        <time>2022-04-01T19:47:20Z</time>
      </trkpt>
      <trkpt lat="45.89244" lon="3.87155">
        <ele>603</ele>
        <time>2022-04-01T19:47:24Z</time>
      </trkpt>
      <trkpt lat="45.89232" lon="3.87184">
        <ele>603</ele>
        <time>2022-04-01T19:47:28Z</time>
      </trkpt>
      <trkpt lat="45.89225" lon="3.87215">
        <ele>603</ele>
        <time>2022-04-01T19:47:32Z</time>
      </trkpt>
      <trkpt lat="45.89216" lon="3.87283">
        <ele>608</ele>
        <time>2022-04-01T19:47:41Z</time>
      </trkpt>
      <trkpt lat="45.89213" lon="3.87297">
        <ele>609</ele>
        <time>2022-04-01T19:47:43Z</time>
      </trkpt>
      <trkpt lat="45.89206" lon="3.87313">
        <ele>610</ele>
        <time>2022-04-01T19:47:45Z</time>
      </trkpt>
      <trkpt lat="45.89187" lon="3.87332">
        <ele>608</ele>
        <time>2022-04-01T19:47:49Z</time>
      </trkpt>
      <trkpt lat="45.89051" lon="3.87452">
        <ele>615</ele>
        <time>2022-04-01T19:48:17Z</time>
      </trkpt>
      <trkpt lat="45.88973" lon="3.87506">
        <ele>619</ele>
        <time>2022-04-01T19:48:33Z</time>
      </trkpt>
      <trkpt lat="45.8893" lon="3.8754">
        <ele>621</ele>
        <time>2022-04-01T19:48:42Z</time>
      </trkpt>
      <trkpt lat="45.88883" lon="3.87596">
        <ele>618</ele>
        <time>2022-04-01T19:48:52Z</time>
      </trkpt>
      <trkpt lat="45.88836" lon="3.87675">
        <ele>615</ele>
        <time>2022-04-01T19:49:05Z</time>
      </trkpt>
      <trkpt lat="45.88809" lon="3.87731">
        <ele>612</ele>
        <time>2022-04-01T19:49:14Z</time>
      </trkpt>
      <trkpt lat="45.88787" lon="3.87787">
        <ele>609</ele>
        <time>2022-04-01T19:49:22Z</time>
      </trkpt>
      <trkpt lat="45.8877" lon="3.8784">
        <ele>609</ele>
        <time>2022-04-01T19:49:29Z</time>
      </trkpt>
      <trkpt lat="45.8876" lon="3.87878">
        <ele>609</ele>
        <time>2022-04-01T19:49:34Z</time>
      </trkpt>
      <trkpt lat="45.88754" lon="3.8791">
        <ele>610</ele>
        <time>2022-04-01T19:49:38Z</time>
      </trkpt>
      <trkpt lat="45.88752" lon="3.87928">
        <ele>610</ele>
        <time>2022-04-01T19:49:40Z</time>
      </trkpt>
      <trkpt lat="45.88754" lon="3.88016">
        <ele>607</ele>
        <time>2022-04-01T19:49:51Z</time>
      </trkpt>
      <trkpt lat="45.88746" lon="3.88053">
        <ele>606</ele>
        <time>2022-04-01T19:49:56Z</time>
      </trkpt>
      <trkpt lat="45.88669" lon="3.88212">
        <ele>597</ele>
        <time>2022-04-01T19:50:20Z</time>
      </trkpt>
      <trkpt lat="45.88661" lon="3.88246">
        <ele>598</ele>
        <time>2022-04-01T19:50:24Z</time>
      </trkpt>
      <trkpt lat="45.8866" lon="3.88276">
        <ele>598</ele>
        <time>2022-04-01T19:50:28Z</time>
      </trkpt>
      <trkpt lat="45.88661" lon="3.88323">
        <ele>598</ele>
        <time>2022-04-01T19:50:34Z</time>
      </trkpt>
      <trkpt lat="45.8866" lon="3.88337">
        <ele>598</ele>
        <time>2022-04-01T19:50:36Z</time>
      </trkpt>
      <trkpt lat="45.88657" lon="3.88353">
        <ele>598</ele>
        <time>2022-04-01T19:50:38Z</time>
      </trkpt>
      <trkpt lat="45.88652" lon="3.88367">
        <ele>598</ele>
        <time>2022-04-01T19:50:40Z</time>
      </trkpt>
      <trkpt lat="45.88636" lon="3.88393">
        <ele>598</ele>
        <time>2022-04-01T19:50:44Z</time>
      </trkpt>
      <trkpt lat="45.88627" lon="3.88402">
        <ele>597</ele>
        <time>2022-04-01T19:50:46Z</time>
      </trkpt>
      <trkpt lat="45.88615" lon="3.8841">
        <ele>596</ele>
        <time>2022-04-01T19:50:48Z</time>
      </trkpt>
      <trkpt lat="45.88594" lon="3.88415">
        <ele>594</ele>
        <time>2022-04-01T19:50:52Z</time>
      </trkpt>
      <trkpt lat="45.88558" lon="3.88418">
        <ele>589</ele>
        <time>2022-04-01T19:50:59Z</time>
      </trkpt>
      <trkpt lat="45.88536" lon="3.88425">
        <ele>586</ele>
        <time>2022-04-01T19:51:03Z</time>
      </trkpt>
      <trkpt lat="45.88525" lon="3.88433">
        <ele>585</ele>
        <time>2022-04-01T19:51:05Z</time>
      </trkpt>
      <trkpt lat="45.88466" lon="3.88486">
        <ele>578</ele>
        <time>2022-04-01T19:51:17Z</time>
      </trkpt>
      <trkpt lat="45.88458" lon="3.88495">
        <ele>577</ele>
        <time>2022-04-01T19:51:19Z</time>
      </trkpt>
      <trkpt lat="45.88451" lon="3.88507">
        <ele>575</ele>
        <time>2022-04-01T19:51:21Z</time>
      </trkpt>
      <trkpt lat="45.88446" lon="3.88522">
        <ele>574</ele>
        <time>2022-04-01T19:51:23Z</time>
      </trkpt>
      <trkpt lat="45.88444" lon="3.88538">
        <ele>573</ele>
        <time>2022-04-01T19:51:25Z</time>
      </trkpt>
      <trkpt lat="45.88445" lon="3.88574">
        <ele>571</ele>
        <time>2022-04-01T19:51:29Z</time>
      </trkpt>
      <trkpt lat="45.88448" lon="3.88589">
        <ele>571</ele>
        <time>2022-04-01T19:51:31Z</time>
      </trkpt>
      <trkpt lat="45.88455" lon="3.88605">
        <ele>571</ele>
        <time>2022-04-01T19:51:34Z</time>
      </trkpt>
      <trkpt lat="45.88464" lon="3.88615">
        <ele>573</ele>
        <time>2022-04-01T19:51:36Z</time>
      </trkpt>
      <trkpt lat="45.8849" lon="3.88633">
        <ele>577</ele>
        <time>2022-04-01T19:51:41Z</time>
      </trkpt>
      <trkpt lat="45.885" lon="3.88645">
        <ele>579</ele>
        <time>2022-04-01T19:51:43Z</time>
      </trkpt>
      <trkpt lat="45.88504" lon="3.88658">
        <ele>578</ele>
        <time>2022-04-01T19:51:45Z</time>
      </trkpt>
      <trkpt lat="45.88506" lon="3.88679">
        <ele>578</ele>
        <time>2022-04-01T19:51:48Z</time>
      </trkpt>
      <trkpt lat="45.88502" lon="3.88717">
        <ele>574</ele>
        <time>2022-04-01T19:51:52Z</time>
      </trkpt>
      <trkpt lat="45.88495" lon="3.88758">
        <ele>570</ele>
        <time>2022-04-01T19:51:58Z</time>
      </trkpt>
      <trkpt lat="45.88489" lon="3.88783">
        <ele>568</ele>
        <time>2022-04-01T19:52:01Z</time>
      </trkpt>
      <trkpt lat="45.88465" lon="3.8885">
        <ele>559</ele>
        <time>2022-04-01T19:52:10Z</time>
      </trkpt>
      <trkpt lat="45.88459" lon="3.88871">
        <ele>558</ele>
        <time>2022-04-01T19:52:13Z</time>
      </trkpt>
      <trkpt lat="45.88457" lon="3.88886">
        <ele>557</ele>
        <time>2022-04-01T19:52:15Z</time>
      </trkpt>
      <trkpt lat="45.88461" lon="3.88908">
        <ele>558</ele>
        <time>2022-04-01T19:52:18Z</time>
      </trkpt>
      <trkpt lat="45.8848" lon="3.88939">
        <ele>561</ele>
        <time>2022-04-01T19:52:23Z</time>
      </trkpt>
      <trkpt lat="45.88485" lon="3.88964">
        <ele>561</ele>
        <time>2022-04-01T19:52:26Z</time>
      </trkpt>
      <trkpt lat="45.88484" lon="3.88977">
        <ele>560</ele>
        <time>2022-04-01T19:52:28Z</time>
      </trkpt>
      <trkpt lat="45.88475" lon="3.89002">
        <ele>558</ele>
        <time>2022-04-01T19:52:31Z</time>
      </trkpt>
      <trkpt lat="45.8841" lon="3.89128">
        <ele>550</ele>
        <time>2022-04-01T19:52:51Z</time>
      </trkpt>
      <trkpt lat="45.88398" lon="3.89142">
        <ele>549</ele>
        <time>2022-04-01T19:52:53Z</time>
      </trkpt>
      <trkpt lat="45.88361" lon="3.89161">
        <ele>545</ele>
        <time>2022-04-01T19:53:00Z</time>
      </trkpt>
      <trkpt lat="45.88354" lon="3.89166">
        <ele>545</ele>
        <time>2022-04-01T19:53:02Z</time>
      </trkpt>
      <trkpt lat="45.8834" lon="3.89185">
        <ele>543</ele>
        <time>2022-04-01T19:53:05Z</time>
      </trkpt>
      <trkpt lat="45.88292" lon="3.89271">
        <ele>538</ele>
        <time>2022-04-01T19:53:19Z</time>
      </trkpt>
      <trkpt lat="45.88286" lon="3.89285">
        <ele>538</ele>
        <time>2022-04-01T19:53:21Z</time>
      </trkpt>
      <trkpt lat="45.88279" lon="3.89313">
        <ele>538</ele>
        <time>2022-04-01T19:53:24Z</time>
      </trkpt>
      <trkpt lat="45.88274" lon="3.89324">
        <ele>538</ele>
        <time>2022-04-01T19:53:26Z</time>
      </trkpt>
      <trkpt lat="45.88256" lon="3.89346">
        <ele>538</ele>
        <time>2022-04-01T19:53:30Z</time>
      </trkpt>
      <trkpt lat="45.88232" lon="3.89367">
        <ele>539</ele>
        <time>2022-04-01T19:53:35Z</time>
      </trkpt>
      <trkpt lat="45.88219" lon="3.89383">
        <ele>539</ele>
        <time>2022-04-01T19:53:38Z</time>
      </trkpt>
      <trkpt lat="45.8818" lon="3.89446">
        <ele>541</ele>
        <time>2022-04-01T19:53:49Z</time>
      </trkpt>
      <trkpt lat="45.8817" lon="3.89455">
        <ele>541</ele>
        <time>2022-04-01T19:53:51Z</time>
      </trkpt>
      <trkpt lat="45.88008" lon="3.89554">
        <ele>539</ele>
        <time>2022-04-01T19:54:22Z</time>
      </trkpt>
      <trkpt lat="45.87881" lon="3.89675">
        <ele>536</ele>
        <time>2022-04-01T19:54:49Z</time>
      </trkpt>
      <trkpt lat="45.87862" lon="3.89714">
        <ele>536</ele>
        <time>2022-04-01T19:54:55Z</time>
      </trkpt>
      <trkpt lat="45.87731" lon="3.90045">
        <ele>536</ele>
        <time>2022-04-01T19:55:42Z</time>
      </trkpt>
      <trkpt lat="45.87711" lon="3.90129">
        <ele>539</ele>
        <time>2022-04-01T19:55:53Z</time>
      </trkpt>
      <trkpt lat="45.87702" lon="3.90163">
        <ele>539</ele>
        <time>2022-04-01T19:55:58Z</time>
      </trkpt>
      <trkpt lat="45.87689" lon="3.90195">
        <ele>539</ele>
        <time>2022-04-01T19:56:02Z</time>
      </trkpt>
      <trkpt lat="45.87646" lon="3.90284">
        <ele>538</ele>
        <time>2022-04-01T19:56:16Z</time>
      </trkpt>
      <trkpt lat="45.87627" lon="3.90318">
        <ele>538</ele>
        <time>2022-04-01T19:56:21Z</time>
      </trkpt>
      <trkpt lat="45.87588" lon="3.90373">
        <ele>533</ele>
        <time>2022-04-01T19:56:31Z</time>
      </trkpt>
      <trkpt lat="45.87555" lon="3.90434">
        <ele>532</ele>
        <time>2022-04-01T19:56:41Z</time>
      </trkpt>
      <trkpt lat="45.87536" lon="3.90492">
        <ele>530</ele>
        <time>2022-04-01T19:56:49Z</time>
      </trkpt>
      <trkpt lat="45.87529" lon="3.90539">
        <ele>530</ele>
        <time>2022-04-01T19:56:54Z</time>
      </trkpt>
      <trkpt lat="45.87521" lon="3.9061">
        <ele>531</ele>
        <time>2022-04-01T19:57:03Z</time>
      </trkpt>
      <trkpt lat="45.87514" lon="3.90656">
        <ele>532</ele>
        <time>2022-04-01T19:57:09Z</time>
      </trkpt>
      <trkpt lat="45.87462" lon="3.90896">
        <ele>530</ele>
        <time>2022-04-01T19:57:40Z</time>
      </trkpt>
      <trkpt lat="45.87451" lon="3.90934">
        <ele>530</ele>
        <time>2022-04-01T19:57:45Z</time>
      </trkpt>
      <trkpt lat="45.87439" lon="3.90959">
        <ele>530</ele>
        <time>2022-04-01T19:57:49Z</time>
      </trkpt>
      <trkpt lat="45.87424" lon="3.90976">
        <ele>529</ele>
        <time>2022-04-01T19:57:53Z</time>
      </trkpt>
      <trkpt lat="45.87396" lon="3.90996">
        <ele>529</ele>
        <time>2022-04-01T19:57:58Z</time>
      </trkpt>
      <trkpt lat="45.87374" lon="3.91016">
        <ele>529</ele>
        <time>2022-04-01T19:58:03Z</time>
      </trkpt>
      <trkpt lat="45.87358" lon="3.91044">
        <ele>529</ele>
        <time>2022-04-01T19:58:07Z</time>
      </trkpt>
      <trkpt lat="45.8735" lon="3.91073">
        <ele>529</ele>
        <time>2022-04-01T19:58:11Z</time>
      </trkpt>
      <trkpt lat="45.87349" lon="3.91106">
        <ele>530</ele>
        <time>2022-04-01T19:58:15Z</time>
      </trkpt>
      <trkpt lat="45.87365" lon="3.91275">
        <ele>536</ele>
        <time>2022-04-01T19:58:36Z</time>
      </trkpt>
      <trkpt lat="45.87371" lon="3.91303">
        <ele>536</ele>
        <time>2022-04-01T19:58:40Z</time>
      </trkpt>
      <trkpt lat="45.87381" lon="3.91321">
        <ele>536</ele>
        <time>2022-04-01T19:58:43Z</time>
      </trkpt>
      <trkpt lat="45.87398" lon="3.91339">
        <ele>536</ele>
        <time>2022-04-01T19:58:47Z</time>
      </trkpt>
      <trkpt lat="45.87432" lon="3.91357">
        <ele>536</ele>
        <time>2022-04-01T19:58:53Z</time>
      </trkpt>
      <trkpt lat="45.87448" lon="3.91372">
        <ele>536</ele>
        <time>2022-04-01T19:58:56Z</time>
      </trkpt>
      <trkpt lat="45.87454" lon="3.91383">
        <ele>536</ele>
        <time>2022-04-01T19:58:58Z</time>
      </trkpt>
      <trkpt lat="45.87458" lon="3.91398">
        <ele>537</ele>
        <time>2022-04-01T19:59:00Z</time>
      </trkpt>
      <trkpt lat="45.8746" lon="3.91407">
        <ele>537</ele>
        <time>2022-04-01T19:59:01Z</time>
      </trkpt>
      <trkpt lat="45.87461" lon="3.91429">
        <ele>538</ele>
        <time>2022-04-01T19:59:04Z</time>
      </trkpt>
      <trkpt lat="45.87464" lon="3.91709">
        <ele>552</ele>
        <time>2022-04-01T19:59:39Z</time>
      </trkpt>
      <trkpt lat="45.87462" lon="3.91739">
        <ele>553</ele>
        <time>2022-04-01T19:59:43Z</time>
      </trkpt>
      <trkpt lat="45.87447" lon="3.91825">
        <ele>556</ele>
        <time>2022-04-01T19:59:54Z</time>
      </trkpt>
      <trkpt lat="45.87438" lon="3.91925">
        <ele>560</ele>
        <time>2022-04-01T20:00:06Z</time>
      </trkpt>
      <trkpt lat="45.87438" lon="3.91967">
        <ele>562</ele>
        <time>2022-04-01T20:00:11Z</time>
      </trkpt>
      <trkpt lat="45.87444" lon="3.92024">
        <ele>565</ele>
        <time>2022-04-01T20:00:18Z</time>
      </trkpt>
      <trkpt lat="45.87445" lon="3.92045">
        <ele>565</ele>
        <time>2022-04-01T20:00:21Z</time>
      </trkpt>
      <trkpt lat="45.87442" lon="3.92069">
        <ele>566</ele>
        <time>2022-04-01T20:00:24Z</time>
      </trkpt>
      <trkpt lat="45.87428" lon="3.92096">
        <ele>566</ele>
        <time>2022-04-01T20:00:28Z</time>
      </trkpt>
      <trkpt lat="45.8738" lon="3.9216">
        <ele>568</ele>
        <time>2022-04-01T20:00:40Z</time>
      </trkpt>
      <trkpt lat="45.8732" lon="3.92278">
        <ele>572</ele>
        <time>2022-04-01T20:00:58Z</time>
      </trkpt>
      <trkpt lat="45.8729" lon="3.92361">
        <ele>578</ele>
        <time>2022-04-01T20:01:09Z</time>
      </trkpt>
      <trkpt lat="45.87261" lon="3.92486">
        <ele>586</ele>
        <time>2022-04-01T20:01:26Z</time>
      </trkpt>
      <trkpt lat="45.87244" lon="3.92536">
        <ele>587</ele>
        <time>2022-04-01T20:01:33Z</time>
      </trkpt>
      <trkpt lat="45.87224" lon="3.92572">
        <ele>589</ele>
        <time>2022-04-01T20:01:38Z</time>
      </trkpt>
      <trkpt lat="45.87195" lon="3.92608">
        <ele>589</ele>
        <time>2022-04-01T20:01:45Z</time>
      </trkpt>
      <trkpt lat="45.87175" lon="3.92627">
        <ele>589</ele>
        <time>2022-04-01T20:01:50Z</time>
      </trkpt>
      <trkpt lat="45.87138" lon="3.92649">
        <ele>590</ele>
        <time>2022-04-01T20:01:57Z</time>
      </trkpt>
      <trkpt lat="45.87065" lon="3.92681">
        <ele>590</ele>
        <time>2022-04-01T20:02:10Z</time>
      </trkpt>
      <trkpt lat="45.87043" lon="3.9269">
        <ele>591</ele>
        <time>2022-04-01T20:02:14Z</time>
      </trkpt>
      <trkpt lat="45.87023" lon="3.92706">
        <ele>592</ele>
        <time>2022-04-01T20:02:18Z</time>
      </trkpt>
      <trkpt lat="45.86998" lon="3.92729">
        <ele>594</ele>
        <time>2022-04-01T20:02:24Z</time>
      </trkpt>
      <trkpt lat="45.86973" lon="3.92763">
        <ele>595</ele>
        <time>2022-04-01T20:02:30Z</time>
      </trkpt>
      <trkpt lat="45.86957" lon="3.92794">
        <ele>595</ele>
        <time>2022-04-01T20:02:35Z</time>
      </trkpt>
      <trkpt lat="45.86946" lon="3.92826">
        <ele>595</ele>
        <time>2022-04-01T20:02:39Z</time>
      </trkpt>
      <trkpt lat="45.86937" lon="3.9286">
        <ele>596</ele>
        <time>2022-04-01T20:02:43Z</time>
      </trkpt>
      <trkpt lat="45.86928" lon="3.92918">
        <ele>596</ele>
        <time>2022-04-01T20:02:51Z</time>
      </trkpt>
      <trkpt lat="45.86868" lon="3.93402">
        <ele>579</ele>
        <time>2022-04-01T20:03:52Z</time>
      </trkpt>
      <trkpt lat="45.86861" lon="3.93473">
        <ele>573</ele>
        <time>2022-04-01T20:04:01Z</time>
      </trkpt>
      <trkpt lat="45.86839" lon="3.93798">
        <ele>565</ele>
        <time>2022-04-01T20:04:41Z</time>
      </trkpt>
      <trkpt lat="45.86819" lon="3.93972">
        <ele>563</ele>
        <time>2022-04-01T20:05:03Z</time>
      </trkpt>
      <trkpt lat="45.86779" lon="3.94109">
        <ele>559</ele>
        <time>2022-04-01T20:05:21Z</time>
      </trkpt>
      <trkpt lat="45.86622" lon="3.94335">
        <ele>551</ele>
        <time>2022-04-01T20:06:01Z</time>
      </trkpt>
      <trkpt lat="45.86584" lon="3.94402">
        <ele>551</ele>
        <time>2022-04-01T20:06:12Z</time>
      </trkpt>
      <trkpt lat="45.8657" lon="3.94439">
        <ele>551</ele>
        <time>2022-04-01T20:06:17Z</time>
      </trkpt>
      <trkpt lat="45.86536" lon="3.94573">
        <ele>550</ele>
        <time>2022-04-01T20:06:34Z</time>
      </trkpt>
      <trkpt lat="45.8651" lon="3.9465">
        <ele>549</ele>
        <time>2022-04-01T20:06:45Z</time>
      </trkpt>
      <trkpt lat="45.86379" lon="3.95">
        <ele>550</ele>
        <time>2022-04-01T20:07:34Z</time>
      </trkpt>
      <trkpt lat="45.86312" lon="3.95117">
        <ele>555</ele>
        <time>2022-04-01T20:07:53Z</time>
      </trkpt>
      <trkpt lat="45.86283" lon="3.9517">
        <ele>555</ele>
        <time>2022-04-01T20:08:01Z</time>
      </trkpt>
      <trkpt lat="45.86272" lon="3.95184">
        <ele>555</ele>
        <time>2022-04-01T20:08:04Z</time>
      </trkpt>
      <trkpt lat="45.86261" lon="3.95223">
        <ele>556</ele>
        <time>2022-04-01T20:08:09Z</time>
      </trkpt>
      <trkpt lat="45.86228" lon="3.9528">
        <ele>560</ele>
        <time>2022-04-01T20:08:18Z</time>
      </trkpt>
      <trkpt lat="45.8621" lon="3.95305">
        <ele>561</ele>
        <time>2022-04-01T20:08:23Z</time>
      </trkpt>
      <trkpt lat="45.86183" lon="3.95349">
        <ele>563</ele>
        <time>2022-04-01T20:08:30Z</time>
      </trkpt>
      <trkpt lat="45.86159" lon="3.95363">
        <ele>563</ele>
        <time>2022-04-01T20:08:35Z</time>
      </trkpt>
      <trkpt lat="45.86126" lon="3.95397">
        <ele>561</ele>
        <time>2022-04-01T20:08:42Z</time>
      </trkpt>
      <trkpt lat="45.86084" lon="3.95458">
        <ele>559</ele>
        <time>2022-04-01T20:08:53Z</time>
      </trkpt>
      <trkpt lat="45.86041" lon="3.9553">
        <ele>558</ele>
        <time>2022-04-01T20:09:04Z</time>
      </trkpt>
      <trkpt lat="45.86009" lon="3.95608">
        <ele>555</ele>
        <time>2022-04-01T20:09:16Z</time>
      </trkpt>
      <trkpt lat="45.85968" lon="3.95718">
        <ele>550</ele>
        <time>2022-04-01T20:09:31Z</time>
      </trkpt>
      <trkpt lat="45.85966" lon="3.95756">
        <ele>548</ele>
        <time>2022-04-01T20:09:36Z</time>
      </trkpt>
      <trkpt lat="45.85969" lon="3.95791">
        <ele>546</ele>
        <time>2022-04-01T20:09:40Z</time>
      </trkpt>
      <trkpt lat="45.85939" lon="3.95791">
        <ele>547</ele>
        <time>2022-04-01T20:09:45Z</time>
      </trkpt>
      <trkpt lat="45.85931" lon="3.95817">
        <ele>546</ele>
        <time>2022-04-01T20:09:49Z</time>
      </trkpt>
      <trkpt lat="45.85906" lon="3.95884">
        <ele>546</ele>
        <time>2022-04-01T20:09:58Z</time>
      </trkpt>
      <trkpt lat="45.85883" lon="3.95924">
        <ele>546</ele>
        <time>2022-04-01T20:10:05Z</time>
      </trkpt>
      <trkpt lat="45.85836" lon="3.95995">
        <ele>546</ele>
        <time>2022-04-01T20:10:17Z</time>
      </trkpt>
      <trkpt lat="45.85788" lon="3.96146">
        <ele>540</ele>
        <time>2022-04-01T20:10:38Z</time>
      </trkpt>
      <trkpt lat="45.85721" lon="3.96285">
        <ele>536</ele>
        <time>2022-04-01T20:10:59Z</time>
      </trkpt>
      <trkpt lat="45.857" lon="3.96344">
        <ele>535</ele>
        <time>2022-04-01T20:11:07Z</time>
      </trkpt>
      <trkpt lat="45.85682" lon="3.96405">
        <ele>533</ele>
        <time>2022-04-01T20:11:15Z</time>
      </trkpt>
      <trkpt lat="45.85654" lon="3.96483">
        <ele>532</ele>
        <time>2022-04-01T20:11:26Z</time>
      </trkpt>
      <trkpt lat="45.85594" lon="3.96628">
        <ele>531</ele>
        <time>2022-04-01T20:11:47Z</time>
      </trkpt>
      <trkpt lat="45.85531" lon="3.96771">
        <ele>526</ele>
        <time>2022-04-01T20:12:08Z</time>
      </trkpt>
      <trkpt lat="45.85495" lon="3.96847">
        <ele>523</ele>
        <time>2022-04-01T20:12:19Z</time>
      </trkpt>
      <trkpt lat="45.85434" lon="3.96932">
        <ele>519</ele>
        <time>2022-04-01T20:12:34Z</time>
      </trkpt>
      <trkpt lat="45.8539" lon="3.97005">
        <ele>518</ele>
        <time>2022-04-01T20:12:46Z</time>
      </trkpt>
      <trkpt lat="45.85321" lon="3.97179">
        <ele>522</ele>
        <time>2022-04-01T20:13:11Z</time>
      </trkpt>
      <trkpt lat="45.85275" lon="3.9733">
        <ele>521</ele>
        <time>2022-04-01T20:13:31Z</time>
      </trkpt>
      <trkpt lat="45.85249" lon="3.97463">
        <ele>520</ele>
        <time>2022-04-01T20:13:49Z</time>
      </trkpt>
      <trkpt lat="45.85232" lon="3.97736">
        <ele>523</ele>
        <time>2022-04-01T20:14:22Z</time>
      </trkpt>
      <trkpt lat="45.85195" lon="3.97923">
        <ele>525</ele>
        <time>2022-04-01T20:14:47Z</time>
      </trkpt>
      <trkpt lat="45.85144" lon="3.98134">
        <ele>520</ele>
        <time>2022-04-01T20:15:14Z</time>
      </trkpt>
      <trkpt lat="45.85096" lon="3.98306">
        <ele>514</ele>
        <time>2022-04-01T20:15:37Z</time>
      </trkpt>
      <trkpt lat="45.85017" lon="3.98487">
        <ele>508</ele>
        <time>2022-04-01T20:16:04Z</time>
      </trkpt>
      <trkpt lat="45.8499" lon="3.98558">
        <ele>506</ele>
        <time>2022-04-01T20:16:14Z</time>
      </trkpt>
      <trkpt lat="45.84967" lon="3.98635">
        <ele>504</ele>
        <time>2022-04-01T20:16:24Z</time>
      </trkpt>
      <trkpt lat="45.84931" lon="3.98742">
        <ele>502</ele>
        <time>2022-04-01T20:16:39Z</time>
      </trkpt>
      <trkpt lat="45.84905" lon="3.98839">
        <ele>501</ele>
        <time>2022-04-01T20:16:52Z</time>
      </trkpt>
      <trkpt lat="45.84818" lon="3.99185">
        <ele>492</ele>
        <time>2022-04-01T20:17:37Z</time>
      </trkpt>
      <trkpt lat="45.84798" lon="3.99422">
        <ele>486</ele>
        <time>2022-04-01T20:18:07Z</time>
      </trkpt>
      <trkpt lat="45.84793" lon="3.99474">
        <ele>485</ele>
        <time>2022-04-01T20:18:13Z</time>
      </trkpt>
      <trkpt lat="45.84756" lon="3.99599">
        <ele>488</ele>
        <time>2022-04-01T20:18:30Z</time>
      </trkpt>
      <trkpt lat="45.84737" lon="3.9962">
        <ele>487</ele>
        <time>2022-04-01T20:18:34Z</time>
      </trkpt>
      <trkpt lat="45.84656" lon="3.99727">
        <ele>488</ele>
        <time>2022-04-01T20:18:54Z</time>
      </trkpt>
      <trkpt lat="45.84642" lon="3.99759">
        <ele>488</ele>
        <time>2022-04-01T20:18:59Z</time>
      </trkpt>
      <trkpt lat="45.84634" lon="3.99803">
        <ele>488</ele>
        <time>2022-04-01T20:19:04Z</time>
      </trkpt>
      <trkpt lat="45.84627" lon="3.99901">
        <ele>488</ele>
        <time>2022-04-01T20:19:17Z</time>
      </trkpt>
      <trkpt lat="45.84617" lon="3.99945">
        <ele>488</ele>
        <time>2022-04-01T20:19:22Z</time>
      </trkpt>
      <trkpt lat="45.84603" lon="3.99986">
        <ele>488</ele>
        <time>2022-04-01T20:19:28Z</time>
      </trkpt>
      <trkpt lat="45.84532" lon="4.00135">
        <ele>485</ele>
        <time>2022-04-01T20:19:50Z</time>
      </trkpt>
      <trkpt lat="45.84504" lon="4.00201">
        <ele>484</ele>
        <time>2022-04-01T20:20:00Z</time>
      </trkpt>
      <trkpt lat="45.84463" lon="4.00256">
        <ele>481</ele>
        <time>2022-04-01T20:20:10Z</time>
      </trkpt>
      <trkpt lat="45.84409" lon="4.00324">
        <ele>475</ele>
        <time>2022-04-01T20:20:23Z</time>
      </trkpt>
      <trkpt lat="45.84363" lon="4.00393">
        <ele>472</ele>
        <time>2022-04-01T20:20:35Z</time>
      </trkpt>
      <trkpt lat="45.84306" lon="4.00461">
        <ele>470</ele>
        <time>2022-04-01T20:20:48Z</time>
      </trkpt>
      <trkpt lat="45.84243" lon="4.00529">
        <ele>466</ele>
        <time>2022-04-01T20:21:02Z</time>
      </trkpt>
      <trkpt lat="45.84056" lon="4.00676">
        <ele>461</ele>
        <time>2022-04-01T20:21:40Z</time>
      </trkpt>
      <trkpt lat="45.83975" lon="4.00729">
        <ele>460</ele>
        <time>2022-04-01T20:21:56Z</time>
      </trkpt>
      <trkpt lat="45.83909" lon="4.00763">
        <ele>458</ele>
        <time>2022-04-01T20:22:08Z</time>
      </trkpt>
      <trkpt lat="45.83724" lon="4.00822">
        <ele>455</ele>
        <time>2022-04-01T20:22:42Z</time>
      </trkpt>
      <trkpt lat="45.83661" lon="4.00831">
        <ele>455</ele>
        <time>2022-04-01T20:22:53Z</time>
      </trkpt>
      <trkpt lat="45.83594" lon="4.00833">
        <ele>452</ele>
        <time>2022-04-01T20:23:05Z</time>
      </trkpt>
      <trkpt lat="45.83567" lon="4.00818">
        <ele>451</ele>
        <time>2022-04-01T20:23:10Z</time>
      </trkpt>
      <trkpt lat="45.83506" lon="4.0076">
        <ele>445</ele>
        <time>2022-04-01T20:23:23Z</time>
      </trkpt>
      <trkpt lat="45.83479" lon="4.00751">
        <ele>442</ele>
        <time>2022-04-01T20:23:28Z</time>
      </trkpt>
      <trkpt lat="45.83442" lon="4.00756">
        <ele>439</ele>
        <time>2022-04-01T20:23:35Z</time>
      </trkpt>
      <trkpt lat="45.83414" lon="4.00774">
        <ele>439</ele>
        <time>2022-04-01T20:23:40Z</time>
      </trkpt>
      <trkpt lat="45.83387" lon="4.00806">
        <ele>439</ele>
        <time>2022-04-01T20:23:46Z</time>
      </trkpt>
      <trkpt lat="45.83358" lon="4.0083">
        <ele>438</ele>
        <time>2022-04-01T20:23:52Z</time>
      </trkpt>
      <trkpt lat="45.83311" lon="4.00849">
        <ele>434</ele>
        <time>2022-04-01T20:24:01Z</time>
      </trkpt>
      <trkpt lat="45.83259" lon="4.00864">
        <ele>428</ele>
        <time>2022-04-01T20:24:10Z</time>
      </trkpt>
      <trkpt lat="45.83233" lon="4.0089">
        <ele>427</ele>
        <time>2022-04-01T20:24:16Z</time>
      </trkpt>
      <trkpt lat="45.83216" lon="4.00918">
        <ele>427</ele>
        <time>2022-04-01T20:24:21Z</time>
      </trkpt>
      <trkpt lat="45.83198" lon="4.00968">
        <ele>426</ele>
        <time>2022-04-01T20:24:28Z</time>
      </trkpt>
      <trkpt lat="45.83188" lon="4.01029">
        <ele>427</ele>
        <time>2022-04-01T20:24:35Z</time>
      </trkpt>
      <trkpt lat="45.83177" lon="4.01083">
        <ele>426</ele>
        <time>2022-04-01T20:24:42Z</time>
      </trkpt>
      <trkpt lat="45.83128" lon="4.01276">
        <ele>427</ele>
        <time>2022-04-01T20:25:08Z</time>
      </trkpt>
      <trkpt lat="45.83108" lon="4.01394">
        <ele>424</ele>
        <time>2022-04-01T20:25:23Z</time>
      </trkpt>
      <trkpt lat="45.83098" lon="4.01477">
        <ele>421</ele>
        <time>2022-04-01T20:25:33Z</time>
      </trkpt>
      <trkpt lat="45.83098" lon="4.01491">
        <ele>420</ele>
        <time>2022-04-01T20:25:35Z</time>
      </trkpt>
      <trkpt lat="45.83101" lon="4.01505">
        <ele>419</ele>
        <time>2022-04-01T20:25:37Z</time>
      </trkpt>
      <trkpt lat="45.83118" lon="4.01544">
        <ele>417</ele>
        <time>2022-04-01T20:25:43Z</time>
      </trkpt>
      <trkpt lat="45.83138" lon="4.01579">
        <ele>415</ele>
        <time>2022-04-01T20:25:48Z</time>
      </trkpt>
      <trkpt lat="45.83152" lon="4.01611">
        <ele>413</ele>
        <time>2022-04-01T20:25:53Z</time>
      </trkpt>
      <trkpt lat="45.83157" lon="4.01634">
        <ele>412</ele>
        <time>2022-04-01T20:25:56Z</time>
      </trkpt>
      <trkpt lat="45.8316" lon="4.0166">
        <ele>411</ele>
        <time>2022-04-01T20:25:59Z</time>
      </trkpt>
      <trkpt lat="45.83159" lon="4.01695">
        <ele>409</ele>
        <time>2022-04-01T20:26:03Z</time>
      </trkpt>
      <trkpt lat="45.83161" lon="4.01714">
        <ele>408</ele>
        <time>2022-04-01T20:26:06Z</time>
      </trkpt>
      <trkpt lat="45.83164" lon="4.01735">
        <ele>407</ele>
        <time>2022-04-01T20:26:09Z</time>
      </trkpt>
      <trkpt lat="45.83241" lon="4.02084">
        <ele>388</ele>
        <time>2022-04-01T20:26:54Z</time>
      </trkpt>
      <trkpt lat="45.83257" lon="4.02148">
        <ele>385</ele>
        <time>2022-04-01T20:27:02Z</time>
      </trkpt>
      <trkpt lat="45.83266" lon="4.02197">
        <ele>382</ele>
        <time>2022-04-01T20:27:09Z</time>
      </trkpt>
      <trkpt lat="45.83268" lon="4.0225">
        <ele>379</ele>
        <time>2022-04-01T20:27:15Z</time>
      </trkpt>
      <trkpt lat="45.83253" lon="4.02279">
        <ele>377</ele>
        <time>2022-04-01T20:27:20Z</time>
      </trkpt>
      <trkpt lat="45.83226" lon="4.0229">
        <ele>376</ele>
        <time>2022-04-01T20:27:25Z</time>
      </trkpt>
      <trkpt lat="45.83197" lon="4.0228">
        <ele>376</ele>
        <time>2022-04-01T20:27:30Z</time>
      </trkpt>
      <trkpt lat="45.83019" lon="4.02142">
        <ele>366</ele>
        <time>2022-04-01T20:28:06Z</time>
      </trkpt>
      <trkpt lat="45.83002" lon="4.02138">
        <ele>364</ele>
        <time>2022-04-01T20:28:09Z</time>
      </trkpt>
      <trkpt lat="45.82989" lon="4.02137">
        <ele>363</ele>
        <time>2022-04-01T20:28:11Z</time>
      </trkpt>
      <trkpt lat="45.82961" lon="4.02141">
        <ele>362</ele>
        <time>2022-04-01T20:28:16Z</time>
      </trkpt>
      <trkpt lat="45.8294" lon="4.02152">
        <ele>361</ele>
        <time>2022-04-01T20:28:20Z</time>
      </trkpt>
      <trkpt lat="45.82912" lon="4.02163">
        <ele>361</ele>
        <time>2022-04-01T20:28:26Z</time>
      </trkpt>
      <trkpt lat="45.82888" lon="4.02167">
        <ele>363</ele>
        <time>2022-04-01T20:28:30Z</time>
      </trkpt>
      <trkpt lat="45.82882" lon="4.02195">
        <ele>364</ele>
        <time>2022-04-01T20:28:33Z</time>
      </trkpt>
      <trkpt lat="45.82885" lon="4.02258">
        <ele>363</ele>
        <time>2022-04-01T20:28:41Z</time>
      </trkpt>
      <trkpt lat="45.82881" lon="4.02288">
        <ele>363</ele>
        <time>2022-04-01T20:28:45Z</time>
      </trkpt>
      <trkpt lat="45.82864" lon="4.02343">
        <ele>363</ele>
        <time>2022-04-01T20:28:53Z</time>
      </trkpt>
      <trkpt lat="45.82791" lon="4.02546">
        <ele>359</ele>
        <time>2022-04-01T20:29:21Z</time>
      </trkpt>
      <trkpt lat="45.82764" lon="4.02602">
        <ele>359</ele>
        <time>2022-04-01T20:29:29Z</time>
      </trkpt>
      <trkpt lat="45.82681" lon="4.02744">
        <ele>360</ele>
        <time>2022-04-01T20:29:52Z</time>
      </trkpt>
      <trkpt lat="45.82637" lon="4.02811">
        <ele>358</ele>
        <time>2022-04-01T20:30:04Z</time>
      </trkpt>
      <trkpt lat="45.82566" lon="4.02928">
        <ele>357</ele>
        <time>2022-04-01T20:30:23Z</time>
      </trkpt>
      <trkpt lat="45.82266" lon="4.03292">
        <ele>356</ele>
        <time>2022-04-01T20:31:33Z</time>
      </trkpt>
      <trkpt lat="45.82243" lon="4.03325">
        <ele>357</ele>
        <time>2022-04-01T20:31:39Z</time>
      </trkpt>
      <trkpt lat="45.82215" lon="4.03344">
        <ele>356</ele>
        <time>2022-04-01T20:31:44Z</time>
      </trkpt>
      <trkpt lat="45.82206" lon="4.03347">
        <ele>356</ele>
        <time>2022-04-01T20:31:46Z</time>
      </trkpt>
      <trkpt lat="45.822" lon="4.03355">
        <ele>356</ele>
        <time>2022-04-01T20:31:47Z</time>
      </trkpt>
      <trkpt lat="45.82196" lon="4.03365">
        <ele>356</ele>
        <time>2022-04-01T20:31:49Z</time>
      </trkpt>
      <trkpt lat="45.82196" lon="4.03385">
        <ele>356</ele>
        <time>2022-04-01T20:31:51Z</time>
      </trkpt>
      <trkpt lat="45.82203" lon="4.03398">
        <ele>355</ele>
        <time>2022-04-01T20:31:53Z</time>
      </trkpt>
      <trkpt lat="45.82216" lon="4.03404">
        <ele>355</ele>
        <time>2022-04-01T20:31:56Z</time>
      </trkpt>
      <trkpt lat="45.82234" lon="4.03467">
        <ele>354</ele>
        <time>2022-04-01T20:32:04Z</time>
      </trkpt>
      <trkpt lat="45.82134" lon="4.05827">
        <ele>342</ele>
        <time>2022-04-01T20:36:57Z</time>
      </trkpt>
      <trkpt lat="45.82107" lon="4.06299">
        <ele>339</ele>
        <time>2022-04-01T20:37:56Z</time>
      </trkpt>
      <trkpt lat="45.82095" lon="4.06629">
        <ele>338</ele>
        <time>2022-04-01T20:38:37Z</time>
      </trkpt>
      <trkpt lat="45.82086" lon="4.06689">
        <ele>337</ele>
        <time>2022-04-01T20:38:45Z</time>
      </trkpt>
      <trkpt lat="45.82074" lon="4.06749">
        <ele>337</ele>
        <time>2022-04-01T20:38:52Z</time>
      </trkpt>
      <trkpt lat="45.82038" lon="4.0688">
        <ele>337</ele>
        <time>2022-04-01T20:39:10Z</time>
      </trkpt>
      <trkpt lat="45.81904" lon="4.07287">
        <ele>337</ele>
        <time>2022-04-01T20:40:06Z</time>
      </trkpt>
      <trkpt lat="45.81704" lon="4.07911">
        <ele>341</ele>
        <time>2022-04-01T20:41:31Z</time>
      </trkpt>
      <trkpt lat="45.81642" lon="4.08133">
        <ele>341</ele>
        <time>2022-04-01T20:42:00Z</time>
      </trkpt>
      <trkpt lat="45.8163" lon="4.08447">
        <ele>343</ele>
        <time>2022-04-01T20:42:39Z</time>
      </trkpt>
      <trkpt lat="45.81629" lon="4.08534">
        <ele>343</ele>
        <time>2022-04-01T20:42:50Z</time>
      </trkpt>
      <trkpt lat="45.81637" lon="4.08773">
        <ele>341</ele>
        <time>2022-04-01T20:43:20Z</time>
      </trkpt>
      <trkpt lat="45.81648" lon="4.09013">
        <ele>342</ele>
        <time>2022-04-01T20:43:50Z</time>
      </trkpt>
      <trkpt lat="45.81737" lon="4.10732">
        <ele>338</ele>
        <time>2022-04-01T20:47:23Z</time>
      </trkpt>
      <trkpt lat="45.81733" lon="4.10801">
        <ele>337</ele>
        <time>2022-04-01T20:47:32Z</time>
      </trkpt>
      <trkpt lat="45.8172" lon="4.10868">
        <ele>336</ele>
        <time>2022-04-01T20:47:41Z</time>
      </trkpt>
      <trkpt lat="45.81708" lon="4.10909">
        <ele>335</ele>
        <time>2022-04-01T20:47:46Z</time>
      </trkpt>
      <trkpt lat="45.8162" lon="4.11115">
        <ele>334</ele>
        <time>2022-04-01T20:48:16Z</time>
      </trkpt>
      <trkpt lat="45.81591" lon="4.11218">
        <ele>338</ele>
        <time>2022-04-01T20:48:30Z</time>
      </trkpt>
      <trkpt lat="45.81487" lon="4.116">
        <ele>337</ele>
        <time>2022-04-01T20:49:21Z</time>
      </trkpt>
      <trkpt lat="45.81465" lon="4.11689">
        <ele>339</ele>
        <time>2022-04-01T20:49:32Z</time>
      </trkpt>
      <trkpt lat="45.80953" lon="4.13562">
        <ele>364</ele>
        <time>2022-04-01T20:53:42Z</time>
      </trkpt>
      <trkpt lat="45.80733" lon="4.13823">
        <ele>368</ele>
        <time>2022-04-01T20:54:33Z</time>
      </trkpt>
      <trkpt lat="45.8069" lon="4.13878">
        <ele>368</ele>
        <time>2022-04-01T20:54:43Z</time>
      </trkpt>
      <trkpt lat="45.8068" lon="4.13912">
        <ele>368</ele>
        <time>2022-04-01T20:54:48Z</time>
      </trkpt>
      <trkpt lat="45.80585" lon="4.14337">
        <ele>360</ele>
        <time>2022-04-01T20:55:43Z</time>
      </trkpt>
      <trkpt lat="45.80505" lon="4.14714">
        <ele>360</ele>
        <time>2022-04-01T20:56:32Z</time>
      </trkpt>
      <trkpt lat="45.80491" lon="4.14865">
        <ele>358</ele>
        <time>2022-04-01T20:56:51Z</time>
      </trkpt>
      <trkpt lat="45.80484" lon="4.14906">
        <ele>357</ele>
        <time>2022-04-01T20:56:56Z</time>
      </trkpt>
      <trkpt lat="45.80477" lon="4.14984">
        <ele>357</ele>
        <time>2022-04-01T20:57:06Z</time>
      </trkpt>
      <trkpt lat="45.80477" lon="4.15025">
        <ele>356</ele>
        <time>2022-04-01T20:57:11Z</time>
      </trkpt>
      <trkpt lat="45.8048" lon="4.15073">
        <ele>356</ele>
        <time>2022-04-01T20:57:17Z</time>
      </trkpt>
      <trkpt lat="45.8048" lon="4.15106">
        <ele>355</ele>
        <time>2022-04-01T20:57:21Z</time>
      </trkpt>
      <trkpt lat="45.80465" lon="4.15241">
        <ele>352</ele>
        <time>2022-04-01T20:57:38Z</time>
      </trkpt>
      <trkpt lat="45.80484" lon="4.15312">
        <ele>350</ele>
        <time>2022-04-01T20:57:47Z</time>
      </trkpt>
      <trkpt lat="45.80515" lon="4.15383">
        <ele>346</ele>
        <time>2022-04-01T20:57:58Z</time>
      </trkpt>
      <trkpt lat="45.80553" lon="4.15458">
        <ele>343</ele>
        <time>2022-04-01T20:58:09Z</time>
      </trkpt>
      <trkpt lat="45.80585" lon="4.15517">
        <ele>341</ele>
        <time>2022-04-01T20:58:18Z</time>
      </trkpt>
      <trkpt lat="45.80593" lon="4.15548">
        <ele>339</ele>
        <time>2022-04-01T20:58:23Z</time>
      </trkpt>
      <trkpt lat="45.80601" lon="4.15604">
        <ele>337</ele>
        <time>2022-04-01T20:58:30Z</time>
      </trkpt>
      <trkpt lat="45.80603" lon="4.15612">
        <ele>336</ele>
        <time>2022-04-01T20:58:31Z</time>
      </trkpt>
      <trkpt lat="45.80534" lon="4.15665">
        <ele>336</ele>
        <time>2022-04-01T20:58:45Z</time>
      </trkpt>
      <trkpt lat="45.80505" lon="4.15671">
        <ele>337</ele>
        <time>2022-04-01T20:58:50Z</time>
      </trkpt>
      <trkpt lat="45.80489" lon="4.15683">
        <ele>338</ele>
        <time>2022-04-01T20:58:53Z</time>
      </trkpt>
      <trkpt lat="45.8048" lon="4.15695">
        <ele>338</ele>
        <time>2022-04-01T20:58:55Z</time>
      </trkpt>
      <trkpt lat="45.80444" lon="4.15753">
        <ele>338</ele>
        <time>2022-04-01T20:59:05Z</time>
      </trkpt>
      <trkpt lat="45.80433" lon="4.15763">
        <ele>337</ele>
        <time>2022-04-01T20:59:07Z</time>
      </trkpt>
      <trkpt lat="45.80365" lon="4.15782">
        <ele>338</ele>
        <time>2022-04-01T20:59:19Z</time>
      </trkpt>
      <trkpt lat="45.80324" lon="4.15796">
        <ele>339</ele>
        <time>2022-04-01T20:59:27Z</time>
      </trkpt>
      <trkpt lat="45.79944" lon="4.15931">
        <ele>341</ele>
        <time>2022-04-01T21:00:37Z</time>
      </trkpt>
      <trkpt lat="45.79815" lon="4.15984">
        <ele>340</ele>
        <time>2022-04-01T21:01:00Z</time>
      </trkpt>
      <trkpt lat="45.79687" lon="4.16045">
        <ele>337</ele>
        <time>2022-04-01T21:01:24Z</time>
      </trkpt>
      <trkpt lat="45.79416" lon="4.16196">
        <ele>339</ele>
        <time>2022-04-01T21:02:16Z</time>
      </trkpt>
      <trkpt lat="45.79368" lon="4.16237">
        <ele>338</ele>
        <time>2022-04-01T21:02:26Z</time>
      </trkpt>
      <trkpt lat="45.79274" lon="4.16338">
        <ele>341</ele>
        <time>2022-04-01T21:02:47Z</time>
      </trkpt>
      <trkpt lat="45.78857" lon="4.16712">
        <ele>344</ele>
        <time>2022-04-01T21:04:15Z</time>
      </trkpt>
      <trkpt lat="45.78521" lon="4.17033">
        <ele>340</ele>
        <time>2022-04-01T21:05:26Z</time>
      </trkpt>
      <trkpt lat="45.78422" lon="4.17124">
        <ele>340</ele>
        <time>2022-04-01T21:05:47Z</time>
      </trkpt>
      <trkpt lat="45.78386" lon="4.17145">
        <ele>341</ele>
        <time>2022-04-01T21:05:54Z</time>
      </trkpt>
      <trkpt lat="45.78237" lon="4.17205">
        <ele>351</ele>
        <time>2022-04-01T21:06:22Z</time>
      </trkpt>
      <trkpt lat="45.78046" lon="4.17298">
        <ele>357</ele>
        <time>2022-04-01T21:06:58Z</time>
      </trkpt>
      <trkpt lat="45.77893" lon="4.17363">
        <ele>359</ele>
        <time>2022-04-01T21:07:26Z</time>
      </trkpt>
      <trkpt lat="45.77523" lon="4.17512">
        <ele>362</ele>
        <time>2022-04-01T21:08:34Z</time>
      </trkpt>
      <trkpt lat="45.77261" lon="4.17586">
        <ele>361</ele>
        <time>2022-04-01T21:09:22Z</time>
      </trkpt>
      <trkpt lat="45.76653" lon="4.17744">
        <ele>349</ele>
        <time>2022-04-01T21:11:12Z</time>
      </trkpt>
      <trkpt lat="45.76346" lon="4.17827">
        <ele>344</ele>
        <time>2022-04-01T21:12:07Z</time>
      </trkpt>
      <trkpt lat="45.76198" lon="4.17895">
        <ele>342</ele>
        <time>2022-04-01T21:12:35Z</time>
      </trkpt>
      <trkpt lat="45.76049" lon="4.17959">
        <ele>339</ele>
        <time>2022-04-01T21:13:03Z</time>
      </trkpt>
      <trkpt lat="45.75892" lon="4.18032">
        <ele>338</ele>
        <time>2022-04-01T21:13:32Z</time>
      </trkpt>
      <trkpt lat="45.75834" lon="4.18069">
        <ele>338</ele>
        <time>2022-04-01T21:13:43Z</time>
      </trkpt>
      <trkpt lat="45.75729" lon="4.18153">
        <ele>334</ele>
        <time>2022-04-01T21:14:05Z</time>
      </trkpt>
      <trkpt lat="45.75721" lon="4.18158">
        <ele>334</ele>
        <time>2022-04-01T21:14:06Z</time>
      </trkpt>
      <trkpt lat="45.75701" lon="4.18176">
        <ele>334</ele>
        <time>2022-04-01T21:14:11Z</time>
      </trkpt>
      <trkpt lat="45.75645" lon="4.18236">
        <ele>333</ele>
        <time>2022-04-01T21:14:23Z</time>
      </trkpt>
      <trkpt lat="45.75606" lon="4.18267">
        <ele>333</ele>
        <time>2022-04-01T21:14:31Z</time>
      </trkpt>
      <trkpt lat="45.75539" lon="4.1831">
        <ele>333</ele>
        <time>2022-04-01T21:14:44Z</time>
      </trkpt>
      <trkpt lat="45.75463" lon="4.18328">
        <ele>332</ele>
        <time>2022-04-01T21:14:58Z</time>
      </trkpt>
      <trkpt lat="45.75425" lon="4.18343">
        <ele>331</ele>
        <time>2022-04-01T21:15:05Z</time>
      </trkpt>
      <trkpt lat="45.75403" lon="4.1836">
        <ele>331</ele>
        <time>2022-04-01T21:15:09Z</time>
      </trkpt>
      <trkpt lat="45.75323" lon="4.1844">
        <ele>331</ele>
        <time>2022-04-01T21:15:27Z</time>
      </trkpt>
      <trkpt lat="45.7529" lon="4.18504">
        <ele>330</ele>
        <time>2022-04-01T21:15:36Z</time>
      </trkpt>
      <trkpt lat="45.7528" lon="4.18531">
        <ele>330</ele>
        <time>2022-04-01T21:15:40Z</time>
      </trkpt>
      <trkpt lat="45.75274" lon="4.18557">
        <ele>329</ele>
        <time>2022-04-01T21:15:44Z</time>
      </trkpt>
      <trkpt lat="45.75262" lon="4.18643">
        <ele>327</ele>
        <time>2022-04-01T21:15:55Z</time>
      </trkpt>
      <trkpt lat="45.75242" lon="4.18687">
        <ele>326</ele>
        <time>2022-04-01T21:16:01Z</time>
      </trkpt>
      <trkpt lat="45.75087" lon="4.18948">
        <ele>330</ele>
        <time>2022-04-01T21:16:44Z</time>
      </trkpt>
      <trkpt lat="45.75036" lon="4.19036">
        <ele>327</ele>
        <time>2022-04-01T21:16:58Z</time>
      </trkpt>
      <trkpt lat="45.75004" lon="4.19086">
        <ele>325</ele>
        <time>2022-04-01T21:17:06Z</time>
      </trkpt>
      <trkpt lat="45.74923" lon="4.19291">
        <ele>324</ele>
        <time>2022-04-01T21:17:36Z</time>
      </trkpt>
      <trkpt lat="45.74916" lon="4.19307">
        <ele>324</ele>
        <time>2022-04-01T21:17:38Z</time>
      </trkpt>
      <trkpt lat="45.74624" lon="4.20039">
        <ele>326</ele>
        <time>2022-04-01T21:19:23Z</time>
      </trkpt>
      <trkpt lat="45.74603" lon="4.20079">
        <ele>325</ele>
        <time>2022-04-01T21:19:29Z</time>
      </trkpt>
      <trkpt lat="45.74577" lon="4.2011">
        <ele>325</ele>
        <time>2022-04-01T21:19:35Z</time>
      </trkpt>
      <trkpt lat="45.74547" lon="4.20128">
        <ele>326</ele>
        <time>2022-04-01T21:19:41Z</time>
      </trkpt>
      <trkpt lat="45.74479" lon="4.20154">
        <ele>327</ele>
        <time>2022-04-01T21:19:53Z</time>
      </trkpt>
      <trkpt lat="45.74304" lon="4.20226">
        <ele>329</ele>
        <time>2022-04-01T21:20:25Z</time>
      </trkpt>
      <trkpt lat="45.74285" lon="4.2023">
        <ele>329</ele>
        <time>2022-04-01T21:20:29Z</time>
      </trkpt>
      <trkpt lat="45.74242" lon="4.20227">
        <ele>329</ele>
        <time>2022-04-01T21:20:37Z</time>
      </trkpt>
      <trkpt lat="45.74212" lon="4.20239">
        <ele>329</ele>
        <time>2022-04-01T21:20:42Z</time>
      </trkpt>
      <trkpt lat="45.74217" lon="4.20261">
        <ele>329</ele>
        <time>2022-04-01T21:20:45Z</time>
      </trkpt>
      <trkpt lat="45.74233" lon="4.20244">
        <ele>329</ele>
        <time>2022-04-01T21:20:49Z</time>
      </trkpt>
      <trkpt lat="45.74246" lon="4.20235">
        <ele>329</ele>
        <time>2022-04-01T21:20:51Z</time>
      </trkpt>
      <trkpt lat="45.74265" lon="4.20229">
        <ele>329</ele>
        <time>2022-04-01T21:20:55Z</time>
      </trkpt>
      <trkpt lat="45.74242" lon="4.20227">
        <ele>329</ele>
        <time>2022-04-01T21:20:59Z</time>
      </trkpt>
      <trkpt lat="45.74212" lon="4.20239">
        <ele>329</ele>
        <time>2022-04-01T21:21:04Z</time>
      </trkpt>
      <trkpt lat="45.74269" lon="4.20512">
        <ele>327</ele>
        <time>2022-04-01T21:21:40Z</time>
      </trkpt>
      <trkpt lat="45.74282" lon="4.20584">
        <ele>327</ele>
        <time>2022-04-01T21:21:49Z</time>
      </trkpt>
      <trkpt lat="45.74288" lon="4.20626">
        <ele>328</ele>
        <time>2022-04-01T21:21:54Z</time>
      </trkpt>
      <trkpt lat="45.74284" lon="4.20711">
        <ele>329</ele>
        <time>2022-04-01T21:22:05Z</time>
      </trkpt>
      <trkpt lat="45.7428" lon="4.20749">
        <ele>330</ele>
        <time>2022-04-01T21:22:09Z</time>
      </trkpt>
      <trkpt lat="45.74256" lon="4.20871">
        <ele>328</ele>
        <time>2022-04-01T21:22:25Z</time>
      </trkpt>
      <trkpt lat="45.74232" lon="4.20967">
        <ele>327</ele>
        <time>2022-04-01T21:22:38Z</time>
      </trkpt>
      <trkpt lat="45.7423" lon="4.20993">
        <ele>327</ele>
        <time>2022-04-01T21:22:41Z</time>
      </trkpt>
      <trkpt lat="45.74232" lon="4.21041">
        <ele>327</ele>
        <time>2022-04-01T21:22:47Z</time>
      </trkpt>
      <trkpt lat="45.74259" lon="4.21327">
        <ele>330</ele>
        <time>2022-04-01T21:23:23Z</time>
      </trkpt>
      <trkpt lat="45.7428" lon="4.21527">
        <ele>329</ele>
        <time>2022-04-01T21:23:48Z</time>
      </trkpt>
      <trkpt lat="45.74312" lon="4.21863">
        <ele>336</ele>
        <time>2022-04-01T21:24:30Z</time>
      </trkpt>
      <trkpt lat="45.74301" lon="4.21899">
        <ele>336</ele>
        <time>2022-04-01T21:24:35Z</time>
      </trkpt>
      <trkpt lat="45.74298" lon="4.21904">
        <ele>336</ele>
        <time>2022-04-01T21:24:36Z</time>
      </trkpt>
      <trkpt lat="45.74286" lon="4.2191">
        <ele>336</ele>
        <time>2022-04-01T21:24:38Z</time>
      </trkpt>
      <trkpt lat="45.74233" lon="4.21884">
        <ele>336</ele>
        <time>2022-04-01T21:24:48Z</time>
      </trkpt>
      <trkpt lat="45.74155" lon="4.21839">
        <ele>337</ele>
        <time>2022-04-01T21:25:03Z</time>
      </trkpt>
      <trkpt lat="45.74132" lon="4.21835">
        <ele>337</ele>
        <time>2022-04-01T21:25:07Z</time>
      </trkpt>
      <trkpt lat="45.73931" lon="4.21924">
        <ele>337</ele>
        <time>2022-04-01T21:25:45Z</time>
      </trkpt>
      <trkpt lat="45.73771" lon="4.21998">
        <ele>337</ele>
        <time>2022-04-01T21:26:15Z</time>
      </trkpt>
      <trkpt lat="45.73737" lon="4.22014">
        <ele>337</ele>
        <time>2022-04-01T21:26:21Z</time>
      </trkpt>
      <trkpt lat="45.73714" lon="4.22028">
        <ele>338</ele>
        <time>2022-04-01T21:26:25Z</time>
      </trkpt>
      <trkpt lat="45.73705" lon="4.22036">
        <ele>338</ele>
        <time>2022-04-01T21:26:27Z</time>
      </trkpt>
      <trkpt lat="45.73696" lon="4.22049">
        <ele>338</ele>
        <time>2022-04-01T21:26:29Z</time>
      </trkpt>
      <trkpt lat="45.73689" lon="4.22062">
        <ele>338</ele>
        <time>2022-04-01T21:26:32Z</time>
      </trkpt>
      <trkpt lat="45.73682" lon="4.22078">
        <ele>338</ele>
        <time>2022-04-01T21:26:34Z</time>
      </trkpt>
      <trkpt lat="45.73609" lon="4.22505">
        <ele>341</ele>
        <time>2022-04-01T21:27:28Z</time>
      </trkpt>
      <trkpt lat="45.73507" lon="4.2251">
        <ele>339</ele>
        <time>2022-04-01T21:27:47Z</time>
      </trkpt>
      <trkpt lat="45.73488" lon="4.22647">
        <ele>342</ele>
        <time>2022-04-01T21:28:04Z</time>
      </trkpt>
      <trkpt lat="45.73486" lon="4.22654">
        <ele>342</ele>
        <time>2022-04-01T21:28:05Z</time>
      </trkpt>
      <trkpt lat="45.73475" lon="4.22736">
        <ele>342</ele>
        <time>2022-04-01T21:28:15Z</time>
      </trkpt>
      <trkpt lat="45.7347" lon="4.22803">
        <ele>341</ele>
        <time>2022-04-01T21:28:24Z</time>
      </trkpt>
      <trkpt lat="45.7347" lon="4.2285">
        <ele>341</ele>
        <time>2022-04-01T21:28:29Z</time>
      </trkpt>
      <trkpt lat="45.73367" lon="4.22828">
        <ele>340</ele>
        <time>2022-04-01T21:28:48Z</time>
      </trkpt>
    </trkseg>
  </trk>
</gpx>